<?xml version="1.0" encoding="UTF-8" standalone="no" ?>
<gpx xmlns="http://www.topografix.com/GPX/1/1" xmlns:xsi="http://www.w3.org/2001/XMLSchema-instance" xsi:schemaLocation="http://www.topografix.com/GPX/1/1 http://www.topografix.com/GPX/1/1/gpx.xsd" version="1.1" creator="VisuGPX - https://www.visugpx.com">
  <metadata>
    <name>RANDO_VEZEZOUX_50KM</name>
  </metadata>
  <trk>
    <name><![CDATA[Afternoon ride - VTT]]></name>
    <extensions>
      <line xmlns="http://www.topografix.com/GPX/gpx_style/0/2">
        <color>0000FF</color>
        <width>4</width>
      </line>
    </extensions>
    <trkseg>
      <trkpt lat="45.40327" lon="3.34532">
        <ele>451.1</ele>
        <time>2025-10-04T11:28:09Z</time>
      </trkpt>
      <trkpt lat="45.40325" lon="3.34552">
        <ele>451.3</ele>
        <time>2025-10-04T11:28:10Z</time>
      </trkpt>
      <trkpt lat="45.40317" lon="3.34571">
        <ele>452.1</ele>
        <time>2025-10-04T11:28:14Z</time>
      </trkpt>
      <trkpt lat="45.40309" lon="3.34582">
        <ele>452.3</ele>
        <time>2025-10-04T11:28:15Z</time>
      </trkpt>
      <trkpt lat="45.40288" lon="3.34599">
        <ele>452.7</ele>
        <time>2025-10-04T11:28:16Z</time>
      </trkpt>
      <trkpt lat="45.40261" lon="3.34618">
        <ele>452.3</ele>
        <time>2025-10-04T11:28:17Z</time>
      </trkpt>
      <trkpt lat="45.40233" lon="3.34639">
        <ele>454.4</ele>
        <time>2025-10-04T11:28:18Z</time>
      </trkpt>
      <trkpt lat="45.40229" lon="3.34639">
        <ele>454.2</ele>
        <time>2025-10-04T11:28:19Z</time>
      </trkpt>
      <trkpt lat="45.40218" lon="3.34645">
        <ele>453.6</ele>
        <time>2025-10-04T11:28:21Z</time>
      </trkpt>
      <trkpt lat="45.40202" lon="3.34646">
        <ele>453</ele>
        <time>2025-10-04T11:28:23Z</time>
      </trkpt>
      <trkpt lat="45.40196" lon="3.34644">
        <ele>452.6</ele>
        <time>2025-10-04T11:28:24Z</time>
      </trkpt>
      <trkpt lat="45.40188" lon="3.3464">
        <ele>452.4</ele>
        <time>2025-10-04T11:28:25Z</time>
      </trkpt>
      <trkpt lat="45.40171" lon="3.3463">
        <ele>450.8</ele>
        <time>2025-10-04T11:28:27Z</time>
      </trkpt>
      <trkpt lat="45.40162" lon="3.34624">
        <ele>450.4</ele>
        <time>2025-10-04T11:28:28Z</time>
      </trkpt>
      <trkpt lat="45.40153" lon="3.34619">
        <ele>449.4</ele>
        <time>2025-10-04T11:28:29Z</time>
      </trkpt>
      <trkpt lat="45.40134" lon="3.34608">
        <ele>447.6</ele>
        <time>2025-10-04T11:28:31Z</time>
      </trkpt>
      <trkpt lat="45.40103" lon="3.34591">
        <ele>445.8</ele>
        <time>2025-10-04T11:28:34Z</time>
      </trkpt>
      <trkpt lat="45.40086" lon="3.34582">
        <ele>443.8</ele>
        <time>2025-10-04T11:28:36Z</time>
      </trkpt>
      <trkpt lat="45.40067" lon="3.34572">
        <ele>442.2</ele>
        <time>2025-10-04T11:28:38Z</time>
      </trkpt>
      <trkpt lat="45.40049" lon="3.34562">
        <ele>441</ele>
        <time>2025-10-04T11:28:40Z</time>
      </trkpt>
      <trkpt lat="45.40031" lon="3.3456">
        <ele>440</ele>
        <time>2025-10-04T11:28:42Z</time>
      </trkpt>
      <trkpt lat="45.40022" lon="3.34561">
        <ele>439.2</ele>
        <time>2025-10-04T11:28:43Z</time>
      </trkpt>
      <trkpt lat="45.39997" lon="3.34568">
        <ele>438</ele>
        <time>2025-10-04T11:28:46Z</time>
      </trkpt>
      <trkpt lat="45.39983" lon="3.34573">
        <ele>437.2</ele>
        <time>2025-10-04T11:28:48Z</time>
      </trkpt>
      <trkpt lat="45.39969" lon="3.34578">
        <ele>436.6</ele>
        <time>2025-10-04T11:28:50Z</time>
      </trkpt>
      <trkpt lat="45.39956" lon="3.34583">
        <ele>436.4</ele>
        <time>2025-10-04T11:28:52Z</time>
      </trkpt>
      <trkpt lat="45.3995" lon="3.34585">
        <ele>436.2</ele>
        <time>2025-10-04T11:28:53Z</time>
      </trkpt>
      <trkpt lat="45.39931" lon="3.34592">
        <ele>435.6</ele>
        <time>2025-10-04T11:28:56Z</time>
      </trkpt>
      <trkpt lat="45.39907" lon="3.34601">
        <ele>435.2</ele>
        <time>2025-10-04T11:29:00Z</time>
      </trkpt>
      <trkpt lat="45.39885" lon="3.34616">
        <ele>434.8</ele>
        <time>2025-10-04T11:29:04Z</time>
      </trkpt>
      <trkpt lat="45.39876" lon="3.34626">
        <ele>434.6</ele>
        <time>2025-10-04T11:29:06Z</time>
      </trkpt>
      <trkpt lat="45.39871" lon="3.34633">
        <ele>434.6</ele>
        <time>2025-10-04T11:29:07Z</time>
      </trkpt>
      <trkpt lat="45.39853" lon="3.34661">
        <ele>434.4</ele>
        <time>2025-10-04T11:29:11Z</time>
      </trkpt>
      <trkpt lat="45.39848" lon="3.34669">
        <ele>434.2</ele>
        <time>2025-10-04T11:29:12Z</time>
      </trkpt>
      <trkpt lat="45.39838" lon="3.34688">
        <ele>433.2</ele>
        <time>2025-10-04T11:29:14Z</time>
      </trkpt>
      <trkpt lat="45.39833" lon="3.34699">
        <ele>432.6</ele>
        <time>2025-10-04T11:29:15Z</time>
      </trkpt>
      <trkpt lat="45.39827" lon="3.34709">
        <ele>431.6</ele>
        <time>2025-10-04T11:29:16Z</time>
      </trkpt>
      <trkpt lat="45.39813" lon="3.34727">
        <ele>430.6</ele>
        <time>2025-10-04T11:29:18Z</time>
      </trkpt>
      <trkpt lat="45.39805" lon="3.34735">
        <ele>430</ele>
        <time>2025-10-04T11:29:19Z</time>
      </trkpt>
      <trkpt lat="45.39793" lon="3.34749">
        <ele>429</ele>
        <time>2025-10-04T11:29:21Z</time>
      </trkpt>
      <trkpt lat="45.39786" lon="3.34755">
        <ele>428.4</ele>
        <time>2025-10-04T11:29:22Z</time>
      </trkpt>
      <trkpt lat="45.3978" lon="3.3476">
        <ele>427.4</ele>
        <time>2025-10-04T11:29:23Z</time>
      </trkpt>
      <trkpt lat="45.39772" lon="3.34764">
        <ele>427</ele>
        <time>2025-10-04T11:29:24Z</time>
      </trkpt>
      <trkpt lat="45.39764" lon="3.34766">
        <ele>426.2</ele>
        <time>2025-10-04T11:29:25Z</time>
      </trkpt>
      <trkpt lat="45.39757" lon="3.34768">
        <ele>423.6</ele>
        <time>2025-10-04T11:29:26Z</time>
      </trkpt>
      <trkpt lat="45.39749" lon="3.3477">
        <ele>422.2</ele>
        <time>2025-10-04T11:29:27Z</time>
      </trkpt>
      <trkpt lat="45.39743" lon="3.34772">
        <ele>420.2</ele>
        <time>2025-10-04T11:29:28Z</time>
      </trkpt>
      <trkpt lat="45.39739" lon="3.34773">
        <ele>419.2</ele>
        <time>2025-10-04T11:29:29Z</time>
      </trkpt>
      <trkpt lat="45.39735" lon="3.34773">
        <ele>417.4</ele>
        <time>2025-10-04T11:29:30Z</time>
      </trkpt>
      <trkpt lat="45.39732" lon="3.34772">
        <ele>415.8</ele>
        <time>2025-10-04T11:29:31Z</time>
      </trkpt>
      <trkpt lat="45.39731" lon="3.34769">
        <ele>414</ele>
        <time>2025-10-04T11:29:32Z</time>
      </trkpt>
      <trkpt lat="45.39731" lon="3.34763">
        <ele>413</ele>
        <time>2025-10-04T11:29:34Z</time>
      </trkpt>
      <trkpt lat="45.39731" lon="3.3476">
        <ele>412.6</ele>
        <time>2025-10-04T11:29:35Z</time>
      </trkpt>
      <trkpt lat="45.39731" lon="3.34754">
        <ele>412.4</ele>
        <time>2025-10-04T11:29:37Z</time>
      </trkpt>
      <trkpt lat="45.39733" lon="3.34739">
        <ele>412.2</ele>
        <time>2025-10-04T11:29:41Z</time>
      </trkpt>
      <trkpt lat="45.39733" lon="3.34727">
        <ele>412.6</ele>
        <time>2025-10-04T11:29:44Z</time>
      </trkpt>
      <trkpt lat="45.39732" lon="3.34719">
        <ele>412.8</ele>
        <time>2025-10-04T11:29:46Z</time>
      </trkpt>
      <trkpt lat="45.39731" lon="3.34708">
        <ele>413</ele>
        <time>2025-10-04T11:29:49Z</time>
      </trkpt>
      <trkpt lat="45.39731" lon="3.34701">
        <ele>413.2</ele>
        <time>2025-10-04T11:29:51Z</time>
      </trkpt>
      <trkpt lat="45.3973" lon="3.3469">
        <ele>414.2</ele>
        <time>2025-10-04T11:29:54Z</time>
      </trkpt>
      <trkpt lat="45.39729" lon="3.3468">
        <ele>415</ele>
        <time>2025-10-04T11:29:57Z</time>
      </trkpt>
      <trkpt lat="45.39729" lon="3.34672">
        <ele>415.4</ele>
        <time>2025-10-04T11:29:59Z</time>
      </trkpt>
      <trkpt lat="45.3973" lon="3.34666">
        <ele>416.2</ele>
        <time>2025-10-04T11:30:01Z</time>
      </trkpt>
      <trkpt lat="45.39731" lon="3.34662">
        <ele>416.6</ele>
        <time>2025-10-04T11:30:02Z</time>
      </trkpt>
      <trkpt lat="45.39733" lon="3.34652">
        <ele>417.2</ele>
        <time>2025-10-04T11:30:05Z</time>
      </trkpt>
      <trkpt lat="45.39734" lon="3.34644">
        <ele>417.6</ele>
        <time>2025-10-04T11:30:07Z</time>
      </trkpt>
      <trkpt lat="45.39735" lon="3.34641">
        <ele>418</ele>
        <time>2025-10-04T11:30:08Z</time>
      </trkpt>
      <trkpt lat="45.39735" lon="3.34637">
        <ele>418.6</ele>
        <time>2025-10-04T11:30:09Z</time>
      </trkpt>
      <trkpt lat="45.39738" lon="3.34612">
        <ele>419.6</ele>
        <time>2025-10-04T11:30:15Z</time>
      </trkpt>
      <trkpt lat="45.39738" lon="3.34607">
        <ele>419.8</ele>
        <time>2025-10-04T11:30:16Z</time>
      </trkpt>
      <trkpt lat="45.3974" lon="3.34599">
        <ele>420.4</ele>
        <time>2025-10-04T11:30:18Z</time>
      </trkpt>
      <trkpt lat="45.39743" lon="3.34588">
        <ele>420.8</ele>
        <time>2025-10-04T11:30:21Z</time>
      </trkpt>
      <trkpt lat="45.39748" lon="3.34576">
        <ele>422</ele>
        <time>2025-10-04T11:30:24Z</time>
      </trkpt>
      <trkpt lat="45.39762" lon="3.34541">
        <ele>422.8</ele>
        <time>2025-10-04T11:30:33Z</time>
      </trkpt>
      <trkpt lat="45.39764" lon="3.3453">
        <ele>422.8</ele>
        <time>2025-10-04T11:30:36Z</time>
      </trkpt>
      <trkpt lat="45.39761" lon="3.34527">
        <ele>423</ele>
        <time>2025-10-04T11:30:37Z</time>
      </trkpt>
      <trkpt lat="45.39742" lon="3.34521">
        <ele>423</ele>
        <time>2025-10-04T11:30:42Z</time>
      </trkpt>
      <trkpt lat="45.39709" lon="3.34508">
        <ele>422</ele>
        <time>2025-10-04T11:30:50Z</time>
      </trkpt>
      <trkpt lat="45.39666" lon="3.34495">
        <ele>421.4</ele>
        <time>2025-10-04T11:31:00Z</time>
      </trkpt>
      <trkpt lat="45.39652" lon="3.34493">
        <ele>421</ele>
        <time>2025-10-04T11:31:03Z</time>
      </trkpt>
      <trkpt lat="45.3963" lon="3.34491">
        <ele>420.6</ele>
        <time>2025-10-04T11:31:08Z</time>
      </trkpt>
      <trkpt lat="45.39621" lon="3.3449">
        <ele>420.2</ele>
        <time>2025-10-04T11:31:10Z</time>
      </trkpt>
      <trkpt lat="45.39617" lon="3.3449">
        <ele>420.2</ele>
        <time>2025-10-04T11:31:11Z</time>
      </trkpt>
      <trkpt lat="45.39596" lon="3.34487">
        <ele>420.2</ele>
        <time>2025-10-04T11:31:16Z</time>
      </trkpt>
      <trkpt lat="45.39579" lon="3.34484">
        <ele>420</ele>
        <time>2025-10-04T11:31:20Z</time>
      </trkpt>
      <trkpt lat="45.39563" lon="3.34482">
        <ele>419.4</ele>
        <time>2025-10-04T11:31:24Z</time>
      </trkpt>
      <trkpt lat="45.39556" lon="3.34483">
        <ele>419</ele>
        <time>2025-10-04T11:31:26Z</time>
      </trkpt>
      <trkpt lat="45.39554" lon="3.34483">
        <ele>419</ele>
        <time>2025-10-04T11:31:27Z</time>
      </trkpt>
      <trkpt lat="45.39553" lon="3.34481">
        <ele>418.4</ele>
        <time>2025-10-04T11:31:28Z</time>
      </trkpt>
      <trkpt lat="45.39552" lon="3.34478">
        <ele>418.2</ele>
        <time>2025-10-04T11:31:29Z</time>
      </trkpt>
      <trkpt lat="45.39552" lon="3.34475">
        <ele>417.8</ele>
        <time>2025-10-04T11:31:30Z</time>
      </trkpt>
      <trkpt lat="45.39554" lon="3.34468">
        <ele>417.6</ele>
        <time>2025-10-04T11:31:32Z</time>
      </trkpt>
      <trkpt lat="45.39556" lon="3.34466">
        <ele>417.4</ele>
        <time>2025-10-04T11:31:33Z</time>
      </trkpt>
      <trkpt lat="45.39569" lon="3.34453">
        <ele>416.4</ele>
        <time>2025-10-04T11:31:37Z</time>
      </trkpt>
      <trkpt lat="45.39576" lon="3.34446">
        <ele>416.2</ele>
        <time>2025-10-04T11:31:39Z</time>
      </trkpt>
      <trkpt lat="45.39604" lon="3.34421">
        <ele>417</ele>
        <time>2025-10-04T11:31:47Z</time>
      </trkpt>
      <trkpt lat="45.39608" lon="3.34418">
        <ele>417.4</ele>
        <time>2025-10-04T11:31:48Z</time>
      </trkpt>
      <trkpt lat="45.39633" lon="3.34397">
        <ele>418.4</ele>
        <time>2025-10-04T11:31:55Z</time>
      </trkpt>
      <trkpt lat="45.39641" lon="3.34391">
        <ele>418.6</ele>
        <time>2025-10-04T11:31:57Z</time>
      </trkpt>
      <trkpt lat="45.39654" lon="3.34378">
        <ele>419.4</ele>
        <time>2025-10-04T11:32:01Z</time>
      </trkpt>
      <trkpt lat="45.39667" lon="3.34363">
        <ele>420.2</ele>
        <time>2025-10-04T11:32:05Z</time>
      </trkpt>
      <trkpt lat="45.3967" lon="3.34359">
        <ele>420.6</ele>
        <time>2025-10-04T11:32:06Z</time>
      </trkpt>
      <trkpt lat="45.3967" lon="3.34347">
        <ele>420.8</ele>
        <time>2025-10-04T11:32:08Z</time>
      </trkpt>
      <trkpt lat="45.39664" lon="3.34336">
        <ele>421</ele>
        <time>2025-10-04T11:32:10Z</time>
      </trkpt>
      <trkpt lat="45.39657" lon="3.34326">
        <ele>421</ele>
        <time>2025-10-04T11:32:12Z</time>
      </trkpt>
      <trkpt lat="45.39637" lon="3.34287">
        <ele>420.2</ele>
        <time>2025-10-04T11:32:18Z</time>
      </trkpt>
      <trkpt lat="45.39625" lon="3.34259">
        <ele>419.4</ele>
        <time>2025-10-04T11:32:22Z</time>
      </trkpt>
      <trkpt lat="45.39621" lon="3.34242">
        <ele>419.4</ele>
        <time>2025-10-04T11:32:24Z</time>
      </trkpt>
      <trkpt lat="45.3962" lon="3.34215">
        <ele>419.2</ele>
        <time>2025-10-04T11:32:27Z</time>
      </trkpt>
      <trkpt lat="45.39619" lon="3.34187">
        <ele>419</ele>
        <time>2025-10-04T11:32:30Z</time>
      </trkpt>
      <trkpt lat="45.3962" lon="3.3414">
        <ele>418.4</ele>
        <time>2025-10-04T11:32:35Z</time>
      </trkpt>
      <trkpt lat="45.39619" lon="3.3413">
        <ele>418.2</ele>
        <time>2025-10-04T11:32:36Z</time>
      </trkpt>
      <trkpt lat="45.39619" lon="3.34121">
        <ele>418.2</ele>
        <time>2025-10-04T11:32:37Z</time>
      </trkpt>
      <trkpt lat="45.39614" lon="3.34093">
        <ele>417.6</ele>
        <time>2025-10-04T11:32:40Z</time>
      </trkpt>
      <trkpt lat="45.39611" lon="3.34085">
        <ele>417.4</ele>
        <time>2025-10-04T11:32:41Z</time>
      </trkpt>
      <trkpt lat="45.39607" lon="3.34076">
        <ele>417.2</ele>
        <time>2025-10-04T11:32:42Z</time>
      </trkpt>
      <trkpt lat="45.39588" lon="3.34039">
        <ele>416.6</ele>
        <time>2025-10-04T11:32:47Z</time>
      </trkpt>
      <trkpt lat="45.39581" lon="3.34024">
        <ele>416.2</ele>
        <time>2025-10-04T11:32:49Z</time>
      </trkpt>
      <trkpt lat="45.3956" lon="3.33984">
        <ele>415.6</ele>
        <time>2025-10-04T11:32:55Z</time>
      </trkpt>
      <trkpt lat="45.39548" lon="3.33961">
        <ele>415.4</ele>
        <time>2025-10-04T11:32:58Z</time>
      </trkpt>
      <trkpt lat="45.39543" lon="3.33952">
        <ele>415.2</ele>
        <time>2025-10-04T11:32:59Z</time>
      </trkpt>
      <trkpt lat="45.39538" lon="3.33944">
        <ele>415</ele>
        <time>2025-10-04T11:33:00Z</time>
      </trkpt>
      <trkpt lat="45.39533" lon="3.33936">
        <ele>414.8</ele>
        <time>2025-10-04T11:33:01Z</time>
      </trkpt>
      <trkpt lat="45.39505" lon="3.33906">
        <ele>413.8</ele>
        <time>2025-10-04T11:33:05Z</time>
      </trkpt>
      <trkpt lat="45.39499" lon="3.339">
        <ele>413.4</ele>
        <time>2025-10-04T11:33:06Z</time>
      </trkpt>
      <trkpt lat="45.39486" lon="3.33887">
        <ele>412.2</ele>
        <time>2025-10-04T11:33:08Z</time>
      </trkpt>
      <trkpt lat="45.39467" lon="3.3387">
        <ele>411</ele>
        <time>2025-10-04T11:33:11Z</time>
      </trkpt>
      <trkpt lat="45.39456" lon="3.33859">
        <ele>410.4</ele>
        <time>2025-10-04T11:33:13Z</time>
      </trkpt>
      <trkpt lat="45.39438" lon="3.33842">
        <ele>409.8</ele>
        <time>2025-10-04T11:33:17Z</time>
      </trkpt>
      <trkpt lat="45.39435" lon="3.3384">
        <ele>409.8</ele>
        <time>2025-10-04T11:33:18Z</time>
      </trkpt>
      <trkpt lat="45.39431" lon="3.33836">
        <ele>409.8</ele>
        <time>2025-10-04T11:33:21Z</time>
      </trkpt>
      <trkpt lat="45.3943" lon="3.33835">
        <ele>409.8</ele>
        <time>2025-10-04T11:33:22Z</time>
      </trkpt>
      <trkpt lat="45.39427" lon="3.33831">
        <ele>409.8</ele>
        <time>2025-10-04T11:33:24Z</time>
      </trkpt>
      <trkpt lat="45.39421" lon="3.33826">
        <ele>410</ele>
        <time>2025-10-04T11:33:26Z</time>
      </trkpt>
      <trkpt lat="45.39417" lon="3.33823">
        <ele>410</ele>
        <time>2025-10-04T11:33:27Z</time>
      </trkpt>
      <trkpt lat="45.39406" lon="3.33811">
        <ele>409.8</ele>
        <time>2025-10-04T11:33:30Z</time>
      </trkpt>
      <trkpt lat="45.39393" lon="3.33799">
        <ele>410</ele>
        <time>2025-10-04T11:33:33Z</time>
      </trkpt>
      <trkpt lat="45.3936" lon="3.33767">
        <ele>410</ele>
        <time>2025-10-04T11:33:40Z</time>
      </trkpt>
      <trkpt lat="45.39336" lon="3.3374">
        <ele>409.4</ele>
        <time>2025-10-04T11:33:44Z</time>
      </trkpt>
      <trkpt lat="45.3933" lon="3.33732">
        <ele>409.2</ele>
        <time>2025-10-04T11:33:45Z</time>
      </trkpt>
      <trkpt lat="45.39325" lon="3.33722">
        <ele>408.8</ele>
        <time>2025-10-04T11:33:46Z</time>
      </trkpt>
      <trkpt lat="45.3931" lon="3.33693">
        <ele>408.2</ele>
        <time>2025-10-04T11:33:49Z</time>
      </trkpt>
      <trkpt lat="45.39301" lon="3.33674">
        <ele>407</ele>
        <time>2025-10-04T11:33:51Z</time>
      </trkpt>
      <trkpt lat="45.39291" lon="3.33646">
        <ele>406</ele>
        <time>2025-10-04T11:33:54Z</time>
      </trkpt>
      <trkpt lat="45.39289" lon="3.33637">
        <ele>405.8</ele>
        <time>2025-10-04T11:33:55Z</time>
      </trkpt>
      <trkpt lat="45.39287" lon="3.33627">
        <ele>405.8</ele>
        <time>2025-10-04T11:33:56Z</time>
      </trkpt>
      <trkpt lat="45.39287" lon="3.33607">
        <ele>405.6</ele>
        <time>2025-10-04T11:33:58Z</time>
      </trkpt>
      <trkpt lat="45.39289" lon="3.33598">
        <ele>405.6</ele>
        <time>2025-10-04T11:33:59Z</time>
      </trkpt>
      <trkpt lat="45.39304" lon="3.33522">
        <ele>405.4</ele>
        <time>2025-10-04T11:34:07Z</time>
      </trkpt>
      <trkpt lat="45.39316" lon="3.33465">
        <ele>405</ele>
        <time>2025-10-04T11:34:13Z</time>
      </trkpt>
      <trkpt lat="45.3932" lon="3.33446">
        <ele>405</ele>
        <time>2025-10-04T11:34:15Z</time>
      </trkpt>
      <trkpt lat="45.39323" lon="3.33427">
        <ele>404.8</ele>
        <time>2025-10-04T11:34:17Z</time>
      </trkpt>
      <trkpt lat="45.39333" lon="3.33359">
        <ele>404.2</ele>
        <time>2025-10-04T11:34:24Z</time>
      </trkpt>
      <trkpt lat="45.39347" lon="3.33284">
        <ele>404</ele>
        <time>2025-10-04T11:34:32Z</time>
      </trkpt>
      <trkpt lat="45.39352" lon="3.33257">
        <ele>404.2</ele>
        <time>2025-10-04T11:34:35Z</time>
      </trkpt>
      <trkpt lat="45.39369" lon="3.33187">
        <ele>404.8</ele>
        <time>2025-10-04T11:34:43Z</time>
      </trkpt>
      <trkpt lat="45.39382" lon="3.33128">
        <ele>405.6</ele>
        <time>2025-10-04T11:34:50Z</time>
      </trkpt>
      <trkpt lat="45.3938" lon="3.33083">
        <ele>405.6</ele>
        <time>2025-10-04T11:34:55Z</time>
      </trkpt>
      <trkpt lat="45.39378" lon="3.33074">
        <ele>405.6</ele>
        <time>2025-10-04T11:34:56Z</time>
      </trkpt>
      <trkpt lat="45.39376" lon="3.33066">
        <ele>405.4</ele>
        <time>2025-10-04T11:34:57Z</time>
      </trkpt>
      <trkpt lat="45.39358" lon="3.33018">
        <ele>405</ele>
        <time>2025-10-04T11:35:03Z</time>
      </trkpt>
      <trkpt lat="45.39346" lon="3.32978">
        <ele>405.2</ele>
        <time>2025-10-04T11:35:08Z</time>
      </trkpt>
      <trkpt lat="45.39345" lon="3.32969">
        <ele>405.2</ele>
        <time>2025-10-04T11:35:09Z</time>
      </trkpt>
      <trkpt lat="45.39345" lon="3.32961">
        <ele>405.2</ele>
        <time>2025-10-04T11:35:10Z</time>
      </trkpt>
      <trkpt lat="45.39346" lon="3.32944">
        <ele>405.2</ele>
        <time>2025-10-04T11:35:12Z</time>
      </trkpt>
      <trkpt lat="45.39346" lon="3.32935">
        <ele>405.2</ele>
        <time>2025-10-04T11:35:13Z</time>
      </trkpt>
      <trkpt lat="45.39345" lon="3.32927">
        <ele>405.2</ele>
        <time>2025-10-04T11:35:14Z</time>
      </trkpt>
      <trkpt lat="45.3934" lon="3.32902">
        <ele>405.2</ele>
        <time>2025-10-04T11:35:17Z</time>
      </trkpt>
      <trkpt lat="45.39332" lon="3.32861">
        <ele>405.4</ele>
        <time>2025-10-04T11:35:22Z</time>
      </trkpt>
      <trkpt lat="45.39332" lon="3.32853">
        <ele>405.4</ele>
        <time>2025-10-04T11:35:23Z</time>
      </trkpt>
      <trkpt lat="45.39334" lon="3.32845">
        <ele>405.4</ele>
        <time>2025-10-04T11:35:24Z</time>
      </trkpt>
      <trkpt lat="45.3934" lon="3.32832">
        <ele>405.4</ele>
        <time>2025-10-04T11:35:26Z</time>
      </trkpt>
      <trkpt lat="45.39347" lon="3.32821">
        <ele>405.4</ele>
        <time>2025-10-04T11:35:28Z</time>
      </trkpt>
      <trkpt lat="45.3935" lon="3.32809">
        <ele>405.6</ele>
        <time>2025-10-04T11:35:30Z</time>
      </trkpt>
      <trkpt lat="45.39349" lon="3.32796">
        <ele>405.6</ele>
        <time>2025-10-04T11:35:32Z</time>
      </trkpt>
      <trkpt lat="45.39344" lon="3.32786">
        <ele>405.8</ele>
        <time>2025-10-04T11:35:34Z</time>
      </trkpt>
      <trkpt lat="45.39323" lon="3.32774">
        <ele>406.4</ele>
        <time>2025-10-04T11:35:39Z</time>
      </trkpt>
      <trkpt lat="45.3929" lon="3.32769">
        <ele>407</ele>
        <time>2025-10-04T11:35:46Z</time>
      </trkpt>
      <trkpt lat="45.39265" lon="3.32762">
        <ele>407</ele>
        <time>2025-10-04T11:35:52Z</time>
      </trkpt>
      <trkpt lat="45.39261" lon="3.3276">
        <ele>407.2</ele>
        <time>2025-10-04T11:35:53Z</time>
      </trkpt>
      <trkpt lat="45.39258" lon="3.32758">
        <ele>407.2</ele>
        <time>2025-10-04T11:35:54Z</time>
      </trkpt>
      <trkpt lat="45.39255" lon="3.32755">
        <ele>407.6</ele>
        <time>2025-10-04T11:35:55Z</time>
      </trkpt>
      <trkpt lat="45.39248" lon="3.32749">
        <ele>409.2</ele>
        <time>2025-10-04T11:35:57Z</time>
      </trkpt>
      <trkpt lat="45.39245" lon="3.32746">
        <ele>409.4</ele>
        <time>2025-10-04T11:35:58Z</time>
      </trkpt>
      <trkpt lat="45.39235" lon="3.32733">
        <ele>410</ele>
        <time>2025-10-04T11:36:02Z</time>
      </trkpt>
      <trkpt lat="45.39232" lon="3.32724">
        <ele>410.2</ele>
        <time>2025-10-04T11:36:04Z</time>
      </trkpt>
      <trkpt lat="45.39222" lon="3.32708">
        <ele>411</ele>
        <time>2025-10-04T11:36:08Z</time>
      </trkpt>
      <trkpt lat="45.39218" lon="3.327">
        <ele>411.2</ele>
        <time>2025-10-04T11:36:10Z</time>
      </trkpt>
      <trkpt lat="45.39215" lon="3.32695">
        <ele>411.4</ele>
        <time>2025-10-04T11:36:12Z</time>
      </trkpt>
      <trkpt lat="45.39204" lon="3.32688">
        <ele>412</ele>
        <time>2025-10-04T11:36:17Z</time>
      </trkpt>
      <trkpt lat="45.39194" lon="3.32691">
        <ele>412.4</ele>
        <time>2025-10-04T11:36:20Z</time>
      </trkpt>
      <trkpt lat="45.39188" lon="3.32693">
        <ele>412.4</ele>
        <time>2025-10-04T11:36:22Z</time>
      </trkpt>
      <trkpt lat="45.39176" lon="3.32704">
        <ele>413.2</ele>
        <time>2025-10-04T11:36:27Z</time>
      </trkpt>
      <trkpt lat="45.39171" lon="3.32709">
        <ele>413.4</ele>
        <time>2025-10-04T11:36:29Z</time>
      </trkpt>
      <trkpt lat="45.39162" lon="3.32718">
        <ele>414.4</ele>
        <time>2025-10-04T11:36:33Z</time>
      </trkpt>
      <trkpt lat="45.3916" lon="3.3272">
        <ele>414.6</ele>
        <time>2025-10-04T11:36:34Z</time>
      </trkpt>
      <trkpt lat="45.39152" lon="3.32729">
        <ele>415.8</ele>
        <time>2025-10-04T11:36:38Z</time>
      </trkpt>
      <trkpt lat="45.39146" lon="3.32734">
        <ele>416.4</ele>
        <time>2025-10-04T11:36:41Z</time>
      </trkpt>
      <trkpt lat="45.3914" lon="3.32741">
        <ele>416.8</ele>
        <time>2025-10-04T11:36:44Z</time>
      </trkpt>
      <trkpt lat="45.39132" lon="3.32749">
        <ele>418</ele>
        <time>2025-10-04T11:36:48Z</time>
      </trkpt>
      <trkpt lat="45.3913" lon="3.3275">
        <ele>418</ele>
        <time>2025-10-04T11:36:49Z</time>
      </trkpt>
      <trkpt lat="45.39124" lon="3.32756">
        <ele>419</ele>
        <time>2025-10-04T11:36:52Z</time>
      </trkpt>
      <trkpt lat="45.39112" lon="3.32763">
        <ele>420</ele>
        <time>2025-10-04T11:36:57Z</time>
      </trkpt>
      <trkpt lat="45.39111" lon="3.32765">
        <ele>420.2</ele>
        <time>2025-10-04T11:36:58Z</time>
      </trkpt>
      <trkpt lat="45.39101" lon="3.32773">
        <ele>421</ele>
        <time>2025-10-04T11:37:03Z</time>
      </trkpt>
      <trkpt lat="45.39093" lon="3.32777">
        <ele>422.2</ele>
        <time>2025-10-04T11:37:06Z</time>
      </trkpt>
      <trkpt lat="45.3909" lon="3.32777">
        <ele>422.4</ele>
        <time>2025-10-04T11:37:07Z</time>
      </trkpt>
      <trkpt lat="45.39087" lon="3.32773">
        <ele>422.8</ele>
        <time>2025-10-04T11:37:09Z</time>
      </trkpt>
      <trkpt lat="45.39083" lon="3.32763">
        <ele>423.4</ele>
        <time>2025-10-04T11:37:12Z</time>
      </trkpt>
      <trkpt lat="45.39073" lon="3.3274">
        <ele>424.6</ele>
        <time>2025-10-04T11:37:19Z</time>
      </trkpt>
      <trkpt lat="45.39071" lon="3.32737">
        <ele>424.8</ele>
        <time>2025-10-04T11:37:20Z</time>
      </trkpt>
      <trkpt lat="45.39062" lon="3.3272">
        <ele>425.6</ele>
        <time>2025-10-04T11:37:25Z</time>
      </trkpt>
      <trkpt lat="45.39059" lon="3.32712">
        <ele>425.8</ele>
        <time>2025-10-04T11:37:27Z</time>
      </trkpt>
      <trkpt lat="45.39044" lon="3.32678">
        <ele>426.4</ele>
        <time>2025-10-04T11:37:35Z</time>
      </trkpt>
      <trkpt lat="45.39036" lon="3.32664">
        <ele>426.6</ele>
        <time>2025-10-04T11:37:38Z</time>
      </trkpt>
      <trkpt lat="45.39026" lon="3.32653">
        <ele>426.6</ele>
        <time>2025-10-04T11:37:41Z</time>
      </trkpt>
      <trkpt lat="45.39014" lon="3.32651">
        <ele>426.6</ele>
        <time>2025-10-04T11:37:45Z</time>
      </trkpt>
      <trkpt lat="45.38997" lon="3.32655">
        <ele>427.4</ele>
        <time>2025-10-04T11:37:51Z</time>
      </trkpt>
      <trkpt lat="45.38991" lon="3.32656">
        <ele>428</ele>
        <time>2025-10-04T11:37:53Z</time>
      </trkpt>
      <trkpt lat="45.38979" lon="3.32659">
        <ele>429</ele>
        <time>2025-10-04T11:37:57Z</time>
      </trkpt>
      <trkpt lat="45.38973" lon="3.3266">
        <ele>429.4</ele>
        <time>2025-10-04T11:37:59Z</time>
      </trkpt>
      <trkpt lat="45.38948" lon="3.32662">
        <ele>430</ele>
        <time>2025-10-04T11:38:06Z</time>
      </trkpt>
      <trkpt lat="45.38943" lon="3.32661">
        <ele>430</ele>
        <time>2025-10-04T11:38:07Z</time>
      </trkpt>
      <trkpt lat="45.38923" lon="3.32655">
        <ele>430</ele>
        <time>2025-10-04T11:38:12Z</time>
      </trkpt>
      <trkpt lat="45.38919" lon="3.32654">
        <ele>430</ele>
        <time>2025-10-04T11:38:13Z</time>
      </trkpt>
      <trkpt lat="45.38909" lon="3.32649">
        <ele>430</ele>
        <time>2025-10-04T11:38:16Z</time>
      </trkpt>
      <trkpt lat="45.38898" lon="3.32644">
        <ele>430</ele>
        <time>2025-10-04T11:38:19Z</time>
      </trkpt>
      <trkpt lat="45.38888" lon="3.32639">
        <ele>430</ele>
        <time>2025-10-04T11:38:22Z</time>
      </trkpt>
      <trkpt lat="45.38868" lon="3.32629">
        <ele>430.6</ele>
        <time>2025-10-04T11:38:29Z</time>
      </trkpt>
      <trkpt lat="45.38862" lon="3.32628">
        <ele>431.2</ele>
        <time>2025-10-04T11:38:31Z</time>
      </trkpt>
      <trkpt lat="45.38846" lon="3.32627">
        <ele>432.4</ele>
        <time>2025-10-04T11:38:37Z</time>
      </trkpt>
      <trkpt lat="45.38829" lon="3.32626">
        <ele>433.6</ele>
        <time>2025-10-04T11:38:43Z</time>
      </trkpt>
      <trkpt lat="45.38826" lon="3.32626">
        <ele>433.8</ele>
        <time>2025-10-04T11:38:44Z</time>
      </trkpt>
      <trkpt lat="45.38814" lon="3.32629">
        <ele>434.6</ele>
        <time>2025-10-04T11:38:49Z</time>
      </trkpt>
      <trkpt lat="45.38807" lon="3.32631">
        <ele>435.2</ele>
        <time>2025-10-04T11:38:52Z</time>
      </trkpt>
      <trkpt lat="45.38801" lon="3.32634">
        <ele>436</ele>
        <time>2025-10-04T11:38:55Z</time>
      </trkpt>
      <trkpt lat="45.38791" lon="3.32638">
        <ele>436.8</ele>
        <time>2025-10-04T11:38:59Z</time>
      </trkpt>
      <trkpt lat="45.38789" lon="3.32639">
        <ele>437</ele>
        <time>2025-10-04T11:39:00Z</time>
      </trkpt>
      <trkpt lat="45.38778" lon="3.32645">
        <ele>438</ele>
        <time>2025-10-04T11:39:05Z</time>
      </trkpt>
      <trkpt lat="45.38776" lon="3.32647">
        <ele>438.4</ele>
        <time>2025-10-04T11:39:06Z</time>
      </trkpt>
      <trkpt lat="45.38766" lon="3.32651">
        <ele>439</ele>
        <time>2025-10-04T11:39:10Z</time>
      </trkpt>
      <trkpt lat="45.38757" lon="3.32656">
        <ele>440.4</ele>
        <time>2025-10-04T11:39:15Z</time>
      </trkpt>
      <trkpt lat="45.38748" lon="3.32663">
        <ele>441.8</ele>
        <time>2025-10-04T11:39:20Z</time>
      </trkpt>
      <trkpt lat="45.38741" lon="3.32667">
        <ele>442.6</ele>
        <time>2025-10-04T11:39:24Z</time>
      </trkpt>
      <trkpt lat="45.38739" lon="3.32668">
        <ele>442.8</ele>
        <time>2025-10-04T11:39:25Z</time>
      </trkpt>
      <trkpt lat="45.38733" lon="3.32671">
        <ele>444</ele>
        <time>2025-10-04T11:39:29Z</time>
      </trkpt>
      <trkpt lat="45.38728" lon="3.32675">
        <ele>444.4</ele>
        <time>2025-10-04T11:39:32Z</time>
      </trkpt>
      <trkpt lat="45.38723" lon="3.32678">
        <ele>445</ele>
        <time>2025-10-04T11:39:35Z</time>
      </trkpt>
      <trkpt lat="45.38717" lon="3.32681">
        <ele>446</ele>
        <time>2025-10-04T11:39:39Z</time>
      </trkpt>
      <trkpt lat="45.38715" lon="3.32682">
        <ele>446</ele>
        <time>2025-10-04T11:39:40Z</time>
      </trkpt>
      <trkpt lat="45.38714" lon="3.32683">
        <ele>446.2</ele>
        <time>2025-10-04T11:39:41Z</time>
      </trkpt>
      <trkpt lat="45.38706" lon="3.32687">
        <ele>447.2</ele>
        <time>2025-10-04T11:39:46Z</time>
      </trkpt>
      <trkpt lat="45.38701" lon="3.32692">
        <ele>448.2</ele>
        <time>2025-10-04T11:39:50Z</time>
      </trkpt>
      <trkpt lat="45.38699" lon="3.32693">
        <ele>448.6</ele>
        <time>2025-10-04T11:39:51Z</time>
      </trkpt>
      <trkpt lat="45.38693" lon="3.32696">
        <ele>449.6</ele>
        <time>2025-10-04T11:39:55Z</time>
      </trkpt>
      <trkpt lat="45.38691" lon="3.32697">
        <ele>450</ele>
        <time>2025-10-04T11:39:56Z</time>
      </trkpt>
      <trkpt lat="45.3869" lon="3.32698">
        <ele>450</ele>
        <time>2025-10-04T11:39:57Z</time>
      </trkpt>
      <trkpt lat="45.38684" lon="3.32702">
        <ele>451.2</ele>
        <time>2025-10-04T11:40:01Z</time>
      </trkpt>
      <trkpt lat="45.38678" lon="3.32705">
        <ele>451.8</ele>
        <time>2025-10-04T11:40:05Z</time>
      </trkpt>
      <trkpt lat="45.38675" lon="3.32706">
        <ele>452.4</ele>
        <time>2025-10-04T11:40:07Z</time>
      </trkpt>
      <trkpt lat="45.38669" lon="3.3271">
        <ele>453.6</ele>
        <time>2025-10-04T11:40:12Z</time>
      </trkpt>
      <trkpt lat="45.38667" lon="3.32712">
        <ele>453.8</ele>
        <time>2025-10-04T11:40:13Z</time>
      </trkpt>
      <trkpt lat="45.38662" lon="3.32715">
        <ele>454.6</ele>
        <time>2025-10-04T11:40:16Z</time>
      </trkpt>
      <trkpt lat="45.38656" lon="3.32721">
        <ele>456</ele>
        <time>2025-10-04T11:40:21Z</time>
      </trkpt>
      <trkpt lat="45.38654" lon="3.32723">
        <ele>456.2</ele>
        <time>2025-10-04T11:40:22Z</time>
      </trkpt>
      <trkpt lat="45.3865" lon="3.32728">
        <ele>457.2</ele>
        <time>2025-10-04T11:40:26Z</time>
      </trkpt>
      <trkpt lat="45.38646" lon="3.32733">
        <ele>458</ele>
        <time>2025-10-04T11:40:30Z</time>
      </trkpt>
      <trkpt lat="45.38645" lon="3.32734">
        <ele>458.2</ele>
        <time>2025-10-04T11:40:31Z</time>
      </trkpt>
      <trkpt lat="45.38642" lon="3.32736">
        <ele>459</ele>
        <time>2025-10-04T11:40:34Z</time>
      </trkpt>
      <trkpt lat="45.38641" lon="3.32737">
        <ele>459.4</ele>
        <time>2025-10-04T11:40:35Z</time>
      </trkpt>
      <trkpt lat="45.38641" lon="3.32738">
        <ele>459.4</ele>
        <time>2025-10-04T11:40:36Z</time>
      </trkpt>
      <trkpt lat="45.38634" lon="3.32744">
        <ele>460.2</ele>
        <time>2025-10-04T11:40:41Z</time>
      </trkpt>
      <trkpt lat="45.38632" lon="3.32746">
        <ele>460.6</ele>
        <time>2025-10-04T11:40:43Z</time>
      </trkpt>
      <trkpt lat="45.38628" lon="3.32749">
        <ele>461.6</ele>
        <time>2025-10-04T11:40:46Z</time>
      </trkpt>
      <trkpt lat="45.38624" lon="3.32754">
        <ele>462.2</ele>
        <time>2025-10-04T11:40:49Z</time>
      </trkpt>
      <trkpt lat="45.38623" lon="3.32756">
        <ele>462.6</ele>
        <time>2025-10-04T11:40:50Z</time>
      </trkpt>
      <trkpt lat="45.3862" lon="3.3276">
        <ele>463.6</ele>
        <time>2025-10-04T11:40:53Z</time>
      </trkpt>
      <trkpt lat="45.38619" lon="3.32761">
        <ele>463.8</ele>
        <time>2025-10-04T11:40:54Z</time>
      </trkpt>
      <trkpt lat="45.38614" lon="3.32766">
        <ele>464.6</ele>
        <time>2025-10-04T11:40:58Z</time>
      </trkpt>
      <trkpt lat="45.3861" lon="3.32769">
        <ele>465.2</ele>
        <time>2025-10-04T11:41:00Z</time>
      </trkpt>
      <trkpt lat="45.38608" lon="3.3277">
        <ele>466</ele>
        <time>2025-10-04T11:41:02Z</time>
      </trkpt>
      <trkpt lat="45.38604" lon="3.32774">
        <ele>466.4</ele>
        <time>2025-10-04T11:41:05Z</time>
      </trkpt>
      <trkpt lat="45.38603" lon="3.32775">
        <ele>466.6</ele>
        <time>2025-10-04T11:41:06Z</time>
      </trkpt>
      <trkpt lat="45.38602" lon="3.32778">
        <ele>467</ele>
        <time>2025-10-04T11:41:08Z</time>
      </trkpt>
      <trkpt lat="45.38596" lon="3.32786">
        <ele>468</ele>
        <time>2025-10-04T11:41:13Z</time>
      </trkpt>
      <trkpt lat="45.38587" lon="3.32798">
        <ele>469</ele>
        <time>2025-10-04T11:41:21Z</time>
      </trkpt>
      <trkpt lat="45.38584" lon="3.32801">
        <ele>469.4</ele>
        <time>2025-10-04T11:41:23Z</time>
      </trkpt>
      <trkpt lat="45.38582" lon="3.32804">
        <ele>470.2</ele>
        <time>2025-10-04T11:41:25Z</time>
      </trkpt>
      <trkpt lat="45.38576" lon="3.32809">
        <ele>471.2</ele>
        <time>2025-10-04T11:41:29Z</time>
      </trkpt>
      <trkpt lat="45.38572" lon="3.32811">
        <ele>471.8</ele>
        <time>2025-10-04T11:41:31Z</time>
      </trkpt>
      <trkpt lat="45.38567" lon="3.32816">
        <ele>472.4</ele>
        <time>2025-10-04T11:41:34Z</time>
      </trkpt>
      <trkpt lat="45.38556" lon="3.32826">
        <ele>473.6</ele>
        <time>2025-10-04T11:41:40Z</time>
      </trkpt>
      <trkpt lat="45.38543" lon="3.32838">
        <ele>474.6</ele>
        <time>2025-10-04T11:41:47Z</time>
      </trkpt>
      <trkpt lat="45.38534" lon="3.32849">
        <ele>475.6</ele>
        <time>2025-10-04T11:41:52Z</time>
      </trkpt>
      <trkpt lat="45.38526" lon="3.3286">
        <ele>476.2</ele>
        <time>2025-10-04T11:41:57Z</time>
      </trkpt>
      <trkpt lat="45.38522" lon="3.32864">
        <ele>476.6</ele>
        <time>2025-10-04T11:41:59Z</time>
      </trkpt>
      <trkpt lat="45.38511" lon="3.32877">
        <ele>477.8</ele>
        <time>2025-10-04T11:42:05Z</time>
      </trkpt>
      <trkpt lat="45.38506" lon="3.32882">
        <ele>478</ele>
        <time>2025-10-04T11:42:07Z</time>
      </trkpt>
      <trkpt lat="45.38488" lon="3.32903">
        <ele>479</ele>
        <time>2025-10-04T11:42:15Z</time>
      </trkpt>
      <trkpt lat="45.38483" lon="3.3291">
        <ele>479</ele>
        <time>2025-10-04T11:42:17Z</time>
      </trkpt>
      <trkpt lat="45.38464" lon="3.32941">
        <ele>479.2</ele>
        <time>2025-10-04T11:42:25Z</time>
      </trkpt>
      <trkpt lat="45.38451" lon="3.32966">
        <ele>479.6</ele>
        <time>2025-10-04T11:42:31Z</time>
      </trkpt>
      <trkpt lat="45.38444" lon="3.3298">
        <ele>480.2</ele>
        <time>2025-10-04T11:42:34Z</time>
      </trkpt>
      <trkpt lat="45.38441" lon="3.32984">
        <ele>480.4</ele>
        <time>2025-10-04T11:42:35Z</time>
      </trkpt>
      <trkpt lat="45.38434" lon="3.33">
        <ele>480.6</ele>
        <time>2025-10-04T11:42:38Z</time>
      </trkpt>
      <trkpt lat="45.38424" lon="3.33022">
        <ele>480.6</ele>
        <time>2025-10-04T11:42:42Z</time>
      </trkpt>
      <trkpt lat="45.38418" lon="3.33033">
        <ele>480.4</ele>
        <time>2025-10-04T11:42:44Z</time>
      </trkpt>
      <trkpt lat="45.38394" lon="3.33063">
        <ele>479.4</ele>
        <time>2025-10-04T11:42:50Z</time>
      </trkpt>
      <trkpt lat="45.38385" lon="3.33071">
        <ele>479.2</ele>
        <time>2025-10-04T11:42:52Z</time>
      </trkpt>
      <trkpt lat="45.3836" lon="3.33098">
        <ele>478.6</ele>
        <time>2025-10-04T11:42:58Z</time>
      </trkpt>
      <trkpt lat="45.38323" lon="3.33138">
        <ele>478.4</ele>
        <time>2025-10-04T11:43:06Z</time>
      </trkpt>
      <trkpt lat="45.38289" lon="3.33167">
        <ele>478.2</ele>
        <time>2025-10-04T11:43:13Z</time>
      </trkpt>
      <trkpt lat="45.38284" lon="3.33169">
        <ele>478</ele>
        <time>2025-10-04T11:43:14Z</time>
      </trkpt>
      <trkpt lat="45.38279" lon="3.3317">
        <ele>478</ele>
        <time>2025-10-04T11:43:15Z</time>
      </trkpt>
      <trkpt lat="45.38263" lon="3.33171">
        <ele>478</ele>
        <time>2025-10-04T11:43:18Z</time>
      </trkpt>
      <trkpt lat="45.38217" lon="3.33171">
        <ele>478</ele>
        <time>2025-10-04T11:43:27Z</time>
      </trkpt>
      <trkpt lat="45.38206" lon="3.33169">
        <ele>478.2</ele>
        <time>2025-10-04T11:43:29Z</time>
      </trkpt>
      <trkpt lat="45.38197" lon="3.33163">
        <ele>478.2</ele>
        <time>2025-10-04T11:43:31Z</time>
      </trkpt>
      <trkpt lat="45.38193" lon="3.33158">
        <ele>478.2</ele>
        <time>2025-10-04T11:43:32Z</time>
      </trkpt>
      <trkpt lat="45.38169" lon="3.33116">
        <ele>478.2</ele>
        <time>2025-10-04T11:43:39Z</time>
      </trkpt>
      <trkpt lat="45.38149" lon="3.33089">
        <ele>478.2</ele>
        <time>2025-10-04T11:43:44Z</time>
      </trkpt>
      <trkpt lat="45.38145" lon="3.33085">
        <ele>478.2</ele>
        <time>2025-10-04T11:43:45Z</time>
      </trkpt>
      <trkpt lat="45.38108" lon="3.33057">
        <ele>477.8</ele>
        <time>2025-10-04T11:43:53Z</time>
      </trkpt>
      <trkpt lat="45.38103" lon="3.33055">
        <ele>477.6</ele>
        <time>2025-10-04T11:43:54Z</time>
      </trkpt>
      <trkpt lat="45.38089" lon="3.33053">
        <ele>477.6</ele>
        <time>2025-10-04T11:43:57Z</time>
      </trkpt>
      <trkpt lat="45.38055" lon="3.33051">
        <ele>477.8</ele>
        <time>2025-10-04T11:44:04Z</time>
      </trkpt>
      <trkpt lat="45.38046" lon="3.3305">
        <ele>477.8</ele>
        <time>2025-10-04T11:44:06Z</time>
      </trkpt>
      <trkpt lat="45.38008" lon="3.33045">
        <ele>479</ele>
        <time>2025-10-04T11:44:14Z</time>
      </trkpt>
      <trkpt lat="45.38003" lon="3.33045">
        <ele>479</ele>
        <time>2025-10-04T11:44:15Z</time>
      </trkpt>
      <trkpt lat="45.37957" lon="3.33038">
        <ele>479.4</ele>
        <time>2025-10-04T11:44:24Z</time>
      </trkpt>
      <trkpt lat="45.37912" lon="3.33032">
        <ele>478.8</ele>
        <time>2025-10-04T11:44:32Z</time>
      </trkpt>
      <trkpt lat="45.37884" lon="3.33028">
        <ele>478</ele>
        <time>2025-10-04T11:44:37Z</time>
      </trkpt>
      <trkpt lat="45.37878" lon="3.33027">
        <ele>478</ele>
        <time>2025-10-04T11:44:38Z</time>
      </trkpt>
      <trkpt lat="45.37859" lon="3.33023">
        <ele>477.8</ele>
        <time>2025-10-04T11:44:41Z</time>
      </trkpt>
      <trkpt lat="45.37836" lon="3.3302">
        <ele>477</ele>
        <time>2025-10-04T11:44:45Z</time>
      </trkpt>
      <trkpt lat="45.37802" lon="3.33013">
        <ele>476.2</ele>
        <time>2025-10-04T11:44:51Z</time>
      </trkpt>
      <trkpt lat="45.37791" lon="3.3301">
        <ele>476</ele>
        <time>2025-10-04T11:44:53Z</time>
      </trkpt>
      <trkpt lat="45.37786" lon="3.33009">
        <ele>476</ele>
        <time>2025-10-04T11:44:54Z</time>
      </trkpt>
      <trkpt lat="45.37746" lon="3.32993">
        <ele>475</ele>
        <time>2025-10-04T11:45:01Z</time>
      </trkpt>
      <trkpt lat="45.3774" lon="3.3299">
        <ele>474.8</ele>
        <time>2025-10-04T11:45:02Z</time>
      </trkpt>
      <trkpt lat="45.377" lon="3.32971">
        <ele>473.8</ele>
        <time>2025-10-04T11:45:09Z</time>
      </trkpt>
      <trkpt lat="45.37683" lon="3.32962">
        <ele>473.8</ele>
        <time>2025-10-04T11:45:12Z</time>
      </trkpt>
      <trkpt lat="45.37642" lon="3.32942">
        <ele>473.4</ele>
        <time>2025-10-04T11:45:19Z</time>
      </trkpt>
      <trkpt lat="45.37638" lon="3.32938">
        <ele>473.4</ele>
        <time>2025-10-04T11:45:20Z</time>
      </trkpt>
      <trkpt lat="45.37636" lon="3.32932">
        <ele>473.4</ele>
        <time>2025-10-04T11:45:21Z</time>
      </trkpt>
      <trkpt lat="45.3764" lon="3.3292">
        <ele>473.6</ele>
        <time>2025-10-04T11:45:23Z</time>
      </trkpt>
      <trkpt lat="45.37643" lon="3.32914">
        <ele>473.8</ele>
        <time>2025-10-04T11:45:24Z</time>
      </trkpt>
      <trkpt lat="45.37671" lon="3.32866">
        <ele>474.6</ele>
        <time>2025-10-04T11:45:31Z</time>
      </trkpt>
      <trkpt lat="45.37699" lon="3.3282">
        <ele>474.6</ele>
        <time>2025-10-04T11:45:37Z</time>
      </trkpt>
      <trkpt lat="45.37715" lon="3.32787">
        <ele>473</ele>
        <time>2025-10-04T11:45:41Z</time>
      </trkpt>
      <trkpt lat="45.3772" lon="3.32779">
        <ele>472.8</ele>
        <time>2025-10-04T11:45:42Z</time>
      </trkpt>
      <trkpt lat="45.37733" lon="3.32757">
        <ele>472.4</ele>
        <time>2025-10-04T11:45:45Z</time>
      </trkpt>
      <trkpt lat="45.37737" lon="3.3275">
        <ele>472.2</ele>
        <time>2025-10-04T11:45:46Z</time>
      </trkpt>
      <trkpt lat="45.3775" lon="3.32728">
        <ele>471.8</ele>
        <time>2025-10-04T11:45:49Z</time>
      </trkpt>
      <trkpt lat="45.37758" lon="3.32713">
        <ele>471.6</ele>
        <time>2025-10-04T11:45:51Z</time>
      </trkpt>
      <trkpt lat="45.37776" lon="3.3268">
        <ele>470.6</ele>
        <time>2025-10-04T11:45:55Z</time>
      </trkpt>
      <trkpt lat="45.37791" lon="3.32655">
        <ele>469</ele>
        <time>2025-10-04T11:45:58Z</time>
      </trkpt>
      <trkpt lat="45.37805" lon="3.32629">
        <ele>467.8</ele>
        <time>2025-10-04T11:46:01Z</time>
      </trkpt>
      <trkpt lat="45.37809" lon="3.32607">
        <ele>467</ele>
        <time>2025-10-04T11:46:03Z</time>
      </trkpt>
      <trkpt lat="45.37808" lon="3.32597">
        <ele>466.6</ele>
        <time>2025-10-04T11:46:04Z</time>
      </trkpt>
      <trkpt lat="45.37801" lon="3.32561">
        <ele>466</ele>
        <time>2025-10-04T11:46:08Z</time>
      </trkpt>
      <trkpt lat="45.37793" lon="3.32534">
        <ele>465.2</ele>
        <time>2025-10-04T11:46:11Z</time>
      </trkpt>
      <trkpt lat="45.37786" lon="3.32514">
        <ele>464.6</ele>
        <time>2025-10-04T11:46:13Z</time>
      </trkpt>
      <trkpt lat="45.37782" lon="3.32504">
        <ele>464.6</ele>
        <time>2025-10-04T11:46:14Z</time>
      </trkpt>
      <trkpt lat="45.37764" lon="3.32479">
        <ele>464.2</ele>
        <time>2025-10-04T11:46:17Z</time>
      </trkpt>
      <trkpt lat="45.37746" lon="3.32454">
        <ele>462.8</ele>
        <time>2025-10-04T11:46:20Z</time>
      </trkpt>
      <trkpt lat="45.37735" lon="3.32439">
        <ele>461.8</ele>
        <time>2025-10-04T11:46:22Z</time>
      </trkpt>
      <trkpt lat="45.3773" lon="3.32433">
        <ele>461.2</ele>
        <time>2025-10-04T11:46:23Z</time>
      </trkpt>
      <trkpt lat="45.37724" lon="3.32426">
        <ele>461.2</ele>
        <time>2025-10-04T11:46:24Z</time>
      </trkpt>
      <trkpt lat="45.37711" lon="3.32404">
        <ele>460.4</ele>
        <time>2025-10-04T11:46:27Z</time>
      </trkpt>
      <trkpt lat="45.37707" lon="3.32397">
        <ele>460.4</ele>
        <time>2025-10-04T11:46:28Z</time>
      </trkpt>
      <trkpt lat="45.37702" lon="3.32391">
        <ele>460.2</ele>
        <time>2025-10-04T11:46:29Z</time>
      </trkpt>
      <trkpt lat="45.37696" lon="3.32386">
        <ele>460.4</ele>
        <time>2025-10-04T11:46:30Z</time>
      </trkpt>
      <trkpt lat="45.3769" lon="3.3238">
        <ele>460.2</ele>
        <time>2025-10-04T11:46:31Z</time>
      </trkpt>
      <trkpt lat="45.37668" lon="3.32364">
        <ele>459.8</ele>
        <time>2025-10-04T11:46:34Z</time>
      </trkpt>
      <trkpt lat="45.37662" lon="3.32357">
        <ele>459.6</ele>
        <time>2025-10-04T11:46:35Z</time>
      </trkpt>
      <trkpt lat="45.37655" lon="3.32349">
        <ele>459.2</ele>
        <time>2025-10-04T11:46:36Z</time>
      </trkpt>
      <trkpt lat="45.37625" lon="3.32317">
        <ele>457.8</ele>
        <time>2025-10-04T11:46:40Z</time>
      </trkpt>
      <trkpt lat="45.37616" lon="3.32311">
        <ele>456.4</ele>
        <time>2025-10-04T11:46:41Z</time>
      </trkpt>
      <trkpt lat="45.37599" lon="3.32301">
        <ele>454.4</ele>
        <time>2025-10-04T11:46:43Z</time>
      </trkpt>
      <trkpt lat="45.37583" lon="3.32288">
        <ele>453.2</ele>
        <time>2025-10-04T11:46:45Z</time>
      </trkpt>
      <trkpt lat="45.37564" lon="3.32266">
        <ele>452</ele>
        <time>2025-10-04T11:46:48Z</time>
      </trkpt>
      <trkpt lat="45.37558" lon="3.32259">
        <ele>451.8</ele>
        <time>2025-10-04T11:46:49Z</time>
      </trkpt>
      <trkpt lat="45.37541" lon="3.3224">
        <ele>451</ele>
        <time>2025-10-04T11:46:52Z</time>
      </trkpt>
      <trkpt lat="45.37532" lon="3.32226">
        <ele>450.6</ele>
        <time>2025-10-04T11:46:54Z</time>
      </trkpt>
      <trkpt lat="45.3752" lon="3.32203">
        <ele>450.8</ele>
        <time>2025-10-04T11:46:57Z</time>
      </trkpt>
      <trkpt lat="45.37515" lon="3.32188">
        <ele>451</ele>
        <time>2025-10-04T11:46:59Z</time>
      </trkpt>
      <trkpt lat="45.3751" lon="3.32174">
        <ele>451.4</ele>
        <time>2025-10-04T11:47:01Z</time>
      </trkpt>
      <trkpt lat="45.37505" lon="3.32154">
        <ele>452</ele>
        <time>2025-10-04T11:47:04Z</time>
      </trkpt>
      <trkpt lat="45.37503" lon="3.32149">
        <ele>452</ele>
        <time>2025-10-04T11:47:05Z</time>
      </trkpt>
      <trkpt lat="45.37493" lon="3.32123">
        <ele>452.6</ele>
        <time>2025-10-04T11:47:09Z</time>
      </trkpt>
      <trkpt lat="45.37473" lon="3.32092">
        <ele>452.6</ele>
        <time>2025-10-04T11:47:13Z</time>
      </trkpt>
      <trkpt lat="45.37446" lon="3.32066">
        <ele>450.4</ele>
        <time>2025-10-04T11:47:17Z</time>
      </trkpt>
      <trkpt lat="45.37438" lon="3.3206">
        <ele>449.6</ele>
        <time>2025-10-04T11:47:18Z</time>
      </trkpt>
      <trkpt lat="45.37431" lon="3.32055">
        <ele>449</ele>
        <time>2025-10-04T11:47:19Z</time>
      </trkpt>
      <trkpt lat="45.37399" lon="3.3204">
        <ele>447.8</ele>
        <time>2025-10-04T11:47:23Z</time>
      </trkpt>
      <trkpt lat="45.37392" lon="3.32036">
        <ele>447.4</ele>
        <time>2025-10-04T11:47:24Z</time>
      </trkpt>
      <trkpt lat="45.37374" lon="3.32029">
        <ele>446.8</ele>
        <time>2025-10-04T11:47:26Z</time>
      </trkpt>
      <trkpt lat="45.37354" lon="3.32026">
        <ele>446.2</ele>
        <time>2025-10-04T11:47:28Z</time>
      </trkpt>
      <trkpt lat="45.37344" lon="3.32026">
        <ele>445.2</ele>
        <time>2025-10-04T11:47:29Z</time>
      </trkpt>
      <trkpt lat="45.37325" lon="3.32024">
        <ele>443.6</ele>
        <time>2025-10-04T11:47:31Z</time>
      </trkpt>
      <trkpt lat="45.37308" lon="3.32022">
        <ele>441.8</ele>
        <time>2025-10-04T11:47:33Z</time>
      </trkpt>
      <trkpt lat="45.373" lon="3.32022">
        <ele>441</ele>
        <time>2025-10-04T11:47:34Z</time>
      </trkpt>
      <trkpt lat="45.37291" lon="3.32023">
        <ele>439.6</ele>
        <time>2025-10-04T11:47:35Z</time>
      </trkpt>
      <trkpt lat="45.37284" lon="3.32025">
        <ele>439</ele>
        <time>2025-10-04T11:47:36Z</time>
      </trkpt>
      <trkpt lat="45.37272" lon="3.32027">
        <ele>437.6</ele>
        <time>2025-10-04T11:47:38Z</time>
      </trkpt>
      <trkpt lat="45.37264" lon="3.32028">
        <ele>436.4</ele>
        <time>2025-10-04T11:47:40Z</time>
      </trkpt>
      <trkpt lat="45.37259" lon="3.32025">
        <ele>435.6</ele>
        <time>2025-10-04T11:47:42Z</time>
      </trkpt>
      <trkpt lat="45.37258" lon="3.32021">
        <ele>435</ele>
        <time>2025-10-04T11:47:43Z</time>
      </trkpt>
      <trkpt lat="45.37261" lon="3.32012">
        <ele>433.6</ele>
        <time>2025-10-04T11:47:45Z</time>
      </trkpt>
      <trkpt lat="45.37267" lon="3.32001">
        <ele>433</ele>
        <time>2025-10-04T11:47:47Z</time>
      </trkpt>
      <trkpt lat="45.37276" lon="3.31989">
        <ele>432.4</ele>
        <time>2025-10-04T11:47:49Z</time>
      </trkpt>
      <trkpt lat="45.37289" lon="3.31968">
        <ele>431.6</ele>
        <time>2025-10-04T11:47:52Z</time>
      </trkpt>
      <trkpt lat="45.37294" lon="3.31959">
        <ele>431</ele>
        <time>2025-10-04T11:47:53Z</time>
      </trkpt>
      <trkpt lat="45.37307" lon="3.31936">
        <ele>430</ele>
        <time>2025-10-04T11:47:56Z</time>
      </trkpt>
      <trkpt lat="45.37318" lon="3.31913">
        <ele>429.4</ele>
        <time>2025-10-04T11:47:59Z</time>
      </trkpt>
      <trkpt lat="45.37322" lon="3.31905">
        <ele>429</ele>
        <time>2025-10-04T11:48:00Z</time>
      </trkpt>
      <trkpt lat="45.37334" lon="3.31882">
        <ele>428.4</ele>
        <time>2025-10-04T11:48:03Z</time>
      </trkpt>
      <trkpt lat="45.37338" lon="3.31875">
        <ele>428.2</ele>
        <time>2025-10-04T11:48:04Z</time>
      </trkpt>
      <trkpt lat="45.37343" lon="3.31868">
        <ele>428</ele>
        <time>2025-10-04T11:48:05Z</time>
      </trkpt>
      <trkpt lat="45.37376" lon="3.31819">
        <ele>427</ele>
        <time>2025-10-04T11:48:12Z</time>
      </trkpt>
      <trkpt lat="45.37381" lon="3.31812">
        <ele>426.8</ele>
        <time>2025-10-04T11:48:13Z</time>
      </trkpt>
      <trkpt lat="45.37412" lon="3.31767">
        <ele>426</ele>
        <time>2025-10-04T11:48:20Z</time>
      </trkpt>
      <trkpt lat="45.37418" lon="3.31754">
        <ele>426</ele>
        <time>2025-10-04T11:48:22Z</time>
      </trkpt>
      <trkpt lat="45.37424" lon="3.31743">
        <ele>426</ele>
        <time>2025-10-04T11:48:24Z</time>
      </trkpt>
      <trkpt lat="45.37431" lon="3.31732">
        <ele>426</ele>
        <time>2025-10-04T11:48:26Z</time>
      </trkpt>
      <trkpt lat="45.37435" lon="3.31727">
        <ele>426</ele>
        <time>2025-10-04T11:48:27Z</time>
      </trkpt>
      <trkpt lat="45.37448" lon="3.31714">
        <ele>425.8</ele>
        <time>2025-10-04T11:48:30Z</time>
      </trkpt>
      <trkpt lat="45.37454" lon="3.317">
        <ele>425.8</ele>
        <time>2025-10-04T11:48:32Z</time>
      </trkpt>
      <trkpt lat="45.37463" lon="3.31667">
        <ele>425.6</ele>
        <time>2025-10-04T11:48:36Z</time>
      </trkpt>
      <trkpt lat="45.37467" lon="3.31658">
        <ele>425.4</ele>
        <time>2025-10-04T11:48:37Z</time>
      </trkpt>
      <trkpt lat="45.37485" lon="3.3162">
        <ele>424.4</ele>
        <time>2025-10-04T11:48:41Z</time>
      </trkpt>
      <trkpt lat="45.37494" lon="3.316">
        <ele>423.4</ele>
        <time>2025-10-04T11:48:43Z</time>
      </trkpt>
      <trkpt lat="45.37499" lon="3.31591">
        <ele>423</ele>
        <time>2025-10-04T11:48:44Z</time>
      </trkpt>
      <trkpt lat="45.37514" lon="3.31562">
        <ele>421.8</ele>
        <time>2025-10-04T11:48:47Z</time>
      </trkpt>
      <trkpt lat="45.37528" lon="3.31535">
        <ele>420.8</ele>
        <time>2025-10-04T11:48:50Z</time>
      </trkpt>
      <trkpt lat="45.37553" lon="3.31496">
        <ele>419.6</ele>
        <time>2025-10-04T11:48:55Z</time>
      </trkpt>
      <trkpt lat="45.37562" lon="3.31482">
        <ele>419.4</ele>
        <time>2025-10-04T11:48:57Z</time>
      </trkpt>
      <trkpt lat="45.37588" lon="3.31439">
        <ele>418.6</ele>
        <time>2025-10-04T11:49:03Z</time>
      </trkpt>
      <trkpt lat="45.37591" lon="3.31431">
        <ele>418.6</ele>
        <time>2025-10-04T11:49:04Z</time>
      </trkpt>
      <trkpt lat="45.37597" lon="3.31405">
        <ele>418</ele>
        <time>2025-10-04T11:49:07Z</time>
      </trkpt>
      <trkpt lat="45.37602" lon="3.31366">
        <ele>418</ele>
        <time>2025-10-04T11:49:12Z</time>
      </trkpt>
      <trkpt lat="45.376" lon="3.31361">
        <ele>417.8</ele>
        <time>2025-10-04T11:49:13Z</time>
      </trkpt>
      <trkpt lat="45.37597" lon="3.31359">
        <ele>417.8</ele>
        <time>2025-10-04T11:49:14Z</time>
      </trkpt>
      <trkpt lat="45.37593" lon="3.31359">
        <ele>417.8</ele>
        <time>2025-10-04T11:49:15Z</time>
      </trkpt>
      <trkpt lat="45.37584" lon="3.31361">
        <ele>417.8</ele>
        <time>2025-10-04T11:49:17Z</time>
      </trkpt>
      <trkpt lat="45.37571" lon="3.31358">
        <ele>418</ele>
        <time>2025-10-04T11:49:20Z</time>
      </trkpt>
      <trkpt lat="45.37562" lon="3.31355">
        <ele>418.2</ele>
        <time>2025-10-04T11:49:22Z</time>
      </trkpt>
      <trkpt lat="45.37552" lon="3.31353">
        <ele>418.4</ele>
        <time>2025-10-04T11:49:24Z</time>
      </trkpt>
      <trkpt lat="45.37542" lon="3.3135">
        <ele>418.8</ele>
        <time>2025-10-04T11:49:26Z</time>
      </trkpt>
      <trkpt lat="45.37533" lon="3.31348">
        <ele>419</ele>
        <time>2025-10-04T11:49:28Z</time>
      </trkpt>
      <trkpt lat="45.37513" lon="3.31343">
        <ele>419.4</ele>
        <time>2025-10-04T11:49:32Z</time>
      </trkpt>
      <trkpt lat="45.3749" lon="3.31337">
        <ele>419.6</ele>
        <time>2025-10-04T11:49:37Z</time>
      </trkpt>
      <trkpt lat="45.37485" lon="3.31336">
        <ele>419.8</ele>
        <time>2025-10-04T11:49:38Z</time>
      </trkpt>
      <trkpt lat="45.37458" lon="3.31329">
        <ele>420.2</ele>
        <time>2025-10-04T11:49:44Z</time>
      </trkpt>
      <trkpt lat="45.37453" lon="3.31328">
        <ele>420.2</ele>
        <time>2025-10-04T11:49:45Z</time>
      </trkpt>
      <trkpt lat="45.37424" lon="3.31321">
        <ele>420.6</ele>
        <time>2025-10-04T11:49:52Z</time>
      </trkpt>
      <trkpt lat="45.3742" lon="3.3132">
        <ele>420.6</ele>
        <time>2025-10-04T11:49:53Z</time>
      </trkpt>
      <trkpt lat="45.37399" lon="3.31315">
        <ele>421.2</ele>
        <time>2025-10-04T11:49:58Z</time>
      </trkpt>
      <trkpt lat="45.37386" lon="3.31311">
        <ele>421.8</ele>
        <time>2025-10-04T11:50:01Z</time>
      </trkpt>
      <trkpt lat="45.37378" lon="3.31308">
        <ele>422</ele>
        <time>2025-10-04T11:50:03Z</time>
      </trkpt>
      <trkpt lat="45.37353" lon="3.31293">
        <ele>422.4</ele>
        <time>2025-10-04T11:50:09Z</time>
      </trkpt>
      <trkpt lat="45.37348" lon="3.31289">
        <ele>422.6</ele>
        <time>2025-10-04T11:50:10Z</time>
      </trkpt>
      <trkpt lat="45.37336" lon="3.31281">
        <ele>422.8</ele>
        <time>2025-10-04T11:50:13Z</time>
      </trkpt>
      <trkpt lat="45.37317" lon="3.31274">
        <ele>422.8</ele>
        <time>2025-10-04T11:50:17Z</time>
      </trkpt>
      <trkpt lat="45.37276" lon="3.31262">
        <ele>422.4</ele>
        <time>2025-10-04T11:50:25Z</time>
      </trkpt>
      <trkpt lat="45.37225" lon="3.31246">
        <ele>423</ele>
        <time>2025-10-04T11:50:35Z</time>
      </trkpt>
      <trkpt lat="45.37184" lon="3.31236">
        <ele>423.2</ele>
        <time>2025-10-04T11:50:43Z</time>
      </trkpt>
      <trkpt lat="45.37148" lon="3.31227">
        <ele>423.6</ele>
        <time>2025-10-04T11:50:50Z</time>
      </trkpt>
      <trkpt lat="45.37142" lon="3.31226">
        <ele>423.6</ele>
        <time>2025-10-04T11:50:51Z</time>
      </trkpt>
      <trkpt lat="45.37095" lon="3.3122">
        <ele>423.6</ele>
        <time>2025-10-04T11:50:59Z</time>
      </trkpt>
      <trkpt lat="45.37089" lon="3.31218">
        <ele>423.4</ele>
        <time>2025-10-04T11:51:00Z</time>
      </trkpt>
      <trkpt lat="45.37079" lon="3.31211">
        <ele>423.2</ele>
        <time>2025-10-04T11:51:02Z</time>
      </trkpt>
      <trkpt lat="45.37076" lon="3.31207">
        <ele>423.2</ele>
        <time>2025-10-04T11:51:03Z</time>
      </trkpt>
      <trkpt lat="45.37073" lon="3.31202">
        <ele>423.2</ele>
        <time>2025-10-04T11:51:04Z</time>
      </trkpt>
      <trkpt lat="45.37067" lon="3.31188">
        <ele>423</ele>
        <time>2025-10-04T11:51:07Z</time>
      </trkpt>
      <trkpt lat="45.37062" lon="3.31165">
        <ele>424.2</ele>
        <time>2025-10-04T11:51:12Z</time>
      </trkpt>
      <trkpt lat="45.3706" lon="3.31155">
        <ele>424.6</ele>
        <time>2025-10-04T11:51:14Z</time>
      </trkpt>
      <trkpt lat="45.37056" lon="3.31134">
        <ele>425.4</ele>
        <time>2025-10-04T11:51:19Z</time>
      </trkpt>
      <trkpt lat="45.37055" lon="3.3113">
        <ele>425.6</ele>
        <time>2025-10-04T11:51:20Z</time>
      </trkpt>
      <trkpt lat="45.37049" lon="3.3111">
        <ele>426.6</ele>
        <time>2025-10-04T11:51:25Z</time>
      </trkpt>
      <trkpt lat="45.37044" lon="3.31099">
        <ele>427.6</ele>
        <time>2025-10-04T11:51:28Z</time>
      </trkpt>
      <trkpt lat="45.37043" lon="3.31096">
        <ele>427.8</ele>
        <time>2025-10-04T11:51:29Z</time>
      </trkpt>
      <trkpt lat="45.3704" lon="3.31077">
        <ele>428.6</ele>
        <time>2025-10-04T11:51:34Z</time>
      </trkpt>
      <trkpt lat="45.37039" lon="3.31074">
        <ele>428.6</ele>
        <time>2025-10-04T11:51:35Z</time>
      </trkpt>
      <trkpt lat="45.37038" lon="3.3106">
        <ele>430</ele>
        <time>2025-10-04T11:51:39Z</time>
      </trkpt>
      <trkpt lat="45.3704" lon="3.31049">
        <ele>430.2</ele>
        <time>2025-10-04T11:51:42Z</time>
      </trkpt>
      <trkpt lat="45.37039" lon="3.31038">
        <ele>431.2</ele>
        <time>2025-10-04T11:51:45Z</time>
      </trkpt>
      <trkpt lat="45.37039" lon="3.31031">
        <ele>431.6</ele>
        <time>2025-10-04T11:51:47Z</time>
      </trkpt>
      <trkpt lat="45.37037" lon="3.31014">
        <ele>432.6</ele>
        <time>2025-10-04T11:51:52Z</time>
      </trkpt>
      <trkpt lat="45.37036" lon="3.31007">
        <ele>433.6</ele>
        <time>2025-10-04T11:51:54Z</time>
      </trkpt>
      <trkpt lat="45.37036" lon="3.31003">
        <ele>434.2</ele>
        <time>2025-10-04T11:51:55Z</time>
      </trkpt>
      <trkpt lat="45.37036" lon="3.30997">
        <ele>434.8</ele>
        <time>2025-10-04T11:51:57Z</time>
      </trkpt>
      <trkpt lat="45.37033" lon="3.30979">
        <ele>435.8</ele>
        <time>2025-10-04T11:52:02Z</time>
      </trkpt>
      <trkpt lat="45.37032" lon="3.30976">
        <ele>435.8</ele>
        <time>2025-10-04T11:52:03Z</time>
      </trkpt>
      <trkpt lat="45.37029" lon="3.30958">
        <ele>436.6</ele>
        <time>2025-10-04T11:52:08Z</time>
      </trkpt>
      <trkpt lat="45.37027" lon="3.30956">
        <ele>436.8</ele>
        <time>2025-10-04T11:52:09Z</time>
      </trkpt>
      <trkpt lat="45.37025" lon="3.30955">
        <ele>437</ele>
        <time>2025-10-04T11:52:10Z</time>
      </trkpt>
      <trkpt lat="45.3702" lon="3.30955">
        <ele>437.2</ele>
        <time>2025-10-04T11:52:12Z</time>
      </trkpt>
      <trkpt lat="45.37012" lon="3.30958">
        <ele>438.2</ele>
        <time>2025-10-04T11:52:15Z</time>
      </trkpt>
      <trkpt lat="45.36995" lon="3.30959">
        <ele>438.8</ele>
        <time>2025-10-04T11:52:20Z</time>
      </trkpt>
      <trkpt lat="45.36965" lon="3.3096">
        <ele>438.8</ele>
        <time>2025-10-04T11:52:27Z</time>
      </trkpt>
      <trkpt lat="45.36951" lon="3.30959">
        <ele>438.4</ele>
        <time>2025-10-04T11:52:30Z</time>
      </trkpt>
      <trkpt lat="45.36942" lon="3.30955">
        <ele>438</ele>
        <time>2025-10-04T11:52:32Z</time>
      </trkpt>
      <trkpt lat="45.36937" lon="3.30954">
        <ele>437.8</ele>
        <time>2025-10-04T11:52:33Z</time>
      </trkpt>
      <trkpt lat="45.3692" lon="3.30955">
        <ele>437.4</ele>
        <time>2025-10-04T11:52:36Z</time>
      </trkpt>
      <trkpt lat="45.36914" lon="3.30955">
        <ele>437.2</ele>
        <time>2025-10-04T11:52:37Z</time>
      </trkpt>
      <trkpt lat="45.36908" lon="3.30955">
        <ele>437.2</ele>
        <time>2025-10-04T11:52:38Z</time>
      </trkpt>
      <trkpt lat="45.36881" lon="3.30956">
        <ele>436</ele>
        <time>2025-10-04T11:52:42Z</time>
      </trkpt>
      <trkpt lat="45.36868" lon="3.30957">
        <ele>435.4</ele>
        <time>2025-10-04T11:52:44Z</time>
      </trkpt>
      <trkpt lat="45.36855" lon="3.30957">
        <ele>435</ele>
        <time>2025-10-04T11:52:46Z</time>
      </trkpt>
      <trkpt lat="45.36849" lon="3.30956">
        <ele>434.8</ele>
        <time>2025-10-04T11:52:47Z</time>
      </trkpt>
      <trkpt lat="45.36837" lon="3.30953">
        <ele>433.8</ele>
        <time>2025-10-04T11:52:49Z</time>
      </trkpt>
      <trkpt lat="45.36831" lon="3.30951">
        <ele>433.6</ele>
        <time>2025-10-04T11:52:50Z</time>
      </trkpt>
      <trkpt lat="45.36808" lon="3.30939">
        <ele>433.4</ele>
        <time>2025-10-04T11:52:55Z</time>
      </trkpt>
      <trkpt lat="45.36797" lon="3.30931">
        <ele>433.4</ele>
        <time>2025-10-04T11:52:58Z</time>
      </trkpt>
      <trkpt lat="45.36792" lon="3.30924">
        <ele>433.6</ele>
        <time>2025-10-04T11:53:00Z</time>
      </trkpt>
      <trkpt lat="45.36785" lon="3.30909">
        <ele>434.2</ele>
        <time>2025-10-04T11:53:04Z</time>
      </trkpt>
      <trkpt lat="45.36784" lon="3.30906">
        <ele>434.6</ele>
        <time>2025-10-04T11:53:05Z</time>
      </trkpt>
      <trkpt lat="45.36782" lon="3.30904">
        <ele>435.2</ele>
        <time>2025-10-04T11:53:06Z</time>
      </trkpt>
      <trkpt lat="45.36775" lon="3.30903">
        <ele>436.2</ele>
        <time>2025-10-04T11:53:08Z</time>
      </trkpt>
      <trkpt lat="45.36771" lon="3.30902">
        <ele>436.6</ele>
        <time>2025-10-04T11:53:09Z</time>
      </trkpt>
      <trkpt lat="45.36766" lon="3.30902">
        <ele>436.8</ele>
        <time>2025-10-04T11:53:10Z</time>
      </trkpt>
      <trkpt lat="45.36756" lon="3.30905">
        <ele>437</ele>
        <time>2025-10-04T11:53:12Z</time>
      </trkpt>
      <trkpt lat="45.36725" lon="3.30923">
        <ele>437</ele>
        <time>2025-10-04T11:53:17Z</time>
      </trkpt>
      <trkpt lat="45.36696" lon="3.30943">
        <ele>435.4</ele>
        <time>2025-10-04T11:53:21Z</time>
      </trkpt>
      <trkpt lat="45.36681" lon="3.30953">
        <ele>434.6</ele>
        <time>2025-10-04T11:53:23Z</time>
      </trkpt>
      <trkpt lat="45.36673" lon="3.30958">
        <ele>433.6</ele>
        <time>2025-10-04T11:53:24Z</time>
      </trkpt>
      <trkpt lat="45.36664" lon="3.30962">
        <ele>433.2</ele>
        <time>2025-10-04T11:53:25Z</time>
      </trkpt>
      <trkpt lat="45.36648" lon="3.30966">
        <ele>432.4</ele>
        <time>2025-10-04T11:53:27Z</time>
      </trkpt>
      <trkpt lat="45.36631" lon="3.3097">
        <ele>431.2</ele>
        <time>2025-10-04T11:53:29Z</time>
      </trkpt>
      <trkpt lat="45.36615" lon="3.30975">
        <ele>429.8</ele>
        <time>2025-10-04T11:53:31Z</time>
      </trkpt>
      <trkpt lat="45.36601" lon="3.30981">
        <ele>429.4</ele>
        <time>2025-10-04T11:53:33Z</time>
      </trkpt>
      <trkpt lat="45.36588" lon="3.30987">
        <ele>429.2</ele>
        <time>2025-10-04T11:53:35Z</time>
      </trkpt>
      <trkpt lat="45.36577" lon="3.30992">
        <ele>429.2</ele>
        <time>2025-10-04T11:53:37Z</time>
      </trkpt>
      <trkpt lat="45.36572" lon="3.30994">
        <ele>429</ele>
        <time>2025-10-04T11:53:38Z</time>
      </trkpt>
      <trkpt lat="45.36555" lon="3.30994">
        <ele>429</ele>
        <time>2025-10-04T11:53:41Z</time>
      </trkpt>
      <trkpt lat="45.3655" lon="3.30992">
        <ele>429</ele>
        <time>2025-10-04T11:53:42Z</time>
      </trkpt>
      <trkpt lat="45.36505" lon="3.30975">
        <ele>429</ele>
        <time>2025-10-04T11:53:51Z</time>
      </trkpt>
      <trkpt lat="45.36473" lon="3.30963">
        <ele>429.2</ele>
        <time>2025-10-04T11:53:58Z</time>
      </trkpt>
      <trkpt lat="45.36456" lon="3.30954">
        <ele>429.4</ele>
        <time>2025-10-04T11:54:03Z</time>
      </trkpt>
      <trkpt lat="45.3643" lon="3.3093">
        <ele>429.8</ele>
        <time>2025-10-04T11:54:11Z</time>
      </trkpt>
      <trkpt lat="45.36409" lon="3.30909">
        <ele>429.8</ele>
        <time>2025-10-04T11:54:16Z</time>
      </trkpt>
      <trkpt lat="45.36405" lon="3.30905">
        <ele>429.8</ele>
        <time>2025-10-04T11:54:17Z</time>
      </trkpt>
      <trkpt lat="45.36378" lon="3.3088">
        <ele>429.6</ele>
        <time>2025-10-04T11:54:24Z</time>
      </trkpt>
      <trkpt lat="45.36374" lon="3.30877">
        <ele>429.8</ele>
        <time>2025-10-04T11:54:25Z</time>
      </trkpt>
      <trkpt lat="45.36359" lon="3.30864">
        <ele>430.2</ele>
        <time>2025-10-04T11:54:29Z</time>
      </trkpt>
      <trkpt lat="45.36351" lon="3.30857">
        <ele>430.4</ele>
        <time>2025-10-04T11:54:31Z</time>
      </trkpt>
      <trkpt lat="45.36344" lon="3.30851">
        <ele>431</ele>
        <time>2025-10-04T11:54:33Z</time>
      </trkpt>
      <trkpt lat="45.36332" lon="3.30841">
        <ele>431.4</ele>
        <time>2025-10-04T11:54:36Z</time>
      </trkpt>
      <trkpt lat="45.36317" lon="3.30828">
        <ele>431.6</ele>
        <time>2025-10-04T11:54:40Z</time>
      </trkpt>
      <trkpt lat="45.36307" lon="3.30817">
        <ele>432</ele>
        <time>2025-10-04T11:54:43Z</time>
      </trkpt>
      <trkpt lat="45.36301" lon="3.30808">
        <ele>432.2</ele>
        <time>2025-10-04T11:54:45Z</time>
      </trkpt>
      <trkpt lat="45.36296" lon="3.30798">
        <ele>432.4</ele>
        <time>2025-10-04T11:54:47Z</time>
      </trkpt>
      <trkpt lat="45.36294" lon="3.30788">
        <ele>432.6</ele>
        <time>2025-10-04T11:54:49Z</time>
      </trkpt>
      <trkpt lat="45.36292" lon="3.30776">
        <ele>433</ele>
        <time>2025-10-04T11:54:51Z</time>
      </trkpt>
      <trkpt lat="45.36291" lon="3.3077">
        <ele>433.2</ele>
        <time>2025-10-04T11:54:52Z</time>
      </trkpt>
      <trkpt lat="45.36287" lon="3.30753">
        <ele>433.6</ele>
        <time>2025-10-04T11:54:55Z</time>
      </trkpt>
      <trkpt lat="45.36286" lon="3.30748">
        <ele>433.6</ele>
        <time>2025-10-04T11:54:56Z</time>
      </trkpt>
      <trkpt lat="45.36279" lon="3.30727">
        <ele>433.8</ele>
        <time>2025-10-04T11:55:00Z</time>
      </trkpt>
      <trkpt lat="45.36274" lon="3.30718">
        <ele>434.2</ele>
        <time>2025-10-04T11:55:02Z</time>
      </trkpt>
      <trkpt lat="45.36271" lon="3.30714">
        <ele>434.2</ele>
        <time>2025-10-04T11:55:03Z</time>
      </trkpt>
      <trkpt lat="45.36264" lon="3.30706">
        <ele>434.4</ele>
        <time>2025-10-04T11:55:05Z</time>
      </trkpt>
      <trkpt lat="45.3624" lon="3.30682">
        <ele>435.2</ele>
        <time>2025-10-04T11:55:12Z</time>
      </trkpt>
      <trkpt lat="45.36236" lon="3.30678">
        <ele>435.2</ele>
        <time>2025-10-04T11:55:13Z</time>
      </trkpt>
      <trkpt lat="45.3621" lon="3.30648">
        <ele>436</ele>
        <time>2025-10-04T11:55:21Z</time>
      </trkpt>
      <trkpt lat="45.36207" lon="3.30644">
        <ele>436.2</ele>
        <time>2025-10-04T11:55:22Z</time>
      </trkpt>
      <trkpt lat="45.36199" lon="3.3063">
        <ele>436.4</ele>
        <time>2025-10-04T11:55:25Z</time>
      </trkpt>
      <trkpt lat="45.36186" lon="3.30607">
        <ele>436.8</ele>
        <time>2025-10-04T11:55:30Z</time>
      </trkpt>
      <trkpt lat="45.36183" lon="3.30605">
        <ele>437</ele>
        <time>2025-10-04T11:55:31Z</time>
      </trkpt>
      <trkpt lat="45.36175" lon="3.30605">
        <ele>437.2</ele>
        <time>2025-10-04T11:55:33Z</time>
      </trkpt>
      <trkpt lat="45.36148" lon="3.30631">
        <ele>437.4</ele>
        <time>2025-10-04T11:55:40Z</time>
      </trkpt>
      <trkpt lat="45.36115" lon="3.30664">
        <ele>437.2</ele>
        <time>2025-10-04T11:55:47Z</time>
      </trkpt>
      <trkpt lat="45.36091" lon="3.3069">
        <ele>436.2</ele>
        <time>2025-10-04T11:55:52Z</time>
      </trkpt>
      <trkpt lat="45.36078" lon="3.30708">
        <ele>436</ele>
        <time>2025-10-04T11:55:55Z</time>
      </trkpt>
      <trkpt lat="45.36064" lon="3.30727">
        <ele>435.4</ele>
        <time>2025-10-04T11:55:58Z</time>
      </trkpt>
      <trkpt lat="45.36051" lon="3.30746">
        <ele>435.2</ele>
        <time>2025-10-04T11:56:01Z</time>
      </trkpt>
      <trkpt lat="45.36043" lon="3.3076">
        <ele>435.2</ele>
        <time>2025-10-04T11:56:03Z</time>
      </trkpt>
      <trkpt lat="45.3603" lon="3.30781">
        <ele>434.6</ele>
        <time>2025-10-04T11:56:06Z</time>
      </trkpt>
      <trkpt lat="45.3602" lon="3.30793">
        <ele>433.8</ele>
        <time>2025-10-04T11:56:08Z</time>
      </trkpt>
      <trkpt lat="45.36015" lon="3.30798">
        <ele>433.8</ele>
        <time>2025-10-04T11:56:09Z</time>
      </trkpt>
      <trkpt lat="45.35988" lon="3.30821">
        <ele>433.2</ele>
        <time>2025-10-04T11:56:14Z</time>
      </trkpt>
      <trkpt lat="45.35976" lon="3.30825">
        <ele>433</ele>
        <time>2025-10-04T11:56:16Z</time>
      </trkpt>
      <trkpt lat="45.35958" lon="3.30819">
        <ele>432.8</ele>
        <time>2025-10-04T11:56:19Z</time>
      </trkpt>
      <trkpt lat="45.35947" lon="3.30816">
        <ele>432.8</ele>
        <time>2025-10-04T11:56:21Z</time>
      </trkpt>
      <trkpt lat="45.3591" lon="3.30799">
        <ele>431.8</ele>
        <time>2025-10-04T11:56:27Z</time>
      </trkpt>
      <trkpt lat="45.35904" lon="3.30795">
        <ele>431.6</ele>
        <time>2025-10-04T11:56:28Z</time>
      </trkpt>
      <trkpt lat="45.35894" lon="3.30785">
        <ele>431.2</ele>
        <time>2025-10-04T11:56:30Z</time>
      </trkpt>
      <trkpt lat="45.35873" lon="3.30772">
        <ele>430.8</ele>
        <time>2025-10-04T11:56:34Z</time>
      </trkpt>
      <trkpt lat="45.35864" lon="3.30768">
        <ele>430.8</ele>
        <time>2025-10-04T11:56:36Z</time>
      </trkpt>
      <trkpt lat="45.3585" lon="3.3076">
        <ele>431</ele>
        <time>2025-10-04T11:56:39Z</time>
      </trkpt>
      <trkpt lat="45.35841" lon="3.30763">
        <ele>431.4</ele>
        <time>2025-10-04T11:56:41Z</time>
      </trkpt>
      <trkpt lat="45.35837" lon="3.30766">
        <ele>431.4</ele>
        <time>2025-10-04T11:56:42Z</time>
      </trkpt>
      <trkpt lat="45.35829" lon="3.30771">
        <ele>431.8</ele>
        <time>2025-10-04T11:56:44Z</time>
      </trkpt>
      <trkpt lat="45.3582" lon="3.3077">
        <ele>430.6</ele>
        <time>2025-10-04T11:56:46Z</time>
      </trkpt>
      <trkpt lat="45.35806" lon="3.30766">
        <ele>432.8</ele>
        <time>2025-10-04T11:56:49Z</time>
      </trkpt>
      <trkpt lat="45.35802" lon="3.30766">
        <ele>432.8</ele>
        <time>2025-10-04T11:56:50Z</time>
      </trkpt>
      <trkpt lat="45.35792" lon="3.30764">
        <ele>433</ele>
        <time>2025-10-04T11:56:52Z</time>
      </trkpt>
      <trkpt lat="45.35781" lon="3.3076">
        <ele>433</ele>
        <time>2025-10-04T11:56:54Z</time>
      </trkpt>
      <trkpt lat="45.35775" lon="3.30748">
        <ele>433</ele>
        <time>2025-10-04T11:56:56Z</time>
      </trkpt>
      <trkpt lat="45.35768" lon="3.30736">
        <ele>433.2</ele>
        <time>2025-10-04T11:56:58Z</time>
      </trkpt>
      <trkpt lat="45.35758" lon="3.3073">
        <ele>433.2</ele>
        <time>2025-10-04T11:57:00Z</time>
      </trkpt>
      <trkpt lat="45.3572" lon="3.3072">
        <ele>433.2</ele>
        <time>2025-10-04T11:57:08Z</time>
      </trkpt>
      <trkpt lat="45.35715" lon="3.30719">
        <ele>433.2</ele>
        <time>2025-10-04T11:57:09Z</time>
      </trkpt>
      <trkpt lat="45.35686" lon="3.30713">
        <ele>433.6</ele>
        <time>2025-10-04T11:57:15Z</time>
      </trkpt>
      <trkpt lat="45.35671" lon="3.30712">
        <ele>434.2</ele>
        <time>2025-10-04T11:57:18Z</time>
      </trkpt>
      <trkpt lat="45.35627" lon="3.30709">
        <ele>434.4</ele>
        <time>2025-10-04T11:57:27Z</time>
      </trkpt>
      <trkpt lat="45.35623" lon="3.30709">
        <ele>434.6</ele>
        <time>2025-10-04T11:57:28Z</time>
      </trkpt>
      <trkpt lat="45.35604" lon="3.30708">
        <ele>435.2</ele>
        <time>2025-10-04T11:57:32Z</time>
      </trkpt>
      <trkpt lat="45.35596" lon="3.30706">
        <ele>435.2</ele>
        <time>2025-10-04T11:57:34Z</time>
      </trkpt>
      <trkpt lat="45.35558" lon="3.30703">
        <ele>435.6</ele>
        <time>2025-10-04T11:57:42Z</time>
      </trkpt>
      <trkpt lat="45.35524" lon="3.30693">
        <ele>435.6</ele>
        <time>2025-10-04T11:57:49Z</time>
      </trkpt>
      <trkpt lat="45.35519" lon="3.30692">
        <ele>435.6</ele>
        <time>2025-10-04T11:57:50Z</time>
      </trkpt>
      <trkpt lat="45.35491" lon="3.30687">
        <ele>435.4</ele>
        <time>2025-10-04T11:57:56Z</time>
      </trkpt>
      <trkpt lat="45.35445" lon="3.30686">
        <ele>435.4</ele>
        <time>2025-10-04T11:58:05Z</time>
      </trkpt>
      <trkpt lat="45.35419" lon="3.30683">
        <ele>435</ele>
        <time>2025-10-04T11:58:10Z</time>
      </trkpt>
      <trkpt lat="45.35408" lon="3.30685">
        <ele>435</ele>
        <time>2025-10-04T11:58:12Z</time>
      </trkpt>
      <trkpt lat="45.35399" lon="3.3069">
        <ele>434.8</ele>
        <time>2025-10-04T11:58:14Z</time>
      </trkpt>
      <trkpt lat="45.35384" lon="3.30699">
        <ele>434.8</ele>
        <time>2025-10-04T11:58:17Z</time>
      </trkpt>
      <trkpt lat="45.35375" lon="3.30703">
        <ele>434.8</ele>
        <time>2025-10-04T11:58:19Z</time>
      </trkpt>
      <trkpt lat="45.35355" lon="3.30707">
        <ele>435</ele>
        <time>2025-10-04T11:58:23Z</time>
      </trkpt>
      <trkpt lat="45.35308" lon="3.30716">
        <ele>435.6</ele>
        <time>2025-10-04T11:58:33Z</time>
      </trkpt>
      <trkpt lat="45.3529" lon="3.30719">
        <ele>436.2</ele>
        <time>2025-10-04T11:58:37Z</time>
      </trkpt>
      <trkpt lat="45.35269" lon="3.30724">
        <ele>437</ele>
        <time>2025-10-04T11:58:42Z</time>
      </trkpt>
      <trkpt lat="45.3526" lon="3.30726">
        <ele>437.6</ele>
        <time>2025-10-04T11:58:44Z</time>
      </trkpt>
      <trkpt lat="45.35221" lon="3.30736">
        <ele>437.8</ele>
        <time>2025-10-04T11:58:52Z</time>
      </trkpt>
      <trkpt lat="45.35179" lon="3.30747">
        <ele>438.6</ele>
        <time>2025-10-04T11:59:01Z</time>
      </trkpt>
      <trkpt lat="45.35174" lon="3.30748">
        <ele>438.6</ele>
        <time>2025-10-04T11:59:02Z</time>
      </trkpt>
      <trkpt lat="45.35144" lon="3.30758">
        <ele>439.4</ele>
        <time>2025-10-04T11:59:09Z</time>
      </trkpt>
      <trkpt lat="45.35128" lon="3.30763">
        <ele>439.6</ele>
        <time>2025-10-04T11:59:13Z</time>
      </trkpt>
      <trkpt lat="45.35116" lon="3.30767">
        <ele>440</ele>
        <time>2025-10-04T11:59:16Z</time>
      </trkpt>
      <trkpt lat="45.35097" lon="3.30771">
        <ele>440.8</ele>
        <time>2025-10-04T11:59:21Z</time>
      </trkpt>
      <trkpt lat="45.35087" lon="3.30778">
        <ele>441</ele>
        <time>2025-10-04T11:59:24Z</time>
      </trkpt>
      <trkpt lat="45.35087" lon="3.30787">
        <ele>441</ele>
        <time>2025-10-04T11:59:26Z</time>
      </trkpt>
      <trkpt lat="45.35089" lon="3.30792">
        <ele>441</ele>
        <time>2025-10-04T11:59:27Z</time>
      </trkpt>
      <trkpt lat="45.35105" lon="3.30831">
        <ele>440.8</ele>
        <time>2025-10-04T11:59:34Z</time>
      </trkpt>
      <trkpt lat="45.3512" lon="3.30862">
        <ele>440.6</ele>
        <time>2025-10-04T11:59:39Z</time>
      </trkpt>
      <trkpt lat="45.35128" lon="3.30881">
        <ele>440.6</ele>
        <time>2025-10-04T11:59:42Z</time>
      </trkpt>
      <trkpt lat="45.35129" lon="3.30888">
        <ele>440.6</ele>
        <time>2025-10-04T11:59:43Z</time>
      </trkpt>
      <trkpt lat="45.3513" lon="3.30904">
        <ele>440.4</ele>
        <time>2025-10-04T11:59:45Z</time>
      </trkpt>
      <trkpt lat="45.35129" lon="3.30912">
        <ele>440.4</ele>
        <time>2025-10-04T11:59:46Z</time>
      </trkpt>
      <trkpt lat="45.35127" lon="3.30947">
        <ele>440</ele>
        <time>2025-10-04T11:59:50Z</time>
      </trkpt>
      <trkpt lat="45.35129" lon="3.30963">
        <ele>439.8</ele>
        <time>2025-10-04T11:59:52Z</time>
      </trkpt>
      <trkpt lat="45.35134" lon="3.30981">
        <ele>439.6</ele>
        <time>2025-10-04T11:59:54Z</time>
      </trkpt>
      <trkpt lat="45.35139" lon="3.30999">
        <ele>439.4</ele>
        <time>2025-10-04T11:59:56Z</time>
      </trkpt>
      <trkpt lat="45.35141" lon="3.31009">
        <ele>439.2</ele>
        <time>2025-10-04T11:59:57Z</time>
      </trkpt>
      <trkpt lat="45.35144" lon="3.3104">
        <ele>438.4</ele>
        <time>2025-10-04T12:00:00Z</time>
      </trkpt>
      <trkpt lat="45.35146" lon="3.31071">
        <ele>437.4</ele>
        <time>2025-10-04T12:00:03Z</time>
      </trkpt>
      <trkpt lat="45.35148" lon="3.31081">
        <ele>437.2</ele>
        <time>2025-10-04T12:00:04Z</time>
      </trkpt>
      <trkpt lat="45.3515" lon="3.31119">
        <ele>436.6</ele>
        <time>2025-10-04T12:00:08Z</time>
      </trkpt>
      <trkpt lat="45.3515" lon="3.31132">
        <ele>436.4</ele>
        <time>2025-10-04T12:00:10Z</time>
      </trkpt>
      <trkpt lat="45.35151" lon="3.31154">
        <ele>436.4</ele>
        <time>2025-10-04T12:00:13Z</time>
      </trkpt>
      <trkpt lat="45.3515" lon="3.31171">
        <ele>436.4</ele>
        <time>2025-10-04T12:00:15Z</time>
      </trkpt>
      <trkpt lat="45.35142" lon="3.31214">
        <ele>436.6</ele>
        <time>2025-10-04T12:00:20Z</time>
      </trkpt>
      <trkpt lat="45.3514" lon="3.31222">
        <ele>436.6</ele>
        <time>2025-10-04T12:00:21Z</time>
      </trkpt>
      <trkpt lat="45.35136" lon="3.31228">
        <ele>436.6</ele>
        <time>2025-10-04T12:00:22Z</time>
      </trkpt>
      <trkpt lat="45.35132" lon="3.31234">
        <ele>436.6</ele>
        <time>2025-10-04T12:00:23Z</time>
      </trkpt>
      <trkpt lat="45.35122" lon="3.31243">
        <ele>436.6</ele>
        <time>2025-10-04T12:00:25Z</time>
      </trkpt>
      <trkpt lat="45.35118" lon="3.31249">
        <ele>436.8</ele>
        <time>2025-10-04T12:00:26Z</time>
      </trkpt>
      <trkpt lat="45.35109" lon="3.3126">
        <ele>437.2</ele>
        <time>2025-10-04T12:00:28Z</time>
      </trkpt>
      <trkpt lat="45.35105" lon="3.31263">
        <ele>437.8</ele>
        <time>2025-10-04T12:00:29Z</time>
      </trkpt>
      <trkpt lat="45.35101" lon="3.31264">
        <ele>438</ele>
        <time>2025-10-04T12:00:30Z</time>
      </trkpt>
      <trkpt lat="45.35098" lon="3.31261">
        <ele>438.4</ele>
        <time>2025-10-04T12:00:31Z</time>
      </trkpt>
      <trkpt lat="45.35095" lon="3.31238">
        <ele>438.6</ele>
        <time>2025-10-04T12:00:34Z</time>
      </trkpt>
      <trkpt lat="45.35093" lon="3.31208">
        <ele>439</ele>
        <time>2025-10-04T12:00:37Z</time>
      </trkpt>
      <trkpt lat="45.3509" lon="3.31199">
        <ele>438.8</ele>
        <time>2025-10-04T12:00:38Z</time>
      </trkpt>
      <trkpt lat="45.35086" lon="3.31191">
        <ele>438.8</ele>
        <time>2025-10-04T12:00:39Z</time>
      </trkpt>
      <trkpt lat="45.3508" lon="3.31187">
        <ele>438.6</ele>
        <time>2025-10-04T12:00:40Z</time>
      </trkpt>
      <trkpt lat="45.35053" lon="3.31179">
        <ele>437.4</ele>
        <time>2025-10-04T12:00:44Z</time>
      </trkpt>
      <trkpt lat="45.35041" lon="3.31177">
        <ele>437.2</ele>
        <time>2025-10-04T12:00:46Z</time>
      </trkpt>
      <trkpt lat="45.35023" lon="3.3118">
        <ele>437</ele>
        <time>2025-10-04T12:00:49Z</time>
      </trkpt>
      <trkpt lat="45.35011" lon="3.31183">
        <ele>437</ele>
        <time>2025-10-04T12:00:51Z</time>
      </trkpt>
      <trkpt lat="45.34987" lon="3.31186">
        <ele>437.2</ele>
        <time>2025-10-04T12:00:55Z</time>
      </trkpt>
      <trkpt lat="45.34975" lon="3.31186">
        <ele>437.4</ele>
        <time>2025-10-04T12:00:57Z</time>
      </trkpt>
      <trkpt lat="45.34963" lon="3.31186">
        <ele>437.4</ele>
        <time>2025-10-04T12:00:59Z</time>
      </trkpt>
      <trkpt lat="45.34951" lon="3.31188">
        <ele>437.4</ele>
        <time>2025-10-04T12:01:01Z</time>
      </trkpt>
      <trkpt lat="45.34939" lon="3.3119">
        <ele>437.4</ele>
        <time>2025-10-04T12:01:03Z</time>
      </trkpt>
      <trkpt lat="45.34928" lon="3.31196">
        <ele>437.6</ele>
        <time>2025-10-04T12:01:05Z</time>
      </trkpt>
      <trkpt lat="45.34911" lon="3.31207">
        <ele>437.6</ele>
        <time>2025-10-04T12:01:08Z</time>
      </trkpt>
      <trkpt lat="45.349" lon="3.31212">
        <ele>437.8</ele>
        <time>2025-10-04T12:01:10Z</time>
      </trkpt>
      <trkpt lat="45.34877" lon="3.31216">
        <ele>438.4</ele>
        <time>2025-10-04T12:01:14Z</time>
      </trkpt>
      <trkpt lat="45.34871" lon="3.31218">
        <ele>438.4</ele>
        <time>2025-10-04T12:01:15Z</time>
      </trkpt>
      <trkpt lat="45.3486" lon="3.31221">
        <ele>438.4</ele>
        <time>2025-10-04T12:01:17Z</time>
      </trkpt>
      <trkpt lat="45.34844" lon="3.31221">
        <ele>438.8</ele>
        <time>2025-10-04T12:01:20Z</time>
      </trkpt>
      <trkpt lat="45.34834" lon="3.31227">
        <ele>438.8</ele>
        <time>2025-10-04T12:01:22Z</time>
      </trkpt>
      <trkpt lat="45.34831" lon="3.31231">
        <ele>438.8</ele>
        <time>2025-10-04T12:01:23Z</time>
      </trkpt>
      <trkpt lat="45.34829" lon="3.31237">
        <ele>438.8</ele>
        <time>2025-10-04T12:01:24Z</time>
      </trkpt>
      <trkpt lat="45.34824" lon="3.31254">
        <ele>439</ele>
        <time>2025-10-04T12:01:27Z</time>
      </trkpt>
      <trkpt lat="45.34822" lon="3.3126">
        <ele>439.2</ele>
        <time>2025-10-04T12:01:28Z</time>
      </trkpt>
      <trkpt lat="45.34814" lon="3.31277">
        <ele>439.4</ele>
        <time>2025-10-04T12:01:31Z</time>
      </trkpt>
      <trkpt lat="45.3481" lon="3.31282">
        <ele>439.4</ele>
        <time>2025-10-04T12:01:32Z</time>
      </trkpt>
      <trkpt lat="45.34806" lon="3.31287">
        <ele>439.6</ele>
        <time>2025-10-04T12:01:33Z</time>
      </trkpt>
      <trkpt lat="45.34789" lon="3.31296">
        <ele>439.6</ele>
        <time>2025-10-04T12:01:36Z</time>
      </trkpt>
      <trkpt lat="45.34755" lon="3.31312">
        <ele>439.2</ele>
        <time>2025-10-04T12:01:42Z</time>
      </trkpt>
      <trkpt lat="45.34738" lon="3.31315">
        <ele>439.2</ele>
        <time>2025-10-04T12:01:45Z</time>
      </trkpt>
      <trkpt lat="45.34728" lon="3.3132">
        <ele>439.2</ele>
        <time>2025-10-04T12:01:47Z</time>
      </trkpt>
      <trkpt lat="45.34692" lon="3.31342">
        <ele>439.4</ele>
        <time>2025-10-04T12:01:54Z</time>
      </trkpt>
      <trkpt lat="45.34687" lon="3.31345">
        <ele>439.6</ele>
        <time>2025-10-04T12:01:55Z</time>
      </trkpt>
      <trkpt lat="45.34663" lon="3.31362">
        <ele>440.6</ele>
        <time>2025-10-04T12:02:00Z</time>
      </trkpt>
      <trkpt lat="45.34653" lon="3.31369">
        <ele>440.8</ele>
        <time>2025-10-04T12:02:02Z</time>
      </trkpt>
      <trkpt lat="45.34636" lon="3.31373">
        <ele>440.8</ele>
        <time>2025-10-04T12:02:05Z</time>
      </trkpt>
      <trkpt lat="45.34599" lon="3.31379">
        <ele>440.8</ele>
        <time>2025-10-04T12:02:12Z</time>
      </trkpt>
      <trkpt lat="45.34589" lon="3.31382">
        <ele>440.8</ele>
        <time>2025-10-04T12:02:14Z</time>
      </trkpt>
      <trkpt lat="45.34581" lon="3.31388">
        <ele>440.8</ele>
        <time>2025-10-04T12:02:16Z</time>
      </trkpt>
      <trkpt lat="45.34577" lon="3.31392">
        <ele>440.8</ele>
        <time>2025-10-04T12:02:17Z</time>
      </trkpt>
      <trkpt lat="45.34566" lon="3.31405">
        <ele>441</ele>
        <time>2025-10-04T12:02:20Z</time>
      </trkpt>
      <trkpt lat="45.34557" lon="3.31412">
        <ele>441.4</ele>
        <time>2025-10-04T12:02:22Z</time>
      </trkpt>
      <trkpt lat="45.34553" lon="3.31414">
        <ele>441.4</ele>
        <time>2025-10-04T12:02:23Z</time>
      </trkpt>
      <trkpt lat="45.34548" lon="3.31416">
        <ele>441.4</ele>
        <time>2025-10-04T12:02:24Z</time>
      </trkpt>
      <trkpt lat="45.34528" lon="3.31418">
        <ele>441.4</ele>
        <time>2025-10-04T12:02:28Z</time>
      </trkpt>
      <trkpt lat="45.34514" lon="3.3142">
        <ele>441.4</ele>
        <time>2025-10-04T12:02:31Z</time>
      </trkpt>
      <trkpt lat="45.34501" lon="3.31424">
        <ele>441.6</ele>
        <time>2025-10-04T12:02:34Z</time>
      </trkpt>
      <trkpt lat="45.34492" lon="3.31429">
        <ele>442</ele>
        <time>2025-10-04T12:02:36Z</time>
      </trkpt>
      <trkpt lat="45.34486" lon="3.31437">
        <ele>441.8</ele>
        <time>2025-10-04T12:02:38Z</time>
      </trkpt>
      <trkpt lat="45.34474" lon="3.31457">
        <ele>442.2</ele>
        <time>2025-10-04T12:02:42Z</time>
      </trkpt>
      <trkpt lat="45.34467" lon="3.31467">
        <ele>442.2</ele>
        <time>2025-10-04T12:02:44Z</time>
      </trkpt>
      <trkpt lat="45.34457" lon="3.31474">
        <ele>442.4</ele>
        <time>2025-10-04T12:02:46Z</time>
      </trkpt>
      <trkpt lat="45.34437" lon="3.31481">
        <ele>442.4</ele>
        <time>2025-10-04T12:02:50Z</time>
      </trkpt>
      <trkpt lat="45.34432" lon="3.31482">
        <ele>442.6</ele>
        <time>2025-10-04T12:02:51Z</time>
      </trkpt>
      <trkpt lat="45.34416" lon="3.31485">
        <ele>443</ele>
        <time>2025-10-04T12:02:54Z</time>
      </trkpt>
      <trkpt lat="45.34408" lon="3.31491">
        <ele>443</ele>
        <time>2025-10-04T12:02:56Z</time>
      </trkpt>
      <trkpt lat="45.34398" lon="3.31511">
        <ele>443</ele>
        <time>2025-10-04T12:03:00Z</time>
      </trkpt>
      <trkpt lat="45.34395" lon="3.31516">
        <ele>443</ele>
        <time>2025-10-04T12:03:01Z</time>
      </trkpt>
      <trkpt lat="45.34388" lon="3.31525">
        <ele>443</ele>
        <time>2025-10-04T12:03:03Z</time>
      </trkpt>
      <trkpt lat="45.34384" lon="3.31528">
        <ele>443</ele>
        <time>2025-10-04T12:03:04Z</time>
      </trkpt>
      <trkpt lat="45.34379" lon="3.31529">
        <ele>443</ele>
        <time>2025-10-04T12:03:05Z</time>
      </trkpt>
      <trkpt lat="45.34369" lon="3.31529">
        <ele>443.2</ele>
        <time>2025-10-04T12:03:07Z</time>
      </trkpt>
      <trkpt lat="45.34364" lon="3.31527">
        <ele>443.2</ele>
        <time>2025-10-04T12:03:08Z</time>
      </trkpt>
      <trkpt lat="45.34359" lon="3.31524">
        <ele>443.2</ele>
        <time>2025-10-04T12:03:09Z</time>
      </trkpt>
      <trkpt lat="45.34351" lon="3.31514">
        <ele>443.6</ele>
        <time>2025-10-04T12:03:11Z</time>
      </trkpt>
      <trkpt lat="45.34347" lon="3.31509">
        <ele>443.6</ele>
        <time>2025-10-04T12:03:12Z</time>
      </trkpt>
      <trkpt lat="45.34344" lon="3.31504">
        <ele>443.6</ele>
        <time>2025-10-04T12:03:13Z</time>
      </trkpt>
      <trkpt lat="45.34335" lon="3.31504">
        <ele>443.6</ele>
        <time>2025-10-04T12:03:15Z</time>
      </trkpt>
      <trkpt lat="45.34326" lon="3.3151">
        <ele>443.6</ele>
        <time>2025-10-04T12:03:17Z</time>
      </trkpt>
      <trkpt lat="45.34322" lon="3.31514">
        <ele>443.6</ele>
        <time>2025-10-04T12:03:18Z</time>
      </trkpt>
      <trkpt lat="45.34319" lon="3.31518">
        <ele>443.8</ele>
        <time>2025-10-04T12:03:19Z</time>
      </trkpt>
      <trkpt lat="45.34304" lon="3.31531">
        <ele>444</ele>
        <time>2025-10-04T12:03:23Z</time>
      </trkpt>
      <trkpt lat="45.34302" lon="3.3153">
        <ele>444</ele>
        <time>2025-10-04T12:03:24Z</time>
      </trkpt>
      <trkpt lat="45.34301" lon="3.31522">
        <ele>444.8</ele>
        <time>2025-10-04T12:03:27Z</time>
      </trkpt>
      <trkpt lat="45.34303" lon="3.31505">
        <ele>444.8</ele>
        <time>2025-10-04T12:03:34Z</time>
      </trkpt>
      <trkpt lat="45.34299" lon="3.31501">
        <ele>444.8</ele>
        <time>2025-10-04T12:03:37Z</time>
      </trkpt>
      <trkpt lat="45.34298" lon="3.31499">
        <ele>444.8</ele>
        <time>2025-10-04T12:03:38Z</time>
      </trkpt>
      <trkpt lat="45.3429" lon="3.31484">
        <ele>444.6</ele>
        <time>2025-10-04T12:03:43Z</time>
      </trkpt>
      <trkpt lat="45.34288" lon="3.3148">
        <ele>444.2</ele>
        <time>2025-10-04T12:03:44Z</time>
      </trkpt>
      <trkpt lat="45.34277" lon="3.31465">
        <ele>443.8</ele>
        <time>2025-10-04T12:03:48Z</time>
      </trkpt>
      <trkpt lat="45.34268" lon="3.31458">
        <ele>443.6</ele>
        <time>2025-10-04T12:03:50Z</time>
      </trkpt>
      <trkpt lat="45.34258" lon="3.31452">
        <ele>443.4</ele>
        <time>2025-10-04T12:03:52Z</time>
      </trkpt>
      <trkpt lat="45.34248" lon="3.31447">
        <ele>443.2</ele>
        <time>2025-10-04T12:03:54Z</time>
      </trkpt>
      <trkpt lat="45.34243" lon="3.31446">
        <ele>443.2</ele>
        <time>2025-10-04T12:03:55Z</time>
      </trkpt>
      <trkpt lat="45.34208" lon="3.31441">
        <ele>443.4</ele>
        <time>2025-10-04T12:04:02Z</time>
      </trkpt>
      <trkpt lat="45.34169" lon="3.31444">
        <ele>443.8</ele>
        <time>2025-10-04T12:04:10Z</time>
      </trkpt>
      <trkpt lat="45.34165" lon="3.31443">
        <ele>444</ele>
        <time>2025-10-04T12:04:11Z</time>
      </trkpt>
      <trkpt lat="45.34156" lon="3.31444">
        <ele>444.2</ele>
        <time>2025-10-04T12:04:13Z</time>
      </trkpt>
      <trkpt lat="45.34147" lon="3.31443">
        <ele>444.4</ele>
        <time>2025-10-04T12:04:15Z</time>
      </trkpt>
      <trkpt lat="45.34133" lon="3.31441">
        <ele>444.4</ele>
        <time>2025-10-04T12:04:18Z</time>
      </trkpt>
      <trkpt lat="45.34123" lon="3.31438">
        <ele>444.6</ele>
        <time>2025-10-04T12:04:20Z</time>
      </trkpt>
      <trkpt lat="45.34098" lon="3.31427">
        <ele>444.4</ele>
        <time>2025-10-04T12:04:26Z</time>
      </trkpt>
      <trkpt lat="45.34071" lon="3.31409">
        <ele>444.4</ele>
        <time>2025-10-04T12:04:33Z</time>
      </trkpt>
      <trkpt lat="45.34056" lon="3.314">
        <ele>445</ele>
        <time>2025-10-04T12:04:37Z</time>
      </trkpt>
      <trkpt lat="45.34038" lon="3.31391">
        <ele>445.8</ele>
        <time>2025-10-04T12:04:42Z</time>
      </trkpt>
      <trkpt lat="45.34035" lon="3.3139">
        <ele>446</ele>
        <time>2025-10-04T12:04:43Z</time>
      </trkpt>
      <trkpt lat="45.34013" lon="3.31386">
        <ele>446.8</ele>
        <time>2025-10-04T12:04:49Z</time>
      </trkpt>
      <trkpt lat="45.34006" lon="3.31386">
        <ele>447.2</ele>
        <time>2025-10-04T12:04:51Z</time>
      </trkpt>
      <trkpt lat="45.33992" lon="3.31382">
        <ele>448.2</ele>
        <time>2025-10-04T12:04:55Z</time>
      </trkpt>
      <trkpt lat="45.33985" lon="3.3138">
        <ele>448.6</ele>
        <time>2025-10-04T12:04:57Z</time>
      </trkpt>
      <trkpt lat="45.33973" lon="3.31378">
        <ele>449.2</ele>
        <time>2025-10-04T12:05:00Z</time>
      </trkpt>
      <trkpt lat="45.33948" lon="3.31373">
        <ele>450.2</ele>
        <time>2025-10-04T12:05:06Z</time>
      </trkpt>
      <trkpt lat="45.33944" lon="3.31372">
        <ele>450.4</ele>
        <time>2025-10-04T12:05:07Z</time>
      </trkpt>
      <trkpt lat="45.33907" lon="3.31365">
        <ele>450.4</ele>
        <time>2025-10-04T12:05:15Z</time>
      </trkpt>
      <trkpt lat="45.33854" lon="3.31357">
        <ele>449.6</ele>
        <time>2025-10-04T12:05:26Z</time>
      </trkpt>
      <trkpt lat="45.33803" lon="3.31345">
        <ele>450</ele>
        <time>2025-10-04T12:05:36Z</time>
      </trkpt>
      <trkpt lat="45.33755" lon="3.31323">
        <ele>450.2</ele>
        <time>2025-10-04T12:05:45Z</time>
      </trkpt>
      <trkpt lat="45.33706" lon="3.313">
        <ele>450.2</ele>
        <time>2025-10-04T12:05:54Z</time>
      </trkpt>
      <trkpt lat="45.3366" lon="3.31286">
        <ele>450</ele>
        <time>2025-10-04T12:06:02Z</time>
      </trkpt>
      <trkpt lat="45.33612" lon="3.31281">
        <ele>450.2</ele>
        <time>2025-10-04T12:06:11Z</time>
      </trkpt>
      <trkpt lat="45.33601" lon="3.31282">
        <ele>450.2</ele>
        <time>2025-10-04T12:06:13Z</time>
      </trkpt>
      <trkpt lat="45.33581" lon="3.31291">
        <ele>450.2</ele>
        <time>2025-10-04T12:06:17Z</time>
      </trkpt>
      <trkpt lat="45.33552" lon="3.31312">
        <ele>450.4</ele>
        <time>2025-10-04T12:06:23Z</time>
      </trkpt>
      <trkpt lat="45.33527" lon="3.31327">
        <ele>450.8</ele>
        <time>2025-10-04T12:06:28Z</time>
      </trkpt>
      <trkpt lat="45.33522" lon="3.31329">
        <ele>451</ele>
        <time>2025-10-04T12:06:29Z</time>
      </trkpt>
      <trkpt lat="45.33482" lon="3.31338">
        <ele>451.2</ele>
        <time>2025-10-04T12:06:37Z</time>
      </trkpt>
      <trkpt lat="45.33453" lon="3.31345">
        <ele>451.6</ele>
        <time>2025-10-04T12:06:43Z</time>
      </trkpt>
      <trkpt lat="45.3344" lon="3.31349">
        <ele>452.2</ele>
        <time>2025-10-04T12:06:46Z</time>
      </trkpt>
      <trkpt lat="45.33436" lon="3.31351">
        <ele>452.2</ele>
        <time>2025-10-04T12:06:47Z</time>
      </trkpt>
      <trkpt lat="45.33415" lon="3.3136">
        <ele>452.8</ele>
        <time>2025-10-04T12:06:52Z</time>
      </trkpt>
      <trkpt lat="45.334" lon="3.31368">
        <ele>453.4</ele>
        <time>2025-10-04T12:06:56Z</time>
      </trkpt>
      <trkpt lat="45.33376" lon="3.31383">
        <ele>454</ele>
        <time>2025-10-04T12:07:03Z</time>
      </trkpt>
      <trkpt lat="45.33362" lon="3.31401">
        <ele>454.4</ele>
        <time>2025-10-04T12:07:08Z</time>
      </trkpt>
      <trkpt lat="45.33349" lon="3.31436">
        <ele>453.8</ele>
        <time>2025-10-04T12:07:13Z</time>
      </trkpt>
      <trkpt lat="45.33346" lon="3.31443">
        <ele>453.6</ele>
        <time>2025-10-04T12:07:14Z</time>
      </trkpt>
      <trkpt lat="45.33339" lon="3.31456">
        <ele>453.4</ele>
        <time>2025-10-04T12:07:16Z</time>
      </trkpt>
      <trkpt lat="45.33335" lon="3.3146">
        <ele>453.2</ele>
        <time>2025-10-04T12:07:17Z</time>
      </trkpt>
      <trkpt lat="45.33331" lon="3.31464">
        <ele>453</ele>
        <time>2025-10-04T12:07:18Z</time>
      </trkpt>
      <trkpt lat="45.33326" lon="3.31466">
        <ele>452.8</ele>
        <time>2025-10-04T12:07:19Z</time>
      </trkpt>
      <trkpt lat="45.33321" lon="3.31467">
        <ele>452.6</ele>
        <time>2025-10-04T12:07:20Z</time>
      </trkpt>
      <trkpt lat="45.33301" lon="3.31473">
        <ele>452.4</ele>
        <time>2025-10-04T12:07:24Z</time>
      </trkpt>
      <trkpt lat="45.33287" lon="3.31475">
        <ele>452.4</ele>
        <time>2025-10-04T12:07:27Z</time>
      </trkpt>
      <trkpt lat="45.33253" lon="3.31481">
        <ele>452.4</ele>
        <time>2025-10-04T12:07:34Z</time>
      </trkpt>
      <trkpt lat="45.33241" lon="3.3149">
        <ele>452.6</ele>
        <time>2025-10-04T12:07:37Z</time>
      </trkpt>
      <trkpt lat="45.33226" lon="3.31502">
        <ele>452.8</ele>
        <time>2025-10-04T12:07:41Z</time>
      </trkpt>
      <trkpt lat="45.33192" lon="3.31531">
        <ele>453.2</ele>
        <time>2025-10-04T12:07:49Z</time>
      </trkpt>
      <trkpt lat="45.33151" lon="3.31563">
        <ele>453.8</ele>
        <time>2025-10-04T12:07:59Z</time>
      </trkpt>
      <trkpt lat="45.33115" lon="3.31581">
        <ele>454.4</ele>
        <time>2025-10-04T12:08:07Z</time>
      </trkpt>
      <trkpt lat="45.33111" lon="3.31584">
        <ele>454.4</ele>
        <time>2025-10-04T12:08:08Z</time>
      </trkpt>
      <trkpt lat="45.33103" lon="3.3159">
        <ele>454.6</ele>
        <time>2025-10-04T12:08:10Z</time>
      </trkpt>
      <trkpt lat="45.33095" lon="3.31597">
        <ele>454.6</ele>
        <time>2025-10-04T12:08:12Z</time>
      </trkpt>
      <trkpt lat="45.33085" lon="3.31611">
        <ele>455</ele>
        <time>2025-10-04T12:08:15Z</time>
      </trkpt>
      <trkpt lat="45.33068" lon="3.31636">
        <ele>455.2</ele>
        <time>2025-10-04T12:08:20Z</time>
      </trkpt>
      <trkpt lat="45.3304" lon="3.31674">
        <ele>455.6</ele>
        <time>2025-10-04T12:08:28Z</time>
      </trkpt>
      <trkpt lat="45.33034" lon="3.31685">
        <ele>455.6</ele>
        <time>2025-10-04T12:08:30Z</time>
      </trkpt>
      <trkpt lat="45.33031" lon="3.31691">
        <ele>455.6</ele>
        <time>2025-10-04T12:08:31Z</time>
      </trkpt>
      <trkpt lat="45.33016" lon="3.31709">
        <ele>455.4</ele>
        <time>2025-10-04T12:08:35Z</time>
      </trkpt>
      <trkpt lat="45.32982" lon="3.31742">
        <ele>455.4</ele>
        <time>2025-10-04T12:08:44Z</time>
      </trkpt>
      <trkpt lat="45.32979" lon="3.31745">
        <ele>455.6</ele>
        <time>2025-10-04T12:08:45Z</time>
      </trkpt>
      <trkpt lat="45.32969" lon="3.31753">
        <ele>455.8</ele>
        <time>2025-10-04T12:08:48Z</time>
      </trkpt>
      <trkpt lat="45.32961" lon="3.31761">
        <ele>456</ele>
        <time>2025-10-04T12:08:51Z</time>
      </trkpt>
      <trkpt lat="45.3296" lon="3.31763">
        <ele>456.2</ele>
        <time>2025-10-04T12:08:52Z</time>
      </trkpt>
      <trkpt lat="45.32961" lon="3.31771">
        <ele>456.4</ele>
        <time>2025-10-04T12:08:54Z</time>
      </trkpt>
      <trkpt lat="45.3297" lon="3.31796">
        <ele>456.8</ele>
        <time>2025-10-04T12:08:59Z</time>
      </trkpt>
      <trkpt lat="45.32983" lon="3.31813">
        <ele>456.8</ele>
        <time>2025-10-04T12:09:03Z</time>
      </trkpt>
      <trkpt lat="45.3299" lon="3.3182">
        <ele>456.6</ele>
        <time>2025-10-04T12:09:05Z</time>
      </trkpt>
      <trkpt lat="45.32993" lon="3.31824">
        <ele>456.6</ele>
        <time>2025-10-04T12:09:06Z</time>
      </trkpt>
      <trkpt lat="45.32999" lon="3.3183">
        <ele>456.4</ele>
        <time>2025-10-04T12:09:08Z</time>
      </trkpt>
      <trkpt lat="45.33006" lon="3.31838">
        <ele>456.2</ele>
        <time>2025-10-04T12:09:10Z</time>
      </trkpt>
      <trkpt lat="45.33009" lon="3.31842">
        <ele>456.2</ele>
        <time>2025-10-04T12:09:11Z</time>
      </trkpt>
      <trkpt lat="45.33012" lon="3.31846">
        <ele>456.2</ele>
        <time>2025-10-04T12:09:12Z</time>
      </trkpt>
      <trkpt lat="45.33027" lon="3.31865">
        <ele>456.4</ele>
        <time>2025-10-04T12:09:17Z</time>
      </trkpt>
      <trkpt lat="45.33041" lon="3.31883">
        <ele>457</ele>
        <time>2025-10-04T12:09:23Z</time>
      </trkpt>
      <trkpt lat="45.33044" lon="3.31886">
        <ele>457.2</ele>
        <time>2025-10-04T12:09:24Z</time>
      </trkpt>
      <trkpt lat="45.33056" lon="3.31899">
        <ele>458.2</ele>
        <time>2025-10-04T12:09:29Z</time>
      </trkpt>
      <trkpt lat="45.3306" lon="3.31903">
        <ele>458.4</ele>
        <time>2025-10-04T12:09:31Z</time>
      </trkpt>
      <trkpt lat="45.3307" lon="3.31913">
        <ele>459</ele>
        <time>2025-10-04T12:09:35Z</time>
      </trkpt>
      <trkpt lat="45.33081" lon="3.31926">
        <ele>460</ele>
        <time>2025-10-04T12:09:40Z</time>
      </trkpt>
      <trkpt lat="45.33083" lon="3.31929">
        <ele>460.2</ele>
        <time>2025-10-04T12:09:41Z</time>
      </trkpt>
      <trkpt lat="45.33094" lon="3.31941">
        <ele>461.4</ele>
        <time>2025-10-04T12:09:46Z</time>
      </trkpt>
      <trkpt lat="45.33099" lon="3.31947">
        <ele>461.6</ele>
        <time>2025-10-04T12:09:48Z</time>
      </trkpt>
      <trkpt lat="45.33108" lon="3.31958">
        <ele>462.4</ele>
        <time>2025-10-04T12:09:52Z</time>
      </trkpt>
      <trkpt lat="45.33111" lon="3.31964">
        <ele>462.6</ele>
        <time>2025-10-04T12:09:54Z</time>
      </trkpt>
      <trkpt lat="45.33116" lon="3.31971">
        <ele>463.4</ele>
        <time>2025-10-04T12:09:57Z</time>
      </trkpt>
      <trkpt lat="45.33123" lon="3.31981">
        <ele>464.4</ele>
        <time>2025-10-04T12:10:01Z</time>
      </trkpt>
      <trkpt lat="45.33125" lon="3.31983">
        <ele>464.6</ele>
        <time>2025-10-04T12:10:02Z</time>
      </trkpt>
      <trkpt lat="45.33131" lon="3.31992">
        <ele>465.6</ele>
        <time>2025-10-04T12:10:06Z</time>
      </trkpt>
      <trkpt lat="45.33133" lon="3.31995">
        <ele>465.6</ele>
        <time>2025-10-04T12:10:07Z</time>
      </trkpt>
      <trkpt lat="45.3314" lon="3.32012">
        <ele>466.8</ele>
        <time>2025-10-04T12:10:13Z</time>
      </trkpt>
      <trkpt lat="45.33143" lon="3.32022">
        <ele>467.4</ele>
        <time>2025-10-04T12:10:16Z</time>
      </trkpt>
      <trkpt lat="45.33145" lon="3.32032">
        <ele>468</ele>
        <time>2025-10-04T12:10:19Z</time>
      </trkpt>
      <trkpt lat="45.33146" lon="3.32046">
        <ele>468.4</ele>
        <time>2025-10-04T12:10:22Z</time>
      </trkpt>
      <trkpt lat="45.33148" lon="3.3208">
        <ele>468.4</ele>
        <time>2025-10-04T12:10:28Z</time>
      </trkpt>
      <trkpt lat="45.33143" lon="3.321">
        <ele>468.4</ele>
        <time>2025-10-04T12:10:31Z</time>
      </trkpt>
      <trkpt lat="45.33139" lon="3.32116">
        <ele>468.2</ele>
        <time>2025-10-04T12:10:33Z</time>
      </trkpt>
      <trkpt lat="45.33132" lon="3.32141">
        <ele>467.8</ele>
        <time>2025-10-04T12:10:36Z</time>
      </trkpt>
      <trkpt lat="45.33127" lon="3.32159">
        <ele>466.8</ele>
        <time>2025-10-04T12:10:38Z</time>
      </trkpt>
      <trkpt lat="45.33126" lon="3.32168">
        <ele>466.8</ele>
        <time>2025-10-04T12:10:39Z</time>
      </trkpt>
      <trkpt lat="45.33125" lon="3.32177">
        <ele>466.4</ele>
        <time>2025-10-04T12:10:40Z</time>
      </trkpt>
      <trkpt lat="45.33119" lon="3.32193">
        <ele>465.8</ele>
        <time>2025-10-04T12:10:42Z</time>
      </trkpt>
      <trkpt lat="45.33109" lon="3.32209">
        <ele>465.2</ele>
        <time>2025-10-04T12:10:45Z</time>
      </trkpt>
      <trkpt lat="45.33105" lon="3.32214">
        <ele>464.8</ele>
        <time>2025-10-04T12:10:46Z</time>
      </trkpt>
      <trkpt lat="45.33102" lon="3.32219">
        <ele>464.6</ele>
        <time>2025-10-04T12:10:47Z</time>
      </trkpt>
      <trkpt lat="45.33088" lon="3.32238">
        <ele>464</ele>
        <time>2025-10-04T12:10:52Z</time>
      </trkpt>
      <trkpt lat="45.33082" lon="3.32247">
        <ele>464</ele>
        <time>2025-10-04T12:10:54Z</time>
      </trkpt>
      <trkpt lat="45.33079" lon="3.32259">
        <ele>464</ele>
        <time>2025-10-04T12:10:56Z</time>
      </trkpt>
      <trkpt lat="45.33078" lon="3.32265">
        <ele>464</ele>
        <time>2025-10-04T12:10:57Z</time>
      </trkpt>
      <trkpt lat="45.33072" lon="3.32298">
        <ele>464.2</ele>
        <time>2025-10-04T12:11:04Z</time>
      </trkpt>
      <trkpt lat="45.33069" lon="3.32329">
        <ele>464.2</ele>
        <time>2025-10-04T12:11:11Z</time>
      </trkpt>
      <trkpt lat="45.33065" lon="3.32367">
        <ele>465</ele>
        <time>2025-10-04T12:11:21Z</time>
      </trkpt>
      <trkpt lat="45.33065" lon="3.32371">
        <ele>465.2</ele>
        <time>2025-10-04T12:11:22Z</time>
      </trkpt>
      <trkpt lat="45.33063" lon="3.32382">
        <ele>465.6</ele>
        <time>2025-10-04T12:11:25Z</time>
      </trkpt>
      <trkpt lat="45.33061" lon="3.32402">
        <ele>466.2</ele>
        <time>2025-10-04T12:11:31Z</time>
      </trkpt>
      <trkpt lat="45.3306" lon="3.32416">
        <ele>466.6</ele>
        <time>2025-10-04T12:11:36Z</time>
      </trkpt>
      <trkpt lat="45.33059" lon="3.32421">
        <ele>466.6</ele>
        <time>2025-10-04T12:11:38Z</time>
      </trkpt>
      <trkpt lat="45.33056" lon="3.32436">
        <ele>467.2</ele>
        <time>2025-10-04T12:11:44Z</time>
      </trkpt>
      <trkpt lat="45.33056" lon="3.32438">
        <ele>467.2</ele>
        <time>2025-10-04T12:11:45Z</time>
      </trkpt>
      <trkpt lat="45.33055" lon="3.3245">
        <ele>467.6</ele>
        <time>2025-10-04T12:11:50Z</time>
      </trkpt>
      <trkpt lat="45.33055" lon="3.32455">
        <ele>467.8</ele>
        <time>2025-10-04T12:11:52Z</time>
      </trkpt>
      <trkpt lat="45.33052" lon="3.32473">
        <ele>468.6</ele>
        <time>2025-10-04T12:12:00Z</time>
      </trkpt>
      <trkpt lat="45.33052" lon="3.32475">
        <ele>468.8</ele>
        <time>2025-10-04T12:12:01Z</time>
      </trkpt>
      <trkpt lat="45.33049" lon="3.32491">
        <ele>469.8</ele>
        <time>2025-10-04T12:12:09Z</time>
      </trkpt>
      <trkpt lat="45.33046" lon="3.32507">
        <ele>471</ele>
        <time>2025-10-04T12:12:16Z</time>
      </trkpt>
      <trkpt lat="45.33044" lon="3.32512">
        <ele>471.4</ele>
        <time>2025-10-04T12:12:19Z</time>
      </trkpt>
      <trkpt lat="45.33043" lon="3.32516">
        <ele>471.6</ele>
        <time>2025-10-04T12:12:21Z</time>
      </trkpt>
      <trkpt lat="45.33041" lon="3.3252">
        <ele>472</ele>
        <time>2025-10-04T12:12:24Z</time>
      </trkpt>
      <trkpt lat="45.3304" lon="3.32523">
        <ele>472.4</ele>
        <time>2025-10-04T12:12:26Z</time>
      </trkpt>
      <trkpt lat="45.33037" lon="3.32525">
        <ele>473</ele>
        <time>2025-10-04T12:12:29Z</time>
      </trkpt>
      <trkpt lat="45.33036" lon="3.32525">
        <ele>473.2</ele>
        <time>2025-10-04T12:12:30Z</time>
      </trkpt>
      <trkpt lat="45.33033" lon="3.32529">
        <ele>473.6</ele>
        <time>2025-10-04T12:12:33Z</time>
      </trkpt>
      <trkpt lat="45.33031" lon="3.32532">
        <ele>474.2</ele>
        <time>2025-10-04T12:12:36Z</time>
      </trkpt>
      <trkpt lat="45.33027" lon="3.32536">
        <ele>475</ele>
        <time>2025-10-04T12:12:40Z</time>
      </trkpt>
      <trkpt lat="45.33027" lon="3.32538">
        <ele>475.4</ele>
        <time>2025-10-04T12:12:41Z</time>
      </trkpt>
      <trkpt lat="45.33024" lon="3.32544">
        <ele>476.4</ele>
        <time>2025-10-04T12:12:46Z</time>
      </trkpt>
      <trkpt lat="45.33023" lon="3.32547">
        <ele>477.2</ele>
        <time>2025-10-04T12:12:48Z</time>
      </trkpt>
      <trkpt lat="45.33022" lon="3.32551">
        <ele>477.6</ele>
        <time>2025-10-04T12:12:50Z</time>
      </trkpt>
      <trkpt lat="45.33021" lon="3.32559">
        <ele>478.6</ele>
        <time>2025-10-04T12:12:56Z</time>
      </trkpt>
      <trkpt lat="45.33021" lon="3.32561">
        <ele>478.8</ele>
        <time>2025-10-04T12:12:57Z</time>
      </trkpt>
      <trkpt lat="45.33021" lon="3.32562">
        <ele>479</ele>
        <time>2025-10-04T12:12:58Z</time>
      </trkpt>
      <trkpt lat="45.33019" lon="3.32566">
        <ele>479.8</ele>
        <time>2025-10-04T12:13:01Z</time>
      </trkpt>
      <trkpt lat="45.33018" lon="3.3257">
        <ele>480.4</ele>
        <time>2025-10-04T12:13:04Z</time>
      </trkpt>
      <trkpt lat="45.33017" lon="3.32573">
        <ele>481</ele>
        <time>2025-10-04T12:13:06Z</time>
      </trkpt>
      <trkpt lat="45.33016" lon="3.32577">
        <ele>482</ele>
        <time>2025-10-04T12:13:10Z</time>
      </trkpt>
      <trkpt lat="45.33016" lon="3.32577">
        <ele>482.4</ele>
        <time>2025-10-04T12:13:13Z</time>
      </trkpt>
      <trkpt lat="45.33016" lon="3.32577">
        <ele>482.8</ele>
        <time>2025-10-04T12:13:28Z</time>
      </trkpt>
      <trkpt lat="45.33016" lon="3.32577">
        <ele>482.8</ele>
        <time>2025-10-04T12:13:36Z</time>
      </trkpt>
      <trkpt lat="45.33015" lon="3.32582">
        <ele>483</ele>
        <time>2025-10-04T12:13:42Z</time>
      </trkpt>
      <trkpt lat="45.33015" lon="3.32583">
        <ele>483</ele>
        <time>2025-10-04T12:13:43Z</time>
      </trkpt>
      <trkpt lat="45.33015" lon="3.32583">
        <ele>483</ele>
        <time>2025-10-04T12:13:44Z</time>
      </trkpt>
      <trkpt lat="45.33014" lon="3.3259">
        <ele>484.2</ele>
        <time>2025-10-04T12:13:50Z</time>
      </trkpt>
      <trkpt lat="45.33013" lon="3.32594">
        <ele>485</ele>
        <time>2025-10-04T12:13:54Z</time>
      </trkpt>
      <trkpt lat="45.33013" lon="3.32597">
        <ele>485.2</ele>
        <time>2025-10-04T12:13:56Z</time>
      </trkpt>
      <trkpt lat="45.33012" lon="3.32602">
        <ele>486.4</ele>
        <time>2025-10-04T12:14:01Z</time>
      </trkpt>
      <trkpt lat="45.33012" lon="3.32607">
        <ele>487.2</ele>
        <time>2025-10-04T12:14:05Z</time>
      </trkpt>
      <trkpt lat="45.33011" lon="3.3261">
        <ele>487.6</ele>
        <time>2025-10-04T12:14:08Z</time>
      </trkpt>
      <trkpt lat="45.33009" lon="3.32616">
        <ele>488.8</ele>
        <time>2025-10-04T12:14:14Z</time>
      </trkpt>
      <trkpt lat="45.33009" lon="3.32616">
        <ele>489.2</ele>
        <time>2025-10-04T12:14:16Z</time>
      </trkpt>
      <trkpt lat="45.33009" lon="3.32616">
        <ele>489.2</ele>
        <time>2025-10-04T12:14:17Z</time>
      </trkpt>
      <trkpt lat="45.33009" lon="3.32616">
        <ele>489.8</ele>
        <time>2025-10-04T12:14:22Z</time>
      </trkpt>
      <trkpt lat="45.33008" lon="3.32623">
        <ele>490.4</ele>
        <time>2025-10-04T12:14:29Z</time>
      </trkpt>
      <trkpt lat="45.33008" lon="3.32626">
        <ele>491</ele>
        <time>2025-10-04T12:14:32Z</time>
      </trkpt>
      <trkpt lat="45.33007" lon="3.32633">
        <ele>492</ele>
        <time>2025-10-04T12:14:38Z</time>
      </trkpt>
      <trkpt lat="45.33007" lon="3.32634">
        <ele>492.4</ele>
        <time>2025-10-04T12:14:39Z</time>
      </trkpt>
      <trkpt lat="45.33007" lon="3.3264">
        <ele>493.6</ele>
        <time>2025-10-04T12:14:43Z</time>
      </trkpt>
      <trkpt lat="45.33007" lon="3.32643">
        <ele>494.4</ele>
        <time>2025-10-04T12:14:47Z</time>
      </trkpt>
      <trkpt lat="45.33007" lon="3.32644">
        <ele>494.6</ele>
        <time>2025-10-04T12:14:48Z</time>
      </trkpt>
      <trkpt lat="45.33007" lon="3.32644">
        <ele>495.6</ele>
        <time>2025-10-04T12:14:55Z</time>
      </trkpt>
      <trkpt lat="45.33007" lon="3.32644">
        <ele>495.6</ele>
        <time>2025-10-04T12:15:04Z</time>
      </trkpt>
      <trkpt lat="45.3301" lon="3.32647">
        <ele>495.6</ele>
        <time>2025-10-04T12:15:10Z</time>
      </trkpt>
      <trkpt lat="45.33011" lon="3.32649">
        <ele>495.6</ele>
        <time>2025-10-04T12:15:11Z</time>
      </trkpt>
      <trkpt lat="45.33011" lon="3.32651">
        <ele>495.6</ele>
        <time>2025-10-04T12:15:12Z</time>
      </trkpt>
      <trkpt lat="45.33008" lon="3.32653">
        <ele>495.8</ele>
        <time>2025-10-04T12:15:14Z</time>
      </trkpt>
      <trkpt lat="45.33006" lon="3.32654">
        <ele>495.8</ele>
        <time>2025-10-04T12:15:15Z</time>
      </trkpt>
      <trkpt lat="45.32994" lon="3.32658">
        <ele>496.6</ele>
        <time>2025-10-04T12:15:20Z</time>
      </trkpt>
      <trkpt lat="45.32987" lon="3.32661">
        <ele>496.8</ele>
        <time>2025-10-04T12:15:23Z</time>
      </trkpt>
      <trkpt lat="45.32984" lon="3.32662">
        <ele>497</ele>
        <time>2025-10-04T12:15:24Z</time>
      </trkpt>
      <trkpt lat="45.32982" lon="3.32663">
        <ele>497</ele>
        <time>2025-10-04T12:15:25Z</time>
      </trkpt>
      <trkpt lat="45.32975" lon="3.32666">
        <ele>497</ele>
        <time>2025-10-04T12:15:28Z</time>
      </trkpt>
      <trkpt lat="45.3296" lon="3.32674">
        <ele>497.2</ele>
        <time>2025-10-04T12:15:33Z</time>
      </trkpt>
      <trkpt lat="45.32938" lon="3.32686">
        <ele>497.4</ele>
        <time>2025-10-04T12:15:39Z</time>
      </trkpt>
      <trkpt lat="45.32922" lon="3.32695">
        <ele>496.8</ele>
        <time>2025-10-04T12:15:43Z</time>
      </trkpt>
      <trkpt lat="45.32907" lon="3.32705">
        <ele>496.2</ele>
        <time>2025-10-04T12:15:47Z</time>
      </trkpt>
      <trkpt lat="45.32895" lon="3.32714">
        <ele>496</ele>
        <time>2025-10-04T12:15:50Z</time>
      </trkpt>
      <trkpt lat="45.32879" lon="3.32726">
        <ele>495.6</ele>
        <time>2025-10-04T12:15:54Z</time>
      </trkpt>
      <trkpt lat="45.32855" lon="3.3274">
        <ele>494.8</ele>
        <time>2025-10-04T12:15:59Z</time>
      </trkpt>
      <trkpt lat="45.32845" lon="3.32744">
        <ele>494.6</ele>
        <time>2025-10-04T12:16:01Z</time>
      </trkpt>
      <trkpt lat="45.32829" lon="3.32749">
        <ele>494.4</ele>
        <time>2025-10-04T12:16:04Z</time>
      </trkpt>
      <trkpt lat="45.32809" lon="3.32758">
        <ele>494</ele>
        <time>2025-10-04T12:16:08Z</time>
      </trkpt>
      <trkpt lat="45.32803" lon="3.3276">
        <ele>493.8</ele>
        <time>2025-10-04T12:16:09Z</time>
      </trkpt>
      <trkpt lat="45.32793" lon="3.32766">
        <ele>493.4</ele>
        <time>2025-10-04T12:16:11Z</time>
      </trkpt>
      <trkpt lat="45.32779" lon="3.32776">
        <ele>492.2</ele>
        <time>2025-10-04T12:16:14Z</time>
      </trkpt>
      <trkpt lat="45.3276" lon="3.32788">
        <ele>491</ele>
        <time>2025-10-04T12:16:18Z</time>
      </trkpt>
      <trkpt lat="45.32745" lon="3.32798">
        <ele>490.2</ele>
        <time>2025-10-04T12:16:21Z</time>
      </trkpt>
      <trkpt lat="45.32736" lon="3.32805">
        <ele>489.8</ele>
        <time>2025-10-04T12:16:23Z</time>
      </trkpt>
      <trkpt lat="45.32706" lon="3.32826">
        <ele>489.2</ele>
        <time>2025-10-04T12:16:29Z</time>
      </trkpt>
      <trkpt lat="45.32682" lon="3.32848">
        <ele>488.6</ele>
        <time>2025-10-04T12:16:34Z</time>
      </trkpt>
      <trkpt lat="45.32678" lon="3.32853">
        <ele>488.6</ele>
        <time>2025-10-04T12:16:35Z</time>
      </trkpt>
      <trkpt lat="45.32648" lon="3.32877">
        <ele>488</ele>
        <time>2025-10-04T12:16:41Z</time>
      </trkpt>
      <trkpt lat="45.32633" lon="3.32888">
        <ele>487.4</ele>
        <time>2025-10-04T12:16:44Z</time>
      </trkpt>
      <trkpt lat="45.32618" lon="3.32899">
        <ele>486.4</ele>
        <time>2025-10-04T12:16:47Z</time>
      </trkpt>
      <trkpt lat="45.32613" lon="3.32903">
        <ele>485.8</ele>
        <time>2025-10-04T12:16:48Z</time>
      </trkpt>
      <trkpt lat="45.32593" lon="3.32923">
        <ele>485.2</ele>
        <time>2025-10-04T12:16:52Z</time>
      </trkpt>
      <trkpt lat="45.32583" lon="3.32936">
        <ele>484.8</ele>
        <time>2025-10-04T12:16:54Z</time>
      </trkpt>
      <trkpt lat="45.32578" lon="3.32943">
        <ele>484.6</ele>
        <time>2025-10-04T12:16:55Z</time>
      </trkpt>
      <trkpt lat="45.32568" lon="3.32956">
        <ele>484</ele>
        <time>2025-10-04T12:16:57Z</time>
      </trkpt>
      <trkpt lat="45.32563" lon="3.32962">
        <ele>482.8</ele>
        <time>2025-10-04T12:16:58Z</time>
      </trkpt>
      <trkpt lat="45.32548" lon="3.32966">
        <ele>481.8</ele>
        <time>2025-10-04T12:17:00Z</time>
      </trkpt>
      <trkpt lat="45.32532" lon="3.32962">
        <ele>481</ele>
        <time>2025-10-04T12:17:02Z</time>
      </trkpt>
      <trkpt lat="45.32525" lon="3.32958">
        <ele>480.6</ele>
        <time>2025-10-04T12:17:03Z</time>
      </trkpt>
      <trkpt lat="45.32517" lon="3.32954">
        <ele>480.2</ele>
        <time>2025-10-04T12:17:04Z</time>
      </trkpt>
      <trkpt lat="45.3251" lon="3.32951">
        <ele>479.6</ele>
        <time>2025-10-04T12:17:05Z</time>
      </trkpt>
      <trkpt lat="45.32502" lon="3.32949">
        <ele>479</ele>
        <time>2025-10-04T12:17:06Z</time>
      </trkpt>
      <trkpt lat="45.32495" lon="3.32949">
        <ele>478.2</ele>
        <time>2025-10-04T12:17:07Z</time>
      </trkpt>
      <trkpt lat="45.32488" lon="3.32951">
        <ele>477.8</ele>
        <time>2025-10-04T12:17:08Z</time>
      </trkpt>
      <trkpt lat="45.32481" lon="3.32954">
        <ele>477</ele>
        <time>2025-10-04T12:17:09Z</time>
      </trkpt>
      <trkpt lat="45.32469" lon="3.32959">
        <ele>475.8</ele>
        <time>2025-10-04T12:17:11Z</time>
      </trkpt>
      <trkpt lat="45.32458" lon="3.32965">
        <ele>475</ele>
        <time>2025-10-04T12:17:13Z</time>
      </trkpt>
      <trkpt lat="45.32453" lon="3.32968">
        <ele>474.8</ele>
        <time>2025-10-04T12:17:14Z</time>
      </trkpt>
      <trkpt lat="45.32448" lon="3.32973">
        <ele>474.8</ele>
        <time>2025-10-04T12:17:15Z</time>
      </trkpt>
      <trkpt lat="45.32444" lon="3.32979">
        <ele>474.6</ele>
        <time>2025-10-04T12:17:16Z</time>
      </trkpt>
      <trkpt lat="45.32443" lon="3.32986">
        <ele>474.6</ele>
        <time>2025-10-04T12:17:17Z</time>
      </trkpt>
      <trkpt lat="45.32451" lon="3.33005">
        <ele>474.4</ele>
        <time>2025-10-04T12:17:20Z</time>
      </trkpt>
      <trkpt lat="45.32469" lon="3.33052">
        <ele>474</ele>
        <time>2025-10-04T12:17:26Z</time>
      </trkpt>
      <trkpt lat="45.32475" lon="3.33068">
        <ele>473.6</ele>
        <time>2025-10-04T12:17:28Z</time>
      </trkpt>
      <trkpt lat="45.32488" lon="3.33102">
        <ele>473.2</ele>
        <time>2025-10-04T12:17:32Z</time>
      </trkpt>
      <trkpt lat="45.32492" lon="3.3311">
        <ele>473</ele>
        <time>2025-10-04T12:17:33Z</time>
      </trkpt>
      <trkpt lat="45.32494" lon="3.33119">
        <ele>472.8</ele>
        <time>2025-10-04T12:17:34Z</time>
      </trkpt>
      <trkpt lat="45.32492" lon="3.33128">
        <ele>472.6</ele>
        <time>2025-10-04T12:17:35Z</time>
      </trkpt>
      <trkpt lat="45.32488" lon="3.33134">
        <ele>472.2</ele>
        <time>2025-10-04T12:17:36Z</time>
      </trkpt>
      <trkpt lat="45.32481" lon="3.33138">
        <ele>472.2</ele>
        <time>2025-10-04T12:17:37Z</time>
      </trkpt>
      <trkpt lat="45.32474" lon="3.33141">
        <ele>472</ele>
        <time>2025-10-04T12:17:38Z</time>
      </trkpt>
      <trkpt lat="45.32461" lon="3.33147">
        <ele>471.6</ele>
        <time>2025-10-04T12:17:40Z</time>
      </trkpt>
      <trkpt lat="45.32449" lon="3.33154">
        <ele>470.8</ele>
        <time>2025-10-04T12:17:42Z</time>
      </trkpt>
      <trkpt lat="45.32442" lon="3.33158">
        <ele>470.4</ele>
        <time>2025-10-04T12:17:43Z</time>
      </trkpt>
      <trkpt lat="45.32411" lon="3.33176">
        <ele>469.2</ele>
        <time>2025-10-04T12:17:48Z</time>
      </trkpt>
      <trkpt lat="45.32394" lon="3.33188">
        <ele>468.6</ele>
        <time>2025-10-04T12:17:51Z</time>
      </trkpt>
      <trkpt lat="45.32364" lon="3.33207">
        <ele>468.4</ele>
        <time>2025-10-04T12:17:56Z</time>
      </trkpt>
      <trkpt lat="45.32342" lon="3.3322">
        <ele>468.6</ele>
        <time>2025-10-04T12:18:00Z</time>
      </trkpt>
      <trkpt lat="45.3232" lon="3.33233">
        <ele>469</ele>
        <time>2025-10-04T12:18:04Z</time>
      </trkpt>
      <trkpt lat="45.32303" lon="3.33242">
        <ele>469.2</ele>
        <time>2025-10-04T12:18:07Z</time>
      </trkpt>
      <trkpt lat="45.32257" lon="3.33267">
        <ele>469.6</ele>
        <time>2025-10-04T12:18:15Z</time>
      </trkpt>
      <trkpt lat="45.32252" lon="3.3327">
        <ele>469.4</ele>
        <time>2025-10-04T12:18:16Z</time>
      </trkpt>
      <trkpt lat="45.32217" lon="3.33296">
        <ele>469.4</ele>
        <time>2025-10-04T12:18:23Z</time>
      </trkpt>
      <trkpt lat="45.32212" lon="3.333">
        <ele>469.4</ele>
        <time>2025-10-04T12:18:24Z</time>
      </trkpt>
      <trkpt lat="45.3219" lon="3.3333">
        <ele>469.6</ele>
        <time>2025-10-04T12:18:29Z</time>
      </trkpt>
      <trkpt lat="45.32158" lon="3.33375">
        <ele>468.8</ele>
        <time>2025-10-04T12:18:36Z</time>
      </trkpt>
      <trkpt lat="45.32141" lon="3.33391">
        <ele>468</ele>
        <time>2025-10-04T12:18:39Z</time>
      </trkpt>
      <trkpt lat="45.32122" lon="3.33406">
        <ele>467</ele>
        <time>2025-10-04T12:18:42Z</time>
      </trkpt>
      <trkpt lat="45.32116" lon="3.33411">
        <ele>466.8</ele>
        <time>2025-10-04T12:18:43Z</time>
      </trkpt>
      <trkpt lat="45.32095" lon="3.33424">
        <ele>466.2</ele>
        <time>2025-10-04T12:18:47Z</time>
      </trkpt>
      <trkpt lat="45.32089" lon="3.33427">
        <ele>466</ele>
        <time>2025-10-04T12:18:50Z</time>
      </trkpt>
      <trkpt lat="45.32084" lon="3.33427">
        <ele>465.8</ele>
        <time>2025-10-04T12:18:52Z</time>
      </trkpt>
      <trkpt lat="45.32077" lon="3.3343">
        <ele>465.6</ele>
        <time>2025-10-04T12:18:54Z</time>
      </trkpt>
      <trkpt lat="45.32073" lon="3.33433">
        <ele>465.8</ele>
        <time>2025-10-04T12:18:55Z</time>
      </trkpt>
      <trkpt lat="45.32059" lon="3.33443">
        <ele>465.4</ele>
        <time>2025-10-04T12:18:58Z</time>
      </trkpt>
      <trkpt lat="45.32039" lon="3.33455">
        <ele>464.8</ele>
        <time>2025-10-04T12:19:02Z</time>
      </trkpt>
      <trkpt lat="45.32022" lon="3.33463">
        <ele>464.6</ele>
        <time>2025-10-04T12:19:05Z</time>
      </trkpt>
      <trkpt lat="45.31975" lon="3.33495">
        <ele>464.4</ele>
        <time>2025-10-04T12:19:14Z</time>
      </trkpt>
      <trkpt lat="45.3193" lon="3.33527">
        <ele>464.2</ele>
        <time>2025-10-04T12:19:23Z</time>
      </trkpt>
      <trkpt lat="45.31906" lon="3.33544">
        <ele>464.2</ele>
        <time>2025-10-04T12:19:28Z</time>
      </trkpt>
      <trkpt lat="45.31897" lon="3.33552">
        <ele>464.4</ele>
        <time>2025-10-04T12:19:30Z</time>
      </trkpt>
      <trkpt lat="45.31892" lon="3.33557">
        <ele>464.4</ele>
        <time>2025-10-04T12:19:31Z</time>
      </trkpt>
      <trkpt lat="45.31888" lon="3.33561">
        <ele>464.4</ele>
        <time>2025-10-04T12:19:32Z</time>
      </trkpt>
      <trkpt lat="45.3187" lon="3.3359">
        <ele>464.6</ele>
        <time>2025-10-04T12:19:37Z</time>
      </trkpt>
      <trkpt lat="45.31851" lon="3.33623">
        <ele>464.2</ele>
        <time>2025-10-04T12:19:42Z</time>
      </trkpt>
      <trkpt lat="45.31846" lon="3.3363">
        <ele>464</ele>
        <time>2025-10-04T12:19:43Z</time>
      </trkpt>
      <trkpt lat="45.3183" lon="3.3365">
        <ele>463.8</ele>
        <time>2025-10-04T12:19:46Z</time>
      </trkpt>
      <trkpt lat="45.31825" lon="3.33657">
        <ele>463.4</ele>
        <time>2025-10-04T12:19:47Z</time>
      </trkpt>
      <trkpt lat="45.31822" lon="3.33675">
        <ele>462.8</ele>
        <time>2025-10-04T12:19:49Z</time>
      </trkpt>
      <trkpt lat="45.31825" lon="3.33684">
        <ele>462.4</ele>
        <time>2025-10-04T12:19:50Z</time>
      </trkpt>
      <trkpt lat="45.31838" lon="3.33713">
        <ele>461.4</ele>
        <time>2025-10-04T12:19:53Z</time>
      </trkpt>
      <trkpt lat="45.31844" lon="3.33735">
        <ele>460.2</ele>
        <time>2025-10-04T12:19:55Z</time>
      </trkpt>
      <trkpt lat="45.3185" lon="3.33758">
        <ele>459.2</ele>
        <time>2025-10-04T12:19:57Z</time>
      </trkpt>
      <trkpt lat="45.31859" lon="3.33795">
        <ele>458</ele>
        <time>2025-10-04T12:20:00Z</time>
      </trkpt>
      <trkpt lat="45.31861" lon="3.33807">
        <ele>457.8</ele>
        <time>2025-10-04T12:20:01Z</time>
      </trkpt>
      <trkpt lat="45.31867" lon="3.33833">
        <ele>456.8</ele>
        <time>2025-10-04T12:20:03Z</time>
      </trkpt>
      <trkpt lat="45.31873" lon="3.33857">
        <ele>455.6</ele>
        <time>2025-10-04T12:20:05Z</time>
      </trkpt>
      <trkpt lat="45.31881" lon="3.33883">
        <ele>455</ele>
        <time>2025-10-04T12:20:07Z</time>
      </trkpt>
      <trkpt lat="45.31884" lon="3.33894">
        <ele>454.6</ele>
        <time>2025-10-04T12:20:08Z</time>
      </trkpt>
      <trkpt lat="45.31886" lon="3.33904">
        <ele>453.6</ele>
        <time>2025-10-04T12:20:09Z</time>
      </trkpt>
      <trkpt lat="45.3189" lon="3.33921">
        <ele>452</ele>
        <time>2025-10-04T12:20:11Z</time>
      </trkpt>
      <trkpt lat="45.31893" lon="3.33936">
        <ele>451</ele>
        <time>2025-10-04T12:20:13Z</time>
      </trkpt>
      <trkpt lat="45.31897" lon="3.33955">
        <ele>449.4</ele>
        <time>2025-10-04T12:20:16Z</time>
      </trkpt>
      <trkpt lat="45.31898" lon="3.3396">
        <ele>449.2</ele>
        <time>2025-10-04T12:20:17Z</time>
      </trkpt>
      <trkpt lat="45.31901" lon="3.33982">
        <ele>448.4</ele>
        <time>2025-10-04T12:20:20Z</time>
      </trkpt>
      <trkpt lat="45.31903" lon="3.33991">
        <ele>448.2</ele>
        <time>2025-10-04T12:20:21Z</time>
      </trkpt>
      <trkpt lat="45.31908" lon="3.34028">
        <ele>447.2</ele>
        <time>2025-10-04T12:20:25Z</time>
      </trkpt>
      <trkpt lat="45.31912" lon="3.34058">
        <ele>446.6</ele>
        <time>2025-10-04T12:20:28Z</time>
      </trkpt>
      <trkpt lat="45.31915" lon="3.34078">
        <ele>446.2</ele>
        <time>2025-10-04T12:20:30Z</time>
      </trkpt>
      <trkpt lat="45.31923" lon="3.34119">
        <ele>444.8</ele>
        <time>2025-10-04T12:20:34Z</time>
      </trkpt>
      <trkpt lat="45.31925" lon="3.34183">
        <ele>444</ele>
        <time>2025-10-04T12:20:40Z</time>
      </trkpt>
      <trkpt lat="45.31924" lon="3.34205">
        <ele>443.4</ele>
        <time>2025-10-04T12:20:42Z</time>
      </trkpt>
      <trkpt lat="45.31926" lon="3.34238">
        <ele>442.6</ele>
        <time>2025-10-04T12:20:45Z</time>
      </trkpt>
      <trkpt lat="45.31928" lon="3.34249">
        <ele>442.4</ele>
        <time>2025-10-04T12:20:46Z</time>
      </trkpt>
      <trkpt lat="45.31942" lon="3.343">
        <ele>441.4</ele>
        <time>2025-10-04T12:20:51Z</time>
      </trkpt>
      <trkpt lat="45.31947" lon="3.3432">
        <ele>440.8</ele>
        <time>2025-10-04T12:20:53Z</time>
      </trkpt>
      <trkpt lat="45.31956" lon="3.3435">
        <ele>440</ele>
        <time>2025-10-04T12:20:56Z</time>
      </trkpt>
      <trkpt lat="45.31959" lon="3.34359">
        <ele>439.8</ele>
        <time>2025-10-04T12:20:57Z</time>
      </trkpt>
      <trkpt lat="45.31968" lon="3.34387">
        <ele>439</ele>
        <time>2025-10-04T12:21:00Z</time>
      </trkpt>
      <trkpt lat="45.31984" lon="3.34422">
        <ele>438.6</ele>
        <time>2025-10-04T12:21:04Z</time>
      </trkpt>
      <trkpt lat="45.31999" lon="3.34446">
        <ele>438.4</ele>
        <time>2025-10-04T12:21:07Z</time>
      </trkpt>
      <trkpt lat="45.32011" lon="3.34458">
        <ele>438.2</ele>
        <time>2025-10-04T12:21:09Z</time>
      </trkpt>
      <trkpt lat="45.3203" lon="3.34472">
        <ele>437.8</ele>
        <time>2025-10-04T12:21:12Z</time>
      </trkpt>
      <trkpt lat="45.32041" lon="3.34481">
        <ele>437.8</ele>
        <time>2025-10-04T12:21:14Z</time>
      </trkpt>
      <trkpt lat="45.32064" lon="3.34505">
        <ele>438</ele>
        <time>2025-10-04T12:21:19Z</time>
      </trkpt>
      <trkpt lat="45.32073" lon="3.34517">
        <ele>439</ele>
        <time>2025-10-04T12:21:22Z</time>
      </trkpt>
      <trkpt lat="45.3208" lon="3.34523">
        <ele>439.2</ele>
        <time>2025-10-04T12:21:24Z</time>
      </trkpt>
      <trkpt lat="45.32099" lon="3.34549">
        <ele>440</ele>
        <time>2025-10-04T12:21:29Z</time>
      </trkpt>
      <trkpt lat="45.32115" lon="3.34564">
        <ele>440</ele>
        <time>2025-10-04T12:21:32Z</time>
      </trkpt>
      <trkpt lat="45.32122" lon="3.34569">
        <ele>440</ele>
        <time>2025-10-04T12:21:33Z</time>
      </trkpt>
      <trkpt lat="45.32128" lon="3.34572">
        <ele>439.8</ele>
        <time>2025-10-04T12:21:34Z</time>
      </trkpt>
      <trkpt lat="45.32135" lon="3.34576">
        <ele>439.8</ele>
        <time>2025-10-04T12:21:35Z</time>
      </trkpt>
      <trkpt lat="45.32148" lon="3.34579">
        <ele>439.4</ele>
        <time>2025-10-04T12:21:37Z</time>
      </trkpt>
      <trkpt lat="45.32155" lon="3.34579">
        <ele>439.2</ele>
        <time>2025-10-04T12:21:38Z</time>
      </trkpt>
      <trkpt lat="45.32162" lon="3.34578">
        <ele>439</ele>
        <time>2025-10-04T12:21:39Z</time>
      </trkpt>
      <trkpt lat="45.32201" lon="3.34572">
        <ele>438.2</ele>
        <time>2025-10-04T12:21:45Z</time>
      </trkpt>
      <trkpt lat="45.32207" lon="3.34572">
        <ele>438.2</ele>
        <time>2025-10-04T12:21:46Z</time>
      </trkpt>
      <trkpt lat="45.32234" lon="3.34579">
        <ele>438</ele>
        <time>2025-10-04T12:21:50Z</time>
      </trkpt>
      <trkpt lat="45.32268" lon="3.34599">
        <ele>437.8</ele>
        <time>2025-10-04T12:21:55Z</time>
      </trkpt>
      <trkpt lat="45.32274" lon="3.34604">
        <ele>437.6</ele>
        <time>2025-10-04T12:21:56Z</time>
      </trkpt>
      <trkpt lat="45.32299" lon="3.34625">
        <ele>436.8</ele>
        <time>2025-10-04T12:22:00Z</time>
      </trkpt>
      <trkpt lat="45.32324" lon="3.34645">
        <ele>436</ele>
        <time>2025-10-04T12:22:04Z</time>
      </trkpt>
      <trkpt lat="45.32331" lon="3.3465">
        <ele>435.6</ele>
        <time>2025-10-04T12:22:05Z</time>
      </trkpt>
      <trkpt lat="45.32349" lon="3.34669">
        <ele>435</ele>
        <time>2025-10-04T12:22:08Z</time>
      </trkpt>
      <trkpt lat="45.32361" lon="3.34683">
        <ele>434.4</ele>
        <time>2025-10-04T12:22:10Z</time>
      </trkpt>
      <trkpt lat="45.32392" lon="3.34721">
        <ele>433.4</ele>
        <time>2025-10-04T12:22:15Z</time>
      </trkpt>
      <trkpt lat="45.32398" lon="3.34729">
        <ele>433</ele>
        <time>2025-10-04T12:22:16Z</time>
      </trkpt>
      <trkpt lat="45.32405" lon="3.34736">
        <ele>432.8</ele>
        <time>2025-10-04T12:22:17Z</time>
      </trkpt>
      <trkpt lat="45.32418" lon="3.34752">
        <ele>432</ele>
        <time>2025-10-04T12:22:19Z</time>
      </trkpt>
      <trkpt lat="45.32439" lon="3.34773">
        <ele>430.6</ele>
        <time>2025-10-04T12:22:22Z</time>
      </trkpt>
      <trkpt lat="45.32459" lon="3.34794">
        <ele>429.4</ele>
        <time>2025-10-04T12:22:25Z</time>
      </trkpt>
      <trkpt lat="45.32489" lon="3.34826">
        <ele>428.8</ele>
        <time>2025-10-04T12:22:30Z</time>
      </trkpt>
      <trkpt lat="45.32495" lon="3.34832">
        <ele>428.8</ele>
        <time>2025-10-04T12:22:31Z</time>
      </trkpt>
      <trkpt lat="45.32534" lon="3.34875">
        <ele>428.4</ele>
        <time>2025-10-04T12:22:38Z</time>
      </trkpt>
      <trkpt lat="45.32551" lon="3.34892">
        <ele>428.2</ele>
        <time>2025-10-04T12:22:41Z</time>
      </trkpt>
      <trkpt lat="45.32573" lon="3.34915">
        <ele>428</ele>
        <time>2025-10-04T12:22:45Z</time>
      </trkpt>
      <trkpt lat="45.32601" lon="3.34945">
        <ele>427.8</ele>
        <time>2025-10-04T12:22:50Z</time>
      </trkpt>
      <trkpt lat="45.32636" lon="3.34982">
        <ele>427.4</ele>
        <time>2025-10-04T12:22:56Z</time>
      </trkpt>
      <trkpt lat="45.32643" lon="3.34987">
        <ele>427.2</ele>
        <time>2025-10-04T12:22:57Z</time>
      </trkpt>
      <trkpt lat="45.32656" lon="3.34993">
        <ele>427</ele>
        <time>2025-10-04T12:22:59Z</time>
      </trkpt>
      <trkpt lat="45.32663" lon="3.34993">
        <ele>427</ele>
        <time>2025-10-04T12:23:00Z</time>
      </trkpt>
      <trkpt lat="45.32669" lon="3.34992">
        <ele>427</ele>
        <time>2025-10-04T12:23:01Z</time>
      </trkpt>
      <trkpt lat="45.32681" lon="3.34988">
        <ele>427</ele>
        <time>2025-10-04T12:23:03Z</time>
      </trkpt>
      <trkpt lat="45.32694" lon="3.34983">
        <ele>426.8</ele>
        <time>2025-10-04T12:23:05Z</time>
      </trkpt>
      <trkpt lat="45.32715" lon="3.34969">
        <ele>426.2</ele>
        <time>2025-10-04T12:23:09Z</time>
      </trkpt>
      <trkpt lat="45.32731" lon="3.3496">
        <ele>425.4</ele>
        <time>2025-10-04T12:23:12Z</time>
      </trkpt>
      <trkpt lat="45.32766" lon="3.34941">
        <ele>425.8</ele>
        <time>2025-10-04T12:23:18Z</time>
      </trkpt>
      <trkpt lat="45.32777" lon="3.34935">
        <ele>425.8</ele>
        <time>2025-10-04T12:23:20Z</time>
      </trkpt>
      <trkpt lat="45.32817" lon="3.34914">
        <ele>425.8</ele>
        <time>2025-10-04T12:23:27Z</time>
      </trkpt>
      <trkpt lat="45.32867" lon="3.34888">
        <ele>425.6</ele>
        <time>2025-10-04T12:23:36Z</time>
      </trkpt>
      <trkpt lat="45.32883" lon="3.3488">
        <ele>425.6</ele>
        <time>2025-10-04T12:23:39Z</time>
      </trkpt>
      <trkpt lat="45.32889" lon="3.34881">
        <ele>425.4</ele>
        <time>2025-10-04T12:23:40Z</time>
      </trkpt>
      <trkpt lat="45.32893" lon="3.34885">
        <ele>425.4</ele>
        <time>2025-10-04T12:23:41Z</time>
      </trkpt>
      <trkpt lat="45.32896" lon="3.34892">
        <ele>425.4</ele>
        <time>2025-10-04T12:23:42Z</time>
      </trkpt>
      <trkpt lat="45.32914" lon="3.34938">
        <ele>425.2</ele>
        <time>2025-10-04T12:23:48Z</time>
      </trkpt>
      <trkpt lat="45.32936" lon="3.34986">
        <ele>425.2</ele>
        <time>2025-10-04T12:23:54Z</time>
      </trkpt>
      <trkpt lat="45.32939" lon="3.34995">
        <ele>425.2</ele>
        <time>2025-10-04T12:23:55Z</time>
      </trkpt>
      <trkpt lat="45.32942" lon="3.35014">
        <ele>425.2</ele>
        <time>2025-10-04T12:23:57Z</time>
      </trkpt>
      <trkpt lat="45.32942" lon="3.35032">
        <ele>425.6</ele>
        <time>2025-10-04T12:23:59Z</time>
      </trkpt>
      <trkpt lat="45.32942" lon="3.35042">
        <ele>425.6</ele>
        <time>2025-10-04T12:24:00Z</time>
      </trkpt>
      <trkpt lat="45.32941" lon="3.35077">
        <ele>425.8</ele>
        <time>2025-10-04T12:24:04Z</time>
      </trkpt>
      <trkpt lat="45.32943" lon="3.35094">
        <ele>425.8</ele>
        <time>2025-10-04T12:24:06Z</time>
      </trkpt>
      <trkpt lat="45.32948" lon="3.35111">
        <ele>425.8</ele>
        <time>2025-10-04T12:24:08Z</time>
      </trkpt>
      <trkpt lat="45.32956" lon="3.35124">
        <ele>425.8</ele>
        <time>2025-10-04T12:24:10Z</time>
      </trkpt>
      <trkpt lat="45.32961" lon="3.3513">
        <ele>425.6</ele>
        <time>2025-10-04T12:24:11Z</time>
      </trkpt>
      <trkpt lat="45.32971" lon="3.3514">
        <ele>425.2</ele>
        <time>2025-10-04T12:24:13Z</time>
      </trkpt>
      <trkpt lat="45.32998" lon="3.35167">
        <ele>424.8</ele>
        <time>2025-10-04T12:24:18Z</time>
      </trkpt>
      <trkpt lat="45.33002" lon="3.35174">
        <ele>424.8</ele>
        <time>2025-10-04T12:24:19Z</time>
      </trkpt>
      <trkpt lat="45.33008" lon="3.3519">
        <ele>424.6</ele>
        <time>2025-10-04T12:24:21Z</time>
      </trkpt>
      <trkpt lat="45.33008" lon="3.35219">
        <ele>424.8</ele>
        <time>2025-10-04T12:24:24Z</time>
      </trkpt>
      <trkpt lat="45.33008" lon="3.35228">
        <ele>425</ele>
        <time>2025-10-04T12:24:25Z</time>
      </trkpt>
      <trkpt lat="45.33011" lon="3.35246">
        <ele>425</ele>
        <time>2025-10-04T12:24:27Z</time>
      </trkpt>
      <trkpt lat="45.33026" lon="3.353">
        <ele>425.2</ele>
        <time>2025-10-04T12:24:33Z</time>
      </trkpt>
      <trkpt lat="45.33032" lon="3.35306">
        <ele>425.2</ele>
        <time>2025-10-04T12:24:34Z</time>
      </trkpt>
      <trkpt lat="45.33042" lon="3.35316">
        <ele>425.2</ele>
        <time>2025-10-04T12:24:36Z</time>
      </trkpt>
      <trkpt lat="45.33047" lon="3.35323">
        <ele>425.2</ele>
        <time>2025-10-04T12:24:37Z</time>
      </trkpt>
      <trkpt lat="45.33049" lon="3.35331">
        <ele>425.2</ele>
        <time>2025-10-04T12:24:38Z</time>
      </trkpt>
      <trkpt lat="45.33055" lon="3.35358">
        <ele>425</ele>
        <time>2025-10-04T12:24:41Z</time>
      </trkpt>
      <trkpt lat="45.33065" lon="3.35428">
        <ele>425.8</ele>
        <time>2025-10-04T12:24:49Z</time>
      </trkpt>
      <trkpt lat="45.33065" lon="3.35446">
        <ele>426</ele>
        <time>2025-10-04T12:24:51Z</time>
      </trkpt>
      <trkpt lat="45.33065" lon="3.35465">
        <ele>426</ele>
        <time>2025-10-04T12:24:53Z</time>
      </trkpt>
      <trkpt lat="45.33067" lon="3.35483">
        <ele>425.6</ele>
        <time>2025-10-04T12:24:55Z</time>
      </trkpt>
      <trkpt lat="45.33071" lon="3.35502">
        <ele>425.4</ele>
        <time>2025-10-04T12:24:57Z</time>
      </trkpt>
      <trkpt lat="45.3308" lon="3.35527">
        <ele>425.4</ele>
        <time>2025-10-04T12:25:00Z</time>
      </trkpt>
      <trkpt lat="45.33096" lon="3.35558">
        <ele>424.6</ele>
        <time>2025-10-04T12:25:04Z</time>
      </trkpt>
      <trkpt lat="45.33101" lon="3.35564">
        <ele>424.4</ele>
        <time>2025-10-04T12:25:05Z</time>
      </trkpt>
      <trkpt lat="45.3311" lon="3.35575">
        <ele>424.2</ele>
        <time>2025-10-04T12:25:07Z</time>
      </trkpt>
      <trkpt lat="45.33125" lon="3.35593">
        <ele>424.2</ele>
        <time>2025-10-04T12:25:10Z</time>
      </trkpt>
      <trkpt lat="45.3313" lon="3.35599">
        <ele>424</ele>
        <time>2025-10-04T12:25:11Z</time>
      </trkpt>
      <trkpt lat="45.33138" lon="3.35615">
        <ele>424</ele>
        <time>2025-10-04T12:25:13Z</time>
      </trkpt>
      <trkpt lat="45.33141" lon="3.35624">
        <ele>424</ele>
        <time>2025-10-04T12:25:14Z</time>
      </trkpt>
      <trkpt lat="45.33158" lon="3.35665">
        <ele>424.4</ele>
        <time>2025-10-04T12:25:19Z</time>
      </trkpt>
      <trkpt lat="45.33163" lon="3.35671">
        <ele>424.6</ele>
        <time>2025-10-04T12:25:20Z</time>
      </trkpt>
      <trkpt lat="45.33168" lon="3.35676">
        <ele>424.6</ele>
        <time>2025-10-04T12:25:21Z</time>
      </trkpt>
      <trkpt lat="45.33191" lon="3.35695">
        <ele>424.4</ele>
        <time>2025-10-04T12:25:25Z</time>
      </trkpt>
      <trkpt lat="45.33223" lon="3.35729">
        <ele>423.8</ele>
        <time>2025-10-04T12:25:31Z</time>
      </trkpt>
      <trkpt lat="45.33241" lon="3.35768">
        <ele>423.2</ele>
        <time>2025-10-04T12:25:36Z</time>
      </trkpt>
      <trkpt lat="45.33259" lon="3.35816">
        <ele>423</ele>
        <time>2025-10-04T12:25:42Z</time>
      </trkpt>
      <trkpt lat="45.33271" lon="3.35846">
        <ele>422.8</ele>
        <time>2025-10-04T12:25:46Z</time>
      </trkpt>
      <trkpt lat="45.33289" lon="3.35883">
        <ele>422.8</ele>
        <time>2025-10-04T12:25:51Z</time>
      </trkpt>
      <trkpt lat="45.33291" lon="3.3589">
        <ele>422.8</ele>
        <time>2025-10-04T12:25:52Z</time>
      </trkpt>
      <trkpt lat="45.3329" lon="3.35897">
        <ele>422.8</ele>
        <time>2025-10-04T12:25:53Z</time>
      </trkpt>
      <trkpt lat="45.33287" lon="3.35904">
        <ele>422.8</ele>
        <time>2025-10-04T12:25:54Z</time>
      </trkpt>
      <trkpt lat="45.33277" lon="3.35921">
        <ele>422.8</ele>
        <time>2025-10-04T12:25:57Z</time>
      </trkpt>
      <trkpt lat="45.33268" lon="3.3594">
        <ele>423</ele>
        <time>2025-10-04T12:26:00Z</time>
      </trkpt>
      <trkpt lat="45.33261" lon="3.35959">
        <ele>423.4</ele>
        <time>2025-10-04T12:26:03Z</time>
      </trkpt>
      <trkpt lat="45.3326" lon="3.35971">
        <ele>423.4</ele>
        <time>2025-10-04T12:26:05Z</time>
      </trkpt>
      <trkpt lat="45.33263" lon="3.35982">
        <ele>423.4</ele>
        <time>2025-10-04T12:26:07Z</time>
      </trkpt>
      <trkpt lat="45.33268" lon="3.35992">
        <ele>423.6</ele>
        <time>2025-10-04T12:26:09Z</time>
      </trkpt>
      <trkpt lat="45.33295" lon="3.36033">
        <ele>423.8</ele>
        <time>2025-10-04T12:26:17Z</time>
      </trkpt>
      <trkpt lat="45.33298" lon="3.36037">
        <ele>424</ele>
        <time>2025-10-04T12:26:18Z</time>
      </trkpt>
      <trkpt lat="45.33303" lon="3.36039">
        <ele>423.8</ele>
        <time>2025-10-04T12:26:19Z</time>
      </trkpt>
      <trkpt lat="45.33314" lon="3.3604">
        <ele>423.8</ele>
        <time>2025-10-04T12:26:21Z</time>
      </trkpt>
      <trkpt lat="45.33319" lon="3.36039">
        <ele>423.8</ele>
        <time>2025-10-04T12:26:22Z</time>
      </trkpt>
      <trkpt lat="45.33325" lon="3.36037">
        <ele>423.8</ele>
        <time>2025-10-04T12:26:23Z</time>
      </trkpt>
      <trkpt lat="45.33349" lon="3.36028">
        <ele>423.6</ele>
        <time>2025-10-04T12:26:27Z</time>
      </trkpt>
      <trkpt lat="45.33355" lon="3.36027">
        <ele>423.4</ele>
        <time>2025-10-04T12:26:28Z</time>
      </trkpt>
      <trkpt lat="45.33361" lon="3.36027">
        <ele>423.2</ele>
        <time>2025-10-04T12:26:29Z</time>
      </trkpt>
      <trkpt lat="45.33372" lon="3.36031">
        <ele>423</ele>
        <time>2025-10-04T12:26:31Z</time>
      </trkpt>
      <trkpt lat="45.33377" lon="3.36036">
        <ele>423</ele>
        <time>2025-10-04T12:26:32Z</time>
      </trkpt>
      <trkpt lat="45.3338" lon="3.36041">
        <ele>423</ele>
        <time>2025-10-04T12:26:33Z</time>
      </trkpt>
      <trkpt lat="45.33386" lon="3.36054">
        <ele>423</ele>
        <time>2025-10-04T12:26:35Z</time>
      </trkpt>
      <trkpt lat="45.3339" lon="3.3607">
        <ele>422.6</ele>
        <time>2025-10-04T12:26:37Z</time>
      </trkpt>
      <trkpt lat="45.33393" lon="3.36086">
        <ele>422.4</ele>
        <time>2025-10-04T12:26:39Z</time>
      </trkpt>
      <trkpt lat="45.33393" lon="3.36095">
        <ele>422.4</ele>
        <time>2025-10-04T12:26:40Z</time>
      </trkpt>
      <trkpt lat="45.33391" lon="3.36112">
        <ele>422.4</ele>
        <time>2025-10-04T12:26:42Z</time>
      </trkpt>
      <trkpt lat="45.33385" lon="3.36132">
        <ele>422.4</ele>
        <time>2025-10-04T12:26:45Z</time>
      </trkpt>
      <trkpt lat="45.33376" lon="3.36157">
        <ele>422.8</ele>
        <time>2025-10-04T12:26:49Z</time>
      </trkpt>
      <trkpt lat="45.33374" lon="3.36171">
        <ele>423</ele>
        <time>2025-10-04T12:26:51Z</time>
      </trkpt>
      <trkpt lat="45.33375" lon="3.36185">
        <ele>423.4</ele>
        <time>2025-10-04T12:26:53Z</time>
      </trkpt>
      <trkpt lat="45.33378" lon="3.36197">
        <ele>423.6</ele>
        <time>2025-10-04T12:26:55Z</time>
      </trkpt>
      <trkpt lat="45.33388" lon="3.36225">
        <ele>424.4</ele>
        <time>2025-10-04T12:27:00Z</time>
      </trkpt>
      <trkpt lat="45.33393" lon="3.36236">
        <ele>424.8</ele>
        <time>2025-10-04T12:27:02Z</time>
      </trkpt>
      <trkpt lat="45.33406" lon="3.36263">
        <ele>425.4</ele>
        <time>2025-10-04T12:27:07Z</time>
      </trkpt>
      <trkpt lat="45.33422" lon="3.36289">
        <ele>426</ele>
        <time>2025-10-04T12:27:12Z</time>
      </trkpt>
      <trkpt lat="45.33433" lon="3.36309">
        <ele>426.4</ele>
        <time>2025-10-04T12:27:16Z</time>
      </trkpt>
      <trkpt lat="45.33448" lon="3.36335">
        <ele>427</ele>
        <time>2025-10-04T12:27:21Z</time>
      </trkpt>
      <trkpt lat="45.33473" lon="3.36383">
        <ele>427.2</ele>
        <time>2025-10-04T12:27:30Z</time>
      </trkpt>
      <trkpt lat="45.33476" lon="3.36388">
        <ele>427.4</ele>
        <time>2025-10-04T12:27:31Z</time>
      </trkpt>
      <trkpt lat="45.33483" lon="3.36404">
        <ele>427.6</ele>
        <time>2025-10-04T12:27:34Z</time>
      </trkpt>
      <trkpt lat="45.3349" lon="3.36428">
        <ele>427.8</ele>
        <time>2025-10-04T12:27:38Z</time>
      </trkpt>
      <trkpt lat="45.335" lon="3.36474">
        <ele>427.8</ele>
        <time>2025-10-04T12:27:45Z</time>
      </trkpt>
      <trkpt lat="45.33501" lon="3.36486">
        <ele>427.6</ele>
        <time>2025-10-04T12:27:47Z</time>
      </trkpt>
      <trkpt lat="45.33499" lon="3.365">
        <ele>427</ele>
        <time>2025-10-04T12:27:50Z</time>
      </trkpt>
      <trkpt lat="45.33496" lon="3.36503">
        <ele>426.4</ele>
        <time>2025-10-04T12:27:51Z</time>
      </trkpt>
      <trkpt lat="45.33485" lon="3.36508">
        <ele>425.6</ele>
        <time>2025-10-04T12:27:54Z</time>
      </trkpt>
      <trkpt lat="45.33481" lon="3.36509">
        <ele>425.2</ele>
        <time>2025-10-04T12:27:55Z</time>
      </trkpt>
      <trkpt lat="45.33451" lon="3.3652">
        <ele>424.8</ele>
        <time>2025-10-04T12:28:02Z</time>
      </trkpt>
      <trkpt lat="45.33422" lon="3.36532">
        <ele>425.8</ele>
        <time>2025-10-04T12:28:09Z</time>
      </trkpt>
      <trkpt lat="45.33419" lon="3.36533">
        <ele>425.8</ele>
        <time>2025-10-04T12:28:10Z</time>
      </trkpt>
      <trkpt lat="45.33406" lon="3.36538">
        <ele>426.2</ele>
        <time>2025-10-04T12:28:14Z</time>
      </trkpt>
      <trkpt lat="45.33403" lon="3.36539">
        <ele>426.2</ele>
        <time>2025-10-04T12:28:15Z</time>
      </trkpt>
      <trkpt lat="45.334" lon="3.3654">
        <ele>426.2</ele>
        <time>2025-10-04T12:28:16Z</time>
      </trkpt>
      <trkpt lat="45.33391" lon="3.36546">
        <ele>426.4</ele>
        <time>2025-10-04T12:28:20Z</time>
      </trkpt>
      <trkpt lat="45.3339" lon="3.36549">
        <ele>426.4</ele>
        <time>2025-10-04T12:28:21Z</time>
      </trkpt>
      <trkpt lat="45.33399" lon="3.36565">
        <ele>426.4</ele>
        <time>2025-10-04T12:28:25Z</time>
      </trkpt>
      <trkpt lat="45.33404" lon="3.36568">
        <ele>426.4</ele>
        <time>2025-10-04T12:28:26Z</time>
      </trkpt>
      <trkpt lat="45.33425" lon="3.36575">
        <ele>426.4</ele>
        <time>2025-10-04T12:28:31Z</time>
      </trkpt>
      <trkpt lat="45.3346" lon="3.36583">
        <ele>426.2</ele>
        <time>2025-10-04T12:28:39Z</time>
      </trkpt>
      <trkpt lat="45.33473" lon="3.36584">
        <ele>425.8</ele>
        <time>2025-10-04T12:28:42Z</time>
      </trkpt>
      <trkpt lat="45.33485" lon="3.36591">
        <ele>425.8</ele>
        <time>2025-10-04T12:28:45Z</time>
      </trkpt>
      <trkpt lat="45.33495" lon="3.366">
        <ele>425.8</ele>
        <time>2025-10-04T12:28:48Z</time>
      </trkpt>
      <trkpt lat="45.335" lon="3.36608">
        <ele>426</ele>
        <time>2025-10-04T12:28:50Z</time>
      </trkpt>
      <trkpt lat="45.33513" lon="3.3664">
        <ele>427</ele>
        <time>2025-10-04T12:28:57Z</time>
      </trkpt>
      <trkpt lat="45.33515" lon="3.36645">
        <ele>427.2</ele>
        <time>2025-10-04T12:28:58Z</time>
      </trkpt>
      <trkpt lat="45.3354" lon="3.36699">
        <ele>427.8</ele>
        <time>2025-10-04T12:29:09Z</time>
      </trkpt>
      <trkpt lat="45.33555" lon="3.36728">
        <ele>427.6</ele>
        <time>2025-10-04T12:29:14Z</time>
      </trkpt>
      <trkpt lat="45.33562" lon="3.36743">
        <ele>427.4</ele>
        <time>2025-10-04T12:29:16Z</time>
      </trkpt>
      <trkpt lat="45.33567" lon="3.3676">
        <ele>426.8</ele>
        <time>2025-10-04T12:29:18Z</time>
      </trkpt>
      <trkpt lat="45.3357" lon="3.36769">
        <ele>426.6</ele>
        <time>2025-10-04T12:29:19Z</time>
      </trkpt>
      <trkpt lat="45.33572" lon="3.36779">
        <ele>426.6</ele>
        <time>2025-10-04T12:29:20Z</time>
      </trkpt>
      <trkpt lat="45.33575" lon="3.3679">
        <ele>426.2</ele>
        <time>2025-10-04T12:29:21Z</time>
      </trkpt>
      <trkpt lat="45.33579" lon="3.36801">
        <ele>426</ele>
        <time>2025-10-04T12:29:22Z</time>
      </trkpt>
      <trkpt lat="45.33583" lon="3.36812">
        <ele>425.6</ele>
        <time>2025-10-04T12:29:23Z</time>
      </trkpt>
      <trkpt lat="45.33592" lon="3.36836">
        <ele>424.6</ele>
        <time>2025-10-04T12:29:25Z</time>
      </trkpt>
      <trkpt lat="45.33599" lon="3.36862">
        <ele>423.4</ele>
        <time>2025-10-04T12:29:27Z</time>
      </trkpt>
      <trkpt lat="45.33602" lon="3.36877">
        <ele>422.8</ele>
        <time>2025-10-04T12:29:28Z</time>
      </trkpt>
      <trkpt lat="45.33605" lon="3.36906">
        <ele>422</ele>
        <time>2025-10-04T12:29:30Z</time>
      </trkpt>
      <trkpt lat="45.33607" lon="3.36935">
        <ele>420.4</ele>
        <time>2025-10-04T12:29:32Z</time>
      </trkpt>
      <trkpt lat="45.3361" lon="3.36963">
        <ele>419</ele>
        <time>2025-10-04T12:29:34Z</time>
      </trkpt>
      <trkpt lat="45.33612" lon="3.36989">
        <ele>417.8</ele>
        <time>2025-10-04T12:29:36Z</time>
      </trkpt>
      <trkpt lat="45.33617" lon="3.37026">
        <ele>417</ele>
        <time>2025-10-04T12:29:39Z</time>
      </trkpt>
      <trkpt lat="45.3362" lon="3.37049">
        <ele>416.6</ele>
        <time>2025-10-04T12:29:41Z</time>
      </trkpt>
      <trkpt lat="45.33627" lon="3.37091">
        <ele>416.4</ele>
        <time>2025-10-04T12:29:45Z</time>
      </trkpt>
      <trkpt lat="45.33635" lon="3.37146">
        <ele>416.4</ele>
        <time>2025-10-04T12:29:51Z</time>
      </trkpt>
      <trkpt lat="45.33638" lon="3.37162">
        <ele>416.4</ele>
        <time>2025-10-04T12:29:53Z</time>
      </trkpt>
      <trkpt lat="45.33646" lon="3.37173">
        <ele>416.4</ele>
        <time>2025-10-04T12:29:55Z</time>
      </trkpt>
      <trkpt lat="45.33662" lon="3.37177">
        <ele>416.4</ele>
        <time>2025-10-04T12:29:58Z</time>
      </trkpt>
      <trkpt lat="45.33715" lon="3.37179">
        <ele>416.8</ele>
        <time>2025-10-04T12:30:07Z</time>
      </trkpt>
      <trkpt lat="45.33721" lon="3.3718">
        <ele>416.8</ele>
        <time>2025-10-04T12:30:08Z</time>
      </trkpt>
      <trkpt lat="45.33746" lon="3.37178">
        <ele>416.6</ele>
        <time>2025-10-04T12:30:12Z</time>
      </trkpt>
      <trkpt lat="45.33752" lon="3.37177">
        <ele>416.6</ele>
        <time>2025-10-04T12:30:13Z</time>
      </trkpt>
      <trkpt lat="45.3379" lon="3.37169">
        <ele>416.4</ele>
        <time>2025-10-04T12:30:19Z</time>
      </trkpt>
      <trkpt lat="45.33808" lon="3.37163">
        <ele>416.2</ele>
        <time>2025-10-04T12:30:22Z</time>
      </trkpt>
      <trkpt lat="45.33856" lon="3.37142">
        <ele>416.2</ele>
        <time>2025-10-04T12:30:30Z</time>
      </trkpt>
      <trkpt lat="45.33868" lon="3.37137">
        <ele>416.2</ele>
        <time>2025-10-04T12:30:32Z</time>
      </trkpt>
      <trkpt lat="45.33923" lon="3.37112">
        <ele>416.8</ele>
        <time>2025-10-04T12:30:41Z</time>
      </trkpt>
      <trkpt lat="45.33979" lon="3.37089">
        <ele>416.8</ele>
        <time>2025-10-04T12:30:50Z</time>
      </trkpt>
      <trkpt lat="45.33985" lon="3.37086">
        <ele>416.8</ele>
        <time>2025-10-04T12:30:51Z</time>
      </trkpt>
      <trkpt lat="45.34038" lon="3.37059">
        <ele>417</ele>
        <time>2025-10-04T12:31:00Z</time>
      </trkpt>
      <trkpt lat="45.34085" lon="3.37016">
        <ele>416.8</ele>
        <time>2025-10-04T12:31:09Z</time>
      </trkpt>
      <trkpt lat="45.3411" lon="3.36978">
        <ele>416.8</ele>
        <time>2025-10-04T12:31:15Z</time>
      </trkpt>
      <trkpt lat="45.34114" lon="3.36971">
        <ele>416.8</ele>
        <time>2025-10-04T12:31:16Z</time>
      </trkpt>
      <trkpt lat="45.34139" lon="3.36924">
        <ele>417.2</ele>
        <time>2025-10-04T12:31:23Z</time>
      </trkpt>
      <trkpt lat="45.34172" lon="3.36889">
        <ele>416.8</ele>
        <time>2025-10-04T12:31:30Z</time>
      </trkpt>
      <trkpt lat="45.3421" lon="3.3685">
        <ele>417.2</ele>
        <time>2025-10-04T12:31:38Z</time>
      </trkpt>
      <trkpt lat="45.3425" lon="3.3681">
        <ele>417.2</ele>
        <time>2025-10-04T12:31:46Z</time>
      </trkpt>
      <trkpt lat="45.34266" lon="3.36799">
        <ele>417.2</ele>
        <time>2025-10-04T12:31:49Z</time>
      </trkpt>
      <trkpt lat="45.34277" lon="3.36796">
        <ele>417</ele>
        <time>2025-10-04T12:31:51Z</time>
      </trkpt>
      <trkpt lat="45.34283" lon="3.36796">
        <ele>417</ele>
        <time>2025-10-04T12:31:52Z</time>
      </trkpt>
      <trkpt lat="45.34302" lon="3.36799">
        <ele>417.2</ele>
        <time>2025-10-04T12:31:55Z</time>
      </trkpt>
      <trkpt lat="45.34322" lon="3.36804">
        <ele>417.2</ele>
        <time>2025-10-04T12:31:58Z</time>
      </trkpt>
      <trkpt lat="45.34379" lon="3.36817">
        <ele>417.2</ele>
        <time>2025-10-04T12:32:07Z</time>
      </trkpt>
      <trkpt lat="45.34435" lon="3.36829">
        <ele>417</ele>
        <time>2025-10-04T12:32:16Z</time>
      </trkpt>
      <trkpt lat="45.34441" lon="3.3683">
        <ele>416.8</ele>
        <time>2025-10-04T12:32:17Z</time>
      </trkpt>
      <trkpt lat="45.3446" lon="3.36834">
        <ele>416.8</ele>
        <time>2025-10-04T12:32:20Z</time>
      </trkpt>
      <trkpt lat="45.34511" lon="3.36845">
        <ele>416.8</ele>
        <time>2025-10-04T12:32:28Z</time>
      </trkpt>
      <trkpt lat="45.34563" lon="3.36856">
        <ele>416.6</ele>
        <time>2025-10-04T12:32:36Z</time>
      </trkpt>
      <trkpt lat="45.34621" lon="3.36866">
        <ele>416.4</ele>
        <time>2025-10-04T12:32:45Z</time>
      </trkpt>
      <trkpt lat="45.34633" lon="3.36869">
        <ele>416.6</ele>
        <time>2025-10-04T12:32:47Z</time>
      </trkpt>
      <trkpt lat="45.34681" lon="3.36876">
        <ele>416.8</ele>
        <time>2025-10-04T12:32:55Z</time>
      </trkpt>
      <trkpt lat="45.34737" lon="3.36885">
        <ele>416.6</ele>
        <time>2025-10-04T12:33:04Z</time>
      </trkpt>
      <trkpt lat="45.34749" lon="3.36886">
        <ele>416.6</ele>
        <time>2025-10-04T12:33:06Z</time>
      </trkpt>
      <trkpt lat="45.34804" lon="3.36882">
        <ele>417.4</ele>
        <time>2025-10-04T12:33:15Z</time>
      </trkpt>
      <trkpt lat="45.3486" lon="3.3687">
        <ele>416.8</ele>
        <time>2025-10-04T12:33:24Z</time>
      </trkpt>
      <trkpt lat="45.34872" lon="3.36868">
        <ele>416.6</ele>
        <time>2025-10-04T12:33:26Z</time>
      </trkpt>
      <trkpt lat="45.34929" lon="3.36859">
        <ele>416.6</ele>
        <time>2025-10-04T12:33:35Z</time>
      </trkpt>
      <trkpt lat="45.34981" lon="3.36848">
        <ele>416.2</ele>
        <time>2025-10-04T12:33:43Z</time>
      </trkpt>
      <trkpt lat="45.34993" lon="3.36846">
        <ele>416</ele>
        <time>2025-10-04T12:33:45Z</time>
      </trkpt>
      <trkpt lat="45.35033" lon="3.36841">
        <ele>415.8</ele>
        <time>2025-10-04T12:33:51Z</time>
      </trkpt>
      <trkpt lat="45.35066" lon="3.36835">
        <ele>415.8</ele>
        <time>2025-10-04T12:33:56Z</time>
      </trkpt>
      <trkpt lat="45.35072" lon="3.36831">
        <ele>415.8</ele>
        <time>2025-10-04T12:33:57Z</time>
      </trkpt>
      <trkpt lat="45.35125" lon="3.36791">
        <ele>415.8</ele>
        <time>2025-10-04T12:34:06Z</time>
      </trkpt>
      <trkpt lat="45.35176" lon="3.36752">
        <ele>415.6</ele>
        <time>2025-10-04T12:34:15Z</time>
      </trkpt>
      <trkpt lat="45.3523" lon="3.36714">
        <ele>416</ele>
        <time>2025-10-04T12:34:24Z</time>
      </trkpt>
      <trkpt lat="45.35242" lon="3.36704">
        <ele>416</ele>
        <time>2025-10-04T12:34:26Z</time>
      </trkpt>
      <trkpt lat="45.35282" lon="3.36676">
        <ele>415.6</ele>
        <time>2025-10-04T12:34:33Z</time>
      </trkpt>
      <trkpt lat="45.35334" lon="3.36638">
        <ele>415.4</ele>
        <time>2025-10-04T12:34:42Z</time>
      </trkpt>
      <trkpt lat="45.35347" lon="3.36631">
        <ele>415.4</ele>
        <time>2025-10-04T12:34:44Z</time>
      </trkpt>
      <trkpt lat="45.3536" lon="3.36625">
        <ele>415.4</ele>
        <time>2025-10-04T12:34:46Z</time>
      </trkpt>
      <trkpt lat="45.35379" lon="3.36624">
        <ele>415.4</ele>
        <time>2025-10-04T12:34:49Z</time>
      </trkpt>
      <trkpt lat="45.35403" lon="3.36623">
        <ele>415.4</ele>
        <time>2025-10-04T12:34:53Z</time>
      </trkpt>
      <trkpt lat="45.35408" lon="3.36623">
        <ele>415.4</ele>
        <time>2025-10-04T12:34:54Z</time>
      </trkpt>
      <trkpt lat="45.35413" lon="3.36623">
        <ele>415.4</ele>
        <time>2025-10-04T12:34:55Z</time>
      </trkpt>
      <trkpt lat="45.35418" lon="3.3662">
        <ele>415.4</ele>
        <time>2025-10-04T12:34:56Z</time>
      </trkpt>
      <trkpt lat="45.35421" lon="3.36608">
        <ele>415.4</ele>
        <time>2025-10-04T12:34:58Z</time>
      </trkpt>
      <trkpt lat="45.35418" lon="3.36563">
        <ele>415.4</ele>
        <time>2025-10-04T12:35:04Z</time>
      </trkpt>
      <trkpt lat="45.35417" lon="3.36555">
        <ele>415.4</ele>
        <time>2025-10-04T12:35:05Z</time>
      </trkpt>
      <trkpt lat="45.35408" lon="3.36525">
        <ele>415.4</ele>
        <time>2025-10-04T12:35:09Z</time>
      </trkpt>
      <trkpt lat="45.35405" lon="3.36511">
        <ele>415.2</ele>
        <time>2025-10-04T12:35:11Z</time>
      </trkpt>
      <trkpt lat="45.35392" lon="3.3646">
        <ele>414.8</ele>
        <time>2025-10-04T12:35:18Z</time>
      </trkpt>
      <trkpt lat="45.35373" lon="3.36385">
        <ele>415</ele>
        <time>2025-10-04T12:35:29Z</time>
      </trkpt>
      <trkpt lat="45.35366" lon="3.36358">
        <ele>415</ele>
        <time>2025-10-04T12:35:33Z</time>
      </trkpt>
      <trkpt lat="45.35361" lon="3.36338">
        <ele>414.6</ele>
        <time>2025-10-04T12:35:36Z</time>
      </trkpt>
      <trkpt lat="45.3536" lon="3.36331">
        <ele>414.6</ele>
        <time>2025-10-04T12:35:37Z</time>
      </trkpt>
      <trkpt lat="45.35361" lon="3.36318">
        <ele>414.8</ele>
        <time>2025-10-04T12:35:39Z</time>
      </trkpt>
      <trkpt lat="45.35368" lon="3.36308">
        <ele>415</ele>
        <time>2025-10-04T12:35:41Z</time>
      </trkpt>
      <trkpt lat="45.35373" lon="3.36307">
        <ele>415</ele>
        <time>2025-10-04T12:35:42Z</time>
      </trkpt>
      <trkpt lat="45.35383" lon="3.36308">
        <ele>415</ele>
        <time>2025-10-04T12:35:44Z</time>
      </trkpt>
      <trkpt lat="45.354" lon="3.36314">
        <ele>415.2</ele>
        <time>2025-10-04T12:35:47Z</time>
      </trkpt>
      <trkpt lat="45.35411" lon="3.36318">
        <ele>415.2</ele>
        <time>2025-10-04T12:35:49Z</time>
      </trkpt>
      <trkpt lat="45.3543" lon="3.36319">
        <ele>415</ele>
        <time>2025-10-04T12:35:52Z</time>
      </trkpt>
      <trkpt lat="45.35469" lon="3.36318">
        <ele>414.6</ele>
        <time>2025-10-04T12:35:58Z</time>
      </trkpt>
      <trkpt lat="45.35488" lon="3.36315">
        <ele>414.4</ele>
        <time>2025-10-04T12:36:01Z</time>
      </trkpt>
      <trkpt lat="45.355" lon="3.36309">
        <ele>414.4</ele>
        <time>2025-10-04T12:36:03Z</time>
      </trkpt>
      <trkpt lat="45.35541" lon="3.3629">
        <ele>414.2</ele>
        <time>2025-10-04T12:36:10Z</time>
      </trkpt>
      <trkpt lat="45.35572" lon="3.36272">
        <ele>414.8</ele>
        <time>2025-10-04T12:36:16Z</time>
      </trkpt>
      <trkpt lat="45.35578" lon="3.36261">
        <ele>414.8</ele>
        <time>2025-10-04T12:36:18Z</time>
      </trkpt>
      <trkpt lat="45.3558" lon="3.36253">
        <ele>414.8</ele>
        <time>2025-10-04T12:36:19Z</time>
      </trkpt>
      <trkpt lat="45.35581" lon="3.36245">
        <ele>414.8</ele>
        <time>2025-10-04T12:36:20Z</time>
      </trkpt>
      <trkpt lat="45.35581" lon="3.36203">
        <ele>414.8</ele>
        <time>2025-10-04T12:36:25Z</time>
      </trkpt>
      <trkpt lat="45.35581" lon="3.36153">
        <ele>414.8</ele>
        <time>2025-10-04T12:36:31Z</time>
      </trkpt>
      <trkpt lat="45.35582" lon="3.36145">
        <ele>414.6</ele>
        <time>2025-10-04T12:36:32Z</time>
      </trkpt>
      <trkpt lat="45.35586" lon="3.3614">
        <ele>414.6</ele>
        <time>2025-10-04T12:36:33Z</time>
      </trkpt>
      <trkpt lat="45.35591" lon="3.36138">
        <ele>414.6</ele>
        <time>2025-10-04T12:36:34Z</time>
      </trkpt>
      <trkpt lat="45.35596" lon="3.3614">
        <ele>414.6</ele>
        <time>2025-10-04T12:36:35Z</time>
      </trkpt>
      <trkpt lat="45.35607" lon="3.36147">
        <ele>414.6</ele>
        <time>2025-10-04T12:36:37Z</time>
      </trkpt>
      <trkpt lat="45.35619" lon="3.36151">
        <ele>414.4</ele>
        <time>2025-10-04T12:36:39Z</time>
      </trkpt>
      <trkpt lat="45.35637" lon="3.36152">
        <ele>414.4</ele>
        <time>2025-10-04T12:36:42Z</time>
      </trkpt>
      <trkpt lat="45.35695" lon="3.36154">
        <ele>414.6</ele>
        <time>2025-10-04T12:36:51Z</time>
      </trkpt>
      <trkpt lat="45.35748" lon="3.36155">
        <ele>414.4</ele>
        <time>2025-10-04T12:36:59Z</time>
      </trkpt>
      <trkpt lat="45.35755" lon="3.36155">
        <ele>414.4</ele>
        <time>2025-10-04T12:37:00Z</time>
      </trkpt>
      <trkpt lat="45.35812" lon="3.36157">
        <ele>414</ele>
        <time>2025-10-04T12:37:09Z</time>
      </trkpt>
      <trkpt lat="45.35819" lon="3.36157">
        <ele>414</ele>
        <time>2025-10-04T12:37:10Z</time>
      </trkpt>
      <trkpt lat="45.35876" lon="3.36158">
        <ele>414.2</ele>
        <time>2025-10-04T12:37:19Z</time>
      </trkpt>
      <trkpt lat="45.35889" lon="3.36158">
        <ele>414.2</ele>
        <time>2025-10-04T12:37:21Z</time>
      </trkpt>
      <trkpt lat="45.35946" lon="3.3616">
        <ele>414.6</ele>
        <time>2025-10-04T12:37:30Z</time>
      </trkpt>
      <trkpt lat="45.35964" lon="3.36156">
        <ele>414.6</ele>
        <time>2025-10-04T12:37:33Z</time>
      </trkpt>
      <trkpt lat="45.35976" lon="3.3615">
        <ele>414.6</ele>
        <time>2025-10-04T12:37:35Z</time>
      </trkpt>
      <trkpt lat="45.36024" lon="3.36122">
        <ele>414.8</ele>
        <time>2025-10-04T12:37:43Z</time>
      </trkpt>
      <trkpt lat="45.36076" lon="3.36092">
        <ele>415</ele>
        <time>2025-10-04T12:37:52Z</time>
      </trkpt>
      <trkpt lat="45.36082" lon="3.36089">
        <ele>415</ele>
        <time>2025-10-04T12:37:53Z</time>
      </trkpt>
      <trkpt lat="45.36124" lon="3.36065">
        <ele>415.2</ele>
        <time>2025-10-04T12:38:00Z</time>
      </trkpt>
      <trkpt lat="45.36178" lon="3.36035">
        <ele>415</ele>
        <time>2025-10-04T12:38:09Z</time>
      </trkpt>
      <trkpt lat="45.36203" lon="3.36021">
        <ele>414.8</ele>
        <time>2025-10-04T12:38:13Z</time>
      </trkpt>
      <trkpt lat="45.36209" lon="3.36018">
        <ele>415</ele>
        <time>2025-10-04T12:38:14Z</time>
      </trkpt>
      <trkpt lat="45.36256" lon="3.35991">
        <ele>415</ele>
        <time>2025-10-04T12:38:22Z</time>
      </trkpt>
      <trkpt lat="45.36295" lon="3.35968">
        <ele>414.6</ele>
        <time>2025-10-04T12:38:29Z</time>
      </trkpt>
      <trkpt lat="45.36348" lon="3.35937">
        <ele>414.8</ele>
        <time>2025-10-04T12:38:38Z</time>
      </trkpt>
      <trkpt lat="45.36354" lon="3.35934">
        <ele>414.8</ele>
        <time>2025-10-04T12:38:39Z</time>
      </trkpt>
      <trkpt lat="45.36405" lon="3.35906">
        <ele>414.8</ele>
        <time>2025-10-04T12:38:47Z</time>
      </trkpt>
      <trkpt lat="45.36458" lon="3.35879">
        <ele>415</ele>
        <time>2025-10-04T12:38:55Z</time>
      </trkpt>
      <trkpt lat="45.36464" lon="3.35875">
        <ele>415</ele>
        <time>2025-10-04T12:38:56Z</time>
      </trkpt>
      <trkpt lat="45.3651" lon="3.35849">
        <ele>415.2</ele>
        <time>2025-10-04T12:39:03Z</time>
      </trkpt>
      <trkpt lat="45.36539" lon="3.35833">
        <ele>414.6</ele>
        <time>2025-10-04T12:39:08Z</time>
      </trkpt>
      <trkpt lat="45.36587" lon="3.35805">
        <ele>414.4</ele>
        <time>2025-10-04T12:39:16Z</time>
      </trkpt>
      <trkpt lat="45.36636" lon="3.35777">
        <ele>415</ele>
        <time>2025-10-04T12:39:24Z</time>
      </trkpt>
      <trkpt lat="45.36686" lon="3.35746">
        <ele>415.2</ele>
        <time>2025-10-04T12:39:32Z</time>
      </trkpt>
      <trkpt lat="45.36693" lon="3.35743">
        <ele>415.2</ele>
        <time>2025-10-04T12:39:33Z</time>
      </trkpt>
      <trkpt lat="45.36744" lon="3.35715">
        <ele>414.4</ele>
        <time>2025-10-04T12:39:41Z</time>
      </trkpt>
      <trkpt lat="45.36751" lon="3.35711">
        <ele>414.4</ele>
        <time>2025-10-04T12:39:42Z</time>
      </trkpt>
      <trkpt lat="45.36807" lon="3.35679">
        <ele>414.4</ele>
        <time>2025-10-04T12:39:51Z</time>
      </trkpt>
      <trkpt lat="45.36858" lon="3.35651">
        <ele>414</ele>
        <time>2025-10-04T12:39:59Z</time>
      </trkpt>
      <trkpt lat="45.3687" lon="3.35644">
        <ele>414.2</ele>
        <time>2025-10-04T12:40:01Z</time>
      </trkpt>
      <trkpt lat="45.36926" lon="3.35612">
        <ele>414.4</ele>
        <time>2025-10-04T12:40:10Z</time>
      </trkpt>
      <trkpt lat="45.36937" lon="3.35605">
        <ele>414.4</ele>
        <time>2025-10-04T12:40:12Z</time>
      </trkpt>
      <trkpt lat="45.3695" lon="3.35598">
        <ele>414.4</ele>
        <time>2025-10-04T12:40:14Z</time>
      </trkpt>
      <trkpt lat="45.36968" lon="3.35588">
        <ele>414.2</ele>
        <time>2025-10-04T12:40:17Z</time>
      </trkpt>
      <trkpt lat="45.36986" lon="3.35578">
        <ele>413.8</ele>
        <time>2025-10-04T12:40:20Z</time>
      </trkpt>
      <trkpt lat="45.37016" lon="3.35561">
        <ele>413.2</ele>
        <time>2025-10-04T12:40:25Z</time>
      </trkpt>
      <trkpt lat="45.37057" lon="3.35538">
        <ele>413.8</ele>
        <time>2025-10-04T12:40:32Z</time>
      </trkpt>
      <trkpt lat="45.37109" lon="3.35509">
        <ele>414.4</ele>
        <time>2025-10-04T12:40:41Z</time>
      </trkpt>
      <trkpt lat="45.37155" lon="3.35483">
        <ele>413.8</ele>
        <time>2025-10-04T12:40:49Z</time>
      </trkpt>
      <trkpt lat="45.3716" lon="3.35479">
        <ele>413.8</ele>
        <time>2025-10-04T12:40:50Z</time>
      </trkpt>
      <trkpt lat="45.37169" lon="3.35469">
        <ele>413.6</ele>
        <time>2025-10-04T12:40:52Z</time>
      </trkpt>
      <trkpt lat="45.37172" lon="3.35462">
        <ele>413.6</ele>
        <time>2025-10-04T12:40:53Z</time>
      </trkpt>
      <trkpt lat="45.37191" lon="3.35409">
        <ele>413.2</ele>
        <time>2025-10-04T12:41:00Z</time>
      </trkpt>
      <trkpt lat="45.3722" lon="3.35345">
        <ele>413.4</ele>
        <time>2025-10-04T12:41:09Z</time>
      </trkpt>
      <trkpt lat="45.37238" lon="3.35292">
        <ele>413.6</ele>
        <time>2025-10-04T12:41:16Z</time>
      </trkpt>
      <trkpt lat="45.37248" lon="3.35229">
        <ele>414</ele>
        <time>2025-10-04T12:41:24Z</time>
      </trkpt>
      <trkpt lat="45.37245" lon="3.35183">
        <ele>414.2</ele>
        <time>2025-10-04T12:41:30Z</time>
      </trkpt>
      <trkpt lat="45.3723" lon="3.35119">
        <ele>414.6</ele>
        <time>2025-10-04T12:41:39Z</time>
      </trkpt>
      <trkpt lat="45.37211" lon="3.35051">
        <ele>415</ele>
        <time>2025-10-04T12:41:49Z</time>
      </trkpt>
      <trkpt lat="45.37209" lon="3.35045">
        <ele>415.2</ele>
        <time>2025-10-04T12:41:50Z</time>
      </trkpt>
      <trkpt lat="45.37201" lon="3.3499">
        <ele>416</ele>
        <time>2025-10-04T12:41:58Z</time>
      </trkpt>
      <trkpt lat="45.37201" lon="3.34976">
        <ele>416.2</ele>
        <time>2025-10-04T12:42:00Z</time>
      </trkpt>
      <trkpt lat="45.37206" lon="3.34947">
        <ele>416.8</ele>
        <time>2025-10-04T12:42:04Z</time>
      </trkpt>
      <trkpt lat="45.37218" lon="3.34899">
        <ele>417.4</ele>
        <time>2025-10-04T12:42:11Z</time>
      </trkpt>
      <trkpt lat="45.37221" lon="3.34886">
        <ele>417.8</ele>
        <time>2025-10-04T12:42:13Z</time>
      </trkpt>
      <trkpt lat="45.37227" lon="3.34866">
        <ele>418.4</ele>
        <time>2025-10-04T12:42:16Z</time>
      </trkpt>
      <trkpt lat="45.37237" lon="3.34832">
        <ele>418.8</ele>
        <time>2025-10-04T12:42:21Z</time>
      </trkpt>
      <trkpt lat="45.37244" lon="3.34796">
        <ele>418.8</ele>
        <time>2025-10-04T12:42:26Z</time>
      </trkpt>
      <trkpt lat="45.37248" lon="3.34782">
        <ele>418.8</ele>
        <time>2025-10-04T12:42:28Z</time>
      </trkpt>
      <trkpt lat="45.37266" lon="3.34733">
        <ele>418.8</ele>
        <time>2025-10-04T12:42:36Z</time>
      </trkpt>
      <trkpt lat="45.37281" lon="3.34696">
        <ele>419.2</ele>
        <time>2025-10-04T12:42:43Z</time>
      </trkpt>
      <trkpt lat="45.37288" lon="3.34676">
        <ele>419.2</ele>
        <time>2025-10-04T12:42:48Z</time>
      </trkpt>
      <trkpt lat="45.37294" lon="3.34662">
        <ele>419.6</ele>
        <time>2025-10-04T12:42:52Z</time>
      </trkpt>
      <trkpt lat="45.37295" lon="3.34659">
        <ele>419.8</ele>
        <time>2025-10-04T12:42:53Z</time>
      </trkpt>
      <trkpt lat="45.37303" lon="3.34649">
        <ele>420.8</ele>
        <time>2025-10-04T12:42:57Z</time>
      </trkpt>
      <trkpt lat="45.37306" lon="3.34647">
        <ele>421.2</ele>
        <time>2025-10-04T12:42:59Z</time>
      </trkpt>
      <trkpt lat="45.37307" lon="3.34647">
        <ele>421.4</ele>
        <time>2025-10-04T12:43:00Z</time>
      </trkpt>
      <trkpt lat="45.37311" lon="3.34642">
        <ele>421.6</ele>
        <time>2025-10-04T12:43:04Z</time>
      </trkpt>
      <trkpt lat="45.37312" lon="3.3464">
        <ele>421.8</ele>
        <time>2025-10-04T12:43:05Z</time>
      </trkpt>
      <trkpt lat="45.37316" lon="3.34637">
        <ele>422</ele>
        <time>2025-10-04T12:43:07Z</time>
      </trkpt>
      <trkpt lat="45.37321" lon="3.34633">
        <ele>422.2</ele>
        <time>2025-10-04T12:43:09Z</time>
      </trkpt>
      <trkpt lat="45.3733" lon="3.34628">
        <ele>422.6</ele>
        <time>2025-10-04T12:43:12Z</time>
      </trkpt>
      <trkpt lat="45.37334" lon="3.34621">
        <ele>422.8</ele>
        <time>2025-10-04T12:43:14Z</time>
      </trkpt>
      <trkpt lat="45.37335" lon="3.34611">
        <ele>423</ele>
        <time>2025-10-04T12:43:16Z</time>
      </trkpt>
      <trkpt lat="45.37336" lon="3.34601">
        <ele>423.2</ele>
        <time>2025-10-04T12:43:18Z</time>
      </trkpt>
      <trkpt lat="45.37345" lon="3.34561">
        <ele>423.8</ele>
        <time>2025-10-04T12:43:26Z</time>
      </trkpt>
      <trkpt lat="45.37348" lon="3.34546">
        <ele>424</ele>
        <time>2025-10-04T12:43:29Z</time>
      </trkpt>
      <trkpt lat="45.37355" lon="3.34516">
        <ele>424.6</ele>
        <time>2025-10-04T12:43:36Z</time>
      </trkpt>
      <trkpt lat="45.3736" lon="3.34499">
        <ele>425</ele>
        <time>2025-10-04T12:43:40Z</time>
      </trkpt>
      <trkpt lat="45.37365" lon="3.3449">
        <ele>425.4</ele>
        <time>2025-10-04T12:43:43Z</time>
      </trkpt>
      <trkpt lat="45.37372" lon="3.34481">
        <ele>426.2</ele>
        <time>2025-10-04T12:43:46Z</time>
      </trkpt>
      <trkpt lat="45.37381" lon="3.34468">
        <ele>427.4</ele>
        <time>2025-10-04T12:43:50Z</time>
      </trkpt>
      <trkpt lat="45.37399" lon="3.34446">
        <ele>428.4</ele>
        <time>2025-10-04T12:43:58Z</time>
      </trkpt>
      <trkpt lat="45.37409" lon="3.34431">
        <ele>429.2</ele>
        <time>2025-10-04T12:44:03Z</time>
      </trkpt>
      <trkpt lat="45.37411" lon="3.34428">
        <ele>429.6</ele>
        <time>2025-10-04T12:44:04Z</time>
      </trkpt>
      <trkpt lat="45.3742" lon="3.34416">
        <ele>430.6</ele>
        <time>2025-10-04T12:44:08Z</time>
      </trkpt>
      <trkpt lat="45.3743" lon="3.34399">
        <ele>431.2</ele>
        <time>2025-10-04T12:44:13Z</time>
      </trkpt>
      <trkpt lat="45.37435" lon="3.34388">
        <ele>431.8</ele>
        <time>2025-10-04T12:44:16Z</time>
      </trkpt>
      <trkpt lat="45.37443" lon="3.34369">
        <ele>432.6</ele>
        <time>2025-10-04T12:44:21Z</time>
      </trkpt>
      <trkpt lat="45.37444" lon="3.34365">
        <ele>432.8</ele>
        <time>2025-10-04T12:44:22Z</time>
      </trkpt>
      <trkpt lat="45.37455" lon="3.3435">
        <ele>433</ele>
        <time>2025-10-04T12:44:27Z</time>
      </trkpt>
      <trkpt lat="45.3748" lon="3.34345">
        <ele>432.8</ele>
        <time>2025-10-04T12:44:34Z</time>
      </trkpt>
      <trkpt lat="45.37505" lon="3.34338">
        <ele>433</ele>
        <time>2025-10-04T12:44:41Z</time>
      </trkpt>
      <trkpt lat="45.37521" lon="3.34331">
        <ele>433.6</ele>
        <time>2025-10-04T12:44:46Z</time>
      </trkpt>
      <trkpt lat="45.37528" lon="3.34331">
        <ele>433.8</ele>
        <time>2025-10-04T12:44:48Z</time>
      </trkpt>
      <trkpt lat="45.37546" lon="3.34328">
        <ele>434.8</ele>
        <time>2025-10-04T12:44:54Z</time>
      </trkpt>
      <trkpt lat="45.37549" lon="3.34326">
        <ele>434.8</ele>
        <time>2025-10-04T12:44:55Z</time>
      </trkpt>
      <trkpt lat="45.37575" lon="3.3432">
        <ele>435.6</ele>
        <time>2025-10-04T12:45:02Z</time>
      </trkpt>
      <trkpt lat="45.37584" lon="3.34315">
        <ele>435.8</ele>
        <time>2025-10-04T12:45:05Z</time>
      </trkpt>
      <trkpt lat="45.37592" lon="3.34303">
        <ele>436.8</ele>
        <time>2025-10-04T12:45:09Z</time>
      </trkpt>
      <trkpt lat="45.37599" lon="3.34289">
        <ele>437.8</ele>
        <time>2025-10-04T12:45:14Z</time>
      </trkpt>
      <trkpt lat="45.376" lon="3.34286">
        <ele>438</ele>
        <time>2025-10-04T12:45:15Z</time>
      </trkpt>
      <trkpt lat="45.37607" lon="3.34271">
        <ele>439.2</ele>
        <time>2025-10-04T12:45:21Z</time>
      </trkpt>
      <trkpt lat="45.37611" lon="3.34256">
        <ele>440.2</ele>
        <time>2025-10-04T12:45:26Z</time>
      </trkpt>
      <trkpt lat="45.37616" lon="3.34246">
        <ele>440.8</ele>
        <time>2025-10-04T12:45:30Z</time>
      </trkpt>
      <trkpt lat="45.37618" lon="3.3424">
        <ele>441.6</ele>
        <time>2025-10-04T12:45:32Z</time>
      </trkpt>
      <trkpt lat="45.37621" lon="3.34232">
        <ele>442.8</ele>
        <time>2025-10-04T12:45:35Z</time>
      </trkpt>
      <trkpt lat="45.37627" lon="3.34212">
        <ele>443.8</ele>
        <time>2025-10-04T12:45:41Z</time>
      </trkpt>
      <trkpt lat="45.37631" lon="3.34203">
        <ele>444.2</ele>
        <time>2025-10-04T12:45:44Z</time>
      </trkpt>
      <trkpt lat="45.37638" lon="3.34183">
        <ele>444.8</ele>
        <time>2025-10-04T12:45:50Z</time>
      </trkpt>
      <trkpt lat="45.37639" lon="3.3418">
        <ele>445</ele>
        <time>2025-10-04T12:45:51Z</time>
      </trkpt>
      <trkpt lat="45.37651" lon="3.34156">
        <ele>445.8</ele>
        <time>2025-10-04T12:45:58Z</time>
      </trkpt>
      <trkpt lat="45.37659" lon="3.34138">
        <ele>446.8</ele>
        <time>2025-10-04T12:46:03Z</time>
      </trkpt>
      <trkpt lat="45.3766" lon="3.34135">
        <ele>447</ele>
        <time>2025-10-04T12:46:04Z</time>
      </trkpt>
      <trkpt lat="45.37664" lon="3.34128">
        <ele>447.6</ele>
        <time>2025-10-04T12:46:06Z</time>
      </trkpt>
      <trkpt lat="45.37667" lon="3.3412">
        <ele>448</ele>
        <time>2025-10-04T12:46:08Z</time>
      </trkpt>
      <trkpt lat="45.37678" lon="3.34094">
        <ele>449</ele>
        <time>2025-10-04T12:46:15Z</time>
      </trkpt>
      <trkpt lat="45.3769" lon="3.34068">
        <ele>450.2</ele>
        <time>2025-10-04T12:46:22Z</time>
      </trkpt>
      <trkpt lat="45.37695" lon="3.34056">
        <ele>450.6</ele>
        <time>2025-10-04T12:46:25Z</time>
      </trkpt>
      <trkpt lat="45.37701" lon="3.34041">
        <ele>451.4</ele>
        <time>2025-10-04T12:46:29Z</time>
      </trkpt>
      <trkpt lat="45.37712" lon="3.34017">
        <ele>452</ele>
        <time>2025-10-04T12:46:35Z</time>
      </trkpt>
      <trkpt lat="45.37721" lon="3.33996">
        <ele>452.4</ele>
        <time>2025-10-04T12:46:40Z</time>
      </trkpt>
      <trkpt lat="45.37728" lon="3.3398">
        <ele>452.8</ele>
        <time>2025-10-04T12:46:44Z</time>
      </trkpt>
      <trkpt lat="45.37731" lon="3.33977">
        <ele>452.6</ele>
        <time>2025-10-04T12:46:45Z</time>
      </trkpt>
      <trkpt lat="45.37737" lon="3.33976">
        <ele>452.6</ele>
        <time>2025-10-04T12:46:47Z</time>
      </trkpt>
      <trkpt lat="45.37744" lon="3.33985">
        <ele>452.6</ele>
        <time>2025-10-04T12:46:50Z</time>
      </trkpt>
      <trkpt lat="45.37767" lon="3.34031">
        <ele>452.4</ele>
        <time>2025-10-04T12:46:59Z</time>
      </trkpt>
      <trkpt lat="45.37791" lon="3.34076">
        <ele>451.8</ele>
        <time>2025-10-04T12:47:07Z</time>
      </trkpt>
      <trkpt lat="45.37794" lon="3.34081">
        <ele>451.8</ele>
        <time>2025-10-04T12:47:08Z</time>
      </trkpt>
      <trkpt lat="45.37806" lon="3.34102">
        <ele>451.6</ele>
        <time>2025-10-04T12:47:12Z</time>
      </trkpt>
      <trkpt lat="45.37809" lon="3.34107">
        <ele>451.6</ele>
        <time>2025-10-04T12:47:13Z</time>
      </trkpt>
      <trkpt lat="45.37812" lon="3.34111">
        <ele>451.4</ele>
        <time>2025-10-04T12:47:14Z</time>
      </trkpt>
      <trkpt lat="45.37816" lon="3.34112">
        <ele>451.4</ele>
        <time>2025-10-04T12:47:15Z</time>
      </trkpt>
      <trkpt lat="45.37824" lon="3.34107">
        <ele>451.2</ele>
        <time>2025-10-04T12:47:17Z</time>
      </trkpt>
      <trkpt lat="45.37832" lon="3.3409">
        <ele>451.6</ele>
        <time>2025-10-04T12:47:20Z</time>
      </trkpt>
      <trkpt lat="45.3784" lon="3.34075">
        <ele>452.2</ele>
        <time>2025-10-04T12:47:23Z</time>
      </trkpt>
      <trkpt lat="45.37845" lon="3.34065">
        <ele>452.6</ele>
        <time>2025-10-04T12:47:25Z</time>
      </trkpt>
      <trkpt lat="45.37851" lon="3.34055">
        <ele>453</ele>
        <time>2025-10-04T12:47:27Z</time>
      </trkpt>
      <trkpt lat="45.37863" lon="3.34034">
        <ele>453.8</ele>
        <time>2025-10-04T12:47:31Z</time>
      </trkpt>
      <trkpt lat="45.37865" lon="3.34029">
        <ele>454</ele>
        <time>2025-10-04T12:47:32Z</time>
      </trkpt>
      <trkpt lat="45.37872" lon="3.3402">
        <ele>454.2</ele>
        <time>2025-10-04T12:47:34Z</time>
      </trkpt>
      <trkpt lat="45.3788" lon="3.34014">
        <ele>454.4</ele>
        <time>2025-10-04T12:47:36Z</time>
      </trkpt>
      <trkpt lat="45.37884" lon="3.34014">
        <ele>454.4</ele>
        <time>2025-10-04T12:47:37Z</time>
      </trkpt>
      <trkpt lat="45.37888" lon="3.34017">
        <ele>454.4</ele>
        <time>2025-10-04T12:47:38Z</time>
      </trkpt>
      <trkpt lat="45.37894" lon="3.34029">
        <ele>454.4</ele>
        <time>2025-10-04T12:47:40Z</time>
      </trkpt>
      <trkpt lat="45.37911" lon="3.34071">
        <ele>453.4</ele>
        <time>2025-10-04T12:47:46Z</time>
      </trkpt>
      <trkpt lat="45.37924" lon="3.34099">
        <ele>453</ele>
        <time>2025-10-04T12:47:50Z</time>
      </trkpt>
      <trkpt lat="45.37933" lon="3.34119">
        <ele>452.8</ele>
        <time>2025-10-04T12:47:53Z</time>
      </trkpt>
      <trkpt lat="45.37935" lon="3.34125">
        <ele>452.8</ele>
        <time>2025-10-04T12:47:54Z</time>
      </trkpt>
      <trkpt lat="45.37965" lon="3.34191">
        <ele>452.4</ele>
        <time>2025-10-04T12:48:03Z</time>
      </trkpt>
      <trkpt lat="45.37994" lon="3.34257">
        <ele>452.2</ele>
        <time>2025-10-04T12:48:12Z</time>
      </trkpt>
      <trkpt lat="45.37998" lon="3.34264">
        <ele>452.2</ele>
        <time>2025-10-04T12:48:13Z</time>
      </trkpt>
      <trkpt lat="45.38014" lon="3.34302">
        <ele>451.8</ele>
        <time>2025-10-04T12:48:18Z</time>
      </trkpt>
      <trkpt lat="45.38032" lon="3.3434">
        <ele>451.8</ele>
        <time>2025-10-04T12:48:23Z</time>
      </trkpt>
      <trkpt lat="45.38064" lon="3.3441">
        <ele>451.2</ele>
        <time>2025-10-04T12:48:32Z</time>
      </trkpt>
      <trkpt lat="45.38066" lon="3.34419">
        <ele>451.2</ele>
        <time>2025-10-04T12:48:33Z</time>
      </trkpt>
      <trkpt lat="45.38072" lon="3.34455">
        <ele>451</ele>
        <time>2025-10-04T12:48:37Z</time>
      </trkpt>
      <trkpt lat="45.3808" lon="3.34525">
        <ele>451.8</ele>
        <time>2025-10-04T12:48:45Z</time>
      </trkpt>
      <trkpt lat="45.38086" lon="3.34558">
        <ele>452.2</ele>
        <time>2025-10-04T12:48:49Z</time>
      </trkpt>
      <trkpt lat="45.38091" lon="3.34573">
        <ele>452.2</ele>
        <time>2025-10-04T12:48:51Z</time>
      </trkpt>
      <trkpt lat="45.38096" lon="3.34588">
        <ele>452</ele>
        <time>2025-10-04T12:48:53Z</time>
      </trkpt>
      <trkpt lat="45.3811" lon="3.34613">
        <ele>452</ele>
        <time>2025-10-04T12:48:57Z</time>
      </trkpt>
      <trkpt lat="45.38138" lon="3.34669">
        <ele>452.4</ele>
        <time>2025-10-04T12:49:06Z</time>
      </trkpt>
      <trkpt lat="45.38151" lon="3.34697">
        <ele>453.2</ele>
        <time>2025-10-04T12:49:11Z</time>
      </trkpt>
      <trkpt lat="45.38156" lon="3.34707">
        <ele>453.6</ele>
        <time>2025-10-04T12:49:13Z</time>
      </trkpt>
      <trkpt lat="45.38166" lon="3.34727">
        <ele>453.8</ele>
        <time>2025-10-04T12:49:17Z</time>
      </trkpt>
      <trkpt lat="45.38175" lon="3.34749">
        <ele>454</ele>
        <time>2025-10-04T12:49:21Z</time>
      </trkpt>
      <trkpt lat="45.38179" lon="3.34761">
        <ele>454.4</ele>
        <time>2025-10-04T12:49:23Z</time>
      </trkpt>
      <trkpt lat="45.38191" lon="3.34789">
        <ele>454.6</ele>
        <time>2025-10-04T12:49:28Z</time>
      </trkpt>
      <trkpt lat="45.3821" lon="3.34836">
        <ele>455.2</ele>
        <time>2025-10-04T12:49:36Z</time>
      </trkpt>
      <trkpt lat="45.38212" lon="3.34841">
        <ele>455.4</ele>
        <time>2025-10-04T12:49:37Z</time>
      </trkpt>
      <trkpt lat="45.38224" lon="3.34863">
        <ele>455.6</ele>
        <time>2025-10-04T12:49:41Z</time>
      </trkpt>
      <trkpt lat="45.38226" lon="3.34868">
        <ele>455.6</ele>
        <time>2025-10-04T12:49:42Z</time>
      </trkpt>
      <trkpt lat="45.38232" lon="3.34876">
        <ele>456</ele>
        <time>2025-10-04T12:49:44Z</time>
      </trkpt>
      <trkpt lat="45.38248" lon="3.34898">
        <ele>456.6</ele>
        <time>2025-10-04T12:49:49Z</time>
      </trkpt>
      <trkpt lat="45.38264" lon="3.34922">
        <ele>457.6</ele>
        <time>2025-10-04T12:49:54Z</time>
      </trkpt>
      <trkpt lat="45.3827" lon="3.34931">
        <ele>457.6</ele>
        <time>2025-10-04T12:49:56Z</time>
      </trkpt>
      <trkpt lat="45.38297" lon="3.34984">
        <ele>457.4</ele>
        <time>2025-10-04T12:50:05Z</time>
      </trkpt>
      <trkpt lat="45.383" lon="3.34991">
        <ele>457.4</ele>
        <time>2025-10-04T12:50:06Z</time>
      </trkpt>
      <trkpt lat="45.3831" lon="3.35017">
        <ele>456.8</ele>
        <time>2025-10-04T12:50:10Z</time>
      </trkpt>
      <trkpt lat="45.38313" lon="3.35023">
        <ele>456.6</ele>
        <time>2025-10-04T12:50:11Z</time>
      </trkpt>
      <trkpt lat="45.38317" lon="3.3503">
        <ele>456.6</ele>
        <time>2025-10-04T12:50:12Z</time>
      </trkpt>
      <trkpt lat="45.38326" lon="3.3505">
        <ele>456</ele>
        <time>2025-10-04T12:50:15Z</time>
      </trkpt>
      <trkpt lat="45.38333" lon="3.35063">
        <ele>455.8</ele>
        <time>2025-10-04T12:50:17Z</time>
      </trkpt>
      <trkpt lat="45.38343" lon="3.35081">
        <ele>455.6</ele>
        <time>2025-10-04T12:50:20Z</time>
      </trkpt>
      <trkpt lat="45.38347" lon="3.35087">
        <ele>455.4</ele>
        <time>2025-10-04T12:50:21Z</time>
      </trkpt>
      <trkpt lat="45.38359" lon="3.35105">
        <ele>455.4</ele>
        <time>2025-10-04T12:50:24Z</time>
      </trkpt>
      <trkpt lat="45.38376" lon="3.35128">
        <ele>454.6</ele>
        <time>2025-10-04T12:50:28Z</time>
      </trkpt>
      <trkpt lat="45.3838" lon="3.35133">
        <ele>454.6</ele>
        <time>2025-10-04T12:50:29Z</time>
      </trkpt>
      <trkpt lat="45.38385" lon="3.35138">
        <ele>454.4</ele>
        <time>2025-10-04T12:50:30Z</time>
      </trkpt>
      <trkpt lat="45.3839" lon="3.35142">
        <ele>454.2</ele>
        <time>2025-10-04T12:50:31Z</time>
      </trkpt>
      <trkpt lat="45.38413" lon="3.35155">
        <ele>454</ele>
        <time>2025-10-04T12:50:35Z</time>
      </trkpt>
      <trkpt lat="45.38431" lon="3.35164">
        <ele>453.8</ele>
        <time>2025-10-04T12:50:38Z</time>
      </trkpt>
      <trkpt lat="45.38465" lon="3.35182">
        <ele>453</ele>
        <time>2025-10-04T12:50:43Z</time>
      </trkpt>
      <trkpt lat="45.38471" lon="3.35187">
        <ele>453</ele>
        <time>2025-10-04T12:50:44Z</time>
      </trkpt>
      <trkpt lat="45.38485" lon="3.35198">
        <ele>452</ele>
        <time>2025-10-04T12:50:46Z</time>
      </trkpt>
      <trkpt lat="45.38507" lon="3.35213">
        <ele>451</ele>
        <time>2025-10-04T12:50:49Z</time>
      </trkpt>
      <trkpt lat="45.38514" lon="3.35218">
        <ele>450.6</ele>
        <time>2025-10-04T12:50:50Z</time>
      </trkpt>
      <trkpt lat="45.38521" lon="3.35224">
        <ele>450.2</ele>
        <time>2025-10-04T12:50:51Z</time>
      </trkpt>
      <trkpt lat="45.38541" lon="3.3524">
        <ele>448.8</ele>
        <time>2025-10-04T12:50:54Z</time>
      </trkpt>
      <trkpt lat="45.3855" lon="3.35245">
        <ele>448</ele>
        <time>2025-10-04T12:50:56Z</time>
      </trkpt>
      <trkpt lat="45.38555" lon="3.35245">
        <ele>447.2</ele>
        <time>2025-10-04T12:50:57Z</time>
      </trkpt>
      <trkpt lat="45.38561" lon="3.35245">
        <ele>447</ele>
        <time>2025-10-04T12:50:58Z</time>
      </trkpt>
      <trkpt lat="45.38571" lon="3.3524">
        <ele>446</ele>
        <time>2025-10-04T12:51:00Z</time>
      </trkpt>
      <trkpt lat="45.38575" lon="3.35239">
        <ele>445.6</ele>
        <time>2025-10-04T12:51:01Z</time>
      </trkpt>
      <trkpt lat="45.38582" lon="3.35241">
        <ele>444.6</ele>
        <time>2025-10-04T12:51:03Z</time>
      </trkpt>
      <trkpt lat="45.38586" lon="3.35245">
        <ele>444</ele>
        <time>2025-10-04T12:51:04Z</time>
      </trkpt>
      <trkpt lat="45.38591" lon="3.35251">
        <ele>443.6</ele>
        <time>2025-10-04T12:51:06Z</time>
      </trkpt>
      <trkpt lat="45.38598" lon="3.35258">
        <ele>442.6</ele>
        <time>2025-10-04T12:51:09Z</time>
      </trkpt>
      <trkpt lat="45.386" lon="3.35262">
        <ele>441.4</ele>
        <time>2025-10-04T12:51:10Z</time>
      </trkpt>
      <trkpt lat="45.38604" lon="3.35269">
        <ele>440</ele>
        <time>2025-10-04T12:51:12Z</time>
      </trkpt>
      <trkpt lat="45.38606" lon="3.35269">
        <ele>438.8</ele>
        <time>2025-10-04T12:51:13Z</time>
      </trkpt>
      <trkpt lat="45.38615" lon="3.35265">
        <ele>437.6</ele>
        <time>2025-10-04T12:51:15Z</time>
      </trkpt>
      <trkpt lat="45.38627" lon="3.35261">
        <ele>437</ele>
        <time>2025-10-04T12:51:17Z</time>
      </trkpt>
      <trkpt lat="45.38642" lon="3.35256">
        <ele>436</ele>
        <time>2025-10-04T12:51:19Z</time>
      </trkpt>
      <trkpt lat="45.38659" lon="3.35251">
        <ele>434.8</ele>
        <time>2025-10-04T12:51:21Z</time>
      </trkpt>
      <trkpt lat="45.38668" lon="3.35248">
        <ele>434</ele>
        <time>2025-10-04T12:51:22Z</time>
      </trkpt>
      <trkpt lat="45.38678" lon="3.35243">
        <ele>433.4</ele>
        <time>2025-10-04T12:51:23Z</time>
      </trkpt>
      <trkpt lat="45.38697" lon="3.35232">
        <ele>432.2</ele>
        <time>2025-10-04T12:51:25Z</time>
      </trkpt>
      <trkpt lat="45.38724" lon="3.35212">
        <ele>430</ele>
        <time>2025-10-04T12:51:28Z</time>
      </trkpt>
      <trkpt lat="45.38731" lon="3.35208">
        <ele>429.6</ele>
        <time>2025-10-04T12:51:29Z</time>
      </trkpt>
      <trkpt lat="45.38737" lon="3.35206">
        <ele>428.2</ele>
        <time>2025-10-04T12:51:30Z</time>
      </trkpt>
      <trkpt lat="45.38741" lon="3.35207">
        <ele>426.6</ele>
        <time>2025-10-04T12:51:31Z</time>
      </trkpt>
      <trkpt lat="45.38743" lon="3.35208">
        <ele>426</ele>
        <time>2025-10-04T12:51:32Z</time>
      </trkpt>
      <trkpt lat="45.38744" lon="3.3521">
        <ele>425</ele>
        <time>2025-10-04T12:51:33Z</time>
      </trkpt>
      <trkpt lat="45.38742" lon="3.35219">
        <ele>423.6</ele>
        <time>2025-10-04T12:51:35Z</time>
      </trkpt>
      <trkpt lat="45.38736" lon="3.35244">
        <ele>422.4</ele>
        <time>2025-10-04T12:51:39Z</time>
      </trkpt>
      <trkpt lat="45.38733" lon="3.35258">
        <ele>422</ele>
        <time>2025-10-04T12:51:41Z</time>
      </trkpt>
      <trkpt lat="45.3872" lon="3.35322">
        <ele>421.4</ele>
        <time>2025-10-04T12:51:50Z</time>
      </trkpt>
      <trkpt lat="45.38718" lon="3.35335">
        <ele>421.4</ele>
        <time>2025-10-04T12:51:52Z</time>
      </trkpt>
      <trkpt lat="45.3871" lon="3.35368">
        <ele>421.2</ele>
        <time>2025-10-04T12:51:57Z</time>
      </trkpt>
      <trkpt lat="45.38687" lon="3.3543">
        <ele>420.8</ele>
        <time>2025-10-04T12:52:06Z</time>
      </trkpt>
      <trkpt lat="45.38681" lon="3.35443">
        <ele>420.6</ele>
        <time>2025-10-04T12:52:08Z</time>
      </trkpt>
      <trkpt lat="45.38669" lon="3.35468">
        <ele>420.4</ele>
        <time>2025-10-04T12:52:12Z</time>
      </trkpt>
      <trkpt lat="45.38666" lon="3.35474">
        <ele>420.2</ele>
        <time>2025-10-04T12:52:13Z</time>
      </trkpt>
      <trkpt lat="45.38652" lon="3.35505">
        <ele>419.8</ele>
        <time>2025-10-04T12:52:18Z</time>
      </trkpt>
      <trkpt lat="45.38645" lon="3.35518">
        <ele>419.6</ele>
        <time>2025-10-04T12:52:20Z</time>
      </trkpt>
      <trkpt lat="45.38631" lon="3.35546">
        <ele>419.2</ele>
        <time>2025-10-04T12:52:24Z</time>
      </trkpt>
      <trkpt lat="45.38622" lon="3.35559">
        <ele>419.2</ele>
        <time>2025-10-04T12:52:26Z</time>
      </trkpt>
      <trkpt lat="45.38617" lon="3.35564">
        <ele>419</ele>
        <time>2025-10-04T12:52:27Z</time>
      </trkpt>
      <trkpt lat="45.38607" lon="3.35573">
        <ele>418.8</ele>
        <time>2025-10-04T12:52:29Z</time>
      </trkpt>
      <trkpt lat="45.38587" lon="3.35593">
        <ele>418.2</ele>
        <time>2025-10-04T12:52:33Z</time>
      </trkpt>
      <trkpt lat="45.38582" lon="3.35598">
        <ele>418</ele>
        <time>2025-10-04T12:52:34Z</time>
      </trkpt>
      <trkpt lat="45.38571" lon="3.35609">
        <ele>417.6</ele>
        <time>2025-10-04T12:52:36Z</time>
      </trkpt>
      <trkpt lat="45.38557" lon="3.35628">
        <ele>417.4</ele>
        <time>2025-10-04T12:52:39Z</time>
      </trkpt>
      <trkpt lat="45.38556" lon="3.35636">
        <ele>417.4</ele>
        <time>2025-10-04T12:52:40Z</time>
      </trkpt>
      <trkpt lat="45.38561" lon="3.35653">
        <ele>417</ele>
        <time>2025-10-04T12:52:42Z</time>
      </trkpt>
      <trkpt lat="45.38565" lon="3.35669">
        <ele>417</ele>
        <time>2025-10-04T12:52:44Z</time>
      </trkpt>
      <trkpt lat="45.38586" lon="3.35736">
        <ele>417.2</ele>
        <time>2025-10-04T12:52:52Z</time>
      </trkpt>
      <trkpt lat="45.38599" lon="3.35778">
        <ele>417</ele>
        <time>2025-10-04T12:52:57Z</time>
      </trkpt>
      <trkpt lat="45.38602" lon="3.35787">
        <ele>417</ele>
        <time>2025-10-04T12:52:58Z</time>
      </trkpt>
      <trkpt lat="45.38616" lon="3.35839">
        <ele>416.8</ele>
        <time>2025-10-04T12:53:04Z</time>
      </trkpt>
      <trkpt lat="45.38633" lon="3.35898">
        <ele>416.6</ele>
        <time>2025-10-04T12:53:11Z</time>
      </trkpt>
      <trkpt lat="45.3864" lon="3.35923">
        <ele>416.2</ele>
        <time>2025-10-04T12:53:14Z</time>
      </trkpt>
      <trkpt lat="45.38643" lon="3.35931">
        <ele>416</ele>
        <time>2025-10-04T12:53:15Z</time>
      </trkpt>
      <trkpt lat="45.38657" lon="3.35977">
        <ele>415.8</ele>
        <time>2025-10-04T12:53:21Z</time>
      </trkpt>
      <trkpt lat="45.38658" lon="3.35983">
        <ele>415.8</ele>
        <time>2025-10-04T12:53:22Z</time>
      </trkpt>
      <trkpt lat="45.38654" lon="3.3599">
        <ele>415.8</ele>
        <time>2025-10-04T12:53:24Z</time>
      </trkpt>
      <trkpt lat="45.38649" lon="3.3599">
        <ele>415.8</ele>
        <time>2025-10-04T12:53:25Z</time>
      </trkpt>
      <trkpt lat="45.38643" lon="3.35987">
        <ele>415.8</ele>
        <time>2025-10-04T12:53:26Z</time>
      </trkpt>
      <trkpt lat="45.3863" lon="3.35979">
        <ele>415.6</ele>
        <time>2025-10-04T12:53:28Z</time>
      </trkpt>
      <trkpt lat="45.3862" lon="3.35967">
        <ele>414.6</ele>
        <time>2025-10-04T12:53:30Z</time>
      </trkpt>
      <trkpt lat="45.38612" lon="3.35953">
        <ele>413.4</ele>
        <time>2025-10-04T12:53:32Z</time>
      </trkpt>
      <trkpt lat="45.38594" lon="3.35918">
        <ele>412.4</ele>
        <time>2025-10-04T12:53:37Z</time>
      </trkpt>
      <trkpt lat="45.38591" lon="3.35909">
        <ele>412.4</ele>
        <time>2025-10-04T12:53:38Z</time>
      </trkpt>
      <trkpt lat="45.3859" lon="3.35901">
        <ele>412.4</ele>
        <time>2025-10-04T12:53:39Z</time>
      </trkpt>
      <trkpt lat="45.38586" lon="3.35884">
        <ele>412.2</ele>
        <time>2025-10-04T12:53:41Z</time>
      </trkpt>
      <trkpt lat="45.38583" lon="3.35878">
        <ele>412.2</ele>
        <time>2025-10-04T12:53:42Z</time>
      </trkpt>
      <trkpt lat="45.38578" lon="3.35875">
        <ele>412.2</ele>
        <time>2025-10-04T12:53:43Z</time>
      </trkpt>
      <trkpt lat="45.38573" lon="3.35876">
        <ele>412.2</ele>
        <time>2025-10-04T12:53:44Z</time>
      </trkpt>
      <trkpt lat="45.38542" lon="3.35892">
        <ele>411.8</ele>
        <time>2025-10-04T12:53:50Z</time>
      </trkpt>
      <trkpt lat="45.38508" lon="3.35911">
        <ele>411.6</ele>
        <time>2025-10-04T12:53:57Z</time>
      </trkpt>
      <trkpt lat="45.38476" lon="3.3593">
        <ele>411.8</ele>
        <time>2025-10-04T12:54:04Z</time>
      </trkpt>
      <trkpt lat="45.38472" lon="3.35933">
        <ele>411.8</ele>
        <time>2025-10-04T12:54:05Z</time>
      </trkpt>
      <trkpt lat="45.38463" lon="3.35949">
        <ele>412</ele>
        <time>2025-10-04T12:54:08Z</time>
      </trkpt>
      <trkpt lat="45.38461" lon="3.35954">
        <ele>412</ele>
        <time>2025-10-04T12:54:09Z</time>
      </trkpt>
      <trkpt lat="45.38446" lon="3.35974">
        <ele>412</ele>
        <time>2025-10-04T12:54:14Z</time>
      </trkpt>
      <trkpt lat="45.38424" lon="3.35993">
        <ele>411.8</ele>
        <time>2025-10-04T12:54:20Z</time>
      </trkpt>
      <trkpt lat="45.38414" lon="3.35997">
        <ele>412</ele>
        <time>2025-10-04T12:54:22Z</time>
      </trkpt>
      <trkpt lat="45.38404" lon="3.36001">
        <ele>412</ele>
        <time>2025-10-04T12:54:24Z</time>
      </trkpt>
      <trkpt lat="45.384" lon="3.36002">
        <ele>412</ele>
        <time>2025-10-04T12:54:25Z</time>
      </trkpt>
      <trkpt lat="45.38382" lon="3.36003">
        <ele>412.2</ele>
        <time>2025-10-04T12:54:29Z</time>
      </trkpt>
      <trkpt lat="45.38376" lon="3.36004">
        <ele>412.2</ele>
        <time>2025-10-04T12:54:30Z</time>
      </trkpt>
      <trkpt lat="45.3835" lon="3.36012">
        <ele>412</ele>
        <time>2025-10-04T12:54:35Z</time>
      </trkpt>
      <trkpt lat="45.38345" lon="3.36015">
        <ele>412</ele>
        <time>2025-10-04T12:54:36Z</time>
      </trkpt>
      <trkpt lat="45.38328" lon="3.36031">
        <ele>412</ele>
        <time>2025-10-04T12:54:41Z</time>
      </trkpt>
      <trkpt lat="45.38314" lon="3.3604">
        <ele>412.4</ele>
        <time>2025-10-04T12:54:45Z</time>
      </trkpt>
      <trkpt lat="45.38306" lon="3.36042">
        <ele>413</ele>
        <time>2025-10-04T12:54:47Z</time>
      </trkpt>
      <trkpt lat="45.38302" lon="3.3605">
        <ele>413.6</ele>
        <time>2025-10-04T12:54:49Z</time>
      </trkpt>
      <trkpt lat="45.38301" lon="3.36055">
        <ele>413.8</ele>
        <time>2025-10-04T12:54:50Z</time>
      </trkpt>
      <trkpt lat="45.38299" lon="3.36069">
        <ele>414.8</ele>
        <time>2025-10-04T12:54:53Z</time>
      </trkpt>
      <trkpt lat="45.38296" lon="3.36076">
        <ele>415.2</ele>
        <time>2025-10-04T12:54:55Z</time>
      </trkpt>
      <trkpt lat="45.38279" lon="3.36084">
        <ele>415.8</ele>
        <time>2025-10-04T12:55:00Z</time>
      </trkpt>
      <trkpt lat="45.38276" lon="3.36085">
        <ele>416</ele>
        <time>2025-10-04T12:55:01Z</time>
      </trkpt>
      <trkpt lat="45.38263" lon="3.36087">
        <ele>416.4</ele>
        <time>2025-10-04T12:55:04Z</time>
      </trkpt>
      <trkpt lat="45.38253" lon="3.36086">
        <ele>416.4</ele>
        <time>2025-10-04T12:55:06Z</time>
      </trkpt>
      <trkpt lat="45.38242" lon="3.36085">
        <ele>415.8</ele>
        <time>2025-10-04T12:55:08Z</time>
      </trkpt>
      <trkpt lat="45.38229" lon="3.36088">
        <ele>415.4</ele>
        <time>2025-10-04T12:55:10Z</time>
      </trkpt>
      <trkpt lat="45.38218" lon="3.36093">
        <ele>414.8</ele>
        <time>2025-10-04T12:55:12Z</time>
      </trkpt>
      <trkpt lat="45.38196" lon="3.36101">
        <ele>413.8</ele>
        <time>2025-10-04T12:55:16Z</time>
      </trkpt>
      <trkpt lat="45.38191" lon="3.36102">
        <ele>414</ele>
        <time>2025-10-04T12:55:17Z</time>
      </trkpt>
      <trkpt lat="45.38186" lon="3.36104">
        <ele>413.8</ele>
        <time>2025-10-04T12:55:18Z</time>
      </trkpt>
      <trkpt lat="45.38177" lon="3.36109">
        <ele>413.8</ele>
        <time>2025-10-04T12:55:20Z</time>
      </trkpt>
      <trkpt lat="45.38159" lon="3.36119">
        <ele>413.6</ele>
        <time>2025-10-04T12:55:24Z</time>
      </trkpt>
      <trkpt lat="45.38147" lon="3.36126">
        <ele>413.8</ele>
        <time>2025-10-04T12:55:27Z</time>
      </trkpt>
      <trkpt lat="45.38139" lon="3.3613">
        <ele>413.8</ele>
        <time>2025-10-04T12:55:29Z</time>
      </trkpt>
      <trkpt lat="45.38128" lon="3.36135">
        <ele>414.2</ele>
        <time>2025-10-04T12:55:32Z</time>
      </trkpt>
      <trkpt lat="45.38112" lon="3.36139">
        <ele>415</ele>
        <time>2025-10-04T12:55:36Z</time>
      </trkpt>
      <trkpt lat="45.38099" lon="3.36143">
        <ele>415.8</ele>
        <time>2025-10-04T12:55:39Z</time>
      </trkpt>
      <trkpt lat="45.38095" lon="3.36145">
        <ele>416</ele>
        <time>2025-10-04T12:55:40Z</time>
      </trkpt>
      <trkpt lat="45.38075" lon="3.3616">
        <ele>416.6</ele>
        <time>2025-10-04T12:55:45Z</time>
      </trkpt>
      <trkpt lat="45.38061" lon="3.36173">
        <ele>417</ele>
        <time>2025-10-04T12:55:49Z</time>
      </trkpt>
      <trkpt lat="45.3805" lon="3.36184">
        <ele>417.2</ele>
        <time>2025-10-04T12:55:52Z</time>
      </trkpt>
      <trkpt lat="45.38025" lon="3.3621">
        <ele>417.2</ele>
        <time>2025-10-04T12:55:59Z</time>
      </trkpt>
      <trkpt lat="45.38001" lon="3.36236">
        <ele>417.8</ele>
        <time>2025-10-04T12:56:06Z</time>
      </trkpt>
      <trkpt lat="45.37998" lon="3.3624">
        <ele>418</ele>
        <time>2025-10-04T12:56:07Z</time>
      </trkpt>
      <trkpt lat="45.37996" lon="3.36244">
        <ele>418.2</ele>
        <time>2025-10-04T12:56:08Z</time>
      </trkpt>
      <trkpt lat="45.37988" lon="3.36264">
        <ele>418.2</ele>
        <time>2025-10-04T12:56:12Z</time>
      </trkpt>
      <trkpt lat="45.37983" lon="3.36286">
        <ele>418.6</ele>
        <time>2025-10-04T12:56:17Z</time>
      </trkpt>
      <trkpt lat="45.37982" lon="3.363">
        <ele>419</ele>
        <time>2025-10-04T12:56:20Z</time>
      </trkpt>
      <trkpt lat="45.37981" lon="3.36318">
        <ele>420</ele>
        <time>2025-10-04T12:56:24Z</time>
      </trkpt>
      <trkpt lat="45.37982" lon="3.36322">
        <ele>420.2</ele>
        <time>2025-10-04T12:56:25Z</time>
      </trkpt>
      <trkpt lat="45.37985" lon="3.36348">
        <ele>420.8</ele>
        <time>2025-10-04T12:56:30Z</time>
      </trkpt>
      <trkpt lat="45.3799" lon="3.36362">
        <ele>421.2</ele>
        <time>2025-10-04T12:56:33Z</time>
      </trkpt>
      <trkpt lat="45.37995" lon="3.36376">
        <ele>421.2</ele>
        <time>2025-10-04T12:56:36Z</time>
      </trkpt>
      <trkpt lat="45.38006" lon="3.36401">
        <ele>421.6</ele>
        <time>2025-10-04T12:56:42Z</time>
      </trkpt>
      <trkpt lat="45.38012" lon="3.36416">
        <ele>422.4</ele>
        <time>2025-10-04T12:56:46Z</time>
      </trkpt>
      <trkpt lat="45.38014" lon="3.3642">
        <ele>422.6</ele>
        <time>2025-10-04T12:56:47Z</time>
      </trkpt>
      <trkpt lat="45.38015" lon="3.36423">
        <ele>422.8</ele>
        <time>2025-10-04T12:56:48Z</time>
      </trkpt>
      <trkpt lat="45.3802" lon="3.3644">
        <ele>423.4</ele>
        <time>2025-10-04T12:56:53Z</time>
      </trkpt>
      <trkpt lat="45.38021" lon="3.36444">
        <ele>423.6</ele>
        <time>2025-10-04T12:56:54Z</time>
      </trkpt>
      <trkpt lat="45.38025" lon="3.36459">
        <ele>424.6</ele>
        <time>2025-10-04T12:56:58Z</time>
      </trkpt>
      <trkpt lat="45.3803" lon="3.36479">
        <ele>425.4</ele>
        <time>2025-10-04T12:57:03Z</time>
      </trkpt>
      <trkpt lat="45.38035" lon="3.36494">
        <ele>425.8</ele>
        <time>2025-10-04T12:57:07Z</time>
      </trkpt>
      <trkpt lat="45.38036" lon="3.36498">
        <ele>426</ele>
        <time>2025-10-04T12:57:08Z</time>
      </trkpt>
      <trkpt lat="45.38043" lon="3.36528">
        <ele>426.8</ele>
        <time>2025-10-04T12:57:15Z</time>
      </trkpt>
      <trkpt lat="45.38044" lon="3.36537">
        <ele>426.8</ele>
        <time>2025-10-04T12:57:17Z</time>
      </trkpt>
      <trkpt lat="45.38049" lon="3.36566">
        <ele>427.6</ele>
        <time>2025-10-04T12:57:24Z</time>
      </trkpt>
      <trkpt lat="45.38051" lon="3.36578">
        <ele>427.8</ele>
        <time>2025-10-04T12:57:27Z</time>
      </trkpt>
      <trkpt lat="45.38052" lon="3.36596">
        <ele>428</ele>
        <time>2025-10-04T12:57:31Z</time>
      </trkpt>
      <trkpt lat="45.38057" lon="3.36629">
        <ele>429</ele>
        <time>2025-10-04T12:57:39Z</time>
      </trkpt>
      <trkpt lat="45.38057" lon="3.36633">
        <ele>429</ele>
        <time>2025-10-04T12:57:40Z</time>
      </trkpt>
      <trkpt lat="45.38064" lon="3.3666">
        <ele>430</ele>
        <time>2025-10-04T12:57:47Z</time>
      </trkpt>
      <trkpt lat="45.38065" lon="3.36667">
        <ele>430.2</ele>
        <time>2025-10-04T12:57:49Z</time>
      </trkpt>
      <trkpt lat="45.38066" lon="3.36685">
        <ele>430.4</ele>
        <time>2025-10-04T12:57:54Z</time>
      </trkpt>
      <trkpt lat="45.38067" lon="3.36699">
        <ele>431</ele>
        <time>2025-10-04T12:57:58Z</time>
      </trkpt>
      <trkpt lat="45.38068" lon="3.36709">
        <ele>432</ele>
        <time>2025-10-04T12:58:01Z</time>
      </trkpt>
      <trkpt lat="45.38069" lon="3.36716">
        <ele>432.2</ele>
        <time>2025-10-04T12:58:03Z</time>
      </trkpt>
      <trkpt lat="45.38069" lon="3.36737">
        <ele>433.2</ele>
        <time>2025-10-04T12:58:09Z</time>
      </trkpt>
      <trkpt lat="45.38069" lon="3.3674">
        <ele>433.4</ele>
        <time>2025-10-04T12:58:10Z</time>
      </trkpt>
      <trkpt lat="45.38069" lon="3.36761">
        <ele>434.2</ele>
        <time>2025-10-04T12:58:16Z</time>
      </trkpt>
      <trkpt lat="45.38063" lon="3.36774">
        <ele>434.4</ele>
        <time>2025-10-04T12:58:21Z</time>
      </trkpt>
      <trkpt lat="45.38062" lon="3.36776">
        <ele>434.6</ele>
        <time>2025-10-04T12:58:22Z</time>
      </trkpt>
      <trkpt lat="45.38058" lon="3.36784">
        <ele>435.6</ele>
        <time>2025-10-04T12:58:26Z</time>
      </trkpt>
      <trkpt lat="45.38056" lon="3.36788">
        <ele>435.8</ele>
        <time>2025-10-04T12:58:28Z</time>
      </trkpt>
      <trkpt lat="45.38054" lon="3.36798">
        <ele>437</ele>
        <time>2025-10-04T12:58:33Z</time>
      </trkpt>
      <trkpt lat="45.38054" lon="3.36803">
        <ele>437.6</ele>
        <time>2025-10-04T12:58:35Z</time>
      </trkpt>
      <trkpt lat="45.38055" lon="3.36807">
        <ele>438.2</ele>
        <time>2025-10-04T12:58:37Z</time>
      </trkpt>
      <trkpt lat="45.38058" lon="3.36817">
        <ele>439.2</ele>
        <time>2025-10-04T12:58:42Z</time>
      </trkpt>
      <trkpt lat="45.38059" lon="3.36818">
        <ele>439.4</ele>
        <time>2025-10-04T12:58:43Z</time>
      </trkpt>
      <trkpt lat="45.38063" lon="3.36827">
        <ele>440.2</ele>
        <time>2025-10-04T12:58:48Z</time>
      </trkpt>
      <trkpt lat="45.38068" lon="3.36836">
        <ele>441.4</ele>
        <time>2025-10-04T12:58:53Z</time>
      </trkpt>
      <trkpt lat="45.38072" lon="3.36845">
        <ele>442.6</ele>
        <time>2025-10-04T12:58:58Z</time>
      </trkpt>
      <trkpt lat="45.38075" lon="3.36854">
        <ele>443.6</ele>
        <time>2025-10-04T12:59:02Z</time>
      </trkpt>
      <trkpt lat="45.38079" lon="3.36863">
        <ele>444.6</ele>
        <time>2025-10-04T12:59:06Z</time>
      </trkpt>
      <trkpt lat="45.3808" lon="3.36865">
        <ele>444.8</ele>
        <time>2025-10-04T12:59:07Z</time>
      </trkpt>
      <trkpt lat="45.38083" lon="3.36878">
        <ele>445.8</ele>
        <time>2025-10-04T12:59:12Z</time>
      </trkpt>
      <trkpt lat="45.38085" lon="3.36884">
        <ele>446.4</ele>
        <time>2025-10-04T12:59:14Z</time>
      </trkpt>
      <trkpt lat="45.38088" lon="3.36893">
        <ele>447</ele>
        <time>2025-10-04T12:59:18Z</time>
      </trkpt>
      <trkpt lat="45.38091" lon="3.36903">
        <ele>447.6</ele>
        <time>2025-10-04T12:59:22Z</time>
      </trkpt>
      <trkpt lat="45.38093" lon="3.36916">
        <ele>448.2</ele>
        <time>2025-10-04T12:59:27Z</time>
      </trkpt>
      <trkpt lat="45.38095" lon="3.36926">
        <ele>448.8</ele>
        <time>2025-10-04T12:59:31Z</time>
      </trkpt>
      <trkpt lat="45.38097" lon="3.36935">
        <ele>449.2</ele>
        <time>2025-10-04T12:59:35Z</time>
      </trkpt>
      <trkpt lat="45.38099" lon="3.3695">
        <ele>450</ele>
        <time>2025-10-04T12:59:41Z</time>
      </trkpt>
      <trkpt lat="45.381" lon="3.36955">
        <ele>450.6</ele>
        <time>2025-10-04T12:59:43Z</time>
      </trkpt>
      <trkpt lat="45.38099" lon="3.36966">
        <ele>451.2</ele>
        <time>2025-10-04T12:59:48Z</time>
      </trkpt>
      <trkpt lat="45.38099" lon="3.36973">
        <ele>451.6</ele>
        <time>2025-10-04T12:59:51Z</time>
      </trkpt>
      <trkpt lat="45.381" lon="3.36986">
        <ele>452.2</ele>
        <time>2025-10-04T12:59:56Z</time>
      </trkpt>
      <trkpt lat="45.381" lon="3.36988">
        <ele>452.8</ele>
        <time>2025-10-04T12:59:57Z</time>
      </trkpt>
      <trkpt lat="45.38101" lon="3.36997">
        <ele>453.8</ele>
        <time>2025-10-04T13:00:01Z</time>
      </trkpt>
      <trkpt lat="45.38101" lon="3.37007">
        <ele>454.6</ele>
        <time>2025-10-04T13:00:05Z</time>
      </trkpt>
      <trkpt lat="45.38101" lon="3.37014">
        <ele>455</ele>
        <time>2025-10-04T13:00:08Z</time>
      </trkpt>
      <trkpt lat="45.38102" lon="3.37025">
        <ele>456</ele>
        <time>2025-10-04T13:00:13Z</time>
      </trkpt>
      <trkpt lat="45.38102" lon="3.37028">
        <ele>456</ele>
        <time>2025-10-04T13:00:14Z</time>
      </trkpt>
      <trkpt lat="45.38102" lon="3.37042">
        <ele>457</ele>
        <time>2025-10-04T13:00:20Z</time>
      </trkpt>
      <trkpt lat="45.38102" lon="3.37045">
        <ele>457.2</ele>
        <time>2025-10-04T13:00:21Z</time>
      </trkpt>
      <trkpt lat="45.38102" lon="3.37059">
        <ele>458.2</ele>
        <time>2025-10-04T13:00:27Z</time>
      </trkpt>
      <trkpt lat="45.38102" lon="3.37067">
        <ele>458.6</ele>
        <time>2025-10-04T13:00:30Z</time>
      </trkpt>
      <trkpt lat="45.38102" lon="3.37074">
        <ele>459.4</ele>
        <time>2025-10-04T13:00:33Z</time>
      </trkpt>
      <trkpt lat="45.38103" lon="3.37089">
        <ele>460.2</ele>
        <time>2025-10-04T13:00:39Z</time>
      </trkpt>
      <trkpt lat="45.38103" lon="3.37091">
        <ele>460.4</ele>
        <time>2025-10-04T13:00:40Z</time>
      </trkpt>
      <trkpt lat="45.38106" lon="3.37106">
        <ele>461.6</ele>
        <time>2025-10-04T13:00:46Z</time>
      </trkpt>
      <trkpt lat="45.38105" lon="3.37118">
        <ele>462.8</ele>
        <time>2025-10-04T13:00:51Z</time>
      </trkpt>
      <trkpt lat="45.38105" lon="3.37128">
        <ele>463.4</ele>
        <time>2025-10-04T13:00:55Z</time>
      </trkpt>
      <trkpt lat="45.38105" lon="3.37136">
        <ele>463.8</ele>
        <time>2025-10-04T13:00:58Z</time>
      </trkpt>
      <trkpt lat="45.38105" lon="3.37158">
        <ele>464.8</ele>
        <time>2025-10-04T13:01:06Z</time>
      </trkpt>
      <trkpt lat="45.38105" lon="3.37161">
        <ele>465</ele>
        <time>2025-10-04T13:01:07Z</time>
      </trkpt>
      <trkpt lat="45.38105" lon="3.37175">
        <ele>465.8</ele>
        <time>2025-10-04T13:01:12Z</time>
      </trkpt>
      <trkpt lat="45.38106" lon="3.37185">
        <ele>466.2</ele>
        <time>2025-10-04T13:01:16Z</time>
      </trkpt>
      <trkpt lat="45.38106" lon="3.37198">
        <ele>467</ele>
        <time>2025-10-04T13:01:21Z</time>
      </trkpt>
      <trkpt lat="45.38107" lon="3.37208">
        <ele>467.6</ele>
        <time>2025-10-04T13:01:25Z</time>
      </trkpt>
      <trkpt lat="45.38108" lon="3.37219">
        <ele>468.2</ele>
        <time>2025-10-04T13:01:30Z</time>
      </trkpt>
      <trkpt lat="45.38108" lon="3.37222">
        <ele>468.2</ele>
        <time>2025-10-04T13:01:31Z</time>
      </trkpt>
      <trkpt lat="45.38108" lon="3.37242">
        <ele>469.4</ele>
        <time>2025-10-04T13:01:39Z</time>
      </trkpt>
      <trkpt lat="45.38108" lon="3.37244">
        <ele>469.4</ele>
        <time>2025-10-04T13:01:40Z</time>
      </trkpt>
      <trkpt lat="45.38106" lon="3.37258">
        <ele>470.4</ele>
        <time>2025-10-04T13:01:46Z</time>
      </trkpt>
      <trkpt lat="45.38105" lon="3.37266">
        <ele>471</ele>
        <time>2025-10-04T13:01:49Z</time>
      </trkpt>
      <trkpt lat="45.38104" lon="3.37272">
        <ele>471.6</ele>
        <time>2025-10-04T13:01:52Z</time>
      </trkpt>
      <trkpt lat="45.38103" lon="3.37278">
        <ele>472.2</ele>
        <time>2025-10-04T13:01:55Z</time>
      </trkpt>
      <trkpt lat="45.38102" lon="3.3728">
        <ele>472.4</ele>
        <time>2025-10-04T13:01:56Z</time>
      </trkpt>
      <trkpt lat="45.38102" lon="3.37282">
        <ele>472.6</ele>
        <time>2025-10-04T13:01:57Z</time>
      </trkpt>
      <trkpt lat="45.38099" lon="3.3729">
        <ele>473</ele>
        <time>2025-10-04T13:02:01Z</time>
      </trkpt>
      <trkpt lat="45.38097" lon="3.37296">
        <ele>473.8</ele>
        <time>2025-10-04T13:02:04Z</time>
      </trkpt>
      <trkpt lat="45.38094" lon="3.37301">
        <ele>474</ele>
        <time>2025-10-04T13:02:07Z</time>
      </trkpt>
      <trkpt lat="45.38089" lon="3.37311">
        <ele>474.8</ele>
        <time>2025-10-04T13:02:13Z</time>
      </trkpt>
      <trkpt lat="45.38088" lon="3.37313">
        <ele>475</ele>
        <time>2025-10-04T13:02:14Z</time>
      </trkpt>
      <trkpt lat="45.38086" lon="3.37319">
        <ele>475.8</ele>
        <time>2025-10-04T13:02:17Z</time>
      </trkpt>
      <trkpt lat="45.38082" lon="3.3733">
        <ele>477</ele>
        <time>2025-10-04T13:02:22Z</time>
      </trkpt>
      <trkpt lat="45.38078" lon="3.3734">
        <ele>477.6</ele>
        <time>2025-10-04T13:02:26Z</time>
      </trkpt>
      <trkpt lat="45.38077" lon="3.37344">
        <ele>478</ele>
        <time>2025-10-04T13:02:28Z</time>
      </trkpt>
      <trkpt lat="45.38075" lon="3.37352">
        <ele>478.8</ele>
        <time>2025-10-04T13:02:32Z</time>
      </trkpt>
      <trkpt lat="45.38074" lon="3.37354">
        <ele>479</ele>
        <time>2025-10-04T13:02:33Z</time>
      </trkpt>
      <trkpt lat="45.38072" lon="3.37359">
        <ele>479.6</ele>
        <time>2025-10-04T13:02:36Z</time>
      </trkpt>
      <trkpt lat="45.38071" lon="3.37363">
        <ele>479.8</ele>
        <time>2025-10-04T13:02:38Z</time>
      </trkpt>
      <trkpt lat="45.3807" lon="3.3737">
        <ele>480.2</ele>
        <time>2025-10-04T13:02:41Z</time>
      </trkpt>
      <trkpt lat="45.38068" lon="3.37378">
        <ele>481.2</ele>
        <time>2025-10-04T13:02:45Z</time>
      </trkpt>
      <trkpt lat="45.38068" lon="3.3738">
        <ele>481.4</ele>
        <time>2025-10-04T13:02:46Z</time>
      </trkpt>
      <trkpt lat="45.38066" lon="3.37388">
        <ele>482.4</ele>
        <time>2025-10-04T13:02:50Z</time>
      </trkpt>
      <trkpt lat="45.38066" lon="3.37397">
        <ele>483.4</ele>
        <time>2025-10-04T13:02:54Z</time>
      </trkpt>
      <trkpt lat="45.38066" lon="3.37399">
        <ele>483.6</ele>
        <time>2025-10-04T13:02:55Z</time>
      </trkpt>
      <trkpt lat="45.38065" lon="3.37405">
        <ele>484.2</ele>
        <time>2025-10-04T13:02:58Z</time>
      </trkpt>
      <trkpt lat="45.38065" lon="3.37406">
        <ele>484.4</ele>
        <time>2025-10-04T13:02:59Z</time>
      </trkpt>
      <trkpt lat="45.38065" lon="3.37411">
        <ele>485</ele>
        <time>2025-10-04T13:03:01Z</time>
      </trkpt>
      <trkpt lat="45.38064" lon="3.37418">
        <ele>485.4</ele>
        <time>2025-10-04T13:03:04Z</time>
      </trkpt>
      <trkpt lat="45.38064" lon="3.37419">
        <ele>485.8</ele>
        <time>2025-10-04T13:03:05Z</time>
      </trkpt>
      <trkpt lat="45.38062" lon="3.37422">
        <ele>486</ele>
        <time>2025-10-04T13:03:07Z</time>
      </trkpt>
      <trkpt lat="45.38062" lon="3.37425">
        <ele>486.2</ele>
        <time>2025-10-04T13:03:08Z</time>
      </trkpt>
      <trkpt lat="45.38062" lon="3.3743">
        <ele>486.6</ele>
        <time>2025-10-04T13:03:10Z</time>
      </trkpt>
      <trkpt lat="45.38058" lon="3.37444">
        <ele>487.4</ele>
        <time>2025-10-04T13:03:16Z</time>
      </trkpt>
      <trkpt lat="45.38057" lon="3.37449">
        <ele>487.6</ele>
        <time>2025-10-04T13:03:18Z</time>
      </trkpt>
      <trkpt lat="45.38053" lon="3.37459">
        <ele>488.6</ele>
        <time>2025-10-04T13:03:23Z</time>
      </trkpt>
      <trkpt lat="45.38052" lon="3.37461">
        <ele>488.6</ele>
        <time>2025-10-04T13:03:24Z</time>
      </trkpt>
      <trkpt lat="45.38048" lon="3.37477">
        <ele>489.8</ele>
        <time>2025-10-04T13:03:31Z</time>
      </trkpt>
      <trkpt lat="45.38045" lon="3.37488">
        <ele>490.6</ele>
        <time>2025-10-04T13:03:36Z</time>
      </trkpt>
      <trkpt lat="45.38043" lon="3.37493">
        <ele>491</ele>
        <time>2025-10-04T13:03:39Z</time>
      </trkpt>
      <trkpt lat="45.38042" lon="3.37497">
        <ele>491.6</ele>
        <time>2025-10-04T13:03:41Z</time>
      </trkpt>
      <trkpt lat="45.38041" lon="3.37501">
        <ele>492</ele>
        <time>2025-10-04T13:03:43Z</time>
      </trkpt>
      <trkpt lat="45.38037" lon="3.37506">
        <ele>492.6</ele>
        <time>2025-10-04T13:03:46Z</time>
      </trkpt>
      <trkpt lat="45.38036" lon="3.37511">
        <ele>493.2</ele>
        <time>2025-10-04T13:03:49Z</time>
      </trkpt>
      <trkpt lat="45.38035" lon="3.37515">
        <ele>493.6</ele>
        <time>2025-10-04T13:03:51Z</time>
      </trkpt>
      <trkpt lat="45.38033" lon="3.37518">
        <ele>494.2</ele>
        <time>2025-10-04T13:03:53Z</time>
      </trkpt>
      <trkpt lat="45.38031" lon="3.37522">
        <ele>494.6</ele>
        <time>2025-10-04T13:03:55Z</time>
      </trkpt>
      <trkpt lat="45.38031" lon="3.37524">
        <ele>494.6</ele>
        <time>2025-10-04T13:03:56Z</time>
      </trkpt>
      <trkpt lat="45.38029" lon="3.37532">
        <ele>495.4</ele>
        <time>2025-10-04T13:04:00Z</time>
      </trkpt>
      <trkpt lat="45.38028" lon="3.37533">
        <ele>495.8</ele>
        <time>2025-10-04T13:04:01Z</time>
      </trkpt>
      <trkpt lat="45.38023" lon="3.37542">
        <ele>497</ele>
        <time>2025-10-04T13:04:06Z</time>
      </trkpt>
      <trkpt lat="45.38022" lon="3.37544">
        <ele>497.2</ele>
        <time>2025-10-04T13:04:07Z</time>
      </trkpt>
      <trkpt lat="45.38019" lon="3.37549">
        <ele>498.2</ele>
        <time>2025-10-04T13:04:11Z</time>
      </trkpt>
      <trkpt lat="45.38014" lon="3.37556">
        <ele>499</ele>
        <time>2025-10-04T13:04:16Z</time>
      </trkpt>
      <trkpt lat="45.38013" lon="3.37557">
        <ele>499.4</ele>
        <time>2025-10-04T13:04:17Z</time>
      </trkpt>
      <trkpt lat="45.3801" lon="3.37562">
        <ele>500</ele>
        <time>2025-10-04T13:04:20Z</time>
      </trkpt>
      <trkpt lat="45.38007" lon="3.37565">
        <ele>500.4</ele>
        <time>2025-10-04T13:04:22Z</time>
      </trkpt>
      <trkpt lat="45.38007" lon="3.37566">
        <ele>500.6</ele>
        <time>2025-10-04T13:04:23Z</time>
      </trkpt>
      <trkpt lat="45.38006" lon="3.3757">
        <ele>500.8</ele>
        <time>2025-10-04T13:04:25Z</time>
      </trkpt>
      <trkpt lat="45.38003" lon="3.37576">
        <ele>501.6</ele>
        <time>2025-10-04T13:04:29Z</time>
      </trkpt>
      <trkpt lat="45.37998" lon="3.37582">
        <ele>502.6</ele>
        <time>2025-10-04T13:04:34Z</time>
      </trkpt>
      <trkpt lat="45.37996" lon="3.37587">
        <ele>503.2</ele>
        <time>2025-10-04T13:04:37Z</time>
      </trkpt>
      <trkpt lat="45.37991" lon="3.37593">
        <ele>503.6</ele>
        <time>2025-10-04T13:04:41Z</time>
      </trkpt>
      <trkpt lat="45.37987" lon="3.376">
        <ele>504.8</ele>
        <time>2025-10-04T13:04:45Z</time>
      </trkpt>
      <trkpt lat="45.37985" lon="3.37607">
        <ele>505.4</ele>
        <time>2025-10-04T13:04:48Z</time>
      </trkpt>
      <trkpt lat="45.37982" lon="3.37615">
        <ele>506</ele>
        <time>2025-10-04T13:04:52Z</time>
      </trkpt>
      <trkpt lat="45.37977" lon="3.37628">
        <ele>507.2</ele>
        <time>2025-10-04T13:04:58Z</time>
      </trkpt>
      <trkpt lat="45.37976" lon="3.37633">
        <ele>507.8</ele>
        <time>2025-10-04T13:05:01Z</time>
      </trkpt>
      <trkpt lat="45.37973" lon="3.37642">
        <ele>508.4</ele>
        <time>2025-10-04T13:05:05Z</time>
      </trkpt>
      <trkpt lat="45.37969" lon="3.37651">
        <ele>508.6</ele>
        <time>2025-10-04T13:05:09Z</time>
      </trkpt>
      <trkpt lat="45.37965" lon="3.37662">
        <ele>509.4</ele>
        <time>2025-10-04T13:05:14Z</time>
      </trkpt>
      <trkpt lat="45.37963" lon="3.37666">
        <ele>509.6</ele>
        <time>2025-10-04T13:05:16Z</time>
      </trkpt>
      <trkpt lat="45.37954" lon="3.37689">
        <ele>510.4</ele>
        <time>2025-10-04T13:05:25Z</time>
      </trkpt>
      <trkpt lat="45.37945" lon="3.37712">
        <ele>511.2</ele>
        <time>2025-10-04T13:05:33Z</time>
      </trkpt>
      <trkpt lat="45.3794" lon="3.37725">
        <ele>511.4</ele>
        <time>2025-10-04T13:05:37Z</time>
      </trkpt>
      <trkpt lat="45.37936" lon="3.37741">
        <ele>511.6</ele>
        <time>2025-10-04T13:05:42Z</time>
      </trkpt>
      <trkpt lat="45.37931" lon="3.37762">
        <ele>512.2</ele>
        <time>2025-10-04T13:05:49Z</time>
      </trkpt>
      <trkpt lat="45.3793" lon="3.37772">
        <ele>512.4</ele>
        <time>2025-10-04T13:05:52Z</time>
      </trkpt>
      <trkpt lat="45.3793" lon="3.37785">
        <ele>512.6</ele>
        <time>2025-10-04T13:05:56Z</time>
      </trkpt>
      <trkpt lat="45.37928" lon="3.37809">
        <ele>513.6</ele>
        <time>2025-10-04T13:06:04Z</time>
      </trkpt>
      <trkpt lat="45.37928" lon="3.37812">
        <ele>513.6</ele>
        <time>2025-10-04T13:06:05Z</time>
      </trkpt>
      <trkpt lat="45.37928" lon="3.37835">
        <ele>514.6</ele>
        <time>2025-10-04T13:06:14Z</time>
      </trkpt>
      <trkpt lat="45.37928" lon="3.37851">
        <ele>515.6</ele>
        <time>2025-10-04T13:06:21Z</time>
      </trkpt>
      <trkpt lat="45.37928" lon="3.37853">
        <ele>515.8</ele>
        <time>2025-10-04T13:06:22Z</time>
      </trkpt>
      <trkpt lat="45.37928" lon="3.3786">
        <ele>516.8</ele>
        <time>2025-10-04T13:06:25Z</time>
      </trkpt>
      <trkpt lat="45.37927" lon="3.37866">
        <ele>517.6</ele>
        <time>2025-10-04T13:06:28Z</time>
      </trkpt>
      <trkpt lat="45.37928" lon="3.37868">
        <ele>518</ele>
        <time>2025-10-04T13:06:29Z</time>
      </trkpt>
      <trkpt lat="45.37928" lon="3.37884">
        <ele>519</ele>
        <time>2025-10-04T13:06:36Z</time>
      </trkpt>
      <trkpt lat="45.37928" lon="3.37885">
        <ele>519</ele>
        <time>2025-10-04T13:06:37Z</time>
      </trkpt>
      <trkpt lat="45.37928" lon="3.37898">
        <ele>520.2</ele>
        <time>2025-10-04T13:06:43Z</time>
      </trkpt>
      <trkpt lat="45.37929" lon="3.37908">
        <ele>521.2</ele>
        <time>2025-10-04T13:06:48Z</time>
      </trkpt>
      <trkpt lat="45.37929" lon="3.3791">
        <ele>521.6</ele>
        <time>2025-10-04T13:06:49Z</time>
      </trkpt>
      <trkpt lat="45.3793" lon="3.37922">
        <ele>522.8</ele>
        <time>2025-10-04T13:06:54Z</time>
      </trkpt>
      <trkpt lat="45.37931" lon="3.37926">
        <ele>523.2</ele>
        <time>2025-10-04T13:06:56Z</time>
      </trkpt>
      <trkpt lat="45.37931" lon="3.37933">
        <ele>524</ele>
        <time>2025-10-04T13:06:59Z</time>
      </trkpt>
      <trkpt lat="45.37932" lon="3.37944">
        <ele>525</ele>
        <time>2025-10-04T13:07:04Z</time>
      </trkpt>
      <trkpt lat="45.37932" lon="3.37946">
        <ele>525.2</ele>
        <time>2025-10-04T13:07:05Z</time>
      </trkpt>
      <trkpt lat="45.37933" lon="3.37948">
        <ele>525.4</ele>
        <time>2025-10-04T13:07:06Z</time>
      </trkpt>
      <trkpt lat="45.37933" lon="3.37951">
        <ele>525.6</ele>
        <time>2025-10-04T13:07:08Z</time>
      </trkpt>
      <trkpt lat="45.37935" lon="3.37953">
        <ele>525.8</ele>
        <time>2025-10-04T13:07:09Z</time>
      </trkpt>
      <trkpt lat="45.37936" lon="3.37954">
        <ele>526.2</ele>
        <time>2025-10-04T13:07:10Z</time>
      </trkpt>
      <trkpt lat="45.37941" lon="3.37965">
        <ele>527.2</ele>
        <time>2025-10-04T13:07:16Z</time>
      </trkpt>
      <trkpt lat="45.37948" lon="3.37973">
        <ele>528.4</ele>
        <time>2025-10-04T13:07:21Z</time>
      </trkpt>
      <trkpt lat="45.37954" lon="3.3798">
        <ele>528.8</ele>
        <time>2025-10-04T13:07:25Z</time>
      </trkpt>
      <trkpt lat="45.37962" lon="3.3799">
        <ele>529.6</ele>
        <time>2025-10-04T13:07:31Z</time>
      </trkpt>
      <trkpt lat="45.3797" lon="3.38001">
        <ele>530</ele>
        <time>2025-10-04T13:07:37Z</time>
      </trkpt>
      <trkpt lat="45.37978" lon="3.38013">
        <ele>530.4</ele>
        <time>2025-10-04T13:07:43Z</time>
      </trkpt>
      <trkpt lat="45.3798" lon="3.38016">
        <ele>530.6</ele>
        <time>2025-10-04T13:07:44Z</time>
      </trkpt>
      <trkpt lat="45.37987" lon="3.38028">
        <ele>531.4</ele>
        <time>2025-10-04T13:07:50Z</time>
      </trkpt>
      <trkpt lat="45.3799" lon="3.38033">
        <ele>531.8</ele>
        <time>2025-10-04T13:07:53Z</time>
      </trkpt>
      <trkpt lat="45.37995" lon="3.38041">
        <ele>532.2</ele>
        <time>2025-10-04T13:07:57Z</time>
      </trkpt>
      <trkpt lat="45.37999" lon="3.38048">
        <ele>532.8</ele>
        <time>2025-10-04T13:08:00Z</time>
      </trkpt>
      <trkpt lat="45.38005" lon="3.38056">
        <ele>533.4</ele>
        <time>2025-10-04T13:08:04Z</time>
      </trkpt>
      <trkpt lat="45.3801" lon="3.3806">
        <ele>534</ele>
        <time>2025-10-04T13:08:07Z</time>
      </trkpt>
      <trkpt lat="45.3802" lon="3.38068">
        <ele>534.6</ele>
        <time>2025-10-04T13:08:13Z</time>
      </trkpt>
      <trkpt lat="45.3803" lon="3.38071">
        <ele>534.8</ele>
        <time>2025-10-04T13:08:18Z</time>
      </trkpt>
      <trkpt lat="45.38031" lon="3.38071">
        <ele>535</ele>
        <time>2025-10-04T13:08:19Z</time>
      </trkpt>
      <trkpt lat="45.3805" lon="3.3808">
        <ele>536</ele>
        <time>2025-10-04T13:08:27Z</time>
      </trkpt>
      <trkpt lat="45.38071" lon="3.38091">
        <ele>537.2</ele>
        <time>2025-10-04T13:08:35Z</time>
      </trkpt>
      <trkpt lat="45.38072" lon="3.38092">
        <ele>537.2</ele>
        <time>2025-10-04T13:08:36Z</time>
      </trkpt>
      <trkpt lat="45.38084" lon="3.381">
        <ele>538.4</ele>
        <time>2025-10-04T13:08:42Z</time>
      </trkpt>
      <trkpt lat="45.38087" lon="3.38103">
        <ele>538.6</ele>
        <time>2025-10-04T13:08:44Z</time>
      </trkpt>
      <trkpt lat="45.38097" lon="3.38111">
        <ele>539.4</ele>
        <time>2025-10-04T13:08:49Z</time>
      </trkpt>
      <trkpt lat="45.38104" lon="3.38116">
        <ele>540.4</ele>
        <time>2025-10-04T13:08:52Z</time>
      </trkpt>
      <trkpt lat="45.38106" lon="3.38118">
        <ele>540.6</ele>
        <time>2025-10-04T13:08:53Z</time>
      </trkpt>
      <trkpt lat="45.38126" lon="3.38135">
        <ele>541.6</ele>
        <time>2025-10-04T13:09:03Z</time>
      </trkpt>
      <trkpt lat="45.38128" lon="3.38137">
        <ele>541.8</ele>
        <time>2025-10-04T13:09:04Z</time>
      </trkpt>
      <trkpt lat="45.38142" lon="3.38148">
        <ele>543</ele>
        <time>2025-10-04T13:09:11Z</time>
      </trkpt>
      <trkpt lat="45.38146" lon="3.38151">
        <ele>543.2</ele>
        <time>2025-10-04T13:09:13Z</time>
      </trkpt>
      <trkpt lat="45.38161" lon="3.38158">
        <ele>543.8</ele>
        <time>2025-10-04T13:09:20Z</time>
      </trkpt>
      <trkpt lat="45.38171" lon="3.38162">
        <ele>544</ele>
        <time>2025-10-04T13:09:24Z</time>
      </trkpt>
      <trkpt lat="45.3818" lon="3.38165">
        <ele>544.2</ele>
        <time>2025-10-04T13:09:28Z</time>
      </trkpt>
      <trkpt lat="45.382" lon="3.38175">
        <ele>544.4</ele>
        <time>2025-10-04T13:09:35Z</time>
      </trkpt>
      <trkpt lat="45.38214" lon="3.38185">
        <ele>545.2</ele>
        <time>2025-10-04T13:09:40Z</time>
      </trkpt>
      <trkpt lat="45.38223" lon="3.38191">
        <ele>545.4</ele>
        <time>2025-10-04T13:09:44Z</time>
      </trkpt>
      <trkpt lat="45.38236" lon="3.38204">
        <ele>546</ele>
        <time>2025-10-04T13:09:50Z</time>
      </trkpt>
      <trkpt lat="45.38241" lon="3.38206">
        <ele>546.4</ele>
        <time>2025-10-04T13:09:52Z</time>
      </trkpt>
      <trkpt lat="45.38253" lon="3.38214">
        <ele>547.2</ele>
        <time>2025-10-04T13:09:57Z</time>
      </trkpt>
      <trkpt lat="45.38258" lon="3.38216">
        <ele>547.8</ele>
        <time>2025-10-04T13:09:59Z</time>
      </trkpt>
      <trkpt lat="45.3827" lon="3.38226">
        <ele>548.4</ele>
        <time>2025-10-04T13:10:05Z</time>
      </trkpt>
      <trkpt lat="45.38272" lon="3.38228">
        <ele>548.6</ele>
        <time>2025-10-04T13:10:07Z</time>
      </trkpt>
      <trkpt lat="45.38286" lon="3.38245">
        <ele>549</ele>
        <time>2025-10-04T13:10:15Z</time>
      </trkpt>
      <trkpt lat="45.38292" lon="3.38252">
        <ele>549.2</ele>
        <time>2025-10-04T13:10:19Z</time>
      </trkpt>
      <trkpt lat="45.38296" lon="3.38255">
        <ele>549.6</ele>
        <time>2025-10-04T13:10:21Z</time>
      </trkpt>
      <trkpt lat="45.38302" lon="3.38256">
        <ele>550.4</ele>
        <time>2025-10-04T13:10:24Z</time>
      </trkpt>
      <trkpt lat="45.38303" lon="3.38256">
        <ele>550.6</ele>
        <time>2025-10-04T13:10:25Z</time>
      </trkpt>
      <trkpt lat="45.38305" lon="3.38256">
        <ele>551</ele>
        <time>2025-10-04T13:10:26Z</time>
      </trkpt>
      <trkpt lat="45.38318" lon="3.38254">
        <ele>551.6</ele>
        <time>2025-10-04T13:10:31Z</time>
      </trkpt>
      <trkpt lat="45.38326" lon="3.3825">
        <ele>552</ele>
        <time>2025-10-04T13:10:34Z</time>
      </trkpt>
      <trkpt lat="45.38336" lon="3.38243">
        <ele>552</ele>
        <time>2025-10-04T13:10:39Z</time>
      </trkpt>
      <trkpt lat="45.38351" lon="3.38236">
        <ele>552</ele>
        <time>2025-10-04T13:10:45Z</time>
      </trkpt>
      <trkpt lat="45.38358" lon="3.38232">
        <ele>552</ele>
        <time>2025-10-04T13:10:48Z</time>
      </trkpt>
      <trkpt lat="45.38363" lon="3.38234">
        <ele>552.4</ele>
        <time>2025-10-04T13:10:50Z</time>
      </trkpt>
      <trkpt lat="45.38364" lon="3.38235">
        <ele>552.4</ele>
        <time>2025-10-04T13:10:51Z</time>
      </trkpt>
      <trkpt lat="45.38365" lon="3.38237">
        <ele>552.6</ele>
        <time>2025-10-04T13:10:52Z</time>
      </trkpt>
      <trkpt lat="45.38368" lon="3.38246">
        <ele>553.2</ele>
        <time>2025-10-04T13:10:56Z</time>
      </trkpt>
      <trkpt lat="45.38368" lon="3.38251">
        <ele>553.8</ele>
        <time>2025-10-04T13:10:58Z</time>
      </trkpt>
      <trkpt lat="45.38371" lon="3.38268">
        <ele>554.8</ele>
        <time>2025-10-04T13:11:06Z</time>
      </trkpt>
      <trkpt lat="45.38371" lon="3.38271">
        <ele>555.2</ele>
        <time>2025-10-04T13:11:08Z</time>
      </trkpt>
      <trkpt lat="45.38372" lon="3.38278">
        <ele>555.8</ele>
        <time>2025-10-04T13:11:11Z</time>
      </trkpt>
      <trkpt lat="45.38373" lon="3.38286">
        <ele>556.8</ele>
        <time>2025-10-04T13:11:16Z</time>
      </trkpt>
      <trkpt lat="45.38373" lon="3.38289">
        <ele>557</ele>
        <time>2025-10-04T13:11:18Z</time>
      </trkpt>
      <trkpt lat="45.38372" lon="3.38295">
        <ele>558</ele>
        <time>2025-10-04T13:11:23Z</time>
      </trkpt>
      <trkpt lat="45.38372" lon="3.38296">
        <ele>558.2</ele>
        <time>2025-10-04T13:11:24Z</time>
      </trkpt>
      <trkpt lat="45.38372" lon="3.38304">
        <ele>559.2</ele>
        <time>2025-10-04T13:11:29Z</time>
      </trkpt>
      <trkpt lat="45.38372" lon="3.38304">
        <ele>559.4</ele>
        <time>2025-10-04T13:11:30Z</time>
      </trkpt>
      <trkpt lat="45.38372" lon="3.38306">
        <ele>559.4</ele>
        <time>2025-10-04T13:11:31Z</time>
      </trkpt>
      <trkpt lat="45.3837" lon="3.3831">
        <ele>560.2</ele>
        <time>2025-10-04T13:11:34Z</time>
      </trkpt>
      <trkpt lat="45.3837" lon="3.38322">
        <ele>561.2</ele>
        <time>2025-10-04T13:11:39Z</time>
      </trkpt>
      <trkpt lat="45.38371" lon="3.38333">
        <ele>562.2</ele>
        <time>2025-10-04T13:11:44Z</time>
      </trkpt>
      <trkpt lat="45.3837" lon="3.38334">
        <ele>562.4</ele>
        <time>2025-10-04T13:11:45Z</time>
      </trkpt>
      <trkpt lat="45.38369" lon="3.38336">
        <ele>562.4</ele>
        <time>2025-10-04T13:11:46Z</time>
      </trkpt>
      <trkpt lat="45.38368" lon="3.3834">
        <ele>563</ele>
        <time>2025-10-04T13:11:48Z</time>
      </trkpt>
      <trkpt lat="45.38369" lon="3.38344">
        <ele>563.6</ele>
        <time>2025-10-04T13:11:50Z</time>
      </trkpt>
      <trkpt lat="45.38369" lon="3.38347">
        <ele>563.8</ele>
        <time>2025-10-04T13:11:51Z</time>
      </trkpt>
      <trkpt lat="45.38367" lon="3.38349">
        <ele>564</ele>
        <time>2025-10-04T13:11:52Z</time>
      </trkpt>
      <trkpt lat="45.38364" lon="3.38353">
        <ele>564.8</ele>
        <time>2025-10-04T13:11:55Z</time>
      </trkpt>
      <trkpt lat="45.38366" lon="3.38357">
        <ele>565</ele>
        <time>2025-10-04T13:11:57Z</time>
      </trkpt>
      <trkpt lat="45.38364" lon="3.38362">
        <ele>565</ele>
        <time>2025-10-04T13:12:00Z</time>
      </trkpt>
      <trkpt lat="45.38364" lon="3.38366">
        <ele>565.8</ele>
        <time>2025-10-04T13:12:02Z</time>
      </trkpt>
      <trkpt lat="45.38363" lon="3.38369">
        <ele>566.2</ele>
        <time>2025-10-04T13:12:04Z</time>
      </trkpt>
      <trkpt lat="45.38361" lon="3.38375">
        <ele>566.8</ele>
        <time>2025-10-04T13:12:08Z</time>
      </trkpt>
      <trkpt lat="45.38359" lon="3.38381">
        <ele>567.8</ele>
        <time>2025-10-04T13:12:12Z</time>
      </trkpt>
      <trkpt lat="45.38358" lon="3.38384">
        <ele>568</ele>
        <time>2025-10-04T13:12:14Z</time>
      </trkpt>
      <trkpt lat="45.38356" lon="3.3839">
        <ele>568.6</ele>
        <time>2025-10-04T13:12:18Z</time>
      </trkpt>
      <trkpt lat="45.38355" lon="3.38393">
        <ele>568.8</ele>
        <time>2025-10-04T13:12:20Z</time>
      </trkpt>
      <trkpt lat="45.38354" lon="3.38396">
        <ele>569</ele>
        <time>2025-10-04T13:12:22Z</time>
      </trkpt>
      <trkpt lat="45.38351" lon="3.38403">
        <ele>569.8</ele>
        <time>2025-10-04T13:12:27Z</time>
      </trkpt>
      <trkpt lat="45.38351" lon="3.38407">
        <ele>570.2</ele>
        <time>2025-10-04T13:12:29Z</time>
      </trkpt>
      <trkpt lat="45.3835" lon="3.38422">
        <ele>571</ele>
        <time>2025-10-04T13:12:37Z</time>
      </trkpt>
      <trkpt lat="45.3835" lon="3.38424">
        <ele>571.2</ele>
        <time>2025-10-04T13:12:38Z</time>
      </trkpt>
      <trkpt lat="45.3835" lon="3.38431">
        <ele>571.6</ele>
        <time>2025-10-04T13:12:41Z</time>
      </trkpt>
      <trkpt lat="45.38349" lon="3.38436">
        <ele>572</ele>
        <time>2025-10-04T13:12:43Z</time>
      </trkpt>
      <trkpt lat="45.3835" lon="3.38438">
        <ele>572.4</ele>
        <time>2025-10-04T13:12:44Z</time>
      </trkpt>
      <trkpt lat="45.38352" lon="3.38443">
        <ele>573.4</ele>
        <time>2025-10-04T13:12:47Z</time>
      </trkpt>
      <trkpt lat="45.38352" lon="3.38449">
        <ele>574.2</ele>
        <time>2025-10-04T13:12:50Z</time>
      </trkpt>
      <trkpt lat="45.38353" lon="3.3845">
        <ele>574.6</ele>
        <time>2025-10-04T13:12:51Z</time>
      </trkpt>
      <trkpt lat="45.38353" lon="3.38452">
        <ele>574.6</ele>
        <time>2025-10-04T13:12:52Z</time>
      </trkpt>
      <trkpt lat="45.38354" lon="3.38455">
        <ele>575</ele>
        <time>2025-10-04T13:12:54Z</time>
      </trkpt>
      <trkpt lat="45.38354" lon="3.38456">
        <ele>575</ele>
        <time>2025-10-04T13:12:55Z</time>
      </trkpt>
      <trkpt lat="45.38355" lon="3.3846">
        <ele>575.6</ele>
        <time>2025-10-04T13:12:58Z</time>
      </trkpt>
      <trkpt lat="45.38353" lon="3.38464">
        <ele>576.6</ele>
        <time>2025-10-04T13:13:01Z</time>
      </trkpt>
      <trkpt lat="45.38353" lon="3.38466">
        <ele>576.6</ele>
        <time>2025-10-04T13:13:02Z</time>
      </trkpt>
      <trkpt lat="45.38345" lon="3.38478">
        <ele>577.4</ele>
        <time>2025-10-04T13:13:09Z</time>
      </trkpt>
      <trkpt lat="45.38343" lon="3.38482">
        <ele>577.8</ele>
        <time>2025-10-04T13:13:11Z</time>
      </trkpt>
      <trkpt lat="45.38339" lon="3.38488">
        <ele>578</ele>
        <time>2025-10-04T13:13:15Z</time>
      </trkpt>
      <trkpt lat="45.38331" lon="3.38498">
        <ele>578.8</ele>
        <time>2025-10-04T13:13:21Z</time>
      </trkpt>
      <trkpt lat="45.38326" lon="3.38505">
        <ele>579.6</ele>
        <time>2025-10-04T13:13:25Z</time>
      </trkpt>
      <trkpt lat="45.38325" lon="3.38506">
        <ele>579.8</ele>
        <time>2025-10-04T13:13:26Z</time>
      </trkpt>
      <trkpt lat="45.38321" lon="3.38512">
        <ele>580.4</ele>
        <time>2025-10-04T13:13:30Z</time>
      </trkpt>
      <trkpt lat="45.38317" lon="3.38516">
        <ele>580.8</ele>
        <time>2025-10-04T13:13:33Z</time>
      </trkpt>
      <trkpt lat="45.38305" lon="3.38528">
        <ele>582</ele>
        <time>2025-10-04T13:13:41Z</time>
      </trkpt>
      <trkpt lat="45.38304" lon="3.3853">
        <ele>582.2</ele>
        <time>2025-10-04T13:13:42Z</time>
      </trkpt>
      <trkpt lat="45.38292" lon="3.38543">
        <ele>583.2</ele>
        <time>2025-10-04T13:13:50Z</time>
      </trkpt>
      <trkpt lat="45.38284" lon="3.3855">
        <ele>583.4</ele>
        <time>2025-10-04T13:13:54Z</time>
      </trkpt>
      <trkpt lat="45.38272" lon="3.3856">
        <ele>584</ele>
        <time>2025-10-04T13:14:00Z</time>
      </trkpt>
      <trkpt lat="45.38256" lon="3.3857">
        <ele>584</ele>
        <time>2025-10-04T13:14:06Z</time>
      </trkpt>
      <trkpt lat="45.38251" lon="3.38573">
        <ele>584</ele>
        <time>2025-10-04T13:14:08Z</time>
      </trkpt>
      <trkpt lat="45.38225" lon="3.38588">
        <ele>583.8</ele>
        <time>2025-10-04T13:14:15Z</time>
      </trkpt>
      <trkpt lat="45.38205" lon="3.38603">
        <ele>583.4</ele>
        <time>2025-10-04T13:14:20Z</time>
      </trkpt>
      <trkpt lat="45.38197" lon="3.38608">
        <ele>583</ele>
        <time>2025-10-04T13:14:22Z</time>
      </trkpt>
      <trkpt lat="45.38187" lon="3.38617">
        <ele>582.4</ele>
        <time>2025-10-04T13:14:25Z</time>
      </trkpt>
      <trkpt lat="45.3818" lon="3.38624">
        <ele>582.2</ele>
        <time>2025-10-04T13:14:28Z</time>
      </trkpt>
      <trkpt lat="45.38171" lon="3.38634">
        <ele>582.2</ele>
        <time>2025-10-04T13:14:32Z</time>
      </trkpt>
      <trkpt lat="45.38166" lon="3.38642">
        <ele>582.2</ele>
        <time>2025-10-04T13:14:34Z</time>
      </trkpt>
      <trkpt lat="45.3815" lon="3.38671">
        <ele>582.4</ele>
        <time>2025-10-04T13:14:40Z</time>
      </trkpt>
      <trkpt lat="45.38139" lon="3.38706">
        <ele>582.4</ele>
        <time>2025-10-04T13:14:47Z</time>
      </trkpt>
      <trkpt lat="45.38139" lon="3.3871">
        <ele>582.4</ele>
        <time>2025-10-04T13:14:48Z</time>
      </trkpt>
      <trkpt lat="45.38135" lon="3.38728">
        <ele>582.8</ele>
        <time>2025-10-04T13:14:53Z</time>
      </trkpt>
      <trkpt lat="45.38136" lon="3.38742">
        <ele>583.2</ele>
        <time>2025-10-04T13:14:56Z</time>
      </trkpt>
      <trkpt lat="45.38136" lon="3.38746">
        <ele>583.4</ele>
        <time>2025-10-04T13:14:57Z</time>
      </trkpt>
      <trkpt lat="45.38133" lon="3.38765">
        <ele>584</ele>
        <time>2025-10-04T13:15:02Z</time>
      </trkpt>
      <trkpt lat="45.38134" lon="3.38767">
        <ele>584.2</ele>
        <time>2025-10-04T13:15:03Z</time>
      </trkpt>
      <trkpt lat="45.38133" lon="3.38779">
        <ele>585.4</ele>
        <time>2025-10-04T13:15:07Z</time>
      </trkpt>
      <trkpt lat="45.38134" lon="3.38787">
        <ele>586</ele>
        <time>2025-10-04T13:15:10Z</time>
      </trkpt>
      <trkpt lat="45.38135" lon="3.38793">
        <ele>586.4</ele>
        <time>2025-10-04T13:15:12Z</time>
      </trkpt>
      <trkpt lat="45.38135" lon="3.38806">
        <ele>587.8</ele>
        <time>2025-10-04T13:15:17Z</time>
      </trkpt>
      <trkpt lat="45.38135" lon="3.38808">
        <ele>587.8</ele>
        <time>2025-10-04T13:15:18Z</time>
      </trkpt>
      <trkpt lat="45.38134" lon="3.38816">
        <ele>588.6</ele>
        <time>2025-10-04T13:15:22Z</time>
      </trkpt>
      <trkpt lat="45.38134" lon="3.38819">
        <ele>588.8</ele>
        <time>2025-10-04T13:15:23Z</time>
      </trkpt>
      <trkpt lat="45.38134" lon="3.38824">
        <ele>589.2</ele>
        <time>2025-10-04T13:15:25Z</time>
      </trkpt>
      <trkpt lat="45.38134" lon="3.3883">
        <ele>589.8</ele>
        <time>2025-10-04T13:15:28Z</time>
      </trkpt>
      <trkpt lat="45.38133" lon="3.38834">
        <ele>590.2</ele>
        <time>2025-10-04T13:15:30Z</time>
      </trkpt>
      <trkpt lat="45.38132" lon="3.38837">
        <ele>590.8</ele>
        <time>2025-10-04T13:15:32Z</time>
      </trkpt>
      <trkpt lat="45.38132" lon="3.38839">
        <ele>591</ele>
        <time>2025-10-04T13:15:33Z</time>
      </trkpt>
      <trkpt lat="45.38132" lon="3.38841">
        <ele>591.2</ele>
        <time>2025-10-04T13:15:34Z</time>
      </trkpt>
      <trkpt lat="45.3813" lon="3.38848">
        <ele>591.8</ele>
        <time>2025-10-04T13:15:37Z</time>
      </trkpt>
      <trkpt lat="45.3813" lon="3.3885">
        <ele>592.2</ele>
        <time>2025-10-04T13:15:38Z</time>
      </trkpt>
      <trkpt lat="45.38129" lon="3.3886">
        <ele>593.4</ele>
        <time>2025-10-04T13:15:42Z</time>
      </trkpt>
      <trkpt lat="45.38126" lon="3.38863">
        <ele>594</ele>
        <time>2025-10-04T13:15:44Z</time>
      </trkpt>
      <trkpt lat="45.38125" lon="3.38864">
        <ele>594.4</ele>
        <time>2025-10-04T13:15:46Z</time>
      </trkpt>
      <trkpt lat="45.38122" lon="3.38872">
        <ele>595.2</ele>
        <time>2025-10-04T13:15:51Z</time>
      </trkpt>
      <trkpt lat="45.38121" lon="3.38874">
        <ele>595.4</ele>
        <time>2025-10-04T13:15:52Z</time>
      </trkpt>
      <trkpt lat="45.38117" lon="3.38885">
        <ele>596.6</ele>
        <time>2025-10-04T13:15:58Z</time>
      </trkpt>
      <trkpt lat="45.38115" lon="3.38893">
        <ele>597.4</ele>
        <time>2025-10-04T13:16:02Z</time>
      </trkpt>
      <trkpt lat="45.38114" lon="3.38896">
        <ele>597.6</ele>
        <time>2025-10-04T13:16:03Z</time>
      </trkpt>
      <trkpt lat="45.38113" lon="3.38898">
        <ele>597.6</ele>
        <time>2025-10-04T13:16:04Z</time>
      </trkpt>
      <trkpt lat="45.38109" lon="3.38907">
        <ele>598.4</ele>
        <time>2025-10-04T13:16:09Z</time>
      </trkpt>
      <trkpt lat="45.38109" lon="3.38909">
        <ele>598.6</ele>
        <time>2025-10-04T13:16:10Z</time>
      </trkpt>
      <trkpt lat="45.38108" lon="3.38911">
        <ele>598.8</ele>
        <time>2025-10-04T13:16:11Z</time>
      </trkpt>
      <trkpt lat="45.38105" lon="3.38925">
        <ele>599.8</ele>
        <time>2025-10-04T13:16:18Z</time>
      </trkpt>
      <trkpt lat="45.38106" lon="3.38943">
        <ele>600.8</ele>
        <time>2025-10-04T13:16:25Z</time>
      </trkpt>
      <trkpt lat="45.38106" lon="3.38946">
        <ele>601</ele>
        <time>2025-10-04T13:16:26Z</time>
      </trkpt>
      <trkpt lat="45.38109" lon="3.38966">
        <ele>601.8</ele>
        <time>2025-10-04T13:16:34Z</time>
      </trkpt>
      <trkpt lat="45.38109" lon="3.38968">
        <ele>601.8</ele>
        <time>2025-10-04T13:16:35Z</time>
      </trkpt>
      <trkpt lat="45.38111" lon="3.38981">
        <ele>603</ele>
        <time>2025-10-04T13:16:41Z</time>
      </trkpt>
      <trkpt lat="45.38112" lon="3.38984">
        <ele>603.2</ele>
        <time>2025-10-04T13:16:42Z</time>
      </trkpt>
      <trkpt lat="45.38115" lon="3.39">
        <ele>604.2</ele>
        <time>2025-10-04T13:16:48Z</time>
      </trkpt>
      <trkpt lat="45.38117" lon="3.39007">
        <ele>604.6</ele>
        <time>2025-10-04T13:16:51Z</time>
      </trkpt>
      <trkpt lat="45.3812" lon="3.39023">
        <ele>605.2</ele>
        <time>2025-10-04T13:16:57Z</time>
      </trkpt>
      <trkpt lat="45.38121" lon="3.39028">
        <ele>605.4</ele>
        <time>2025-10-04T13:16:59Z</time>
      </trkpt>
      <trkpt lat="45.38123" lon="3.39034">
        <ele>605.8</ele>
        <time>2025-10-04T13:17:02Z</time>
      </trkpt>
      <trkpt lat="45.38125" lon="3.39038">
        <ele>606.2</ele>
        <time>2025-10-04T13:17:04Z</time>
      </trkpt>
      <trkpt lat="45.38126" lon="3.3904">
        <ele>606.2</ele>
        <time>2025-10-04T13:17:05Z</time>
      </trkpt>
      <trkpt lat="45.38129" lon="3.39049">
        <ele>607.2</ele>
        <time>2025-10-04T13:17:09Z</time>
      </trkpt>
      <trkpt lat="45.38134" lon="3.39056">
        <ele>608.2</ele>
        <time>2025-10-04T13:17:13Z</time>
      </trkpt>
      <trkpt lat="45.38136" lon="3.3906">
        <ele>608.8</ele>
        <time>2025-10-04T13:17:16Z</time>
      </trkpt>
      <trkpt lat="45.38141" lon="3.39069">
        <ele>609</ele>
        <time>2025-10-04T13:17:19Z</time>
      </trkpt>
      <trkpt lat="45.38148" lon="3.39078">
        <ele>609.2</ele>
        <time>2025-10-04T13:17:21Z</time>
      </trkpt>
      <trkpt lat="45.3816" lon="3.39094">
        <ele>609</ele>
        <time>2025-10-04T13:17:24Z</time>
      </trkpt>
      <trkpt lat="45.38166" lon="3.39099">
        <ele>608.6</ele>
        <time>2025-10-04T13:17:25Z</time>
      </trkpt>
      <trkpt lat="45.38181" lon="3.39115">
        <ele>607.8</ele>
        <time>2025-10-04T13:17:28Z</time>
      </trkpt>
      <trkpt lat="45.38189" lon="3.39128">
        <ele>607.2</ele>
        <time>2025-10-04T13:17:30Z</time>
      </trkpt>
      <trkpt lat="45.38192" lon="3.39134">
        <ele>606.8</ele>
        <time>2025-10-04T13:17:31Z</time>
      </trkpt>
      <trkpt lat="45.38202" lon="3.39155">
        <ele>606.6</ele>
        <time>2025-10-04T13:17:34Z</time>
      </trkpt>
      <trkpt lat="45.38205" lon="3.39159">
        <ele>606.4</ele>
        <time>2025-10-04T13:17:35Z</time>
      </trkpt>
      <trkpt lat="45.38221" lon="3.39183">
        <ele>606</ele>
        <time>2025-10-04T13:17:40Z</time>
      </trkpt>
      <trkpt lat="45.38224" lon="3.39188">
        <ele>606</ele>
        <time>2025-10-04T13:17:41Z</time>
      </trkpt>
      <trkpt lat="45.38228" lon="3.39194">
        <ele>605.8</ele>
        <time>2025-10-04T13:17:42Z</time>
      </trkpt>
      <trkpt lat="45.38239" lon="3.39216">
        <ele>605.8</ele>
        <time>2025-10-04T13:17:46Z</time>
      </trkpt>
      <trkpt lat="45.38241" lon="3.39222">
        <ele>605.6</ele>
        <time>2025-10-04T13:17:47Z</time>
      </trkpt>
      <trkpt lat="45.38243" lon="3.39229">
        <ele>605.6</ele>
        <time>2025-10-04T13:17:48Z</time>
      </trkpt>
      <trkpt lat="45.38247" lon="3.39256">
        <ele>605.4</ele>
        <time>2025-10-04T13:17:51Z</time>
      </trkpt>
      <trkpt lat="45.38248" lon="3.39273">
        <ele>604.8</ele>
        <time>2025-10-04T13:17:53Z</time>
      </trkpt>
      <trkpt lat="45.3825" lon="3.39294">
        <ele>603.6</ele>
        <time>2025-10-04T13:17:56Z</time>
      </trkpt>
      <trkpt lat="45.38261" lon="3.39326">
        <ele>602.8</ele>
        <time>2025-10-04T13:18:01Z</time>
      </trkpt>
      <trkpt lat="45.38267" lon="3.3934">
        <ele>603</ele>
        <time>2025-10-04T13:18:04Z</time>
      </trkpt>
      <trkpt lat="45.38272" lon="3.39354">
        <ele>603</ele>
        <time>2025-10-04T13:18:07Z</time>
      </trkpt>
      <trkpt lat="45.38282" lon="3.39379">
        <ele>604</ele>
        <time>2025-10-04T13:18:13Z</time>
      </trkpt>
      <trkpt lat="45.3829" lon="3.39404">
        <ele>604.6</ele>
        <time>2025-10-04T13:18:20Z</time>
      </trkpt>
      <trkpt lat="45.38294" lon="3.39422">
        <ele>606</ele>
        <time>2025-10-04T13:18:25Z</time>
      </trkpt>
      <trkpt lat="45.38293" lon="3.3944">
        <ele>606.8</ele>
        <time>2025-10-04T13:18:30Z</time>
      </trkpt>
      <trkpt lat="45.38293" lon="3.39444">
        <ele>606.8</ele>
        <time>2025-10-04T13:18:31Z</time>
      </trkpt>
      <trkpt lat="45.38292" lon="3.39466">
        <ele>607.2</ele>
        <time>2025-10-04T13:18:35Z</time>
      </trkpt>
      <trkpt lat="45.38291" lon="3.39474">
        <ele>607.2</ele>
        <time>2025-10-04T13:18:37Z</time>
      </trkpt>
      <trkpt lat="45.38287" lon="3.39511">
        <ele>607</ele>
        <time>2025-10-04T13:18:43Z</time>
      </trkpt>
      <trkpt lat="45.38287" lon="3.39518">
        <ele>607</ele>
        <time>2025-10-04T13:18:44Z</time>
      </trkpt>
      <trkpt lat="45.38285" lon="3.39552">
        <ele>606.6</ele>
        <time>2025-10-04T13:18:49Z</time>
      </trkpt>
      <trkpt lat="45.38278" lon="3.39582">
        <ele>606</ele>
        <time>2025-10-04T13:18:54Z</time>
      </trkpt>
      <trkpt lat="45.38277" lon="3.39586">
        <ele>605.8</ele>
        <time>2025-10-04T13:18:55Z</time>
      </trkpt>
      <trkpt lat="45.38275" lon="3.39595">
        <ele>605.4</ele>
        <time>2025-10-04T13:18:57Z</time>
      </trkpt>
      <trkpt lat="45.38263" lon="3.39616">
        <ele>604.8</ele>
        <time>2025-10-04T13:19:02Z</time>
      </trkpt>
      <trkpt lat="45.38252" lon="3.39627">
        <ele>604.4</ele>
        <time>2025-10-04T13:19:05Z</time>
      </trkpt>
      <trkpt lat="45.38246" lon="3.39635">
        <ele>604.2</ele>
        <time>2025-10-04T13:19:07Z</time>
      </trkpt>
      <trkpt lat="45.38242" lon="3.39639">
        <ele>604.2</ele>
        <time>2025-10-04T13:19:08Z</time>
      </trkpt>
      <trkpt lat="45.38228" lon="3.39649">
        <ele>603.8</ele>
        <time>2025-10-04T13:19:11Z</time>
      </trkpt>
      <trkpt lat="45.38223" lon="3.39651">
        <ele>603.8</ele>
        <time>2025-10-04T13:19:12Z</time>
      </trkpt>
      <trkpt lat="45.38212" lon="3.39656">
        <ele>603.4</ele>
        <time>2025-10-04T13:19:14Z</time>
      </trkpt>
      <trkpt lat="45.38205" lon="3.3966">
        <ele>603.2</ele>
        <time>2025-10-04T13:19:15Z</time>
      </trkpt>
      <trkpt lat="45.38199" lon="3.39666">
        <ele>603</ele>
        <time>2025-10-04T13:19:16Z</time>
      </trkpt>
      <trkpt lat="45.38194" lon="3.39672">
        <ele>603</ele>
        <time>2025-10-04T13:19:17Z</time>
      </trkpt>
      <trkpt lat="45.38185" lon="3.39687">
        <ele>602.4</ele>
        <time>2025-10-04T13:19:19Z</time>
      </trkpt>
      <trkpt lat="45.38181" lon="3.39695">
        <ele>602</ele>
        <time>2025-10-04T13:19:20Z</time>
      </trkpt>
      <trkpt lat="45.38175" lon="3.3971">
        <ele>601</ele>
        <time>2025-10-04T13:19:22Z</time>
      </trkpt>
      <trkpt lat="45.38173" lon="3.39718">
        <ele>600.8</ele>
        <time>2025-10-04T13:19:23Z</time>
      </trkpt>
      <trkpt lat="45.38173" lon="3.39726">
        <ele>600.6</ele>
        <time>2025-10-04T13:19:24Z</time>
      </trkpt>
      <trkpt lat="45.38173" lon="3.39738">
        <ele>600.6</ele>
        <time>2025-10-04T13:19:26Z</time>
      </trkpt>
      <trkpt lat="45.38174" lon="3.39744">
        <ele>600.6</ele>
        <time>2025-10-04T13:19:27Z</time>
      </trkpt>
      <trkpt lat="45.38182" lon="3.39759">
        <ele>600.8</ele>
        <time>2025-10-04T13:19:31Z</time>
      </trkpt>
      <trkpt lat="45.38185" lon="3.39762">
        <ele>600.8</ele>
        <time>2025-10-04T13:19:32Z</time>
      </trkpt>
      <trkpt lat="45.38195" lon="3.39772">
        <ele>601.8</ele>
        <time>2025-10-04T13:19:36Z</time>
      </trkpt>
      <trkpt lat="45.38197" lon="3.39775">
        <ele>602.4</ele>
        <time>2025-10-04T13:19:37Z</time>
      </trkpt>
      <trkpt lat="45.382" lon="3.39782">
        <ele>602.6</ele>
        <time>2025-10-04T13:19:39Z</time>
      </trkpt>
      <trkpt lat="45.38201" lon="3.39785">
        <ele>603.2</ele>
        <time>2025-10-04T13:19:40Z</time>
      </trkpt>
      <trkpt lat="45.38203" lon="3.39798">
        <ele>603.6</ele>
        <time>2025-10-04T13:19:43Z</time>
      </trkpt>
      <trkpt lat="45.38202" lon="3.39802">
        <ele>604.2</ele>
        <time>2025-10-04T13:19:44Z</time>
      </trkpt>
      <trkpt lat="45.38199" lon="3.39818">
        <ele>605</ele>
        <time>2025-10-04T13:19:48Z</time>
      </trkpt>
      <trkpt lat="45.38198" lon="3.39822">
        <ele>605.2</ele>
        <time>2025-10-04T13:19:49Z</time>
      </trkpt>
      <trkpt lat="45.38197" lon="3.39826">
        <ele>605.4</ele>
        <time>2025-10-04T13:19:50Z</time>
      </trkpt>
      <trkpt lat="45.38197" lon="3.39844">
        <ele>605.8</ele>
        <time>2025-10-04T13:19:54Z</time>
      </trkpt>
      <trkpt lat="45.38204" lon="3.39857">
        <ele>606.4</ele>
        <time>2025-10-04T13:19:58Z</time>
      </trkpt>
      <trkpt lat="45.38206" lon="3.39861">
        <ele>606.6</ele>
        <time>2025-10-04T13:19:59Z</time>
      </trkpt>
      <trkpt lat="45.38216" lon="3.39875">
        <ele>607.4</ele>
        <time>2025-10-04T13:20:04Z</time>
      </trkpt>
      <trkpt lat="45.38218" lon="3.39878">
        <ele>607.6</ele>
        <time>2025-10-04T13:20:05Z</time>
      </trkpt>
      <trkpt lat="45.38236" lon="3.39902">
        <ele>608.8</ele>
        <time>2025-10-04T13:20:13Z</time>
      </trkpt>
      <trkpt lat="45.3824" lon="3.39908">
        <ele>609.2</ele>
        <time>2025-10-04T13:20:15Z</time>
      </trkpt>
      <trkpt lat="45.38254" lon="3.39926">
        <ele>609.8</ele>
        <time>2025-10-04T13:20:21Z</time>
      </trkpt>
      <trkpt lat="45.38259" lon="3.39933">
        <ele>609.8</ele>
        <time>2025-10-04T13:20:23Z</time>
      </trkpt>
      <trkpt lat="45.38271" lon="3.39954">
        <ele>610.2</ele>
        <time>2025-10-04T13:20:29Z</time>
      </trkpt>
      <trkpt lat="45.38289" lon="3.39983">
        <ele>610.6</ele>
        <time>2025-10-04T13:20:37Z</time>
      </trkpt>
      <trkpt lat="45.38295" lon="3.39995">
        <ele>610.8</ele>
        <time>2025-10-04T13:20:40Z</time>
      </trkpt>
      <trkpt lat="45.38302" lon="3.4001">
        <ele>611</ele>
        <time>2025-10-04T13:20:44Z</time>
      </trkpt>
      <trkpt lat="45.38311" lon="3.40028">
        <ele>611.8</ele>
        <time>2025-10-04T13:20:49Z</time>
      </trkpt>
      <trkpt lat="45.38322" lon="3.40052">
        <ele>612.4</ele>
        <time>2025-10-04T13:20:56Z</time>
      </trkpt>
      <trkpt lat="45.38325" lon="3.40058">
        <ele>613</ele>
        <time>2025-10-04T13:20:58Z</time>
      </trkpt>
      <trkpt lat="45.38332" lon="3.40079">
        <ele>613.8</ele>
        <time>2025-10-04T13:21:04Z</time>
      </trkpt>
      <trkpt lat="45.38333" lon="3.40083">
        <ele>614</ele>
        <time>2025-10-04T13:21:05Z</time>
      </trkpt>
      <trkpt lat="45.3834" lon="3.40105">
        <ele>615</ele>
        <time>2025-10-04T13:21:11Z</time>
      </trkpt>
      <trkpt lat="45.38342" lon="3.40116">
        <ele>615.4</ele>
        <time>2025-10-04T13:21:14Z</time>
      </trkpt>
      <trkpt lat="45.38344" lon="3.40127">
        <ele>616</ele>
        <time>2025-10-04T13:21:17Z</time>
      </trkpt>
      <trkpt lat="45.38348" lon="3.40151">
        <ele>616.4</ele>
        <time>2025-10-04T13:21:22Z</time>
      </trkpt>
      <trkpt lat="45.38355" lon="3.40195">
        <ele>616.2</ele>
        <time>2025-10-04T13:21:29Z</time>
      </trkpt>
      <trkpt lat="45.38364" lon="3.40222">
        <ele>616</ele>
        <time>2025-10-04T13:21:35Z</time>
      </trkpt>
      <trkpt lat="45.38375" lon="3.40248">
        <ele>616.2</ele>
        <time>2025-10-04T13:21:42Z</time>
      </trkpt>
      <trkpt lat="45.38383" lon="3.40265">
        <ele>616.8</ele>
        <time>2025-10-04T13:21:48Z</time>
      </trkpt>
      <trkpt lat="45.38386" lon="3.40272">
        <ele>617.2</ele>
        <time>2025-10-04T13:21:51Z</time>
      </trkpt>
      <trkpt lat="45.38388" lon="3.40281">
        <ele>617.6</ele>
        <time>2025-10-04T13:21:55Z</time>
      </trkpt>
      <trkpt lat="45.38392" lon="3.4029">
        <ele>618.2</ele>
        <time>2025-10-04T13:21:59Z</time>
      </trkpt>
      <trkpt lat="45.38394" lon="3.40297">
        <ele>618.8</ele>
        <time>2025-10-04T13:22:02Z</time>
      </trkpt>
      <trkpt lat="45.38395" lon="3.40302">
        <ele>619.4</ele>
        <time>2025-10-04T13:22:04Z</time>
      </trkpt>
      <trkpt lat="45.38397" lon="3.40312">
        <ele>620.6</ele>
        <time>2025-10-04T13:22:08Z</time>
      </trkpt>
      <trkpt lat="45.38398" lon="3.40315">
        <ele>621</ele>
        <time>2025-10-04T13:22:09Z</time>
      </trkpt>
      <trkpt lat="45.38398" lon="3.40325">
        <ele>622</ele>
        <time>2025-10-04T13:22:13Z</time>
      </trkpt>
      <trkpt lat="45.384" lon="3.40339">
        <ele>623</ele>
        <time>2025-10-04T13:22:18Z</time>
      </trkpt>
      <trkpt lat="45.384" lon="3.40341">
        <ele>623</ele>
        <time>2025-10-04T13:22:19Z</time>
      </trkpt>
      <trkpt lat="45.384" lon="3.40349">
        <ele>624.2</ele>
        <time>2025-10-04T13:22:22Z</time>
      </trkpt>
      <trkpt lat="45.38402" lon="3.40362">
        <ele>625.2</ele>
        <time>2025-10-04T13:22:27Z</time>
      </trkpt>
      <trkpt lat="45.38402" lon="3.40364">
        <ele>625.2</ele>
        <time>2025-10-04T13:22:28Z</time>
      </trkpt>
      <trkpt lat="45.38403" lon="3.40375">
        <ele>626.4</ele>
        <time>2025-10-04T13:22:32Z</time>
      </trkpt>
      <trkpt lat="45.38404" lon="3.40383">
        <ele>626.8</ele>
        <time>2025-10-04T13:22:35Z</time>
      </trkpt>
      <trkpt lat="45.38405" lon="3.40393">
        <ele>627.6</ele>
        <time>2025-10-04T13:22:39Z</time>
      </trkpt>
      <trkpt lat="45.38407" lon="3.40405">
        <ele>628.2</ele>
        <time>2025-10-04T13:22:43Z</time>
      </trkpt>
      <trkpt lat="45.38408" lon="3.4041">
        <ele>628.8</ele>
        <time>2025-10-04T13:22:45Z</time>
      </trkpt>
      <trkpt lat="45.38412" lon="3.40426">
        <ele>629</ele>
        <time>2025-10-04T13:22:51Z</time>
      </trkpt>
      <trkpt lat="45.38417" lon="3.40442">
        <ele>629.8</ele>
        <time>2025-10-04T13:22:57Z</time>
      </trkpt>
      <trkpt lat="45.38421" lon="3.40454">
        <ele>630.6</ele>
        <time>2025-10-04T13:23:01Z</time>
      </trkpt>
      <trkpt lat="45.38426" lon="3.40465">
        <ele>631</ele>
        <time>2025-10-04T13:23:05Z</time>
      </trkpt>
      <trkpt lat="45.38431" lon="3.40479">
        <ele>631.6</ele>
        <time>2025-10-04T13:23:10Z</time>
      </trkpt>
      <trkpt lat="45.3844" lon="3.40494">
        <ele>632</ele>
        <time>2025-10-04T13:23:15Z</time>
      </trkpt>
      <trkpt lat="45.38448" lon="3.40505">
        <ele>632.2</ele>
        <time>2025-10-04T13:23:19Z</time>
      </trkpt>
      <trkpt lat="45.38467" lon="3.40527">
        <ele>632.8</ele>
        <time>2025-10-04T13:23:27Z</time>
      </trkpt>
      <trkpt lat="45.38469" lon="3.40529">
        <ele>632.8</ele>
        <time>2025-10-04T13:23:28Z</time>
      </trkpt>
      <trkpt lat="45.38472" lon="3.40532">
        <ele>633</ele>
        <time>2025-10-04T13:23:29Z</time>
      </trkpt>
      <trkpt lat="45.38485" lon="3.40543">
        <ele>633.6</ele>
        <time>2025-10-04T13:23:34Z</time>
      </trkpt>
      <trkpt lat="45.38502" lon="3.40559">
        <ele>634.2</ele>
        <time>2025-10-04T13:23:40Z</time>
      </trkpt>
      <trkpt lat="45.3851" lon="3.40567">
        <ele>634.4</ele>
        <time>2025-10-04T13:23:43Z</time>
      </trkpt>
      <trkpt lat="45.38528" lon="3.40587">
        <ele>634.8</ele>
        <time>2025-10-04T13:23:50Z</time>
      </trkpt>
      <trkpt lat="45.3854" lon="3.406">
        <ele>635.2</ele>
        <time>2025-10-04T13:23:55Z</time>
      </trkpt>
      <trkpt lat="45.38548" lon="3.4061">
        <ele>635.8</ele>
        <time>2025-10-04T13:23:59Z</time>
      </trkpt>
      <trkpt lat="45.38557" lon="3.40621">
        <ele>636.4</ele>
        <time>2025-10-04T13:24:03Z</time>
      </trkpt>
      <trkpt lat="45.38572" lon="3.40643">
        <ele>637</ele>
        <time>2025-10-04T13:24:09Z</time>
      </trkpt>
      <trkpt lat="45.38593" lon="3.40681">
        <ele>636.6</ele>
        <time>2025-10-04T13:24:16Z</time>
      </trkpt>
      <trkpt lat="45.3861" lon="3.40706">
        <ele>635.8</ele>
        <time>2025-10-04T13:24:21Z</time>
      </trkpt>
      <trkpt lat="45.38623" lon="3.40724">
        <ele>635.6</ele>
        <time>2025-10-04T13:24:25Z</time>
      </trkpt>
      <trkpt lat="45.38634" lon="3.40742">
        <ele>635.4</ele>
        <time>2025-10-04T13:24:29Z</time>
      </trkpt>
      <trkpt lat="45.38637" lon="3.40747">
        <ele>635.4</ele>
        <time>2025-10-04T13:24:30Z</time>
      </trkpt>
      <trkpt lat="45.38657" lon="3.40785">
        <ele>635</ele>
        <time>2025-10-04T13:24:37Z</time>
      </trkpt>
      <trkpt lat="45.38663" lon="3.40793">
        <ele>635</ele>
        <time>2025-10-04T13:24:39Z</time>
      </trkpt>
      <trkpt lat="45.3867" lon="3.40798">
        <ele>634.8</ele>
        <time>2025-10-04T13:24:41Z</time>
      </trkpt>
      <trkpt lat="45.38689" lon="3.40804">
        <ele>634.8</ele>
        <time>2025-10-04T13:24:46Z</time>
      </trkpt>
      <trkpt lat="45.38701" lon="3.40805">
        <ele>634.8</ele>
        <time>2025-10-04T13:24:49Z</time>
      </trkpt>
      <trkpt lat="45.38721" lon="3.40804">
        <ele>634.8</ele>
        <time>2025-10-04T13:24:54Z</time>
      </trkpt>
      <trkpt lat="45.38746" lon="3.40796">
        <ele>635.6</ele>
        <time>2025-10-04T13:25:01Z</time>
      </trkpt>
      <trkpt lat="45.38765" lon="3.4079">
        <ele>636</ele>
        <time>2025-10-04T13:25:07Z</time>
      </trkpt>
      <trkpt lat="45.38786" lon="3.40792">
        <ele>636.4</ele>
        <time>2025-10-04T13:25:13Z</time>
      </trkpt>
      <trkpt lat="45.38793" lon="3.40793">
        <ele>636.8</ele>
        <time>2025-10-04T13:25:15Z</time>
      </trkpt>
      <trkpt lat="45.38818" lon="3.40801">
        <ele>637.4</ele>
        <time>2025-10-04T13:25:23Z</time>
      </trkpt>
      <trkpt lat="45.38831" lon="3.40807">
        <ele>638.6</ele>
        <time>2025-10-04T13:25:29Z</time>
      </trkpt>
      <trkpt lat="45.38835" lon="3.40809">
        <ele>639</ele>
        <time>2025-10-04T13:25:31Z</time>
      </trkpt>
      <trkpt lat="45.38843" lon="3.40814">
        <ele>639.6</ele>
        <time>2025-10-04T13:25:35Z</time>
      </trkpt>
      <trkpt lat="45.38848" lon="3.40817">
        <ele>640.2</ele>
        <time>2025-10-04T13:25:38Z</time>
      </trkpt>
      <trkpt lat="45.3885" lon="3.40818">
        <ele>640.2</ele>
        <time>2025-10-04T13:25:39Z</time>
      </trkpt>
      <trkpt lat="45.38853" lon="3.4082">
        <ele>640.6</ele>
        <time>2025-10-04T13:25:41Z</time>
      </trkpt>
      <trkpt lat="45.38858" lon="3.40824">
        <ele>641.4</ele>
        <time>2025-10-04T13:25:44Z</time>
      </trkpt>
      <trkpt lat="45.38861" lon="3.40827">
        <ele>642</ele>
        <time>2025-10-04T13:25:46Z</time>
      </trkpt>
      <trkpt lat="45.38862" lon="3.40828">
        <ele>642.6</ele>
        <time>2025-10-04T13:25:47Z</time>
      </trkpt>
      <trkpt lat="45.38866" lon="3.40831">
        <ele>643</ele>
        <time>2025-10-04T13:25:49Z</time>
      </trkpt>
      <trkpt lat="45.38871" lon="3.40837">
        <ele>644.2</ele>
        <time>2025-10-04T13:25:53Z</time>
      </trkpt>
      <trkpt lat="45.38872" lon="3.40838">
        <ele>644.6</ele>
        <time>2025-10-04T13:25:54Z</time>
      </trkpt>
      <trkpt lat="45.38874" lon="3.40842">
        <ele>645.2</ele>
        <time>2025-10-04T13:25:56Z</time>
      </trkpt>
      <trkpt lat="45.3888" lon="3.40848">
        <ele>646.2</ele>
        <time>2025-10-04T13:26:01Z</time>
      </trkpt>
      <trkpt lat="45.38881" lon="3.40849">
        <ele>646.6</ele>
        <time>2025-10-04T13:26:02Z</time>
      </trkpt>
      <trkpt lat="45.38882" lon="3.40852">
        <ele>647</ele>
        <time>2025-10-04T13:26:04Z</time>
      </trkpt>
      <trkpt lat="45.38882" lon="3.40858">
        <ele>647.6</ele>
        <time>2025-10-04T13:26:07Z</time>
      </trkpt>
      <trkpt lat="45.38882" lon="3.4086">
        <ele>647.6</ele>
        <time>2025-10-04T13:26:08Z</time>
      </trkpt>
      <trkpt lat="45.38884" lon="3.4088">
        <ele>648.6</ele>
        <time>2025-10-04T13:26:17Z</time>
      </trkpt>
      <trkpt lat="45.38885" lon="3.40882">
        <ele>648.8</ele>
        <time>2025-10-04T13:26:18Z</time>
      </trkpt>
      <trkpt lat="45.38889" lon="3.40897">
        <ele>649.8</ele>
        <time>2025-10-04T13:26:25Z</time>
      </trkpt>
      <trkpt lat="45.38891" lon="3.40905">
        <ele>651</ele>
        <time>2025-10-04T13:26:30Z</time>
      </trkpt>
      <trkpt lat="45.38891" lon="3.40905">
        <ele>651.2</ele>
        <time>2025-10-04T13:26:31Z</time>
      </trkpt>
      <trkpt lat="45.38891" lon="3.40905">
        <ele>651.6</ele>
        <time>2025-10-04T13:26:32Z</time>
      </trkpt>
      <trkpt lat="45.38891" lon="3.40905">
        <ele>652.4</ele>
        <time>2025-10-04T13:27:09Z</time>
      </trkpt>
      <trkpt lat="45.38891" lon="3.40905">
        <ele>652.4</ele>
        <time>2025-10-04T13:27:10Z</time>
      </trkpt>
      <trkpt lat="45.38892" lon="3.40909">
        <ele>652.4</ele>
        <time>2025-10-04T13:27:14Z</time>
      </trkpt>
      <trkpt lat="45.38893" lon="3.4091">
        <ele>652.4</ele>
        <time>2025-10-04T13:27:15Z</time>
      </trkpt>
      <trkpt lat="45.38897" lon="3.40909">
        <ele>652.6</ele>
        <time>2025-10-04T13:27:18Z</time>
      </trkpt>
      <trkpt lat="45.38901" lon="3.4091">
        <ele>652.8</ele>
        <time>2025-10-04T13:27:20Z</time>
      </trkpt>
      <trkpt lat="45.38913" lon="3.40916">
        <ele>653.6</ele>
        <time>2025-10-04T13:27:27Z</time>
      </trkpt>
      <trkpt lat="45.38914" lon="3.40916">
        <ele>653.8</ele>
        <time>2025-10-04T13:27:28Z</time>
      </trkpt>
      <trkpt lat="45.38921" lon="3.40919">
        <ele>654.8</ele>
        <time>2025-10-04T13:27:32Z</time>
      </trkpt>
      <trkpt lat="45.38925" lon="3.4092">
        <ele>655.4</ele>
        <time>2025-10-04T13:27:35Z</time>
      </trkpt>
      <trkpt lat="45.38929" lon="3.40919">
        <ele>656</ele>
        <time>2025-10-04T13:27:37Z</time>
      </trkpt>
      <trkpt lat="45.38938" lon="3.40922">
        <ele>657.2</ele>
        <time>2025-10-04T13:27:43Z</time>
      </trkpt>
      <trkpt lat="45.38948" lon="3.40923">
        <ele>658.2</ele>
        <time>2025-10-04T13:27:49Z</time>
      </trkpt>
      <trkpt lat="45.38954" lon="3.40923">
        <ele>659.2</ele>
        <time>2025-10-04T13:27:53Z</time>
      </trkpt>
      <trkpt lat="45.38963" lon="3.40922">
        <ele>660.2</ele>
        <time>2025-10-04T13:27:58Z</time>
      </trkpt>
      <trkpt lat="45.38965" lon="3.40921">
        <ele>660.4</ele>
        <time>2025-10-04T13:27:59Z</time>
      </trkpt>
      <trkpt lat="45.38975" lon="3.40918">
        <ele>661</ele>
        <time>2025-10-04T13:28:05Z</time>
      </trkpt>
      <trkpt lat="45.38977" lon="3.40917">
        <ele>661.4</ele>
        <time>2025-10-04T13:28:06Z</time>
      </trkpt>
      <trkpt lat="45.38989" lon="3.40911">
        <ele>662.4</ele>
        <time>2025-10-04T13:28:13Z</time>
      </trkpt>
      <trkpt lat="45.38993" lon="3.40909">
        <ele>662.8</ele>
        <time>2025-10-04T13:28:15Z</time>
      </trkpt>
      <trkpt lat="45.39006" lon="3.40909">
        <ele>663.6</ele>
        <time>2025-10-04T13:28:22Z</time>
      </trkpt>
      <trkpt lat="45.39008" lon="3.40909">
        <ele>663.8</ele>
        <time>2025-10-04T13:28:23Z</time>
      </trkpt>
      <trkpt lat="45.39017" lon="3.4091">
        <ele>664.4</ele>
        <time>2025-10-04T13:28:27Z</time>
      </trkpt>
      <trkpt lat="45.39025" lon="3.40913">
        <ele>664.6</ele>
        <time>2025-10-04T13:28:31Z</time>
      </trkpt>
      <trkpt lat="45.39036" lon="3.40915">
        <ele>665</ele>
        <time>2025-10-04T13:28:37Z</time>
      </trkpt>
      <trkpt lat="45.39041" lon="3.40915">
        <ele>665.4</ele>
        <time>2025-10-04T13:28:39Z</time>
      </trkpt>
      <trkpt lat="45.39047" lon="3.40915">
        <ele>665.6</ele>
        <time>2025-10-04T13:28:42Z</time>
      </trkpt>
      <trkpt lat="45.39049" lon="3.40915">
        <ele>665.8</ele>
        <time>2025-10-04T13:28:43Z</time>
      </trkpt>
      <trkpt lat="45.39059" lon="3.40914">
        <ele>666.2</ele>
        <time>2025-10-04T13:28:49Z</time>
      </trkpt>
      <trkpt lat="45.39068" lon="3.4091">
        <ele>667</ele>
        <time>2025-10-04T13:28:54Z</time>
      </trkpt>
      <trkpt lat="45.39073" lon="3.40907">
        <ele>667.2</ele>
        <time>2025-10-04T13:28:57Z</time>
      </trkpt>
      <trkpt lat="45.39082" lon="3.40903">
        <ele>668.2</ele>
        <time>2025-10-04T13:29:02Z</time>
      </trkpt>
      <trkpt lat="45.39088" lon="3.40899">
        <ele>668.6</ele>
        <time>2025-10-04T13:29:06Z</time>
      </trkpt>
      <trkpt lat="45.39094" lon="3.40892">
        <ele>669.4</ele>
        <time>2025-10-04T13:29:10Z</time>
      </trkpt>
      <trkpt lat="45.39099" lon="3.40886">
        <ele>670.2</ele>
        <time>2025-10-04T13:29:14Z</time>
      </trkpt>
      <trkpt lat="45.391" lon="3.40885">
        <ele>670.6</ele>
        <time>2025-10-04T13:29:15Z</time>
      </trkpt>
      <trkpt lat="45.39106" lon="3.40876">
        <ele>671.6</ele>
        <time>2025-10-04T13:29:20Z</time>
      </trkpt>
      <trkpt lat="45.39111" lon="3.40868">
        <ele>672.8</ele>
        <time>2025-10-04T13:29:25Z</time>
      </trkpt>
      <trkpt lat="45.39114" lon="3.40863">
        <ele>673.4</ele>
        <time>2025-10-04T13:29:28Z</time>
      </trkpt>
      <trkpt lat="45.39115" lon="3.40863">
        <ele>673.8</ele>
        <time>2025-10-04T13:29:29Z</time>
      </trkpt>
      <trkpt lat="45.39117" lon="3.40863">
        <ele>674</ele>
        <time>2025-10-04T13:29:30Z</time>
      </trkpt>
      <trkpt lat="45.3912" lon="3.40869">
        <ele>674.6</ele>
        <time>2025-10-04T13:29:33Z</time>
      </trkpt>
      <trkpt lat="45.39122" lon="3.40873">
        <ele>674.8</ele>
        <time>2025-10-04T13:29:35Z</time>
      </trkpt>
      <trkpt lat="45.39123" lon="3.40874">
        <ele>675</ele>
        <time>2025-10-04T13:29:36Z</time>
      </trkpt>
      <trkpt lat="45.39123" lon="3.40881">
        <ele>675.6</ele>
        <time>2025-10-04T13:29:39Z</time>
      </trkpt>
      <trkpt lat="45.39123" lon="3.40884">
        <ele>676</ele>
        <time>2025-10-04T13:29:41Z</time>
      </trkpt>
      <trkpt lat="45.39125" lon="3.40889">
        <ele>676.6</ele>
        <time>2025-10-04T13:29:44Z</time>
      </trkpt>
      <trkpt lat="45.39126" lon="3.40893">
        <ele>677</ele>
        <time>2025-10-04T13:29:46Z</time>
      </trkpt>
      <trkpt lat="45.39128" lon="3.40896">
        <ele>677.4</ele>
        <time>2025-10-04T13:29:48Z</time>
      </trkpt>
      <trkpt lat="45.39131" lon="3.409">
        <ele>677.8</ele>
        <time>2025-10-04T13:29:51Z</time>
      </trkpt>
      <trkpt lat="45.39133" lon="3.40901">
        <ele>678</ele>
        <time>2025-10-04T13:29:52Z</time>
      </trkpt>
      <trkpt lat="45.3914" lon="3.40908">
        <ele>679</ele>
        <time>2025-10-04T13:29:57Z</time>
      </trkpt>
      <trkpt lat="45.39145" lon="3.4091">
        <ele>679.2</ele>
        <time>2025-10-04T13:30:00Z</time>
      </trkpt>
      <trkpt lat="45.39154" lon="3.40917">
        <ele>680.2</ele>
        <time>2025-10-04T13:30:06Z</time>
      </trkpt>
      <trkpt lat="45.39156" lon="3.40918">
        <ele>680.4</ele>
        <time>2025-10-04T13:30:07Z</time>
      </trkpt>
      <trkpt lat="45.39165" lon="3.40921">
        <ele>681.2</ele>
        <time>2025-10-04T13:30:13Z</time>
      </trkpt>
      <trkpt lat="45.39166" lon="3.40921">
        <ele>681.4</ele>
        <time>2025-10-04T13:30:14Z</time>
      </trkpt>
      <trkpt lat="45.39176" lon="3.40919">
        <ele>682.4</ele>
        <time>2025-10-04T13:30:20Z</time>
      </trkpt>
      <trkpt lat="45.39178" lon="3.40918">
        <ele>682.6</ele>
        <time>2025-10-04T13:30:21Z</time>
      </trkpt>
      <trkpt lat="45.39184" lon="3.40916">
        <ele>683.4</ele>
        <time>2025-10-04T13:30:25Z</time>
      </trkpt>
      <trkpt lat="45.39191" lon="3.40914">
        <ele>684.2</ele>
        <time>2025-10-04T13:30:29Z</time>
      </trkpt>
      <trkpt lat="45.39193" lon="3.40913">
        <ele>684.4</ele>
        <time>2025-10-04T13:30:30Z</time>
      </trkpt>
      <trkpt lat="45.39202" lon="3.40911">
        <ele>685.2</ele>
        <time>2025-10-04T13:30:35Z</time>
      </trkpt>
      <trkpt lat="45.39205" lon="3.40911">
        <ele>685.4</ele>
        <time>2025-10-04T13:30:37Z</time>
      </trkpt>
      <trkpt lat="45.39211" lon="3.4091">
        <ele>686</ele>
        <time>2025-10-04T13:30:42Z</time>
      </trkpt>
      <trkpt lat="45.39212" lon="3.4091">
        <ele>686.2</ele>
        <time>2025-10-04T13:30:43Z</time>
      </trkpt>
      <trkpt lat="45.39214" lon="3.4091">
        <ele>686.4</ele>
        <time>2025-10-04T13:30:44Z</time>
      </trkpt>
      <trkpt lat="45.39221" lon="3.40908">
        <ele>687</ele>
        <time>2025-10-04T13:30:49Z</time>
      </trkpt>
      <trkpt lat="45.39222" lon="3.40907">
        <ele>687</ele>
        <time>2025-10-04T13:30:50Z</time>
      </trkpt>
      <trkpt lat="45.39225" lon="3.40905">
        <ele>687.6</ele>
        <time>2025-10-04T13:30:52Z</time>
      </trkpt>
      <trkpt lat="45.39228" lon="3.40903">
        <ele>687.8</ele>
        <time>2025-10-04T13:30:54Z</time>
      </trkpt>
      <trkpt lat="45.39243" lon="3.40898">
        <ele>688.4</ele>
        <time>2025-10-04T13:31:02Z</time>
      </trkpt>
      <trkpt lat="45.39246" lon="3.40897">
        <ele>688.6</ele>
        <time>2025-10-04T13:31:04Z</time>
      </trkpt>
      <trkpt lat="45.39254" lon="3.40896">
        <ele>688.8</ele>
        <time>2025-10-04T13:31:08Z</time>
      </trkpt>
      <trkpt lat="45.39264" lon="3.40889">
        <ele>689.2</ele>
        <time>2025-10-04T13:31:14Z</time>
      </trkpt>
      <trkpt lat="45.39271" lon="3.40885">
        <ele>689.6</ele>
        <time>2025-10-04T13:31:18Z</time>
      </trkpt>
      <trkpt lat="45.39275" lon="3.40882">
        <ele>690.2</ele>
        <time>2025-10-04T13:31:21Z</time>
      </trkpt>
      <trkpt lat="45.39281" lon="3.40878">
        <ele>690.6</ele>
        <time>2025-10-04T13:31:26Z</time>
      </trkpt>
      <trkpt lat="45.39284" lon="3.40876">
        <ele>691</ele>
        <time>2025-10-04T13:31:29Z</time>
      </trkpt>
      <trkpt lat="45.39286" lon="3.40874">
        <ele>691.6</ele>
        <time>2025-10-04T13:31:31Z</time>
      </trkpt>
      <trkpt lat="45.39287" lon="3.40874">
        <ele>691.8</ele>
        <time>2025-10-04T13:31:32Z</time>
      </trkpt>
      <trkpt lat="45.39292" lon="3.40874">
        <ele>692.8</ele>
        <time>2025-10-04T13:31:36Z</time>
      </trkpt>
      <trkpt lat="45.39293" lon="3.40875">
        <ele>693</ele>
        <time>2025-10-04T13:31:37Z</time>
      </trkpt>
      <trkpt lat="45.39297" lon="3.40875">
        <ele>693.6</ele>
        <time>2025-10-04T13:31:40Z</time>
      </trkpt>
      <trkpt lat="45.393" lon="3.40876">
        <ele>694.2</ele>
        <time>2025-10-04T13:31:42Z</time>
      </trkpt>
      <trkpt lat="45.39301" lon="3.40877">
        <ele>694.2</ele>
        <time>2025-10-04T13:31:43Z</time>
      </trkpt>
      <trkpt lat="45.39306" lon="3.40876">
        <ele>694.8</ele>
        <time>2025-10-04T13:31:47Z</time>
      </trkpt>
      <trkpt lat="45.39307" lon="3.40878">
        <ele>695.2</ele>
        <time>2025-10-04T13:31:49Z</time>
      </trkpt>
      <trkpt lat="45.39315" lon="3.4088">
        <ele>696</ele>
        <time>2025-10-04T13:31:55Z</time>
      </trkpt>
      <trkpt lat="45.39316" lon="3.40881">
        <ele>696.2</ele>
        <time>2025-10-04T13:31:56Z</time>
      </trkpt>
      <trkpt lat="45.39317" lon="3.40882">
        <ele>696.4</ele>
        <time>2025-10-04T13:31:57Z</time>
      </trkpt>
      <trkpt lat="45.39317" lon="3.40882">
        <ele>697</ele>
        <time>2025-10-04T13:32:01Z</time>
      </trkpt>
      <trkpt lat="45.39317" lon="3.40882">
        <ele>697.2</ele>
        <time>2025-10-04T13:32:02Z</time>
      </trkpt>
      <trkpt lat="45.39318" lon="3.40883">
        <ele>697.2</ele>
        <time>2025-10-04T13:32:38Z</time>
      </trkpt>
      <trkpt lat="45.39319" lon="3.40883">
        <ele>697.2</ele>
        <time>2025-10-04T13:32:39Z</time>
      </trkpt>
      <trkpt lat="45.39322" lon="3.40885">
        <ele>697.2</ele>
        <time>2025-10-04T13:32:42Z</time>
      </trkpt>
      <trkpt lat="45.39324" lon="3.40886">
        <ele>697.6</ele>
        <time>2025-10-04T13:32:44Z</time>
      </trkpt>
      <trkpt lat="45.39327" lon="3.40887">
        <ele>698</ele>
        <time>2025-10-04T13:32:47Z</time>
      </trkpt>
      <trkpt lat="45.39328" lon="3.40887">
        <ele>698.2</ele>
        <time>2025-10-04T13:32:48Z</time>
      </trkpt>
      <trkpt lat="45.39329" lon="3.40887">
        <ele>698.4</ele>
        <time>2025-10-04T13:32:49Z</time>
      </trkpt>
      <trkpt lat="45.3933" lon="3.40887">
        <ele>698.6</ele>
        <time>2025-10-04T13:32:50Z</time>
      </trkpt>
      <trkpt lat="45.39334" lon="3.40886">
        <ele>699.6</ele>
        <time>2025-10-04T13:32:54Z</time>
      </trkpt>
      <trkpt lat="45.39336" lon="3.40886">
        <ele>699.8</ele>
        <time>2025-10-04T13:32:55Z</time>
      </trkpt>
      <trkpt lat="45.3934" lon="3.40886">
        <ele>700.6</ele>
        <time>2025-10-04T13:32:59Z</time>
      </trkpt>
      <trkpt lat="45.39341" lon="3.40885">
        <ele>701</ele>
        <time>2025-10-04T13:33:01Z</time>
      </trkpt>
      <trkpt lat="45.39341" lon="3.40885">
        <ele>701.8</ele>
        <time>2025-10-04T13:33:05Z</time>
      </trkpt>
      <trkpt lat="45.39341" lon="3.40885">
        <ele>702.2</ele>
        <time>2025-10-04T13:33:12Z</time>
      </trkpt>
      <trkpt lat="45.39341" lon="3.40885">
        <ele>702</ele>
        <time>2025-10-04T13:33:21Z</time>
      </trkpt>
      <trkpt lat="45.39341" lon="3.40885">
        <ele>701.8</ele>
        <time>2025-10-04T13:33:48Z</time>
      </trkpt>
      <trkpt lat="45.39341" lon="3.40885">
        <ele>701.8</ele>
        <time>2025-10-04T13:33:54Z</time>
      </trkpt>
      <trkpt lat="45.39341" lon="3.40885">
        <ele>701.8</ele>
        <time>2025-10-04T13:33:56Z</time>
      </trkpt>
      <trkpt lat="45.39341" lon="3.40885">
        <ele>702.2</ele>
        <time>2025-10-04T13:34:07Z</time>
      </trkpt>
      <trkpt lat="45.39341" lon="3.40885">
        <ele>701.8</ele>
        <time>2025-10-04T13:34:15Z</time>
      </trkpt>
      <trkpt lat="45.39345" lon="3.40884">
        <ele>701.8</ele>
        <time>2025-10-04T13:34:24Z</time>
      </trkpt>
      <trkpt lat="45.39349" lon="3.40886">
        <ele>701.8</ele>
        <time>2025-10-04T13:34:27Z</time>
      </trkpt>
      <trkpt lat="45.39354" lon="3.40886">
        <ele>702</ele>
        <time>2025-10-04T13:34:30Z</time>
      </trkpt>
      <trkpt lat="45.39362" lon="3.40886">
        <ele>702.6</ele>
        <time>2025-10-04T13:34:35Z</time>
      </trkpt>
      <trkpt lat="45.39366" lon="3.40885">
        <ele>703.2</ele>
        <time>2025-10-04T13:34:38Z</time>
      </trkpt>
      <trkpt lat="45.39369" lon="3.40885">
        <ele>703.8</ele>
        <time>2025-10-04T13:34:40Z</time>
      </trkpt>
      <trkpt lat="45.39378" lon="3.40884">
        <ele>704.8</ele>
        <time>2025-10-04T13:34:46Z</time>
      </trkpt>
      <trkpt lat="45.3939" lon="3.40883">
        <ele>706</ele>
        <time>2025-10-04T13:34:54Z</time>
      </trkpt>
      <trkpt lat="45.39392" lon="3.40883">
        <ele>706.6</ele>
        <time>2025-10-04T13:34:55Z</time>
      </trkpt>
      <trkpt lat="45.39397" lon="3.40883">
        <ele>707.2</ele>
        <time>2025-10-04T13:34:58Z</time>
      </trkpt>
      <trkpt lat="45.39403" lon="3.40883">
        <ele>707.6</ele>
        <time>2025-10-04T13:35:02Z</time>
      </trkpt>
      <trkpt lat="45.3941" lon="3.40885">
        <ele>708</ele>
        <time>2025-10-04T13:35:07Z</time>
      </trkpt>
      <trkpt lat="45.39415" lon="3.40889">
        <ele>708.6</ele>
        <time>2025-10-04T13:35:11Z</time>
      </trkpt>
      <trkpt lat="45.39419" lon="3.40893">
        <ele>709.2</ele>
        <time>2025-10-04T13:35:14Z</time>
      </trkpt>
      <trkpt lat="45.39424" lon="3.409">
        <ele>709.8</ele>
        <time>2025-10-04T13:35:18Z</time>
      </trkpt>
      <trkpt lat="45.39425" lon="3.40903">
        <ele>710</ele>
        <time>2025-10-04T13:35:19Z</time>
      </trkpt>
      <trkpt lat="45.39427" lon="3.40907">
        <ele>710.2</ele>
        <time>2025-10-04T13:35:21Z</time>
      </trkpt>
      <trkpt lat="45.39433" lon="3.40923">
        <ele>710.4</ele>
        <time>2025-10-04T13:35:27Z</time>
      </trkpt>
      <trkpt lat="45.39444" lon="3.40957">
        <ele>710.6</ele>
        <time>2025-10-04T13:35:37Z</time>
      </trkpt>
      <trkpt lat="45.39446" lon="3.40976">
        <ele>710.8</ele>
        <time>2025-10-04T13:35:43Z</time>
      </trkpt>
      <trkpt lat="45.39451" lon="3.40998">
        <ele>711</ele>
        <time>2025-10-04T13:35:49Z</time>
      </trkpt>
      <trkpt lat="45.39453" lon="3.41009">
        <ele>711.2</ele>
        <time>2025-10-04T13:35:52Z</time>
      </trkpt>
      <trkpt lat="45.39453" lon="3.41014">
        <ele>711.2</ele>
        <time>2025-10-04T13:35:54Z</time>
      </trkpt>
      <trkpt lat="45.39455" lon="3.41031">
        <ele>711.6</ele>
        <time>2025-10-04T13:36:00Z</time>
      </trkpt>
      <trkpt lat="45.39456" lon="3.41038">
        <ele>712</ele>
        <time>2025-10-04T13:36:03Z</time>
      </trkpt>
      <trkpt lat="45.39458" lon="3.41045">
        <ele>712.2</ele>
        <time>2025-10-04T13:36:06Z</time>
      </trkpt>
      <trkpt lat="45.3946" lon="3.4106">
        <ele>713</ele>
        <time>2025-10-04T13:36:11Z</time>
      </trkpt>
      <trkpt lat="45.39462" lon="3.4107">
        <ele>713.6</ele>
        <time>2025-10-04T13:36:14Z</time>
      </trkpt>
      <trkpt lat="45.39462" lon="3.41078">
        <ele>714.2</ele>
        <time>2025-10-04T13:36:18Z</time>
      </trkpt>
      <trkpt lat="45.39463" lon="3.41081">
        <ele>714.2</ele>
        <time>2025-10-04T13:36:19Z</time>
      </trkpt>
      <trkpt lat="45.39464" lon="3.41084">
        <ele>714.4</ele>
        <time>2025-10-04T13:36:21Z</time>
      </trkpt>
      <trkpt lat="45.39464" lon="3.41088">
        <ele>714.6</ele>
        <time>2025-10-04T13:36:22Z</time>
      </trkpt>
      <trkpt lat="45.39465" lon="3.41105">
        <ele>715.4</ele>
        <time>2025-10-04T13:36:27Z</time>
      </trkpt>
      <trkpt lat="45.39467" lon="3.41108">
        <ele>715.4</ele>
        <time>2025-10-04T13:36:28Z</time>
      </trkpt>
      <trkpt lat="45.39469" lon="3.41119">
        <ele>716</ele>
        <time>2025-10-04T13:36:31Z</time>
      </trkpt>
      <trkpt lat="45.3947" lon="3.41123">
        <ele>716.2</ele>
        <time>2025-10-04T13:36:33Z</time>
      </trkpt>
      <trkpt lat="45.3947" lon="3.41126">
        <ele>716.2</ele>
        <time>2025-10-04T13:36:34Z</time>
      </trkpt>
      <trkpt lat="45.3947" lon="3.41127">
        <ele>716.4</ele>
        <time>2025-10-04T13:36:35Z</time>
      </trkpt>
      <trkpt lat="45.39471" lon="3.41128">
        <ele>717.2</ele>
        <time>2025-10-04T13:36:42Z</time>
      </trkpt>
      <trkpt lat="45.39471" lon="3.41132">
        <ele>717.2</ele>
        <time>2025-10-04T13:36:44Z</time>
      </trkpt>
      <trkpt lat="45.39473" lon="3.41134">
        <ele>717.4</ele>
        <time>2025-10-04T13:36:45Z</time>
      </trkpt>
      <trkpt lat="45.39475" lon="3.41143">
        <ele>717.4</ele>
        <time>2025-10-04T13:36:49Z</time>
      </trkpt>
      <trkpt lat="45.39478" lon="3.41148">
        <ele>717.4</ele>
        <time>2025-10-04T13:36:51Z</time>
      </trkpt>
      <trkpt lat="45.39488" lon="3.41167">
        <ele>718</ele>
        <time>2025-10-04T13:36:58Z</time>
      </trkpt>
      <trkpt lat="45.3949" lon="3.41168">
        <ele>718</ele>
        <time>2025-10-04T13:36:59Z</time>
      </trkpt>
      <trkpt lat="45.39498" lon="3.41177">
        <ele>718.4</ele>
        <time>2025-10-04T13:37:03Z</time>
      </trkpt>
      <trkpt lat="45.39515" lon="3.41178">
        <ele>719.2</ele>
        <time>2025-10-04T13:37:09Z</time>
      </trkpt>
      <trkpt lat="45.39518" lon="3.41176">
        <ele>719.2</ele>
        <time>2025-10-04T13:37:10Z</time>
      </trkpt>
      <trkpt lat="45.39535" lon="3.41163">
        <ele>719.2</ele>
        <time>2025-10-04T13:37:15Z</time>
      </trkpt>
      <trkpt lat="45.39552" lon="3.41147">
        <ele>719.2</ele>
        <time>2025-10-04T13:37:21Z</time>
      </trkpt>
      <trkpt lat="45.39563" lon="3.41135">
        <ele>719.2</ele>
        <time>2025-10-04T13:37:25Z</time>
      </trkpt>
      <trkpt lat="45.3957" lon="3.41128">
        <ele>719</ele>
        <time>2025-10-04T13:37:27Z</time>
      </trkpt>
      <trkpt lat="45.39578" lon="3.41119">
        <ele>718.6</ele>
        <time>2025-10-04T13:37:29Z</time>
      </trkpt>
      <trkpt lat="45.39585" lon="3.41107">
        <ele>718</ele>
        <time>2025-10-04T13:37:31Z</time>
      </trkpt>
      <trkpt lat="45.39588" lon="3.411">
        <ele>717.8</ele>
        <time>2025-10-04T13:37:32Z</time>
      </trkpt>
      <trkpt lat="45.39591" lon="3.41095">
        <ele>717.6</ele>
        <time>2025-10-04T13:37:33Z</time>
      </trkpt>
      <trkpt lat="45.39597" lon="3.41083">
        <ele>717.2</ele>
        <time>2025-10-04T13:37:35Z</time>
      </trkpt>
      <trkpt lat="45.39601" lon="3.41071">
        <ele>716.4</ele>
        <time>2025-10-04T13:37:37Z</time>
      </trkpt>
      <trkpt lat="45.39605" lon="3.41057">
        <ele>715.8</ele>
        <time>2025-10-04T13:37:39Z</time>
      </trkpt>
      <trkpt lat="45.39611" lon="3.41038">
        <ele>715.2</ele>
        <time>2025-10-04T13:37:41Z</time>
      </trkpt>
      <trkpt lat="45.39614" lon="3.41029">
        <ele>715</ele>
        <time>2025-10-04T13:37:42Z</time>
      </trkpt>
      <trkpt lat="45.39616" lon="3.4102">
        <ele>714.6</ele>
        <time>2025-10-04T13:37:43Z</time>
      </trkpt>
      <trkpt lat="45.39619" lon="3.41009">
        <ele>713.8</ele>
        <time>2025-10-04T13:37:44Z</time>
      </trkpt>
      <trkpt lat="45.39624" lon="3.40982">
        <ele>713.2</ele>
        <time>2025-10-04T13:37:46Z</time>
      </trkpt>
      <trkpt lat="45.39627" lon="3.40958">
        <ele>712.6</ele>
        <time>2025-10-04T13:37:48Z</time>
      </trkpt>
      <trkpt lat="45.39626" lon="3.40933">
        <ele>711.4</ele>
        <time>2025-10-04T13:37:50Z</time>
      </trkpt>
      <trkpt lat="45.39625" lon="3.40909">
        <ele>710.8</ele>
        <time>2025-10-04T13:37:52Z</time>
      </trkpt>
      <trkpt lat="45.39627" lon="3.40899">
        <ele>710.2</ele>
        <time>2025-10-04T13:37:53Z</time>
      </trkpt>
      <trkpt lat="45.39631" lon="3.40891">
        <ele>710</ele>
        <time>2025-10-04T13:37:54Z</time>
      </trkpt>
      <trkpt lat="45.39637" lon="3.40874">
        <ele>709.4</ele>
        <time>2025-10-04T13:37:56Z</time>
      </trkpt>
      <trkpt lat="45.39642" lon="3.40866">
        <ele>708.4</ele>
        <time>2025-10-04T13:37:57Z</time>
      </trkpt>
      <trkpt lat="45.39648" lon="3.40858">
        <ele>707.2</ele>
        <time>2025-10-04T13:37:58Z</time>
      </trkpt>
      <trkpt lat="45.39663" lon="3.40843">
        <ele>706</ele>
        <time>2025-10-04T13:38:00Z</time>
      </trkpt>
      <trkpt lat="45.3967" lon="3.40835">
        <ele>705.6</ele>
        <time>2025-10-04T13:38:01Z</time>
      </trkpt>
      <trkpt lat="45.39678" lon="3.40826">
        <ele>704.6</ele>
        <time>2025-10-04T13:38:02Z</time>
      </trkpt>
      <trkpt lat="45.39685" lon="3.40816">
        <ele>703.2</ele>
        <time>2025-10-04T13:38:03Z</time>
      </trkpt>
      <trkpt lat="45.39691" lon="3.40806">
        <ele>701.6</ele>
        <time>2025-10-04T13:38:04Z</time>
      </trkpt>
      <trkpt lat="45.39706" lon="3.40786">
        <ele>699.2</ele>
        <time>2025-10-04T13:38:06Z</time>
      </trkpt>
      <trkpt lat="45.39722" lon="3.40771">
        <ele>697.6</ele>
        <time>2025-10-04T13:38:08Z</time>
      </trkpt>
      <trkpt lat="45.39729" lon="3.40762">
        <ele>696.2</ele>
        <time>2025-10-04T13:38:09Z</time>
      </trkpt>
      <trkpt lat="45.39737" lon="3.40754">
        <ele>695</ele>
        <time>2025-10-04T13:38:10Z</time>
      </trkpt>
      <trkpt lat="45.39744" lon="3.40745">
        <ele>693.6</ele>
        <time>2025-10-04T13:38:11Z</time>
      </trkpt>
      <trkpt lat="45.3975" lon="3.40737">
        <ele>691.2</ele>
        <time>2025-10-04T13:38:12Z</time>
      </trkpt>
      <trkpt lat="45.39756" lon="3.4073">
        <ele>690</ele>
        <time>2025-10-04T13:38:13Z</time>
      </trkpt>
      <trkpt lat="45.39763" lon="3.40725">
        <ele>688.6</ele>
        <time>2025-10-04T13:38:14Z</time>
      </trkpt>
      <trkpt lat="45.39776" lon="3.40715">
        <ele>687.4</ele>
        <time>2025-10-04T13:38:16Z</time>
      </trkpt>
      <trkpt lat="45.39783" lon="3.40712">
        <ele>687.2</ele>
        <time>2025-10-04T13:38:17Z</time>
      </trkpt>
      <trkpt lat="45.39789" lon="3.40711">
        <ele>686.6</ele>
        <time>2025-10-04T13:38:18Z</time>
      </trkpt>
      <trkpt lat="45.39797" lon="3.40711">
        <ele>686.2</ele>
        <time>2025-10-04T13:38:19Z</time>
      </trkpt>
      <trkpt lat="45.39804" lon="3.40713">
        <ele>685.4</ele>
        <time>2025-10-04T13:38:20Z</time>
      </trkpt>
      <trkpt lat="45.39813" lon="3.40714">
        <ele>684.4</ele>
        <time>2025-10-04T13:38:21Z</time>
      </trkpt>
      <trkpt lat="45.39828" lon="3.40716">
        <ele>683</ele>
        <time>2025-10-04T13:38:23Z</time>
      </trkpt>
      <trkpt lat="45.39841" lon="3.40718">
        <ele>682.4</ele>
        <time>2025-10-04T13:38:25Z</time>
      </trkpt>
      <trkpt lat="45.39845" lon="3.40719">
        <ele>682</ele>
        <time>2025-10-04T13:38:26Z</time>
      </trkpt>
      <trkpt lat="45.39846" lon="3.40718">
        <ele>680.8</ele>
        <time>2025-10-04T13:38:27Z</time>
      </trkpt>
      <trkpt lat="45.39845" lon="3.40715">
        <ele>679.6</ele>
        <time>2025-10-04T13:38:29Z</time>
      </trkpt>
      <trkpt lat="45.39841" lon="3.40713">
        <ele>679</ele>
        <time>2025-10-04T13:38:30Z</time>
      </trkpt>
      <trkpt lat="45.39826" lon="3.40704">
        <ele>678.4</ele>
        <time>2025-10-04T13:38:33Z</time>
      </trkpt>
      <trkpt lat="45.3981" lon="3.40694">
        <ele>677.4</ele>
        <time>2025-10-04T13:38:36Z</time>
      </trkpt>
      <trkpt lat="45.39804" lon="3.40689">
        <ele>677</ele>
        <time>2025-10-04T13:38:37Z</time>
      </trkpt>
      <trkpt lat="45.39799" lon="3.40684">
        <ele>677</ele>
        <time>2025-10-04T13:38:38Z</time>
      </trkpt>
      <trkpt lat="45.39794" lon="3.40679">
        <ele>676.2</ele>
        <time>2025-10-04T13:38:39Z</time>
      </trkpt>
      <trkpt lat="45.39789" lon="3.40675">
        <ele>676</ele>
        <time>2025-10-04T13:38:40Z</time>
      </trkpt>
      <trkpt lat="45.39781" lon="3.40669">
        <ele>674.6</ele>
        <time>2025-10-04T13:38:42Z</time>
      </trkpt>
      <trkpt lat="45.39772" lon="3.40668">
        <ele>672.8</ele>
        <time>2025-10-04T13:38:44Z</time>
      </trkpt>
      <trkpt lat="45.39761" lon="3.40669">
        <ele>671.8</ele>
        <time>2025-10-04T13:38:46Z</time>
      </trkpt>
      <trkpt lat="45.39755" lon="3.40671">
        <ele>671.6</ele>
        <time>2025-10-04T13:38:47Z</time>
      </trkpt>
      <trkpt lat="45.3975" lon="3.40674">
        <ele>670.6</ele>
        <time>2025-10-04T13:38:48Z</time>
      </trkpt>
      <trkpt lat="45.39744" lon="3.40677">
        <ele>670</ele>
        <time>2025-10-04T13:38:49Z</time>
      </trkpt>
      <trkpt lat="45.39733" lon="3.40683">
        <ele>668.4</ele>
        <time>2025-10-04T13:38:51Z</time>
      </trkpt>
      <trkpt lat="45.39723" lon="3.40689">
        <ele>667.6</ele>
        <time>2025-10-04T13:38:53Z</time>
      </trkpt>
      <trkpt lat="45.39712" lon="3.40694">
        <ele>667.4</ele>
        <time>2025-10-04T13:38:55Z</time>
      </trkpt>
      <trkpt lat="45.397" lon="3.40697">
        <ele>666.8</ele>
        <time>2025-10-04T13:38:57Z</time>
      </trkpt>
      <trkpt lat="45.39694" lon="3.40698">
        <ele>666.6</ele>
        <time>2025-10-04T13:38:58Z</time>
      </trkpt>
      <trkpt lat="45.39689" lon="3.40699">
        <ele>666.4</ele>
        <time>2025-10-04T13:38:59Z</time>
      </trkpt>
      <trkpt lat="45.3968" lon="3.40699">
        <ele>666.2</ele>
        <time>2025-10-04T13:39:01Z</time>
      </trkpt>
      <trkpt lat="45.39668" lon="3.40699">
        <ele>665.6</ele>
        <time>2025-10-04T13:39:03Z</time>
      </trkpt>
      <trkpt lat="45.39664" lon="3.40701">
        <ele>665.2</ele>
        <time>2025-10-04T13:39:04Z</time>
      </trkpt>
      <trkpt lat="45.39648" lon="3.40705">
        <ele>664.2</ele>
        <time>2025-10-04T13:39:07Z</time>
      </trkpt>
      <trkpt lat="45.39642" lon="3.4071">
        <ele>662.8</ele>
        <time>2025-10-04T13:39:09Z</time>
      </trkpt>
      <trkpt lat="45.39641" lon="3.4071">
        <ele>662.2</ele>
        <time>2025-10-04T13:39:10Z</time>
      </trkpt>
      <trkpt lat="45.3964" lon="3.40708">
        <ele>661.2</ele>
        <time>2025-10-04T13:39:11Z</time>
      </trkpt>
      <trkpt lat="45.3964" lon="3.40705">
        <ele>661</ele>
        <time>2025-10-04T13:39:12Z</time>
      </trkpt>
      <trkpt lat="45.39641" lon="3.40703">
        <ele>660.8</ele>
        <time>2025-10-04T13:39:13Z</time>
      </trkpt>
      <trkpt lat="45.39644" lon="3.40698">
        <ele>660.6</ele>
        <time>2025-10-04T13:39:15Z</time>
      </trkpt>
      <trkpt lat="45.39648" lon="3.40688">
        <ele>660.6</ele>
        <time>2025-10-04T13:39:18Z</time>
      </trkpt>
      <trkpt lat="45.39649" lon="3.40684">
        <ele>660.6</ele>
        <time>2025-10-04T13:39:19Z</time>
      </trkpt>
      <trkpt lat="45.39652" lon="3.40676">
        <ele>660.6</ele>
        <time>2025-10-04T13:39:21Z</time>
      </trkpt>
      <trkpt lat="45.39659" lon="3.40658">
        <ele>660.6</ele>
        <time>2025-10-04T13:39:24Z</time>
      </trkpt>
      <trkpt lat="45.39668" lon="3.40635">
        <ele>660.4</ele>
        <time>2025-10-04T13:39:28Z</time>
      </trkpt>
      <trkpt lat="45.39673" lon="3.40622">
        <ele>660.4</ele>
        <time>2025-10-04T13:39:30Z</time>
      </trkpt>
      <trkpt lat="45.3968" lon="3.40595">
        <ele>660.2</ele>
        <time>2025-10-04T13:39:34Z</time>
      </trkpt>
      <trkpt lat="45.39677" lon="3.40571">
        <ele>660</ele>
        <time>2025-10-04T13:39:37Z</time>
      </trkpt>
      <trkpt lat="45.39675" lon="3.40566">
        <ele>660</ele>
        <time>2025-10-04T13:39:38Z</time>
      </trkpt>
      <trkpt lat="45.39672" lon="3.4056">
        <ele>659.8</ele>
        <time>2025-10-04T13:39:39Z</time>
      </trkpt>
      <trkpt lat="45.39668" lon="3.40548">
        <ele>659.6</ele>
        <time>2025-10-04T13:39:41Z</time>
      </trkpt>
      <trkpt lat="45.39666" lon="3.40542">
        <ele>659.4</ele>
        <time>2025-10-04T13:39:42Z</time>
      </trkpt>
      <trkpt lat="45.39673" lon="3.40519">
        <ele>659.2</ele>
        <time>2025-10-04T13:39:46Z</time>
      </trkpt>
      <trkpt lat="45.39676" lon="3.40508">
        <ele>659</ele>
        <time>2025-10-04T13:39:48Z</time>
      </trkpt>
      <trkpt lat="45.39682" lon="3.40497">
        <ele>658.6</ele>
        <time>2025-10-04T13:39:51Z</time>
      </trkpt>
      <trkpt lat="45.39685" lon="3.40491">
        <ele>658.6</ele>
        <time>2025-10-04T13:39:52Z</time>
      </trkpt>
      <trkpt lat="45.39689" lon="3.40485">
        <ele>658.6</ele>
        <time>2025-10-04T13:39:53Z</time>
      </trkpt>
      <trkpt lat="45.39696" lon="3.40476">
        <ele>658.6</ele>
        <time>2025-10-04T13:39:55Z</time>
      </trkpt>
      <trkpt lat="45.39704" lon="3.40456">
        <ele>658.6</ele>
        <time>2025-10-04T13:39:59Z</time>
      </trkpt>
      <trkpt lat="45.39716" lon="3.40423">
        <ele>658.6</ele>
        <time>2025-10-04T13:40:05Z</time>
      </trkpt>
      <trkpt lat="45.39723" lon="3.40409">
        <ele>658.6</ele>
        <time>2025-10-04T13:40:09Z</time>
      </trkpt>
      <trkpt lat="45.39729" lon="3.40393">
        <ele>659</ele>
        <time>2025-10-04T13:40:13Z</time>
      </trkpt>
      <trkpt lat="45.39728" lon="3.40386">
        <ele>659</ele>
        <time>2025-10-04T13:40:15Z</time>
      </trkpt>
      <trkpt lat="45.39728" lon="3.40385">
        <ele>658.2</ele>
        <time>2025-10-04T13:42:43Z</time>
      </trkpt>
      <trkpt lat="45.39728" lon="3.40385">
        <ele>658.2</ele>
        <time>2025-10-04T13:42:44Z</time>
      </trkpt>
      <trkpt lat="45.39729" lon="3.40382">
        <ele>658.2</ele>
        <time>2025-10-04T13:42:47Z</time>
      </trkpt>
      <trkpt lat="45.39729" lon="3.40371">
        <ele>658.4</ele>
        <time>2025-10-04T13:42:50Z</time>
      </trkpt>
      <trkpt lat="45.39729" lon="3.40356">
        <ele>658.2</ele>
        <time>2025-10-04T13:42:53Z</time>
      </trkpt>
      <trkpt lat="45.39731" lon="3.40342">
        <ele>658.4</ele>
        <time>2025-10-04T13:42:56Z</time>
      </trkpt>
      <trkpt lat="45.39732" lon="3.4032">
        <ele>658.2</ele>
        <time>2025-10-04T13:43:00Z</time>
      </trkpt>
      <trkpt lat="45.39731" lon="3.40312">
        <ele>658.2</ele>
        <time>2025-10-04T13:43:01Z</time>
      </trkpt>
      <trkpt lat="45.3972" lon="3.40277">
        <ele>658.4</ele>
        <time>2025-10-04T13:43:06Z</time>
      </trkpt>
      <trkpt lat="45.39703" lon="3.40243">
        <ele>658.2</ele>
        <time>2025-10-04T13:43:12Z</time>
      </trkpt>
      <trkpt lat="45.39686" lon="3.40236">
        <ele>657.8</ele>
        <time>2025-10-04T13:43:16Z</time>
      </trkpt>
      <trkpt lat="45.39656" lon="3.40234">
        <ele>656.8</ele>
        <time>2025-10-04T13:43:22Z</time>
      </trkpt>
      <trkpt lat="45.39651" lon="3.40233">
        <ele>656.6</ele>
        <time>2025-10-04T13:43:23Z</time>
      </trkpt>
      <trkpt lat="45.39647" lon="3.40231">
        <ele>656.6</ele>
        <time>2025-10-04T13:43:24Z</time>
      </trkpt>
      <trkpt lat="45.39642" lon="3.40226">
        <ele>656.6</ele>
        <time>2025-10-04T13:43:25Z</time>
      </trkpt>
      <trkpt lat="45.39643" lon="3.40222">
        <ele>656.4</ele>
        <time>2025-10-04T13:43:26Z</time>
      </trkpt>
      <trkpt lat="45.39644" lon="3.40219">
        <ele>656.2</ele>
        <time>2025-10-04T13:43:27Z</time>
      </trkpt>
      <trkpt lat="45.39654" lon="3.40202">
        <ele>656</ele>
        <time>2025-10-04T13:43:30Z</time>
      </trkpt>
      <trkpt lat="45.39657" lon="3.40194">
        <ele>655.8</ele>
        <time>2025-10-04T13:43:31Z</time>
      </trkpt>
      <trkpt lat="45.39663" lon="3.4017">
        <ele>655.2</ele>
        <time>2025-10-04T13:43:33Z</time>
      </trkpt>
      <trkpt lat="45.39667" lon="3.40158">
        <ele>654</ele>
        <time>2025-10-04T13:43:34Z</time>
      </trkpt>
      <trkpt lat="45.39676" lon="3.40129">
        <ele>652</ele>
        <time>2025-10-04T13:43:36Z</time>
      </trkpt>
      <trkpt lat="45.3968" lon="3.40111">
        <ele>650.4</ele>
        <time>2025-10-04T13:43:38Z</time>
      </trkpt>
      <trkpt lat="45.39683" lon="3.40102">
        <ele>648.6</ele>
        <time>2025-10-04T13:43:40Z</time>
      </trkpt>
      <trkpt lat="45.39686" lon="3.40098">
        <ele>647.8</ele>
        <time>2025-10-04T13:43:41Z</time>
      </trkpt>
      <trkpt lat="45.39691" lon="3.40094">
        <ele>647.6</ele>
        <time>2025-10-04T13:43:42Z</time>
      </trkpt>
      <trkpt lat="45.39697" lon="3.40091">
        <ele>646.8</ele>
        <time>2025-10-04T13:43:43Z</time>
      </trkpt>
      <trkpt lat="45.39703" lon="3.40089">
        <ele>646.4</ele>
        <time>2025-10-04T13:43:44Z</time>
      </trkpt>
      <trkpt lat="45.39708" lon="3.40087">
        <ele>645.8</ele>
        <time>2025-10-04T13:43:45Z</time>
      </trkpt>
      <trkpt lat="45.39718" lon="3.40084">
        <ele>645</ele>
        <time>2025-10-04T13:43:47Z</time>
      </trkpt>
      <trkpt lat="45.39725" lon="3.40083">
        <ele>644.6</ele>
        <time>2025-10-04T13:43:48Z</time>
      </trkpt>
      <trkpt lat="45.39732" lon="3.40082">
        <ele>644.4</ele>
        <time>2025-10-04T13:43:49Z</time>
      </trkpt>
      <trkpt lat="45.39745" lon="3.4008">
        <ele>643.4</ele>
        <time>2025-10-04T13:43:51Z</time>
      </trkpt>
      <trkpt lat="45.39751" lon="3.40078">
        <ele>642.8</ele>
        <time>2025-10-04T13:43:52Z</time>
      </trkpt>
      <trkpt lat="45.39762" lon="3.40075">
        <ele>641.8</ele>
        <time>2025-10-04T13:43:54Z</time>
      </trkpt>
      <trkpt lat="45.39769" lon="3.40074">
        <ele>640.6</ele>
        <time>2025-10-04T13:43:57Z</time>
      </trkpt>
      <trkpt lat="45.39769" lon="3.40074">
        <ele>639</ele>
        <time>2025-10-04T13:45:35Z</time>
      </trkpt>
      <trkpt lat="45.39771" lon="3.40075">
        <ele>639</ele>
        <time>2025-10-04T13:45:37Z</time>
      </trkpt>
      <trkpt lat="45.39777" lon="3.40076">
        <ele>639</ele>
        <time>2025-10-04T13:45:40Z</time>
      </trkpt>
      <trkpt lat="45.39784" lon="3.40075">
        <ele>639</ele>
        <time>2025-10-04T13:45:42Z</time>
      </trkpt>
      <trkpt lat="45.39789" lon="3.40075">
        <ele>639</ele>
        <time>2025-10-04T13:45:43Z</time>
      </trkpt>
      <trkpt lat="45.39796" lon="3.40075">
        <ele>638.8</ele>
        <time>2025-10-04T13:45:44Z</time>
      </trkpt>
      <trkpt lat="45.39802" lon="3.40075">
        <ele>638.8</ele>
        <time>2025-10-04T13:45:45Z</time>
      </trkpt>
      <trkpt lat="45.39807" lon="3.40075">
        <ele>638.4</ele>
        <time>2025-10-04T13:45:46Z</time>
      </trkpt>
      <trkpt lat="45.39815" lon="3.40074">
        <ele>638</ele>
        <time>2025-10-04T13:45:48Z</time>
      </trkpt>
      <trkpt lat="45.39822" lon="3.4007">
        <ele>637.2</ele>
        <time>2025-10-04T13:45:50Z</time>
      </trkpt>
      <trkpt lat="45.39825" lon="3.40067">
        <ele>636</ele>
        <time>2025-10-04T13:45:51Z</time>
      </trkpt>
      <trkpt lat="45.39827" lon="3.40064">
        <ele>635</ele>
        <time>2025-10-04T13:45:52Z</time>
      </trkpt>
      <trkpt lat="45.39829" lon="3.40062">
        <ele>633.6</ele>
        <time>2025-10-04T13:45:53Z</time>
      </trkpt>
      <trkpt lat="45.39835" lon="3.40054">
        <ele>632</ele>
        <time>2025-10-04T13:45:55Z</time>
      </trkpt>
      <trkpt lat="45.39841" lon="3.40045">
        <ele>631</ele>
        <time>2025-10-04T13:45:57Z</time>
      </trkpt>
      <trkpt lat="45.39843" lon="3.40039">
        <ele>630.6</ele>
        <time>2025-10-04T13:45:58Z</time>
      </trkpt>
      <trkpt lat="45.39847" lon="3.4003">
        <ele>629.4</ele>
        <time>2025-10-04T13:45:59Z</time>
      </trkpt>
      <trkpt lat="45.39849" lon="3.40023">
        <ele>627.4</ele>
        <time>2025-10-04T13:46:00Z</time>
      </trkpt>
      <trkpt lat="45.39852" lon="3.40014">
        <ele>626.8</ele>
        <time>2025-10-04T13:46:01Z</time>
      </trkpt>
      <trkpt lat="45.39854" lon="3.40009">
        <ele>626</ele>
        <time>2025-10-04T13:46:02Z</time>
      </trkpt>
      <trkpt lat="45.39856" lon="3.40002">
        <ele>624.6</ele>
        <time>2025-10-04T13:46:03Z</time>
      </trkpt>
      <trkpt lat="45.39862" lon="3.39987">
        <ele>622.8</ele>
        <time>2025-10-04T13:46:05Z</time>
      </trkpt>
      <trkpt lat="45.39864" lon="3.39979">
        <ele>622</ele>
        <time>2025-10-04T13:46:06Z</time>
      </trkpt>
      <trkpt lat="45.39865" lon="3.39971">
        <ele>619.8</ele>
        <time>2025-10-04T13:46:07Z</time>
      </trkpt>
      <trkpt lat="45.39865" lon="3.39957">
        <ele>616.6</ele>
        <time>2025-10-04T13:46:09Z</time>
      </trkpt>
      <trkpt lat="45.39866" lon="3.39942">
        <ele>615.4</ele>
        <time>2025-10-04T13:46:11Z</time>
      </trkpt>
      <trkpt lat="45.39863" lon="3.39927">
        <ele>614.8</ele>
        <time>2025-10-04T13:46:13Z</time>
      </trkpt>
      <trkpt lat="45.39852" lon="3.39906">
        <ele>614.4</ele>
        <time>2025-10-04T13:46:17Z</time>
      </trkpt>
      <trkpt lat="45.39847" lon="3.39898">
        <ele>614.4</ele>
        <time>2025-10-04T13:46:18Z</time>
      </trkpt>
      <trkpt lat="45.39842" lon="3.39891">
        <ele>614.4</ele>
        <time>2025-10-04T13:46:19Z</time>
      </trkpt>
      <trkpt lat="45.39832" lon="3.39875">
        <ele>614.2</ele>
        <time>2025-10-04T13:46:22Z</time>
      </trkpt>
      <trkpt lat="45.39816" lon="3.39856">
        <ele>614.4</ele>
        <time>2025-10-04T13:46:27Z</time>
      </trkpt>
      <trkpt lat="45.39801" lon="3.39841">
        <ele>615.2</ele>
        <time>2025-10-04T13:46:32Z</time>
      </trkpt>
      <trkpt lat="45.39798" lon="3.39838">
        <ele>615.4</ele>
        <time>2025-10-04T13:46:33Z</time>
      </trkpt>
      <trkpt lat="45.39796" lon="3.39834">
        <ele>615.8</ele>
        <time>2025-10-04T13:46:35Z</time>
      </trkpt>
      <trkpt lat="45.39794" lon="3.39828">
        <ele>615.8</ele>
        <time>2025-10-04T13:46:37Z</time>
      </trkpt>
      <trkpt lat="45.3979" lon="3.39814">
        <ele>616.2</ele>
        <time>2025-10-04T13:46:40Z</time>
      </trkpt>
      <trkpt lat="45.39788" lon="3.3981">
        <ele>616.2</ele>
        <time>2025-10-04T13:46:41Z</time>
      </trkpt>
      <trkpt lat="45.39778" lon="3.39783">
        <ele>616.2</ele>
        <time>2025-10-04T13:46:46Z</time>
      </trkpt>
      <trkpt lat="45.39772" lon="3.3975">
        <ele>615.2</ele>
        <time>2025-10-04T13:46:52Z</time>
      </trkpt>
      <trkpt lat="45.3977" lon="3.39736">
        <ele>615.2</ele>
        <time>2025-10-04T13:46:54Z</time>
      </trkpt>
      <trkpt lat="45.39772" lon="3.3972">
        <ele>615</ele>
        <time>2025-10-04T13:46:56Z</time>
      </trkpt>
      <trkpt lat="45.39766" lon="3.39699">
        <ele>615</ele>
        <time>2025-10-04T13:47:00Z</time>
      </trkpt>
      <trkpt lat="45.39766" lon="3.39666">
        <ele>616</ele>
        <time>2025-10-04T13:47:07Z</time>
      </trkpt>
      <trkpt lat="45.39766" lon="3.39663">
        <ele>616.2</ele>
        <time>2025-10-04T13:47:08Z</time>
      </trkpt>
      <trkpt lat="45.39764" lon="3.39655">
        <ele>617.4</ele>
        <time>2025-10-04T13:47:12Z</time>
      </trkpt>
      <trkpt lat="45.39756" lon="3.3964">
        <ele>618.4</ele>
        <time>2025-10-04T13:47:17Z</time>
      </trkpt>
      <trkpt lat="45.39754" lon="3.39634">
        <ele>619.4</ele>
        <time>2025-10-04T13:47:20Z</time>
      </trkpt>
      <trkpt lat="45.39753" lon="3.39631">
        <ele>619.8</ele>
        <time>2025-10-04T13:47:21Z</time>
      </trkpt>
      <trkpt lat="45.39752" lon="3.39627">
        <ele>620.8</ele>
        <time>2025-10-04T13:47:23Z</time>
      </trkpt>
      <trkpt lat="45.39752" lon="3.39624">
        <ele>621.2</ele>
        <time>2025-10-04T13:47:24Z</time>
      </trkpt>
      <trkpt lat="45.39751" lon="3.39622">
        <ele>621.4</ele>
        <time>2025-10-04T13:47:25Z</time>
      </trkpt>
      <trkpt lat="45.39749" lon="3.39617">
        <ele>621.6</ele>
        <time>2025-10-04T13:47:27Z</time>
      </trkpt>
      <trkpt lat="45.39746" lon="3.39609">
        <ele>622.4</ele>
        <time>2025-10-04T13:47:31Z</time>
      </trkpt>
      <trkpt lat="45.39741" lon="3.396">
        <ele>622.6</ele>
        <time>2025-10-04T13:47:34Z</time>
      </trkpt>
      <trkpt lat="45.39731" lon="3.39592">
        <ele>623.2</ele>
        <time>2025-10-04T13:47:38Z</time>
      </trkpt>
      <trkpt lat="45.3972" lon="3.39576">
        <ele>623.6</ele>
        <time>2025-10-04T13:47:43Z</time>
      </trkpt>
      <trkpt lat="45.39708" lon="3.39563">
        <ele>623.8</ele>
        <time>2025-10-04T13:47:48Z</time>
      </trkpt>
      <trkpt lat="45.39694" lon="3.39543">
        <ele>623.4</ele>
        <time>2025-10-04T13:47:54Z</time>
      </trkpt>
      <trkpt lat="45.39691" lon="3.39539">
        <ele>623.2</ele>
        <time>2025-10-04T13:47:55Z</time>
      </trkpt>
      <trkpt lat="45.39681" lon="3.39523">
        <ele>622.8</ele>
        <time>2025-10-04T13:47:58Z</time>
      </trkpt>
      <trkpt lat="45.39679" lon="3.39515">
        <ele>621.4</ele>
        <time>2025-10-04T13:47:59Z</time>
      </trkpt>
      <trkpt lat="45.39679" lon="3.39507">
        <ele>620.2</ele>
        <time>2025-10-04T13:48:00Z</time>
      </trkpt>
      <trkpt lat="45.39681" lon="3.3949">
        <ele>619.4</ele>
        <time>2025-10-04T13:48:02Z</time>
      </trkpt>
      <trkpt lat="45.39687" lon="3.39475">
        <ele>618.8</ele>
        <time>2025-10-04T13:48:04Z</time>
      </trkpt>
      <trkpt lat="45.3969" lon="3.39469">
        <ele>618.6</ele>
        <time>2025-10-04T13:48:05Z</time>
      </trkpt>
      <trkpt lat="45.39693" lon="3.39457">
        <ele>617</ele>
        <time>2025-10-04T13:48:07Z</time>
      </trkpt>
      <trkpt lat="45.39696" lon="3.39435">
        <ele>616.2</ele>
        <time>2025-10-04T13:48:12Z</time>
      </trkpt>
      <trkpt lat="45.39696" lon="3.39426">
        <ele>616.4</ele>
        <time>2025-10-04T13:48:14Z</time>
      </trkpt>
      <trkpt lat="45.397" lon="3.39412">
        <ele>617</ele>
        <time>2025-10-04T13:48:18Z</time>
      </trkpt>
      <trkpt lat="45.39708" lon="3.39397">
        <ele>617.2</ele>
        <time>2025-10-04T13:48:23Z</time>
      </trkpt>
      <trkpt lat="45.3971" lon="3.3939">
        <ele>617.4</ele>
        <time>2025-10-04T13:48:25Z</time>
      </trkpt>
      <trkpt lat="45.39714" lon="3.39381">
        <ele>618</ele>
        <time>2025-10-04T13:48:28Z</time>
      </trkpt>
      <trkpt lat="45.39719" lon="3.39375">
        <ele>618.4</ele>
        <time>2025-10-04T13:48:31Z</time>
      </trkpt>
      <trkpt lat="45.39726" lon="3.39366">
        <ele>619.2</ele>
        <time>2025-10-04T13:48:35Z</time>
      </trkpt>
      <trkpt lat="45.39733" lon="3.39357">
        <ele>619.6</ele>
        <time>2025-10-04T13:48:38Z</time>
      </trkpt>
      <trkpt lat="45.39738" lon="3.3935">
        <ele>620.2</ele>
        <time>2025-10-04T13:48:41Z</time>
      </trkpt>
      <trkpt lat="45.39744" lon="3.39342">
        <ele>620.6</ele>
        <time>2025-10-04T13:48:45Z</time>
      </trkpt>
      <trkpt lat="45.39754" lon="3.39325">
        <ele>621.4</ele>
        <time>2025-10-04T13:48:51Z</time>
      </trkpt>
      <trkpt lat="45.39767" lon="3.39306">
        <ele>622.4</ele>
        <time>2025-10-04T13:48:57Z</time>
      </trkpt>
      <trkpt lat="45.39776" lon="3.39293">
        <ele>623.2</ele>
        <time>2025-10-04T13:49:02Z</time>
      </trkpt>
      <trkpt lat="45.39782" lon="3.39286">
        <ele>623.4</ele>
        <time>2025-10-04T13:49:04Z</time>
      </trkpt>
      <trkpt lat="45.39789" lon="3.39272">
        <ele>624.2</ele>
        <time>2025-10-04T13:49:09Z</time>
      </trkpt>
      <trkpt lat="45.39794" lon="3.39266">
        <ele>624.4</ele>
        <time>2025-10-04T13:49:11Z</time>
      </trkpt>
      <trkpt lat="45.39807" lon="3.3925">
        <ele>625</ele>
        <time>2025-10-04T13:49:17Z</time>
      </trkpt>
      <trkpt lat="45.39823" lon="3.39242">
        <ele>625.2</ele>
        <time>2025-10-04T13:49:24Z</time>
      </trkpt>
      <trkpt lat="45.39826" lon="3.39244">
        <ele>625.6</ele>
        <time>2025-10-04T13:49:27Z</time>
      </trkpt>
      <trkpt lat="45.39829" lon="3.39248">
        <ele>625.8</ele>
        <time>2025-10-04T13:49:29Z</time>
      </trkpt>
      <trkpt lat="45.39834" lon="3.39248">
        <ele>626</ele>
        <time>2025-10-04T13:49:30Z</time>
      </trkpt>
      <trkpt lat="45.39838" lon="3.39245">
        <ele>626.2</ele>
        <time>2025-10-04T13:49:31Z</time>
      </trkpt>
      <trkpt lat="45.39844" lon="3.39241">
        <ele>626.4</ele>
        <time>2025-10-04T13:49:33Z</time>
      </trkpt>
      <trkpt lat="45.39846" lon="3.39241">
        <ele>626.4</ele>
        <time>2025-10-04T13:49:34Z</time>
      </trkpt>
      <trkpt lat="45.39865" lon="3.39235">
        <ele>627.2</ele>
        <time>2025-10-04T13:49:40Z</time>
      </trkpt>
      <trkpt lat="45.3987" lon="3.39237">
        <ele>627.4</ele>
        <time>2025-10-04T13:49:42Z</time>
      </trkpt>
      <trkpt lat="45.39884" lon="3.3924">
        <ele>628</ele>
        <time>2025-10-04T13:49:47Z</time>
      </trkpt>
      <trkpt lat="45.39889" lon="3.3924">
        <ele>628.2</ele>
        <time>2025-10-04T13:49:49Z</time>
      </trkpt>
      <trkpt lat="45.399" lon="3.39239">
        <ele>628.8</ele>
        <time>2025-10-04T13:49:53Z</time>
      </trkpt>
      <trkpt lat="45.39909" lon="3.39235">
        <ele>629.2</ele>
        <time>2025-10-04T13:49:57Z</time>
      </trkpt>
      <trkpt lat="45.39916" lon="3.3923">
        <ele>629.4</ele>
        <time>2025-10-04T13:50:00Z</time>
      </trkpt>
      <trkpt lat="45.39935" lon="3.39211">
        <ele>629.8</ele>
        <time>2025-10-04T13:50:08Z</time>
      </trkpt>
      <trkpt lat="45.39947" lon="3.39195">
        <ele>629.6</ele>
        <time>2025-10-04T13:50:13Z</time>
      </trkpt>
      <trkpt lat="45.39966" lon="3.39172">
        <ele>628.6</ele>
        <time>2025-10-04T13:50:19Z</time>
      </trkpt>
      <trkpt lat="45.3998" lon="3.39154">
        <ele>628</ele>
        <time>2025-10-04T13:50:23Z</time>
      </trkpt>
      <trkpt lat="45.39989" lon="3.39146">
        <ele>627.6</ele>
        <time>2025-10-04T13:50:25Z</time>
      </trkpt>
      <trkpt lat="45.40004" lon="3.39135">
        <ele>627.4</ele>
        <time>2025-10-04T13:50:28Z</time>
      </trkpt>
      <trkpt lat="45.40013" lon="3.39129">
        <ele>626.8</ele>
        <time>2025-10-04T13:50:30Z</time>
      </trkpt>
      <trkpt lat="45.40018" lon="3.39129">
        <ele>626.6</ele>
        <time>2025-10-04T13:50:31Z</time>
      </trkpt>
      <trkpt lat="45.40029" lon="3.39126">
        <ele>626.4</ele>
        <time>2025-10-04T13:50:33Z</time>
      </trkpt>
      <trkpt lat="45.4005" lon="3.39118">
        <ele>626</ele>
        <time>2025-10-04T13:50:37Z</time>
      </trkpt>
      <trkpt lat="45.40061" lon="3.39112">
        <ele>625.8</ele>
        <time>2025-10-04T13:50:39Z</time>
      </trkpt>
      <trkpt lat="45.40082" lon="3.39097">
        <ele>625</ele>
        <time>2025-10-04T13:50:43Z</time>
      </trkpt>
      <trkpt lat="45.40087" lon="3.39089">
        <ele>624.8</ele>
        <time>2025-10-04T13:50:44Z</time>
      </trkpt>
      <trkpt lat="45.40088" lon="3.39079">
        <ele>624.6</ele>
        <time>2025-10-04T13:50:45Z</time>
      </trkpt>
      <trkpt lat="45.40089" lon="3.39071">
        <ele>624.4</ele>
        <time>2025-10-04T13:50:46Z</time>
      </trkpt>
      <trkpt lat="45.40089" lon="3.39064">
        <ele>624.4</ele>
        <time>2025-10-04T13:50:47Z</time>
      </trkpt>
      <trkpt lat="45.40085" lon="3.3905">
        <ele>624</ele>
        <time>2025-10-04T13:50:49Z</time>
      </trkpt>
      <trkpt lat="45.40081" lon="3.39036">
        <ele>623.6</ele>
        <time>2025-10-04T13:50:51Z</time>
      </trkpt>
      <trkpt lat="45.4008" lon="3.3903">
        <ele>623.2</ele>
        <time>2025-10-04T13:50:52Z</time>
      </trkpt>
      <trkpt lat="45.40077" lon="3.39015">
        <ele>622.6</ele>
        <time>2025-10-04T13:50:55Z</time>
      </trkpt>
      <trkpt lat="45.40076" lon="3.39002">
        <ele>622</ele>
        <time>2025-10-04T13:50:57Z</time>
      </trkpt>
      <trkpt lat="45.40073" lon="3.3898">
        <ele>621.4</ele>
        <time>2025-10-04T13:51:00Z</time>
      </trkpt>
      <trkpt lat="45.40072" lon="3.38971">
        <ele>621.4</ele>
        <time>2025-10-04T13:51:01Z</time>
      </trkpt>
      <trkpt lat="45.40069" lon="3.38947">
        <ele>621.2</ele>
        <time>2025-10-04T13:51:04Z</time>
      </trkpt>
      <trkpt lat="45.40065" lon="3.3894">
        <ele>621.2</ele>
        <time>2025-10-04T13:51:05Z</time>
      </trkpt>
      <trkpt lat="45.40056" lon="3.38928">
        <ele>621.2</ele>
        <time>2025-10-04T13:51:07Z</time>
      </trkpt>
      <trkpt lat="45.40046" lon="3.38919">
        <ele>621</ele>
        <time>2025-10-04T13:51:09Z</time>
      </trkpt>
      <trkpt lat="45.4004" lon="3.38917">
        <ele>621</ele>
        <time>2025-10-04T13:51:10Z</time>
      </trkpt>
      <trkpt lat="45.40006" lon="3.38911">
        <ele>619.8</ele>
        <time>2025-10-04T13:51:14Z</time>
      </trkpt>
      <trkpt lat="45.39987" lon="3.38913">
        <ele>618.2</ele>
        <time>2025-10-04T13:51:16Z</time>
      </trkpt>
      <trkpt lat="45.39978" lon="3.38917">
        <ele>617.4</ele>
        <time>2025-10-04T13:51:17Z</time>
      </trkpt>
      <trkpt lat="45.3997" lon="3.38925">
        <ele>616.6</ele>
        <time>2025-10-04T13:51:18Z</time>
      </trkpt>
      <trkpt lat="45.39953" lon="3.3894">
        <ele>615.4</ele>
        <time>2025-10-04T13:51:20Z</time>
      </trkpt>
      <trkpt lat="45.39944" lon="3.38948">
        <ele>614.2</ele>
        <time>2025-10-04T13:51:21Z</time>
      </trkpt>
      <trkpt lat="45.39934" lon="3.38956">
        <ele>613.4</ele>
        <time>2025-10-04T13:51:22Z</time>
      </trkpt>
      <trkpt lat="45.39925" lon="3.38963">
        <ele>611.8</ele>
        <time>2025-10-04T13:51:23Z</time>
      </trkpt>
      <trkpt lat="45.39916" lon="3.38968">
        <ele>611.4</ele>
        <time>2025-10-04T13:51:24Z</time>
      </trkpt>
      <trkpt lat="45.39907" lon="3.38972">
        <ele>610</ele>
        <time>2025-10-04T13:51:25Z</time>
      </trkpt>
      <trkpt lat="45.39897" lon="3.38973">
        <ele>609.6</ele>
        <time>2025-10-04T13:51:26Z</time>
      </trkpt>
      <trkpt lat="45.39879" lon="3.38968">
        <ele>608.2</ele>
        <time>2025-10-04T13:51:28Z</time>
      </trkpt>
      <trkpt lat="45.39872" lon="3.38964">
        <ele>607.6</ele>
        <time>2025-10-04T13:51:29Z</time>
      </trkpt>
      <trkpt lat="45.39865" lon="3.3896">
        <ele>606.8</ele>
        <time>2025-10-04T13:51:30Z</time>
      </trkpt>
      <trkpt lat="45.39852" lon="3.38952">
        <ele>605.6</ele>
        <time>2025-10-04T13:51:32Z</time>
      </trkpt>
      <trkpt lat="45.39847" lon="3.38949">
        <ele>605.4</ele>
        <time>2025-10-04T13:51:33Z</time>
      </trkpt>
      <trkpt lat="45.39836" lon="3.38942">
        <ele>605</ele>
        <time>2025-10-04T13:51:35Z</time>
      </trkpt>
      <trkpt lat="45.39823" lon="3.38931">
        <ele>605</ele>
        <time>2025-10-04T13:51:38Z</time>
      </trkpt>
      <trkpt lat="45.3982" lon="3.38927">
        <ele>605.2</ele>
        <time>2025-10-04T13:51:39Z</time>
      </trkpt>
      <trkpt lat="45.3981" lon="3.38919">
        <ele>605.8</ele>
        <time>2025-10-04T13:51:42Z</time>
      </trkpt>
      <trkpt lat="45.398" lon="3.38913">
        <ele>605.8</ele>
        <time>2025-10-04T13:51:44Z</time>
      </trkpt>
      <trkpt lat="45.39786" lon="3.38904">
        <ele>606.4</ele>
        <time>2025-10-04T13:51:47Z</time>
      </trkpt>
      <trkpt lat="45.39766" lon="3.38892">
        <ele>607</ele>
        <time>2025-10-04T13:51:51Z</time>
      </trkpt>
      <trkpt lat="45.39745" lon="3.38884">
        <ele>607.2</ele>
        <time>2025-10-04T13:51:55Z</time>
      </trkpt>
      <trkpt lat="45.3974" lon="3.38884">
        <ele>607.4</ele>
        <time>2025-10-04T13:51:56Z</time>
      </trkpt>
      <trkpt lat="45.39729" lon="3.38884">
        <ele>607.6</ele>
        <time>2025-10-04T13:51:58Z</time>
      </trkpt>
      <trkpt lat="45.39714" lon="3.38891">
        <ele>608</ele>
        <time>2025-10-04T13:52:01Z</time>
      </trkpt>
      <trkpt lat="45.39704" lon="3.38895">
        <ele>608.4</ele>
        <time>2025-10-04T13:52:03Z</time>
      </trkpt>
      <trkpt lat="45.39689" lon="3.38899">
        <ele>608.4</ele>
        <time>2025-10-04T13:52:06Z</time>
      </trkpt>
      <trkpt lat="45.39682" lon="3.3889">
        <ele>608.2</ele>
        <time>2025-10-04T13:52:08Z</time>
      </trkpt>
      <trkpt lat="45.39674" lon="3.38868">
        <ele>607.4</ele>
        <time>2025-10-04T13:52:13Z</time>
      </trkpt>
      <trkpt lat="45.39664" lon="3.38854">
        <ele>607.8</ele>
        <time>2025-10-04T13:52:18Z</time>
      </trkpt>
      <trkpt lat="45.3966" lon="3.38849">
        <ele>608.4</ele>
        <time>2025-10-04T13:52:20Z</time>
      </trkpt>
      <trkpt lat="45.39651" lon="3.38842">
        <ele>610</ele>
        <time>2025-10-04T13:52:24Z</time>
      </trkpt>
      <trkpt lat="45.39646" lon="3.38833">
        <ele>610.8</ele>
        <time>2025-10-04T13:52:27Z</time>
      </trkpt>
      <trkpt lat="45.39644" lon="3.38829">
        <ele>611.2</ele>
        <time>2025-10-04T13:52:28Z</time>
      </trkpt>
      <trkpt lat="45.39639" lon="3.38823">
        <ele>611.6</ele>
        <time>2025-10-04T13:52:31Z</time>
      </trkpt>
      <trkpt lat="45.39636" lon="3.3882">
        <ele>611.8</ele>
        <time>2025-10-04T13:52:32Z</time>
      </trkpt>
      <trkpt lat="45.39631" lon="3.38812">
        <ele>612.2</ele>
        <time>2025-10-04T13:52:35Z</time>
      </trkpt>
      <trkpt lat="45.39626" lon="3.38805">
        <ele>613.2</ele>
        <time>2025-10-04T13:52:38Z</time>
      </trkpt>
      <trkpt lat="45.39623" lon="3.38802">
        <ele>613.8</ele>
        <time>2025-10-04T13:52:40Z</time>
      </trkpt>
      <trkpt lat="45.39618" lon="3.38793">
        <ele>614.4</ele>
        <time>2025-10-04T13:52:44Z</time>
      </trkpt>
      <trkpt lat="45.39616" lon="3.3879">
        <ele>614.8</ele>
        <time>2025-10-04T13:52:45Z</time>
      </trkpt>
      <trkpt lat="45.3961" lon="3.38778">
        <ele>615.4</ele>
        <time>2025-10-04T13:52:50Z</time>
      </trkpt>
      <trkpt lat="45.39606" lon="3.38768">
        <ele>616</ele>
        <time>2025-10-04T13:52:54Z</time>
      </trkpt>
      <trkpt lat="45.39602" lon="3.38761">
        <ele>616.6</ele>
        <time>2025-10-04T13:52:57Z</time>
      </trkpt>
      <trkpt lat="45.39596" lon="3.38747">
        <ele>617</ele>
        <time>2025-10-04T13:53:02Z</time>
      </trkpt>
      <trkpt lat="45.39591" lon="3.38733">
        <ele>617.6</ele>
        <time>2025-10-04T13:53:07Z</time>
      </trkpt>
      <trkpt lat="45.39588" lon="3.38726">
        <ele>617.8</ele>
        <time>2025-10-04T13:53:10Z</time>
      </trkpt>
      <trkpt lat="45.39581" lon="3.38719">
        <ele>617.8</ele>
        <time>2025-10-04T13:53:13Z</time>
      </trkpt>
      <trkpt lat="45.39576" lon="3.38718">
        <ele>617.8</ele>
        <time>2025-10-04T13:53:14Z</time>
      </trkpt>
      <trkpt lat="45.39571" lon="3.38717">
        <ele>617.8</ele>
        <time>2025-10-04T13:53:15Z</time>
      </trkpt>
      <trkpt lat="45.3955" lon="3.38717">
        <ele>617.2</ele>
        <time>2025-10-04T13:53:18Z</time>
      </trkpt>
      <trkpt lat="45.39535" lon="3.38716">
        <ele>615.6</ele>
        <time>2025-10-04T13:53:20Z</time>
      </trkpt>
      <trkpt lat="45.3952" lon="3.38717">
        <ele>614.4</ele>
        <time>2025-10-04T13:53:22Z</time>
      </trkpt>
      <trkpt lat="45.39505" lon="3.38718">
        <ele>612.4</ele>
        <time>2025-10-04T13:53:24Z</time>
      </trkpt>
      <trkpt lat="45.39498" lon="3.38718">
        <ele>610.6</ele>
        <time>2025-10-04T13:53:25Z</time>
      </trkpt>
      <trkpt lat="45.39491" lon="3.38719">
        <ele>610</ele>
        <time>2025-10-04T13:53:26Z</time>
      </trkpt>
      <trkpt lat="45.39485" lon="3.38718">
        <ele>609</ele>
        <time>2025-10-04T13:53:27Z</time>
      </trkpt>
      <trkpt lat="45.39481" lon="3.38716">
        <ele>608</ele>
        <time>2025-10-04T13:53:28Z</time>
      </trkpt>
      <trkpt lat="45.39479" lon="3.38713">
        <ele>606.2</ele>
        <time>2025-10-04T13:53:29Z</time>
      </trkpt>
      <trkpt lat="45.39479" lon="3.38708">
        <ele>605.4</ele>
        <time>2025-10-04T13:53:30Z</time>
      </trkpt>
      <trkpt lat="45.3948" lon="3.38703">
        <ele>604</ele>
        <time>2025-10-04T13:53:31Z</time>
      </trkpt>
      <trkpt lat="45.39486" lon="3.38693">
        <ele>603</ele>
        <time>2025-10-04T13:53:33Z</time>
      </trkpt>
      <trkpt lat="45.3949" lon="3.38687">
        <ele>602.6</ele>
        <time>2025-10-04T13:53:34Z</time>
      </trkpt>
      <trkpt lat="45.39494" lon="3.38681">
        <ele>602.2</ele>
        <time>2025-10-04T13:53:35Z</time>
      </trkpt>
      <trkpt lat="45.39499" lon="3.38676">
        <ele>601</ele>
        <time>2025-10-04T13:53:36Z</time>
      </trkpt>
      <trkpt lat="45.39504" lon="3.38671">
        <ele>600.4</ele>
        <time>2025-10-04T13:53:37Z</time>
      </trkpt>
      <trkpt lat="45.3951" lon="3.38665">
        <ele>599.6</ele>
        <time>2025-10-04T13:53:38Z</time>
      </trkpt>
      <trkpt lat="45.39516" lon="3.38657">
        <ele>598</ele>
        <time>2025-10-04T13:53:39Z</time>
      </trkpt>
      <trkpt lat="45.39523" lon="3.38642">
        <ele>595.4</ele>
        <time>2025-10-04T13:53:41Z</time>
      </trkpt>
      <trkpt lat="45.39525" lon="3.38622">
        <ele>593</ele>
        <time>2025-10-04T13:53:43Z</time>
      </trkpt>
      <trkpt lat="45.39526" lon="3.3861">
        <ele>592.2</ele>
        <time>2025-10-04T13:53:44Z</time>
      </trkpt>
      <trkpt lat="45.39525" lon="3.38597">
        <ele>590.4</ele>
        <time>2025-10-04T13:53:45Z</time>
      </trkpt>
      <trkpt lat="45.39524" lon="3.38585">
        <ele>588.6</ele>
        <time>2025-10-04T13:53:46Z</time>
      </trkpt>
      <trkpt lat="45.39523" lon="3.38562">
        <ele>586.8</ele>
        <time>2025-10-04T13:53:48Z</time>
      </trkpt>
      <trkpt lat="45.3952" lon="3.38541">
        <ele>583.4</ele>
        <time>2025-10-04T13:53:50Z</time>
      </trkpt>
      <trkpt lat="45.39519" lon="3.38531">
        <ele>582.4</ele>
        <time>2025-10-04T13:53:51Z</time>
      </trkpt>
      <trkpt lat="45.39519" lon="3.38521">
        <ele>580.4</ele>
        <time>2025-10-04T13:53:52Z</time>
      </trkpt>
      <trkpt lat="45.39518" lon="3.38515">
        <ele>579.2</ele>
        <time>2025-10-04T13:53:53Z</time>
      </trkpt>
      <trkpt lat="45.3952" lon="3.38505">
        <ele>578</ele>
        <time>2025-10-04T13:53:55Z</time>
      </trkpt>
      <trkpt lat="45.39522" lon="3.38499">
        <ele>577.2</ele>
        <time>2025-10-04T13:53:56Z</time>
      </trkpt>
      <trkpt lat="45.39525" lon="3.38495">
        <ele>575.8</ele>
        <time>2025-10-04T13:53:57Z</time>
      </trkpt>
      <trkpt lat="45.39527" lon="3.3849">
        <ele>575.4</ele>
        <time>2025-10-04T13:53:58Z</time>
      </trkpt>
      <trkpt lat="45.39528" lon="3.38486">
        <ele>574.6</ele>
        <time>2025-10-04T13:53:59Z</time>
      </trkpt>
      <trkpt lat="45.39528" lon="3.38483">
        <ele>573.8</ele>
        <time>2025-10-04T13:54:00Z</time>
      </trkpt>
      <trkpt lat="45.39526" lon="3.38478">
        <ele>572.6</ele>
        <time>2025-10-04T13:54:02Z</time>
      </trkpt>
      <trkpt lat="45.39525" lon="3.38478">
        <ele>572</ele>
        <time>2025-10-04T13:54:03Z</time>
      </trkpt>
      <trkpt lat="45.39524" lon="3.38478">
        <ele>571</ele>
        <time>2025-10-04T13:54:04Z</time>
      </trkpt>
      <trkpt lat="45.39524" lon="3.38478">
        <ele>569.6</ele>
        <time>2025-10-04T13:54:05Z</time>
      </trkpt>
      <trkpt lat="45.39524" lon="3.38478">
        <ele>568</ele>
        <time>2025-10-04T13:54:07Z</time>
      </trkpt>
      <trkpt lat="45.39524" lon="3.38478">
        <ele>566.8</ele>
        <time>2025-10-04T13:54:09Z</time>
      </trkpt>
      <trkpt lat="45.39524" lon="3.38478">
        <ele>566.4</ele>
        <time>2025-10-04T13:54:13Z</time>
      </trkpt>
      <trkpt lat="45.39524" lon="3.38478">
        <ele>566.4</ele>
        <time>2025-10-04T13:54:15Z</time>
      </trkpt>
      <trkpt lat="45.39524" lon="3.38478">
        <ele>566.2</ele>
        <time>2025-10-04T13:54:29Z</time>
      </trkpt>
      <trkpt lat="45.39521" lon="3.38475">
        <ele>566</ele>
        <time>2025-10-04T13:54:34Z</time>
      </trkpt>
      <trkpt lat="45.39519" lon="3.38473">
        <ele>565.8</ele>
        <time>2025-10-04T13:54:35Z</time>
      </trkpt>
      <trkpt lat="45.39516" lon="3.38471">
        <ele>565.8</ele>
        <time>2025-10-04T13:54:36Z</time>
      </trkpt>
      <trkpt lat="45.3951" lon="3.38466">
        <ele>565</ele>
        <time>2025-10-04T13:54:40Z</time>
      </trkpt>
      <trkpt lat="45.39507" lon="3.38464">
        <ele>564.6</ele>
        <time>2025-10-04T13:54:41Z</time>
      </trkpt>
      <trkpt lat="45.39502" lon="3.3846">
        <ele>563.6</ele>
        <time>2025-10-04T13:54:43Z</time>
      </trkpt>
      <trkpt lat="45.39496" lon="3.38454">
        <ele>563</ele>
        <time>2025-10-04T13:54:45Z</time>
      </trkpt>
      <trkpt lat="45.39493" lon="3.38451">
        <ele>562.4</ele>
        <time>2025-10-04T13:54:46Z</time>
      </trkpt>
      <trkpt lat="45.39487" lon="3.38444">
        <ele>561</ele>
        <time>2025-10-04T13:54:48Z</time>
      </trkpt>
      <trkpt lat="45.39485" lon="3.38439">
        <ele>560</ele>
        <time>2025-10-04T13:54:49Z</time>
      </trkpt>
      <trkpt lat="45.39484" lon="3.38435">
        <ele>559.8</ele>
        <time>2025-10-04T13:54:50Z</time>
      </trkpt>
      <trkpt lat="45.39485" lon="3.38429">
        <ele>558.6</ele>
        <time>2025-10-04T13:54:51Z</time>
      </trkpt>
      <trkpt lat="45.39489" lon="3.3842">
        <ele>557</ele>
        <time>2025-10-04T13:54:53Z</time>
      </trkpt>
      <trkpt lat="45.39496" lon="3.38411">
        <ele>555.6</ele>
        <time>2025-10-04T13:54:55Z</time>
      </trkpt>
      <trkpt lat="45.39499" lon="3.38405">
        <ele>554.8</ele>
        <time>2025-10-04T13:54:56Z</time>
      </trkpt>
      <trkpt lat="45.39502" lon="3.38401">
        <ele>554.4</ele>
        <time>2025-10-04T13:54:57Z</time>
      </trkpt>
      <trkpt lat="45.39503" lon="3.38396">
        <ele>553.2</ele>
        <time>2025-10-04T13:54:58Z</time>
      </trkpt>
      <trkpt lat="45.39502" lon="3.38382">
        <ele>551.4</ele>
        <time>2025-10-04T13:55:00Z</time>
      </trkpt>
      <trkpt lat="45.39499" lon="3.38374">
        <ele>550.2</ele>
        <time>2025-10-04T13:55:01Z</time>
      </trkpt>
      <trkpt lat="45.39497" lon="3.38365">
        <ele>549.8</ele>
        <time>2025-10-04T13:55:02Z</time>
      </trkpt>
      <trkpt lat="45.39496" lon="3.38353">
        <ele>548.6</ele>
        <time>2025-10-04T13:55:03Z</time>
      </trkpt>
      <trkpt lat="45.39493" lon="3.38342">
        <ele>547.8</ele>
        <time>2025-10-04T13:55:04Z</time>
      </trkpt>
      <trkpt lat="45.39491" lon="3.38329">
        <ele>546.4</ele>
        <time>2025-10-04T13:55:05Z</time>
      </trkpt>
      <trkpt lat="45.39486" lon="3.38306">
        <ele>544</ele>
        <time>2025-10-04T13:55:07Z</time>
      </trkpt>
      <trkpt lat="45.39484" lon="3.38297">
        <ele>542.8</ele>
        <time>2025-10-04T13:55:08Z</time>
      </trkpt>
      <trkpt lat="45.39479" lon="3.38278">
        <ele>539.6</ele>
        <time>2025-10-04T13:55:10Z</time>
      </trkpt>
      <trkpt lat="45.39477" lon="3.38268">
        <ele>538.8</ele>
        <time>2025-10-04T13:55:11Z</time>
      </trkpt>
      <trkpt lat="45.39476" lon="3.38261">
        <ele>537.8</ele>
        <time>2025-10-04T13:55:12Z</time>
      </trkpt>
      <trkpt lat="45.39476" lon="3.38255">
        <ele>537.2</ele>
        <time>2025-10-04T13:55:13Z</time>
      </trkpt>
      <trkpt lat="45.39477" lon="3.3825">
        <ele>536.6</ele>
        <time>2025-10-04T13:55:14Z</time>
      </trkpt>
      <trkpt lat="45.39479" lon="3.38245">
        <ele>536</ele>
        <time>2025-10-04T13:55:15Z</time>
      </trkpt>
      <trkpt lat="45.39479" lon="3.38233">
        <ele>534.4</ele>
        <time>2025-10-04T13:55:17Z</time>
      </trkpt>
      <trkpt lat="45.39476" lon="3.38228">
        <ele>533.8</ele>
        <time>2025-10-04T13:55:18Z</time>
      </trkpt>
      <trkpt lat="45.39471" lon="3.38223">
        <ele>532.2</ele>
        <time>2025-10-04T13:55:19Z</time>
      </trkpt>
      <trkpt lat="45.39464" lon="3.38213">
        <ele>530.4</ele>
        <time>2025-10-04T13:55:21Z</time>
      </trkpt>
      <trkpt lat="45.39458" lon="3.38204">
        <ele>529</ele>
        <time>2025-10-04T13:55:23Z</time>
      </trkpt>
      <trkpt lat="45.39455" lon="3.38195">
        <ele>527.2</ele>
        <time>2025-10-04T13:55:25Z</time>
      </trkpt>
      <trkpt lat="45.39452" lon="3.38191">
        <ele>525.8</ele>
        <time>2025-10-04T13:55:26Z</time>
      </trkpt>
      <trkpt lat="45.39448" lon="3.38184">
        <ele>524.2</ele>
        <time>2025-10-04T13:55:28Z</time>
      </trkpt>
      <trkpt lat="45.39446" lon="3.38181">
        <ele>522.6</ele>
        <time>2025-10-04T13:55:29Z</time>
      </trkpt>
      <trkpt lat="45.39442" lon="3.38176">
        <ele>520.2</ele>
        <time>2025-10-04T13:55:31Z</time>
      </trkpt>
      <trkpt lat="45.39437" lon="3.38168">
        <ele>518.6</ele>
        <time>2025-10-04T13:55:33Z</time>
      </trkpt>
      <trkpt lat="45.39433" lon="3.38163">
        <ele>517.8</ele>
        <time>2025-10-04T13:55:35Z</time>
      </trkpt>
      <trkpt lat="45.39428" lon="3.38156">
        <ele>516.8</ele>
        <time>2025-10-04T13:55:37Z</time>
      </trkpt>
      <trkpt lat="45.39421" lon="3.3815">
        <ele>515</ele>
        <time>2025-10-04T13:55:39Z</time>
      </trkpt>
      <trkpt lat="45.39417" lon="3.38148">
        <ele>513.8</ele>
        <time>2025-10-04T13:55:40Z</time>
      </trkpt>
      <trkpt lat="45.39413" lon="3.38149">
        <ele>511.6</ele>
        <time>2025-10-04T13:55:41Z</time>
      </trkpt>
      <trkpt lat="45.39406" lon="3.38153">
        <ele>510.2</ele>
        <time>2025-10-04T13:55:43Z</time>
      </trkpt>
      <trkpt lat="45.39395" lon="3.38156">
        <ele>509</ele>
        <time>2025-10-04T13:55:46Z</time>
      </trkpt>
      <trkpt lat="45.39392" lon="3.38158">
        <ele>507.6</ele>
        <time>2025-10-04T13:55:47Z</time>
      </trkpt>
      <trkpt lat="45.39389" lon="3.38161">
        <ele>506.4</ele>
        <time>2025-10-04T13:55:48Z</time>
      </trkpt>
      <trkpt lat="45.39383" lon="3.3817">
        <ele>505</ele>
        <time>2025-10-04T13:55:50Z</time>
      </trkpt>
      <trkpt lat="45.39378" lon="3.38178">
        <ele>503.2</ele>
        <time>2025-10-04T13:55:52Z</time>
      </trkpt>
      <trkpt lat="45.39373" lon="3.38187">
        <ele>501</ele>
        <time>2025-10-04T13:55:54Z</time>
      </trkpt>
      <trkpt lat="45.39371" lon="3.3819">
        <ele>500.2</ele>
        <time>2025-10-04T13:55:55Z</time>
      </trkpt>
      <trkpt lat="45.39368" lon="3.38193">
        <ele>499.6</ele>
        <time>2025-10-04T13:55:56Z</time>
      </trkpt>
      <trkpt lat="45.39364" lon="3.38191">
        <ele>498.6</ele>
        <time>2025-10-04T13:55:58Z</time>
      </trkpt>
      <trkpt lat="45.39367" lon="3.3818">
        <ele>497</ele>
        <time>2025-10-04T13:56:01Z</time>
      </trkpt>
      <trkpt lat="45.3937" lon="3.38165">
        <ele>495.8</ele>
        <time>2025-10-04T13:56:05Z</time>
      </trkpt>
      <trkpt lat="45.39372" lon="3.38156">
        <ele>495</ele>
        <time>2025-10-04T13:56:07Z</time>
      </trkpt>
      <trkpt lat="45.39374" lon="3.38152">
        <ele>494.2</ele>
        <time>2025-10-04T13:56:08Z</time>
      </trkpt>
      <trkpt lat="45.39378" lon="3.38139">
        <ele>492.4</ele>
        <time>2025-10-04T13:56:11Z</time>
      </trkpt>
      <trkpt lat="45.39382" lon="3.38131">
        <ele>490.4</ele>
        <time>2025-10-04T13:56:13Z</time>
      </trkpt>
      <trkpt lat="45.39383" lon="3.38122">
        <ele>489.2</ele>
        <time>2025-10-04T13:56:15Z</time>
      </trkpt>
      <trkpt lat="45.39383" lon="3.38109">
        <ele>487.4</ele>
        <time>2025-10-04T13:56:18Z</time>
      </trkpt>
      <trkpt lat="45.39383" lon="3.381">
        <ele>486</ele>
        <time>2025-10-04T13:56:20Z</time>
      </trkpt>
      <trkpt lat="45.39381" lon="3.38082">
        <ele>484.6</ele>
        <time>2025-10-04T13:56:23Z</time>
      </trkpt>
      <trkpt lat="45.39381" lon="3.38069">
        <ele>483.8</ele>
        <time>2025-10-04T13:56:25Z</time>
      </trkpt>
      <trkpt lat="45.39381" lon="3.38062">
        <ele>483.4</ele>
        <time>2025-10-04T13:56:26Z</time>
      </trkpt>
      <trkpt lat="45.3938" lon="3.38055">
        <ele>482.2</ele>
        <time>2025-10-04T13:56:27Z</time>
      </trkpt>
      <trkpt lat="45.39378" lon="3.38041">
        <ele>481.2</ele>
        <time>2025-10-04T13:56:29Z</time>
      </trkpt>
      <trkpt lat="45.39378" lon="3.38027">
        <ele>480</ele>
        <time>2025-10-04T13:56:31Z</time>
      </trkpt>
      <trkpt lat="45.3938" lon="3.38013">
        <ele>479.4</ele>
        <time>2025-10-04T13:56:33Z</time>
      </trkpt>
      <trkpt lat="45.39384" lon="3.37999">
        <ele>479</ele>
        <time>2025-10-04T13:56:35Z</time>
      </trkpt>
      <trkpt lat="45.39387" lon="3.37994">
        <ele>478.8</ele>
        <time>2025-10-04T13:56:36Z</time>
      </trkpt>
      <trkpt lat="45.39391" lon="3.37988">
        <ele>478.2</ele>
        <time>2025-10-04T13:56:37Z</time>
      </trkpt>
      <trkpt lat="45.39397" lon="3.37972">
        <ele>477.8</ele>
        <time>2025-10-04T13:56:39Z</time>
      </trkpt>
      <trkpt lat="45.39398" lon="3.37963">
        <ele>477.6</ele>
        <time>2025-10-04T13:56:40Z</time>
      </trkpt>
      <trkpt lat="45.39397" lon="3.37946">
        <ele>476.6</ele>
        <time>2025-10-04T13:56:42Z</time>
      </trkpt>
      <trkpt lat="45.39396" lon="3.37928">
        <ele>475.2</ele>
        <time>2025-10-04T13:56:44Z</time>
      </trkpt>
      <trkpt lat="45.39394" lon="3.37911">
        <ele>474.8</ele>
        <time>2025-10-04T13:56:46Z</time>
      </trkpt>
      <trkpt lat="45.39393" lon="3.37903">
        <ele>474.6</ele>
        <time>2025-10-04T13:56:47Z</time>
      </trkpt>
      <trkpt lat="45.3939" lon="3.37889">
        <ele>474.4</ele>
        <time>2025-10-04T13:56:49Z</time>
      </trkpt>
      <trkpt lat="45.39386" lon="3.37883">
        <ele>474.2</ele>
        <time>2025-10-04T13:56:50Z</time>
      </trkpt>
      <trkpt lat="45.39382" lon="3.37878">
        <ele>474.2</ele>
        <time>2025-10-04T13:56:51Z</time>
      </trkpt>
      <trkpt lat="45.39372" lon="3.3787">
        <ele>474</ele>
        <time>2025-10-04T13:56:53Z</time>
      </trkpt>
      <trkpt lat="45.39366" lon="3.37865">
        <ele>474</ele>
        <time>2025-10-04T13:56:54Z</time>
      </trkpt>
      <trkpt lat="45.39354" lon="3.37856">
        <ele>473.6</ele>
        <time>2025-10-04T13:56:56Z</time>
      </trkpt>
      <trkpt lat="45.3935" lon="3.3785">
        <ele>472.8</ele>
        <time>2025-10-04T13:56:57Z</time>
      </trkpt>
      <trkpt lat="45.39346" lon="3.37842">
        <ele>471.6</ele>
        <time>2025-10-04T13:56:58Z</time>
      </trkpt>
      <trkpt lat="45.3934" lon="3.37825">
        <ele>470.4</ele>
        <time>2025-10-04T13:57:00Z</time>
      </trkpt>
      <trkpt lat="45.39338" lon="3.37817">
        <ele>470</ele>
        <time>2025-10-04T13:57:01Z</time>
      </trkpt>
      <trkpt lat="45.39335" lon="3.378">
        <ele>469</ele>
        <time>2025-10-04T13:57:03Z</time>
      </trkpt>
      <trkpt lat="45.39333" lon="3.37793">
        <ele>468</ele>
        <time>2025-10-04T13:57:04Z</time>
      </trkpt>
      <trkpt lat="45.39332" lon="3.37787">
        <ele>466.8</ele>
        <time>2025-10-04T13:57:05Z</time>
      </trkpt>
      <trkpt lat="45.39332" lon="3.37781">
        <ele>466.2</ele>
        <time>2025-10-04T13:57:06Z</time>
      </trkpt>
      <trkpt lat="45.39331" lon="3.37775">
        <ele>465</ele>
        <time>2025-10-04T13:57:07Z</time>
      </trkpt>
      <trkpt lat="45.39333" lon="3.37768">
        <ele>463.2</ele>
        <time>2025-10-04T13:57:09Z</time>
      </trkpt>
      <trkpt lat="45.39336" lon="3.37765">
        <ele>462.4</ele>
        <time>2025-10-04T13:57:10Z</time>
      </trkpt>
      <trkpt lat="45.39337" lon="3.37765">
        <ele>461.4</ele>
        <time>2025-10-04T13:57:11Z</time>
      </trkpt>
      <trkpt lat="45.39339" lon="3.37772">
        <ele>460.4</ele>
        <time>2025-10-04T13:57:13Z</time>
      </trkpt>
      <trkpt lat="45.39341" lon="3.37777">
        <ele>460</ele>
        <time>2025-10-04T13:57:14Z</time>
      </trkpt>
      <trkpt lat="45.39347" lon="3.3779">
        <ele>459</ele>
        <time>2025-10-04T13:57:16Z</time>
      </trkpt>
      <trkpt lat="45.39355" lon="3.37806">
        <ele>458</ele>
        <time>2025-10-04T13:57:18Z</time>
      </trkpt>
      <trkpt lat="45.39363" lon="3.37819">
        <ele>457.4</ele>
        <time>2025-10-04T13:57:20Z</time>
      </trkpt>
      <trkpt lat="45.39368" lon="3.37825">
        <ele>457</ele>
        <time>2025-10-04T13:57:21Z</time>
      </trkpt>
      <trkpt lat="45.39384" lon="3.37838">
        <ele>456.4</ele>
        <time>2025-10-04T13:57:24Z</time>
      </trkpt>
      <trkpt lat="45.39388" lon="3.37843">
        <ele>455.8</ele>
        <time>2025-10-04T13:57:25Z</time>
      </trkpt>
      <trkpt lat="45.39403" lon="3.37861">
        <ele>454.6</ele>
        <time>2025-10-04T13:57:28Z</time>
      </trkpt>
      <trkpt lat="45.39407" lon="3.37868">
        <ele>454.6</ele>
        <time>2025-10-04T13:57:29Z</time>
      </trkpt>
      <trkpt lat="45.39421" lon="3.37895">
        <ele>454.2</ele>
        <time>2025-10-04T13:57:32Z</time>
      </trkpt>
      <trkpt lat="45.39429" lon="3.37915">
        <ele>453.4</ele>
        <time>2025-10-04T13:57:34Z</time>
      </trkpt>
      <trkpt lat="45.39436" lon="3.37935">
        <ele>452.2</ele>
        <time>2025-10-04T13:57:36Z</time>
      </trkpt>
      <trkpt lat="45.39439" lon="3.37945">
        <ele>451.6</ele>
        <time>2025-10-04T13:57:37Z</time>
      </trkpt>
      <trkpt lat="45.39444" lon="3.37953">
        <ele>449.6</ele>
        <time>2025-10-04T13:57:38Z</time>
      </trkpt>
      <trkpt lat="45.39448" lon="3.37962">
        <ele>449</ele>
        <time>2025-10-04T13:57:39Z</time>
      </trkpt>
      <trkpt lat="45.39454" lon="3.37972">
        <ele>448</ele>
        <time>2025-10-04T13:57:40Z</time>
      </trkpt>
      <trkpt lat="45.3946" lon="3.37982">
        <ele>447.4</ele>
        <time>2025-10-04T13:57:41Z</time>
      </trkpt>
      <trkpt lat="45.39465" lon="3.37991">
        <ele>446.8</ele>
        <time>2025-10-04T13:57:42Z</time>
      </trkpt>
      <trkpt lat="45.39475" lon="3.38006">
        <ele>446</ele>
        <time>2025-10-04T13:57:44Z</time>
      </trkpt>
      <trkpt lat="45.3948" lon="3.38011">
        <ele>445.6</ele>
        <time>2025-10-04T13:57:45Z</time>
      </trkpt>
      <trkpt lat="45.39486" lon="3.38017">
        <ele>445.4</ele>
        <time>2025-10-04T13:57:46Z</time>
      </trkpt>
      <trkpt lat="45.3949" lon="3.38022">
        <ele>443.8</ele>
        <time>2025-10-04T13:57:47Z</time>
      </trkpt>
      <trkpt lat="45.39504" lon="3.38022">
        <ele>442.6</ele>
        <time>2025-10-04T13:57:49Z</time>
      </trkpt>
      <trkpt lat="45.39529" lon="3.38021">
        <ele>441</ele>
        <time>2025-10-04T13:57:52Z</time>
      </trkpt>
      <trkpt lat="45.39535" lon="3.38022">
        <ele>440.4</ele>
        <time>2025-10-04T13:57:53Z</time>
      </trkpt>
      <trkpt lat="45.39542" lon="3.38022">
        <ele>438.4</ele>
        <time>2025-10-04T13:57:54Z</time>
      </trkpt>
      <trkpt lat="45.39546" lon="3.3802">
        <ele>437.6</ele>
        <time>2025-10-04T13:57:55Z</time>
      </trkpt>
      <trkpt lat="45.39549" lon="3.38014">
        <ele>436.2</ele>
        <time>2025-10-04T13:57:56Z</time>
      </trkpt>
      <trkpt lat="45.39547" lon="3.38">
        <ele>434</ele>
        <time>2025-10-04T13:57:58Z</time>
      </trkpt>
      <trkpt lat="45.39544" lon="3.37992">
        <ele>433</ele>
        <time>2025-10-04T13:57:59Z</time>
      </trkpt>
      <trkpt lat="45.39541" lon="3.37987">
        <ele>432.6</ele>
        <time>2025-10-04T13:58:00Z</time>
      </trkpt>
      <trkpt lat="45.39538" lon="3.37982">
        <ele>431.6</ele>
        <time>2025-10-04T13:58:01Z</time>
      </trkpt>
      <trkpt lat="45.39531" lon="3.37972">
        <ele>431</ele>
        <time>2025-10-04T13:58:03Z</time>
      </trkpt>
      <trkpt lat="45.39521" lon="3.37956">
        <ele>430.4</ele>
        <time>2025-10-04T13:58:06Z</time>
      </trkpt>
      <trkpt lat="45.39509" lon="3.37941">
        <ele>430.4</ele>
        <time>2025-10-04T13:58:09Z</time>
      </trkpt>
      <trkpt lat="45.39505" lon="3.37937">
        <ele>430.4</ele>
        <time>2025-10-04T13:58:10Z</time>
      </trkpt>
      <trkpt lat="45.3949" lon="3.37928">
        <ele>430.2</ele>
        <time>2025-10-04T13:58:14Z</time>
      </trkpt>
      <trkpt lat="45.3947" lon="3.37922">
        <ele>429.6</ele>
        <time>2025-10-04T13:58:18Z</time>
      </trkpt>
      <trkpt lat="45.39465" lon="3.3792">
        <ele>429.6</ele>
        <time>2025-10-04T13:58:19Z</time>
      </trkpt>
      <trkpt lat="45.3946" lon="3.37916">
        <ele>429.4</ele>
        <time>2025-10-04T13:58:20Z</time>
      </trkpt>
      <trkpt lat="45.39458" lon="3.3791">
        <ele>429.4</ele>
        <time>2025-10-04T13:58:21Z</time>
      </trkpt>
      <trkpt lat="45.39457" lon="3.37905">
        <ele>429.2</ele>
        <time>2025-10-04T13:58:22Z</time>
      </trkpt>
      <trkpt lat="45.39455" lon="3.37893">
        <ele>429</ele>
        <time>2025-10-04T13:58:24Z</time>
      </trkpt>
      <trkpt lat="45.39448" lon="3.37871">
        <ele>428.4</ele>
        <time>2025-10-04T13:58:27Z</time>
      </trkpt>
      <trkpt lat="45.39438" lon="3.37844">
        <ele>428</ele>
        <time>2025-10-04T13:58:31Z</time>
      </trkpt>
      <trkpt lat="45.39434" lon="3.37832">
        <ele>427.8</ele>
        <time>2025-10-04T13:58:33Z</time>
      </trkpt>
      <trkpt lat="45.39432" lon="3.37825">
        <ele>427.8</ele>
        <time>2025-10-04T13:58:34Z</time>
      </trkpt>
      <trkpt lat="45.39427" lon="3.37813">
        <ele>427.6</ele>
        <time>2025-10-04T13:58:36Z</time>
      </trkpt>
      <trkpt lat="45.39418" lon="3.37797">
        <ele>427.4</ele>
        <time>2025-10-04T13:58:39Z</time>
      </trkpt>
      <trkpt lat="45.39411" lon="3.3778">
        <ele>427.2</ele>
        <time>2025-10-04T13:58:42Z</time>
      </trkpt>
      <trkpt lat="45.39404" lon="3.37762">
        <ele>427.2</ele>
        <time>2025-10-04T13:58:45Z</time>
      </trkpt>
      <trkpt lat="45.39403" lon="3.37755">
        <ele>427.2</ele>
        <time>2025-10-04T13:58:46Z</time>
      </trkpt>
      <trkpt lat="45.39401" lon="3.3774">
        <ele>427.2</ele>
        <time>2025-10-04T13:58:49Z</time>
      </trkpt>
      <trkpt lat="45.39402" lon="3.37724">
        <ele>427.2</ele>
        <time>2025-10-04T13:58:52Z</time>
      </trkpt>
      <trkpt lat="45.39401" lon="3.37682">
        <ele>427.6</ele>
        <time>2025-10-04T13:58:58Z</time>
      </trkpt>
      <trkpt lat="45.39396" lon="3.37658">
        <ele>427.4</ele>
        <time>2025-10-04T13:59:01Z</time>
      </trkpt>
      <trkpt lat="45.39397" lon="3.37649">
        <ele>427.2</ele>
        <time>2025-10-04T13:59:02Z</time>
      </trkpt>
      <trkpt lat="45.39399" lon="3.37641">
        <ele>427.2</ele>
        <time>2025-10-04T13:59:03Z</time>
      </trkpt>
      <trkpt lat="45.39403" lon="3.37634">
        <ele>426.8</ele>
        <time>2025-10-04T13:59:04Z</time>
      </trkpt>
      <trkpt lat="45.39406" lon="3.37627">
        <ele>426.6</ele>
        <time>2025-10-04T13:59:05Z</time>
      </trkpt>
      <trkpt lat="45.39413" lon="3.37607">
        <ele>426</ele>
        <time>2025-10-04T13:59:08Z</time>
      </trkpt>
      <trkpt lat="45.39415" lon="3.37594">
        <ele>425.8</ele>
        <time>2025-10-04T13:59:10Z</time>
      </trkpt>
      <trkpt lat="45.39413" lon="3.37574">
        <ele>425.8</ele>
        <time>2025-10-04T13:59:13Z</time>
      </trkpt>
      <trkpt lat="45.39411" lon="3.37568">
        <ele>425.6</ele>
        <time>2025-10-04T13:59:14Z</time>
      </trkpt>
      <trkpt lat="45.3941" lon="3.37563">
        <ele>425.6</ele>
        <time>2025-10-04T13:59:15Z</time>
      </trkpt>
      <trkpt lat="45.39402" lon="3.37543">
        <ele>425.8</ele>
        <time>2025-10-04T13:59:19Z</time>
      </trkpt>
      <trkpt lat="45.394" lon="3.37538">
        <ele>425.6</ele>
        <time>2025-10-04T13:59:20Z</time>
      </trkpt>
      <trkpt lat="45.39395" lon="3.37529">
        <ele>425.6</ele>
        <time>2025-10-04T13:59:22Z</time>
      </trkpt>
      <trkpt lat="45.39388" lon="3.37514">
        <ele>425.6</ele>
        <time>2025-10-04T13:59:25Z</time>
      </trkpt>
      <trkpt lat="45.39382" lon="3.37492">
        <ele>425.6</ele>
        <time>2025-10-04T13:59:29Z</time>
      </trkpt>
      <trkpt lat="45.39378" lon="3.37479">
        <ele>425.6</ele>
        <time>2025-10-04T13:59:32Z</time>
      </trkpt>
      <trkpt lat="45.39378" lon="3.37475">
        <ele>425.6</ele>
        <time>2025-10-04T13:59:33Z</time>
      </trkpt>
      <trkpt lat="45.3938" lon="3.37463">
        <ele>426</ele>
        <time>2025-10-04T13:59:37Z</time>
      </trkpt>
      <trkpt lat="45.39392" lon="3.37465">
        <ele>426</ele>
        <time>2025-10-04T13:59:42Z</time>
      </trkpt>
      <trkpt lat="45.39401" lon="3.37466">
        <ele>426.4</ele>
        <time>2025-10-04T13:59:45Z</time>
      </trkpt>
      <trkpt lat="45.39409" lon="3.37466">
        <ele>426.8</ele>
        <time>2025-10-04T13:59:48Z</time>
      </trkpt>
      <trkpt lat="45.39422" lon="3.37469">
        <ele>427.2</ele>
        <time>2025-10-04T13:59:53Z</time>
      </trkpt>
      <trkpt lat="45.39426" lon="3.37472">
        <ele>427.4</ele>
        <time>2025-10-04T13:59:55Z</time>
      </trkpt>
      <trkpt lat="45.39429" lon="3.37473">
        <ele>427.6</ele>
        <time>2025-10-04T13:59:56Z</time>
      </trkpt>
      <trkpt lat="45.39437" lon="3.37482">
        <ele>428.2</ele>
        <time>2025-10-04T14:00:01Z</time>
      </trkpt>
      <trkpt lat="45.39439" lon="3.37484">
        <ele>428.4</ele>
        <time>2025-10-04T14:00:02Z</time>
      </trkpt>
      <trkpt lat="45.39446" lon="3.37495">
        <ele>429.4</ele>
        <time>2025-10-04T14:00:07Z</time>
      </trkpt>
      <trkpt lat="45.39449" lon="3.37499">
        <ele>430</ele>
        <time>2025-10-04T14:00:09Z</time>
      </trkpt>
      <trkpt lat="45.39453" lon="3.37507">
        <ele>430.6</ele>
        <time>2025-10-04T14:00:12Z</time>
      </trkpt>
      <trkpt lat="45.39459" lon="3.37518">
        <ele>431.2</ele>
        <time>2025-10-04T14:00:17Z</time>
      </trkpt>
      <trkpt lat="45.3946" lon="3.37521">
        <ele>431.6</ele>
        <time>2025-10-04T14:00:18Z</time>
      </trkpt>
      <trkpt lat="45.39466" lon="3.37534">
        <ele>432.4</ele>
        <time>2025-10-04T14:00:24Z</time>
      </trkpt>
      <trkpt lat="45.39471" lon="3.37539">
        <ele>433</ele>
        <time>2025-10-04T14:00:27Z</time>
      </trkpt>
      <trkpt lat="45.39473" lon="3.37543">
        <ele>433.4</ele>
        <time>2025-10-04T14:00:29Z</time>
      </trkpt>
      <trkpt lat="45.39477" lon="3.37555">
        <ele>434.6</ele>
        <time>2025-10-04T14:00:35Z</time>
      </trkpt>
      <trkpt lat="45.39483" lon="3.37571">
        <ele>435.6</ele>
        <time>2025-10-04T14:00:42Z</time>
      </trkpt>
      <trkpt lat="45.39486" lon="3.37586">
        <ele>436.4</ele>
        <time>2025-10-04T14:00:48Z</time>
      </trkpt>
      <trkpt lat="45.39488" lon="3.37595">
        <ele>437</ele>
        <time>2025-10-04T14:00:51Z</time>
      </trkpt>
      <trkpt lat="45.39489" lon="3.37603">
        <ele>437.6</ele>
        <time>2025-10-04T14:00:54Z</time>
      </trkpt>
      <trkpt lat="45.39489" lon="3.37614">
        <ele>438.4</ele>
        <time>2025-10-04T14:00:58Z</time>
      </trkpt>
      <trkpt lat="45.3949" lon="3.37619">
        <ele>438.8</ele>
        <time>2025-10-04T14:01:00Z</time>
      </trkpt>
      <trkpt lat="45.3949" lon="3.37627">
        <ele>438.8</ele>
        <time>2025-10-04T14:01:03Z</time>
      </trkpt>
      <trkpt lat="45.39487" lon="3.37645">
        <ele>439.6</ele>
        <time>2025-10-04T14:01:10Z</time>
      </trkpt>
      <trkpt lat="45.39487" lon="3.3765">
        <ele>439.8</ele>
        <time>2025-10-04T14:01:12Z</time>
      </trkpt>
      <trkpt lat="45.39485" lon="3.3766">
        <ele>440.8</ele>
        <time>2025-10-04T14:01:17Z</time>
      </trkpt>
      <trkpt lat="45.39484" lon="3.37663">
        <ele>440.8</ele>
        <time>2025-10-04T14:01:18Z</time>
      </trkpt>
      <trkpt lat="45.39479" lon="3.3768">
        <ele>441.8</ele>
        <time>2025-10-04T14:01:25Z</time>
      </trkpt>
      <trkpt lat="45.39476" lon="3.37687">
        <ele>442.2</ele>
        <time>2025-10-04T14:01:28Z</time>
      </trkpt>
      <trkpt lat="45.39471" lon="3.37699">
        <ele>442.8</ele>
        <time>2025-10-04T14:01:33Z</time>
      </trkpt>
      <trkpt lat="45.39469" lon="3.37705">
        <ele>443.2</ele>
        <time>2025-10-04T14:01:35Z</time>
      </trkpt>
      <trkpt lat="45.39466" lon="3.37721">
        <ele>444</ele>
        <time>2025-10-04T14:01:41Z</time>
      </trkpt>
      <trkpt lat="45.39466" lon="3.37729">
        <ele>444.4</ele>
        <time>2025-10-04T14:01:44Z</time>
      </trkpt>
      <trkpt lat="45.39468" lon="3.37738">
        <ele>445</ele>
        <time>2025-10-04T14:01:48Z</time>
      </trkpt>
      <trkpt lat="45.39473" lon="3.37747">
        <ele>445.6</ele>
        <time>2025-10-04T14:01:52Z</time>
      </trkpt>
      <trkpt lat="45.3948" lon="3.3776">
        <ele>446.2</ele>
        <time>2025-10-04T14:01:59Z</time>
      </trkpt>
      <trkpt lat="45.39486" lon="3.37773">
        <ele>446.8</ele>
        <time>2025-10-04T14:02:06Z</time>
      </trkpt>
      <trkpt lat="45.39488" lon="3.37774">
        <ele>446.8</ele>
        <time>2025-10-04T14:02:07Z</time>
      </trkpt>
      <trkpt lat="45.3949" lon="3.37778">
        <ele>447.2</ele>
        <time>2025-10-04T14:02:09Z</time>
      </trkpt>
      <trkpt lat="45.39496" lon="3.37787">
        <ele>448</ele>
        <time>2025-10-04T14:02:14Z</time>
      </trkpt>
      <trkpt lat="45.39499" lon="3.37791">
        <ele>448.4</ele>
        <time>2025-10-04T14:02:16Z</time>
      </trkpt>
      <trkpt lat="45.39509" lon="3.37803">
        <ele>449.6</ele>
        <time>2025-10-04T14:02:23Z</time>
      </trkpt>
      <trkpt lat="45.3951" lon="3.37804">
        <ele>449.8</ele>
        <time>2025-10-04T14:02:24Z</time>
      </trkpt>
      <trkpt lat="45.39522" lon="3.37813">
        <ele>450.6</ele>
        <time>2025-10-04T14:02:30Z</time>
      </trkpt>
      <trkpt lat="45.39524" lon="3.37814">
        <ele>450.6</ele>
        <time>2025-10-04T14:02:31Z</time>
      </trkpt>
      <trkpt lat="45.3954" lon="3.37815">
        <ele>451.6</ele>
        <time>2025-10-04T14:02:38Z</time>
      </trkpt>
      <trkpt lat="45.39542" lon="3.37815">
        <ele>451.6</ele>
        <time>2025-10-04T14:02:39Z</time>
      </trkpt>
      <trkpt lat="45.39554" lon="3.37812">
        <ele>452.2</ele>
        <time>2025-10-04T14:02:44Z</time>
      </trkpt>
      <trkpt lat="45.39564" lon="3.37813">
        <ele>452.6</ele>
        <time>2025-10-04T14:02:49Z</time>
      </trkpt>
      <trkpt lat="45.39572" lon="3.37816">
        <ele>453.6</ele>
        <time>2025-10-04T14:02:53Z</time>
      </trkpt>
      <trkpt lat="45.39576" lon="3.37817">
        <ele>453.8</ele>
        <time>2025-10-04T14:02:55Z</time>
      </trkpt>
      <trkpt lat="45.39583" lon="3.37818">
        <ele>454.2</ele>
        <time>2025-10-04T14:02:59Z</time>
      </trkpt>
      <trkpt lat="45.39586" lon="3.37817">
        <ele>454.4</ele>
        <time>2025-10-04T14:03:01Z</time>
      </trkpt>
      <trkpt lat="45.39587" lon="3.37814">
        <ele>454.6</ele>
        <time>2025-10-04T14:03:03Z</time>
      </trkpt>
      <trkpt lat="45.39584" lon="3.3781">
        <ele>455</ele>
        <time>2025-10-04T14:03:05Z</time>
      </trkpt>
      <trkpt lat="45.3958" lon="3.37807">
        <ele>455.4</ele>
        <time>2025-10-04T14:03:08Z</time>
      </trkpt>
      <trkpt lat="45.39575" lon="3.378">
        <ele>455.8</ele>
        <time>2025-10-04T14:03:13Z</time>
      </trkpt>
      <trkpt lat="45.39572" lon="3.37798">
        <ele>456.6</ele>
        <time>2025-10-04T14:03:16Z</time>
      </trkpt>
      <trkpt lat="45.39571" lon="3.37795">
        <ele>457</ele>
        <time>2025-10-04T14:03:18Z</time>
      </trkpt>
      <trkpt lat="45.39565" lon="3.37791">
        <ele>458.2</ele>
        <time>2025-10-04T14:03:23Z</time>
      </trkpt>
      <trkpt lat="45.39561" lon="3.37787">
        <ele>459.2</ele>
        <time>2025-10-04T14:03:28Z</time>
      </trkpt>
      <trkpt lat="45.3956" lon="3.37784">
        <ele>459.6</ele>
        <time>2025-10-04T14:03:30Z</time>
      </trkpt>
      <trkpt lat="45.39555" lon="3.37779">
        <ele>460.4</ele>
        <time>2025-10-04T14:03:35Z</time>
      </trkpt>
      <trkpt lat="45.39554" lon="3.37777">
        <ele>460.6</ele>
        <time>2025-10-04T14:03:36Z</time>
      </trkpt>
      <trkpt lat="45.39553" lon="3.37776">
        <ele>460.8</ele>
        <time>2025-10-04T14:03:37Z</time>
      </trkpt>
      <trkpt lat="45.39551" lon="3.37769">
        <ele>461.4</ele>
        <time>2025-10-04T14:03:41Z</time>
      </trkpt>
      <trkpt lat="45.39551" lon="3.37762">
        <ele>462</ele>
        <time>2025-10-04T14:03:45Z</time>
      </trkpt>
      <trkpt lat="45.39554" lon="3.37757">
        <ele>462.6</ele>
        <time>2025-10-04T14:03:49Z</time>
      </trkpt>
      <trkpt lat="45.39557" lon="3.37754">
        <ele>463</ele>
        <time>2025-10-04T14:03:52Z</time>
      </trkpt>
      <trkpt lat="45.39559" lon="3.37752">
        <ele>463.6</ele>
        <time>2025-10-04T14:03:54Z</time>
      </trkpt>
      <trkpt lat="45.39565" lon="3.37747">
        <ele>464.6</ele>
        <time>2025-10-04T14:04:00Z</time>
      </trkpt>
      <trkpt lat="45.39566" lon="3.37746">
        <ele>464.6</ele>
        <time>2025-10-04T14:04:01Z</time>
      </trkpt>
      <trkpt lat="45.39568" lon="3.37741">
        <ele>465.2</ele>
        <time>2025-10-04T14:04:04Z</time>
      </trkpt>
      <trkpt lat="45.39569" lon="3.37735">
        <ele>466</ele>
        <time>2025-10-04T14:04:07Z</time>
      </trkpt>
      <trkpt lat="45.39569" lon="3.3773">
        <ele>466.4</ele>
        <time>2025-10-04T14:04:10Z</time>
      </trkpt>
      <trkpt lat="45.39569" lon="3.37723">
        <ele>467</ele>
        <time>2025-10-04T14:04:14Z</time>
      </trkpt>
      <trkpt lat="45.39568" lon="3.37721">
        <ele>467.2</ele>
        <time>2025-10-04T14:04:16Z</time>
      </trkpt>
      <trkpt lat="45.39568" lon="3.37718">
        <ele>467.4</ele>
        <time>2025-10-04T14:04:18Z</time>
      </trkpt>
      <trkpt lat="45.39568" lon="3.37711">
        <ele>467.8</ele>
        <time>2025-10-04T14:04:22Z</time>
      </trkpt>
      <trkpt lat="45.39568" lon="3.37708">
        <ele>468</ele>
        <time>2025-10-04T14:04:24Z</time>
      </trkpt>
      <trkpt lat="45.39568" lon="3.37706">
        <ele>468.2</ele>
        <time>2025-10-04T14:04:25Z</time>
      </trkpt>
      <trkpt lat="45.39566" lon="3.37698">
        <ele>469.2</ele>
        <time>2025-10-04T14:04:31Z</time>
      </trkpt>
      <trkpt lat="45.39566" lon="3.37695">
        <ele>469.6</ele>
        <time>2025-10-04T14:04:33Z</time>
      </trkpt>
      <trkpt lat="45.39566" lon="3.37692">
        <ele>470.4</ele>
        <time>2025-10-04T14:04:38Z</time>
      </trkpt>
      <trkpt lat="45.39566" lon="3.37692">
        <ele>470.6</ele>
        <time>2025-10-04T14:04:41Z</time>
      </trkpt>
      <trkpt lat="45.39568" lon="3.37665">
        <ele>474.4</ele>
        <time>2025-10-04T14:05:44Z</time>
      </trkpt>
      <trkpt lat="45.39568" lon="3.37664">
        <ele>474.4</ele>
        <time>2025-10-04T14:05:45Z</time>
      </trkpt>
      <trkpt lat="45.39568" lon="3.37661">
        <ele>474.4</ele>
        <time>2025-10-04T14:05:47Z</time>
      </trkpt>
      <trkpt lat="45.39569" lon="3.3766">
        <ele>474.4</ele>
        <time>2025-10-04T14:05:48Z</time>
      </trkpt>
      <trkpt lat="45.39568" lon="3.37653">
        <ele>474.8</ele>
        <time>2025-10-04T14:05:53Z</time>
      </trkpt>
      <trkpt lat="45.39568" lon="3.37651">
        <ele>475.2</ele>
        <time>2025-10-04T14:05:54Z</time>
      </trkpt>
      <trkpt lat="45.39568" lon="3.37649">
        <ele>475.4</ele>
        <time>2025-10-04T14:05:55Z</time>
      </trkpt>
      <trkpt lat="45.39568" lon="3.37644">
        <ele>475.6</ele>
        <time>2025-10-04T14:05:58Z</time>
      </trkpt>
      <trkpt lat="45.39569" lon="3.3764">
        <ele>476</ele>
        <time>2025-10-04T14:06:00Z</time>
      </trkpt>
      <trkpt lat="45.39569" lon="3.37636">
        <ele>476.6</ele>
        <time>2025-10-04T14:06:02Z</time>
      </trkpt>
      <trkpt lat="45.3957" lon="3.37633">
        <ele>476.8</ele>
        <time>2025-10-04T14:06:04Z</time>
      </trkpt>
      <trkpt lat="45.39571" lon="3.37628">
        <ele>477.4</ele>
        <time>2025-10-04T14:06:07Z</time>
      </trkpt>
      <trkpt lat="45.39572" lon="3.37624">
        <ele>477.8</ele>
        <time>2025-10-04T14:06:09Z</time>
      </trkpt>
      <trkpt lat="45.39573" lon="3.37618">
        <ele>478.2</ele>
        <time>2025-10-04T14:06:11Z</time>
      </trkpt>
      <trkpt lat="45.39574" lon="3.37614">
        <ele>478.6</ele>
        <time>2025-10-04T14:06:14Z</time>
      </trkpt>
      <trkpt lat="45.39574" lon="3.3761">
        <ele>478.8</ele>
        <time>2025-10-04T14:06:17Z</time>
      </trkpt>
      <trkpt lat="45.39574" lon="3.37603">
        <ele>479.8</ele>
        <time>2025-10-04T14:06:22Z</time>
      </trkpt>
      <trkpt lat="45.39574" lon="3.37602">
        <ele>480.2</ele>
        <time>2025-10-04T14:06:23Z</time>
      </trkpt>
      <trkpt lat="45.39575" lon="3.37593">
        <ele>481.4</ele>
        <time>2025-10-04T14:06:29Z</time>
      </trkpt>
      <trkpt lat="45.39576" lon="3.37588">
        <ele>481.8</ele>
        <time>2025-10-04T14:06:33Z</time>
      </trkpt>
      <trkpt lat="45.39576" lon="3.37583">
        <ele>482.4</ele>
        <time>2025-10-04T14:06:36Z</time>
      </trkpt>
      <trkpt lat="45.39576" lon="3.37582">
        <ele>482.6</ele>
        <time>2025-10-04T14:06:37Z</time>
      </trkpt>
      <trkpt lat="45.39577" lon="3.37579">
        <ele>482.8</ele>
        <time>2025-10-04T14:06:39Z</time>
      </trkpt>
      <trkpt lat="45.39577" lon="3.37575">
        <ele>483.2</ele>
        <time>2025-10-04T14:06:42Z</time>
      </trkpt>
      <trkpt lat="45.39577" lon="3.37571">
        <ele>483.6</ele>
        <time>2025-10-04T14:06:44Z</time>
      </trkpt>
      <trkpt lat="45.39578" lon="3.37567">
        <ele>484</ele>
        <time>2025-10-04T14:06:47Z</time>
      </trkpt>
      <trkpt lat="45.39578" lon="3.37566">
        <ele>484.4</ele>
        <time>2025-10-04T14:06:48Z</time>
      </trkpt>
      <trkpt lat="45.39578" lon="3.37564">
        <ele>484.8</ele>
        <time>2025-10-04T14:06:50Z</time>
      </trkpt>
      <trkpt lat="45.39578" lon="3.37564">
        <ele>485.2</ele>
        <time>2025-10-04T14:06:53Z</time>
      </trkpt>
      <trkpt lat="45.39578" lon="3.37561">
        <ele>485.8</ele>
        <time>2025-10-04T14:07:02Z</time>
      </trkpt>
      <trkpt lat="45.39577" lon="3.37558">
        <ele>486</ele>
        <time>2025-10-04T14:07:04Z</time>
      </trkpt>
      <trkpt lat="45.39576" lon="3.37552">
        <ele>486.6</ele>
        <time>2025-10-04T14:07:09Z</time>
      </trkpt>
      <trkpt lat="45.39576" lon="3.37549">
        <ele>487.2</ele>
        <time>2025-10-04T14:07:11Z</time>
      </trkpt>
      <trkpt lat="45.39574" lon="3.37544">
        <ele>487.8</ele>
        <time>2025-10-04T14:07:16Z</time>
      </trkpt>
      <trkpt lat="45.39574" lon="3.37541">
        <ele>488.2</ele>
        <time>2025-10-04T14:07:19Z</time>
      </trkpt>
      <trkpt lat="45.39574" lon="3.37535">
        <ele>489.2</ele>
        <time>2025-10-04T14:07:25Z</time>
      </trkpt>
      <trkpt lat="45.39574" lon="3.37535">
        <ele>489.2</ele>
        <time>2025-10-04T14:07:26Z</time>
      </trkpt>
      <trkpt lat="45.39574" lon="3.37531">
        <ele>490.4</ele>
        <time>2025-10-04T14:07:32Z</time>
      </trkpt>
      <trkpt lat="45.39574" lon="3.37531">
        <ele>490.6</ele>
        <time>2025-10-04T14:07:33Z</time>
      </trkpt>
      <trkpt lat="45.39574" lon="3.37526">
        <ele>491.4</ele>
        <time>2025-10-04T14:07:42Z</time>
      </trkpt>
      <trkpt lat="45.39573" lon="3.37525">
        <ele>491.6</ele>
        <time>2025-10-04T14:07:43Z</time>
      </trkpt>
      <trkpt lat="45.39573" lon="3.37519">
        <ele>492.2</ele>
        <time>2025-10-04T14:07:48Z</time>
      </trkpt>
      <trkpt lat="45.39572" lon="3.37518">
        <ele>492.6</ele>
        <time>2025-10-04T14:07:50Z</time>
      </trkpt>
      <trkpt lat="45.39571" lon="3.37513">
        <ele>493.2</ele>
        <time>2025-10-04T14:07:54Z</time>
      </trkpt>
      <trkpt lat="45.39571" lon="3.37508">
        <ele>493.6</ele>
        <time>2025-10-04T14:07:58Z</time>
      </trkpt>
      <trkpt lat="45.39572" lon="3.37503">
        <ele>494.4</ele>
        <time>2025-10-04T14:08:02Z</time>
      </trkpt>
      <trkpt lat="45.39573" lon="3.375">
        <ele>494.8</ele>
        <time>2025-10-04T14:08:05Z</time>
      </trkpt>
      <trkpt lat="45.39573" lon="3.37499">
        <ele>495.4</ele>
        <time>2025-10-04T14:08:09Z</time>
      </trkpt>
      <trkpt lat="45.39573" lon="3.37499">
        <ele>495.8</ele>
        <time>2025-10-04T14:08:11Z</time>
      </trkpt>
      <trkpt lat="45.39578" lon="3.37495">
        <ele>496.8</ele>
        <time>2025-10-04T14:08:19Z</time>
      </trkpt>
      <trkpt lat="45.39578" lon="3.37495">
        <ele>497</ele>
        <time>2025-10-04T14:08:20Z</time>
      </trkpt>
      <trkpt lat="45.39582" lon="3.37499">
        <ele>497.6</ele>
        <time>2025-10-04T14:08:27Z</time>
      </trkpt>
      <trkpt lat="45.39584" lon="3.37502">
        <ele>498</ele>
        <time>2025-10-04T14:08:31Z</time>
      </trkpt>
      <trkpt lat="45.39585" lon="3.37502">
        <ele>498.2</ele>
        <time>2025-10-04T14:08:32Z</time>
      </trkpt>
      <trkpt lat="45.39585" lon="3.37503">
        <ele>499</ele>
        <time>2025-10-04T14:08:39Z</time>
      </trkpt>
      <trkpt lat="45.39585" lon="3.37503">
        <ele>499.2</ele>
        <time>2025-10-04T14:08:40Z</time>
      </trkpt>
      <trkpt lat="45.39587" lon="3.37505">
        <ele>499.2</ele>
        <time>2025-10-04T14:08:45Z</time>
      </trkpt>
      <trkpt lat="45.39589" lon="3.37507">
        <ele>499.4</ele>
        <time>2025-10-04T14:08:47Z</time>
      </trkpt>
      <trkpt lat="45.39594" lon="3.37513">
        <ele>500.2</ele>
        <time>2025-10-04T14:08:55Z</time>
      </trkpt>
      <trkpt lat="45.39602" lon="3.37519">
        <ele>501.2</ele>
        <time>2025-10-04T14:09:02Z</time>
      </trkpt>
      <trkpt lat="45.39609" lon="3.37523">
        <ele>502.2</ele>
        <time>2025-10-04T14:09:08Z</time>
      </trkpt>
      <trkpt lat="45.3961" lon="3.37524">
        <ele>502.4</ele>
        <time>2025-10-04T14:09:09Z</time>
      </trkpt>
      <trkpt lat="45.39611" lon="3.37524">
        <ele>503.6</ele>
        <time>2025-10-04T14:09:14Z</time>
      </trkpt>
      <trkpt lat="45.39611" lon="3.37524">
        <ele>504.4</ele>
        <time>2025-10-04T14:09:22Z</time>
      </trkpt>
      <trkpt lat="45.39613" lon="3.37524">
        <ele>504.6</ele>
        <time>2025-10-04T14:09:28Z</time>
      </trkpt>
      <trkpt lat="45.39613" lon="3.37524">
        <ele>504.6</ele>
        <time>2025-10-04T14:09:29Z</time>
      </trkpt>
      <trkpt lat="45.39613" lon="3.37524">
        <ele>505</ele>
        <time>2025-10-04T14:09:36Z</time>
      </trkpt>
      <trkpt lat="45.39615" lon="3.37523">
        <ele>505</ele>
        <time>2025-10-04T14:09:37Z</time>
      </trkpt>
      <trkpt lat="45.39616" lon="3.37522">
        <ele>505</ele>
        <time>2025-10-04T14:09:38Z</time>
      </trkpt>
      <trkpt lat="45.39619" lon="3.37521">
        <ele>505</ele>
        <time>2025-10-04T14:09:44Z</time>
      </trkpt>
      <trkpt lat="45.3962" lon="3.37521">
        <ele>505.8</ele>
        <time>2025-10-04T14:09:50Z</time>
      </trkpt>
      <trkpt lat="45.39621" lon="3.37521">
        <ele>506</ele>
        <time>2025-10-04T14:09:51Z</time>
      </trkpt>
      <trkpt lat="45.39625" lon="3.3752">
        <ele>506.6</ele>
        <time>2025-10-04T14:09:57Z</time>
      </trkpt>
      <trkpt lat="45.39626" lon="3.37518">
        <ele>507</ele>
        <time>2025-10-04T14:09:59Z</time>
      </trkpt>
      <trkpt lat="45.3963" lon="3.37518">
        <ele>508.4</ele>
        <time>2025-10-04T14:10:06Z</time>
      </trkpt>
      <trkpt lat="45.39633" lon="3.37518">
        <ele>509.2</ele>
        <time>2025-10-04T14:10:10Z</time>
      </trkpt>
      <trkpt lat="45.39634" lon="3.37518">
        <ele>509.6</ele>
        <time>2025-10-04T14:10:11Z</time>
      </trkpt>
      <trkpt lat="45.39635" lon="3.37518">
        <ele>509.6</ele>
        <time>2025-10-04T14:10:12Z</time>
      </trkpt>
      <trkpt lat="45.39639" lon="3.3752">
        <ele>510.6</ele>
        <time>2025-10-04T14:10:19Z</time>
      </trkpt>
      <trkpt lat="45.3964" lon="3.3752">
        <ele>510.8</ele>
        <time>2025-10-04T14:10:20Z</time>
      </trkpt>
      <trkpt lat="45.39648" lon="3.37518">
        <ele>511.6</ele>
        <time>2025-10-04T14:10:26Z</time>
      </trkpt>
      <trkpt lat="45.39649" lon="3.37519">
        <ele>512</ele>
        <time>2025-10-04T14:10:28Z</time>
      </trkpt>
      <trkpt lat="45.39652" lon="3.37518">
        <ele>512.8</ele>
        <time>2025-10-04T14:10:31Z</time>
      </trkpt>
      <trkpt lat="45.39657" lon="3.37518">
        <ele>513.4</ele>
        <time>2025-10-04T14:10:36Z</time>
      </trkpt>
      <trkpt lat="45.39662" lon="3.37519">
        <ele>513.8</ele>
        <time>2025-10-04T14:10:40Z</time>
      </trkpt>
      <trkpt lat="45.39663" lon="3.37519">
        <ele>514</ele>
        <time>2025-10-04T14:10:41Z</time>
      </trkpt>
      <trkpt lat="45.39665" lon="3.37518">
        <ele>514.4</ele>
        <time>2025-10-04T14:10:43Z</time>
      </trkpt>
      <trkpt lat="45.3967" lon="3.37518">
        <ele>515</ele>
        <time>2025-10-04T14:10:49Z</time>
      </trkpt>
      <trkpt lat="45.39672" lon="3.37516">
        <ele>515.2</ele>
        <time>2025-10-04T14:10:51Z</time>
      </trkpt>
      <trkpt lat="45.39677" lon="3.37514">
        <ele>516</ele>
        <time>2025-10-04T14:10:58Z</time>
      </trkpt>
      <trkpt lat="45.39678" lon="3.37514">
        <ele>516.2</ele>
        <time>2025-10-04T14:10:59Z</time>
      </trkpt>
      <trkpt lat="45.39683" lon="3.3751">
        <ele>517</ele>
        <time>2025-10-04T14:11:06Z</time>
      </trkpt>
      <trkpt lat="45.39684" lon="3.37509">
        <ele>517.2</ele>
        <time>2025-10-04T14:11:07Z</time>
      </trkpt>
      <trkpt lat="45.39686" lon="3.37506">
        <ele>517.6</ele>
        <time>2025-10-04T14:11:09Z</time>
      </trkpt>
      <trkpt lat="45.39688" lon="3.37503">
        <ele>517.8</ele>
        <time>2025-10-04T14:11:12Z</time>
      </trkpt>
      <trkpt lat="45.39692" lon="3.375">
        <ele>518.2</ele>
        <time>2025-10-04T14:11:15Z</time>
      </trkpt>
      <trkpt lat="45.39694" lon="3.37499">
        <ele>519.2</ele>
        <time>2025-10-04T14:11:20Z</time>
      </trkpt>
      <trkpt lat="45.39694" lon="3.37499">
        <ele>519.2</ele>
        <time>2025-10-04T14:11:21Z</time>
      </trkpt>
      <trkpt lat="45.39694" lon="3.37499">
        <ele>519.6</ele>
        <time>2025-10-04T14:11:26Z</time>
      </trkpt>
      <trkpt lat="45.39694" lon="3.37499">
        <ele>519.6</ele>
        <time>2025-10-04T14:11:27Z</time>
      </trkpt>
      <trkpt lat="45.39694" lon="3.37499">
        <ele>519.4</ele>
        <time>2025-10-04T14:12:12Z</time>
      </trkpt>
      <trkpt lat="45.39694" lon="3.37499">
        <ele>519.4</ele>
        <time>2025-10-04T14:12:13Z</time>
      </trkpt>
      <trkpt lat="45.39698" lon="3.37497">
        <ele>519.4</ele>
        <time>2025-10-04T14:12:19Z</time>
      </trkpt>
      <trkpt lat="45.39705" lon="3.37493">
        <ele>519.6</ele>
        <time>2025-10-04T14:12:25Z</time>
      </trkpt>
      <trkpt lat="45.3971" lon="3.37489">
        <ele>519.6</ele>
        <time>2025-10-04T14:12:29Z</time>
      </trkpt>
      <trkpt lat="45.39715" lon="3.37485">
        <ele>520</ele>
        <time>2025-10-04T14:12:32Z</time>
      </trkpt>
      <trkpt lat="45.39716" lon="3.37484">
        <ele>520</ele>
        <time>2025-10-04T14:12:33Z</time>
      </trkpt>
      <trkpt lat="45.39719" lon="3.37481">
        <ele>520.6</ele>
        <time>2025-10-04T14:12:37Z</time>
      </trkpt>
      <trkpt lat="45.39722" lon="3.37478">
        <ele>521</ele>
        <time>2025-10-04T14:12:39Z</time>
      </trkpt>
      <trkpt lat="45.39725" lon="3.37476">
        <ele>521.2</ele>
        <time>2025-10-04T14:12:41Z</time>
      </trkpt>
      <trkpt lat="45.39727" lon="3.37474">
        <ele>521.2</ele>
        <time>2025-10-04T14:12:42Z</time>
      </trkpt>
      <trkpt lat="45.39729" lon="3.37472">
        <ele>521.4</ele>
        <time>2025-10-04T14:12:44Z</time>
      </trkpt>
      <trkpt lat="45.39729" lon="3.37471">
        <ele>521.4</ele>
        <time>2025-10-04T14:12:45Z</time>
      </trkpt>
      <trkpt lat="45.39733" lon="3.37465">
        <ele>521.8</ele>
        <time>2025-10-04T14:12:49Z</time>
      </trkpt>
      <trkpt lat="45.39734" lon="3.37464">
        <ele>522.2</ele>
        <time>2025-10-04T14:12:50Z</time>
      </trkpt>
      <trkpt lat="45.39737" lon="3.37461">
        <ele>523</ele>
        <time>2025-10-04T14:12:52Z</time>
      </trkpt>
      <trkpt lat="45.39739" lon="3.37459">
        <ele>523.2</ele>
        <time>2025-10-04T14:12:54Z</time>
      </trkpt>
      <trkpt lat="45.39741" lon="3.37458">
        <ele>523.4</ele>
        <time>2025-10-04T14:12:55Z</time>
      </trkpt>
      <trkpt lat="45.39741" lon="3.37456">
        <ele>523.4</ele>
        <time>2025-10-04T14:12:56Z</time>
      </trkpt>
      <trkpt lat="45.39742" lon="3.37455">
        <ele>523.8</ele>
        <time>2025-10-04T14:12:57Z</time>
      </trkpt>
      <trkpt lat="45.39745" lon="3.37452">
        <ele>524.2</ele>
        <time>2025-10-04T14:13:00Z</time>
      </trkpt>
      <trkpt lat="45.39747" lon="3.37451">
        <ele>524.8</ele>
        <time>2025-10-04T14:13:02Z</time>
      </trkpt>
      <trkpt lat="45.39748" lon="3.37449">
        <ele>525</ele>
        <time>2025-10-04T14:13:03Z</time>
      </trkpt>
      <trkpt lat="45.39748" lon="3.37448">
        <ele>525.4</ele>
        <time>2025-10-04T14:13:04Z</time>
      </trkpt>
      <trkpt lat="45.39748" lon="3.37448">
        <ele>526</ele>
        <time>2025-10-04T14:13:06Z</time>
      </trkpt>
      <trkpt lat="45.39748" lon="3.37448">
        <ele>526.4</ele>
        <time>2025-10-04T14:13:11Z</time>
      </trkpt>
      <trkpt lat="45.39749" lon="3.37448">
        <ele>526.8</ele>
        <time>2025-10-04T14:13:14Z</time>
      </trkpt>
      <trkpt lat="45.39749" lon="3.37447">
        <ele>527.6</ele>
        <time>2025-10-04T14:13:16Z</time>
      </trkpt>
      <trkpt lat="45.39757" lon="3.37432">
        <ele>536.9</ele>
      </trkpt>
      <trkpt lat="45.39763" lon="3.37421">
        <ele>539</ele>
      </trkpt>
      <trkpt lat="45.39778" lon="3.3741">
        <ele>541.1</ele>
      </trkpt>
      <trkpt lat="45.39793" lon="3.37401">
        <ele>544.8</ele>
      </trkpt>
      <trkpt lat="45.39803" lon="3.37398">
        <ele>540.2</ele>
        <time>2025-10-04T14:15:35Z</time>
      </trkpt>
      <trkpt lat="45.39804" lon="3.37398">
        <ele>540.2</ele>
        <time>2025-10-04T14:15:38Z</time>
      </trkpt>
      <trkpt lat="45.39809" lon="3.37398">
        <ele>540.2</ele>
        <time>2025-10-04T14:15:43Z</time>
      </trkpt>
      <trkpt lat="45.39811" lon="3.37398">
        <ele>540.2</ele>
        <time>2025-10-04T14:15:44Z</time>
      </trkpt>
      <trkpt lat="45.39816" lon="3.37398">
        <ele>540.2</ele>
        <time>2025-10-04T14:15:47Z</time>
      </trkpt>
      <trkpt lat="45.39821" lon="3.374">
        <ele>540.6</ele>
        <time>2025-10-04T14:15:51Z</time>
      </trkpt>
      <trkpt lat="45.39829" lon="3.37401">
        <ele>541.4</ele>
        <time>2025-10-04T14:15:56Z</time>
      </trkpt>
      <trkpt lat="45.39831" lon="3.374">
        <ele>541.6</ele>
        <time>2025-10-04T14:15:59Z</time>
      </trkpt>
      <trkpt lat="45.39836" lon="3.37399">
        <ele>542.4</ele>
        <time>2025-10-04T14:16:03Z</time>
      </trkpt>
      <trkpt lat="45.3984" lon="3.37401">
        <ele>543</ele>
        <time>2025-10-04T14:16:06Z</time>
      </trkpt>
      <trkpt lat="45.39843" lon="3.37402">
        <ele>543.6</ele>
        <time>2025-10-04T14:16:09Z</time>
      </trkpt>
      <trkpt lat="45.39844" lon="3.37403">
        <ele>543.6</ele>
        <time>2025-10-04T14:16:11Z</time>
      </trkpt>
      <trkpt lat="45.39847" lon="3.37403">
        <ele>544.4</ele>
        <time>2025-10-04T14:16:15Z</time>
      </trkpt>
      <trkpt lat="45.39852" lon="3.37405">
        <ele>545.6</ele>
        <time>2025-10-04T14:16:19Z</time>
      </trkpt>
      <trkpt lat="45.39856" lon="3.37405">
        <ele>546.2</ele>
        <time>2025-10-04T14:16:22Z</time>
      </trkpt>
      <trkpt lat="45.39858" lon="3.37405">
        <ele>546.4</ele>
        <time>2025-10-04T14:16:24Z</time>
      </trkpt>
      <trkpt lat="45.3986" lon="3.37407">
        <ele>546.8</ele>
        <time>2025-10-04T14:16:26Z</time>
      </trkpt>
      <trkpt lat="45.39866" lon="3.37406">
        <ele>548</ele>
        <time>2025-10-04T14:16:32Z</time>
      </trkpt>
      <trkpt lat="45.39872" lon="3.37405">
        <ele>549</ele>
        <time>2025-10-04T14:16:38Z</time>
      </trkpt>
      <trkpt lat="45.39873" lon="3.37405">
        <ele>549.2</ele>
        <time>2025-10-04T14:16:39Z</time>
      </trkpt>
      <trkpt lat="45.39879" lon="3.37405">
        <ele>550</ele>
        <time>2025-10-04T14:16:45Z</time>
      </trkpt>
      <trkpt lat="45.3988" lon="3.37405">
        <ele>550.2</ele>
        <time>2025-10-04T14:16:46Z</time>
      </trkpt>
      <trkpt lat="45.39886" lon="3.37406">
        <ele>551.2</ele>
        <time>2025-10-04T14:16:53Z</time>
      </trkpt>
      <trkpt lat="45.39891" lon="3.37405">
        <ele>552</ele>
        <time>2025-10-04T14:16:59Z</time>
      </trkpt>
      <trkpt lat="45.39891" lon="3.37404">
        <ele>552.2</ele>
        <time>2025-10-04T14:17:01Z</time>
      </trkpt>
      <trkpt lat="45.39897" lon="3.37406">
        <ele>552.8</ele>
        <time>2025-10-04T14:17:06Z</time>
      </trkpt>
      <trkpt lat="45.39898" lon="3.37406">
        <ele>553.2</ele>
        <time>2025-10-04T14:17:08Z</time>
      </trkpt>
      <trkpt lat="45.39899" lon="3.37406">
        <ele>553.4</ele>
        <time>2025-10-04T14:17:09Z</time>
      </trkpt>
      <trkpt lat="45.39902" lon="3.37408">
        <ele>554.4</ele>
        <time>2025-10-04T14:17:14Z</time>
      </trkpt>
      <trkpt lat="45.39903" lon="3.37409">
        <ele>554.6</ele>
        <time>2025-10-04T14:17:15Z</time>
      </trkpt>
      <trkpt lat="45.39908" lon="3.37413">
        <ele>555.6</ele>
        <time>2025-10-04T14:17:21Z</time>
      </trkpt>
      <trkpt lat="45.39911" lon="3.37415">
        <ele>556.2</ele>
        <time>2025-10-04T14:17:23Z</time>
      </trkpt>
      <trkpt lat="45.39913" lon="3.37416">
        <ele>556.6</ele>
        <time>2025-10-04T14:17:26Z</time>
      </trkpt>
      <trkpt lat="45.39915" lon="3.37417">
        <ele>556.8</ele>
        <time>2025-10-04T14:17:29Z</time>
      </trkpt>
      <trkpt lat="45.39919" lon="3.37419">
        <ele>557.4</ele>
        <time>2025-10-04T14:17:33Z</time>
      </trkpt>
      <trkpt lat="45.39923" lon="3.3742">
        <ele>557.8</ele>
        <time>2025-10-04T14:17:36Z</time>
      </trkpt>
      <trkpt lat="45.39928" lon="3.37424">
        <ele>558.6</ele>
        <time>2025-10-04T14:17:40Z</time>
      </trkpt>
      <trkpt lat="45.39931" lon="3.37426">
        <ele>558.8</ele>
        <time>2025-10-04T14:17:42Z</time>
      </trkpt>
      <trkpt lat="45.39933" lon="3.37427">
        <ele>559</ele>
        <time>2025-10-04T14:17:44Z</time>
      </trkpt>
      <trkpt lat="45.39936" lon="3.37431">
        <ele>559.6</ele>
        <time>2025-10-04T14:17:48Z</time>
      </trkpt>
      <trkpt lat="45.3994" lon="3.37434">
        <ele>560.4</ele>
        <time>2025-10-04T14:17:54Z</time>
      </trkpt>
      <trkpt lat="45.3994" lon="3.37434">
        <ele>560.6</ele>
        <time>2025-10-04T14:17:55Z</time>
      </trkpt>
      <trkpt lat="45.39946" lon="3.37438">
        <ele>561.2</ele>
        <time>2025-10-04T14:18:00Z</time>
      </trkpt>
      <trkpt lat="45.39947" lon="3.37438">
        <ele>561.4</ele>
        <time>2025-10-04T14:18:01Z</time>
      </trkpt>
      <trkpt lat="45.39948" lon="3.37438">
        <ele>561.6</ele>
        <time>2025-10-04T14:18:03Z</time>
      </trkpt>
      <trkpt lat="45.39951" lon="3.37441">
        <ele>562.4</ele>
        <time>2025-10-04T14:18:07Z</time>
      </trkpt>
      <trkpt lat="45.39953" lon="3.37442">
        <ele>562.8</ele>
        <time>2025-10-04T14:18:10Z</time>
      </trkpt>
      <trkpt lat="45.39957" lon="3.37442">
        <ele>563.8</ele>
        <time>2025-10-04T14:18:14Z</time>
      </trkpt>
      <trkpt lat="45.39958" lon="3.37443">
        <ele>564</ele>
        <time>2025-10-04T14:18:15Z</time>
      </trkpt>
      <trkpt lat="45.39964" lon="3.37443">
        <ele>565</ele>
        <time>2025-10-04T14:18:21Z</time>
      </trkpt>
      <trkpt lat="45.39971" lon="3.37445">
        <ele>566.2</ele>
        <time>2025-10-04T14:18:28Z</time>
      </trkpt>
      <trkpt lat="45.39977" lon="3.37445">
        <ele>567.2</ele>
        <time>2025-10-04T14:18:34Z</time>
      </trkpt>
      <trkpt lat="45.3998" lon="3.37445">
        <ele>567.6</ele>
        <time>2025-10-04T14:18:36Z</time>
      </trkpt>
      <trkpt lat="45.39986" lon="3.37447">
        <ele>568.2</ele>
        <time>2025-10-04T14:18:41Z</time>
      </trkpt>
      <trkpt lat="45.39992" lon="3.37449">
        <ele>568.4</ele>
        <time>2025-10-04T14:18:44Z</time>
      </trkpt>
      <trkpt lat="45.39999" lon="3.37451">
        <ele>569.4</ele>
        <time>2025-10-04T14:18:49Z</time>
      </trkpt>
      <trkpt lat="45.40002" lon="3.37453">
        <ele>570</ele>
        <time>2025-10-04T14:18:52Z</time>
      </trkpt>
      <trkpt lat="45.40005" lon="3.37454">
        <ele>570.4</ele>
        <time>2025-10-04T14:18:57Z</time>
      </trkpt>
      <trkpt lat="45.40006" lon="3.37454">
        <ele>570.6</ele>
        <time>2025-10-04T14:18:58Z</time>
      </trkpt>
      <trkpt lat="45.40007" lon="3.37454">
        <ele>570.6</ele>
        <time>2025-10-04T14:18:59Z</time>
      </trkpt>
      <trkpt lat="45.40013" lon="3.37459">
        <ele>571.2</ele>
        <time>2025-10-04T14:19:04Z</time>
      </trkpt>
      <trkpt lat="45.40017" lon="3.37463">
        <ele>571.4</ele>
        <time>2025-10-04T14:19:06Z</time>
      </trkpt>
      <trkpt lat="45.40025" lon="3.37467">
        <ele>571.6</ele>
        <time>2025-10-04T14:19:10Z</time>
      </trkpt>
      <trkpt lat="45.40034" lon="3.37474">
        <ele>571.6</ele>
        <time>2025-10-04T14:19:14Z</time>
      </trkpt>
      <trkpt lat="45.40049" lon="3.37486">
        <ele>571.8</ele>
        <time>2025-10-04T14:19:19Z</time>
      </trkpt>
      <trkpt lat="45.40061" lon="3.37493">
        <ele>572</ele>
        <time>2025-10-04T14:19:24Z</time>
      </trkpt>
      <trkpt lat="45.40072" lon="3.375">
        <ele>572.4</ele>
        <time>2025-10-04T14:19:29Z</time>
      </trkpt>
      <trkpt lat="45.40074" lon="3.37502">
        <ele>572.4</ele>
        <time>2025-10-04T14:19:30Z</time>
      </trkpt>
      <trkpt lat="45.40079" lon="3.37506">
        <ele>572.6</ele>
        <time>2025-10-04T14:19:33Z</time>
      </trkpt>
      <trkpt lat="45.40091" lon="3.37517">
        <ele>573.4</ele>
        <time>2025-10-04T14:19:40Z</time>
      </trkpt>
      <trkpt lat="45.401" lon="3.37517">
        <ele>573.8</ele>
        <time>2025-10-04T14:19:42Z</time>
      </trkpt>
      <trkpt lat="45.40106" lon="3.37522">
        <ele>574.4</ele>
        <time>2025-10-04T14:19:47Z</time>
      </trkpt>
      <trkpt lat="45.40111" lon="3.37523">
        <ele>574.6</ele>
        <time>2025-10-04T14:19:49Z</time>
      </trkpt>
      <trkpt lat="45.40122" lon="3.37527">
        <ele>575</ele>
        <time>2025-10-04T14:19:56Z</time>
      </trkpt>
      <trkpt lat="45.40129" lon="3.37528">
        <ele>575.4</ele>
        <time>2025-10-04T14:19:59Z</time>
      </trkpt>
      <trkpt lat="45.40139" lon="3.37526">
        <ele>576</ele>
        <time>2025-10-04T14:20:04Z</time>
      </trkpt>
      <trkpt lat="45.40142" lon="3.37526">
        <ele>576</ele>
        <time>2025-10-04T14:20:05Z</time>
      </trkpt>
      <trkpt lat="45.40158" lon="3.37528">
        <ele>576.4</ele>
        <time>2025-10-04T14:20:10Z</time>
      </trkpt>
      <trkpt lat="45.40159" lon="3.37528">
        <ele>576.4</ele>
        <time>2025-10-04T14:20:11Z</time>
      </trkpt>
      <trkpt lat="45.40169" lon="3.37528">
        <ele>576.6</ele>
        <time>2025-10-04T14:20:16Z</time>
      </trkpt>
      <trkpt lat="45.40194" lon="3.37538">
        <ele>577.4</ele>
        <time>2025-10-04T14:20:25Z</time>
      </trkpt>
      <trkpt lat="45.40197" lon="3.37538">
        <ele>577.6</ele>
        <time>2025-10-04T14:20:26Z</time>
      </trkpt>
      <trkpt lat="45.40213" lon="3.37535">
        <ele>578</ele>
        <time>2025-10-04T14:20:34Z</time>
      </trkpt>
      <trkpt lat="45.40218" lon="3.37534">
        <ele>578.6</ele>
        <time>2025-10-04T14:20:37Z</time>
      </trkpt>
      <trkpt lat="45.40229" lon="3.37531">
        <ele>579.2</ele>
        <time>2025-10-04T14:20:43Z</time>
      </trkpt>
      <trkpt lat="45.40232" lon="3.3753">
        <ele>579.6</ele>
        <time>2025-10-04T14:20:45Z</time>
      </trkpt>
      <trkpt lat="45.40238" lon="3.37528">
        <ele>580.6</ele>
        <time>2025-10-04T14:20:50Z</time>
      </trkpt>
      <trkpt lat="45.4024" lon="3.37528">
        <ele>580.8</ele>
        <time>2025-10-04T14:20:51Z</time>
      </trkpt>
      <trkpt lat="45.40247" lon="3.37526">
        <ele>581.8</ele>
        <time>2025-10-04T14:20:56Z</time>
      </trkpt>
      <trkpt lat="45.40254" lon="3.37524">
        <ele>582.8</ele>
        <time>2025-10-04T14:21:01Z</time>
      </trkpt>
      <trkpt lat="45.40258" lon="3.37522">
        <ele>583.4</ele>
        <time>2025-10-04T14:21:03Z</time>
      </trkpt>
      <trkpt lat="45.40265" lon="3.37518">
        <ele>584.2</ele>
        <time>2025-10-04T14:21:07Z</time>
      </trkpt>
      <trkpt lat="45.40271" lon="3.37513">
        <ele>584.4</ele>
        <time>2025-10-04T14:21:10Z</time>
      </trkpt>
      <trkpt lat="45.40281" lon="3.37502">
        <ele>585.2</ele>
        <time>2025-10-04T14:21:15Z</time>
      </trkpt>
      <trkpt lat="45.40289" lon="3.37493">
        <ele>585.4</ele>
        <time>2025-10-04T14:21:19Z</time>
      </trkpt>
      <trkpt lat="45.40303" lon="3.37477">
        <ele>585.8</ele>
        <time>2025-10-04T14:21:26Z</time>
      </trkpt>
      <trkpt lat="45.40321" lon="3.37461">
        <ele>586.2</ele>
        <time>2025-10-04T14:21:35Z</time>
      </trkpt>
      <trkpt lat="45.40327" lon="3.37457">
        <ele>586.2</ele>
        <time>2025-10-04T14:21:38Z</time>
      </trkpt>
      <trkpt lat="45.4034" lon="3.3745">
        <ele>586.4</ele>
        <time>2025-10-04T14:21:44Z</time>
      </trkpt>
      <trkpt lat="45.40356" lon="3.37443">
        <ele>587.2</ele>
        <time>2025-10-04T14:21:52Z</time>
      </trkpt>
      <trkpt lat="45.40358" lon="3.37441">
        <ele>587.4</ele>
        <time>2025-10-04T14:21:53Z</time>
      </trkpt>
      <trkpt lat="45.40372" lon="3.37436">
        <ele>588.4</ele>
        <time>2025-10-04T14:21:59Z</time>
      </trkpt>
      <trkpt lat="45.40374" lon="3.37435">
        <ele>588.6</ele>
        <time>2025-10-04T14:22:00Z</time>
      </trkpt>
      <trkpt lat="45.40394" lon="3.37435">
        <ele>589.2</ele>
        <time>2025-10-04T14:22:08Z</time>
      </trkpt>
      <trkpt lat="45.4041" lon="3.37439">
        <ele>589.4</ele>
        <time>2025-10-04T14:22:15Z</time>
      </trkpt>
      <trkpt lat="45.40415" lon="3.3744">
        <ele>589.4</ele>
        <time>2025-10-04T14:22:17Z</time>
      </trkpt>
      <trkpt lat="45.40429" lon="3.37446">
        <ele>590</ele>
        <time>2025-10-04T14:22:24Z</time>
      </trkpt>
      <trkpt lat="45.40439" lon="3.37452">
        <ele>590.6</ele>
        <time>2025-10-04T14:22:29Z</time>
      </trkpt>
      <trkpt lat="45.40441" lon="3.37453">
        <ele>590.6</ele>
        <time>2025-10-04T14:22:30Z</time>
      </trkpt>
      <trkpt lat="45.40447" lon="3.37457">
        <ele>591.6</ele>
        <time>2025-10-04T14:22:34Z</time>
      </trkpt>
      <trkpt lat="45.40449" lon="3.37458">
        <ele>591.8</ele>
        <time>2025-10-04T14:22:35Z</time>
      </trkpt>
      <trkpt lat="45.40462" lon="3.37469">
        <ele>592.2</ele>
        <time>2025-10-04T14:22:41Z</time>
      </trkpt>
      <trkpt lat="45.40476" lon="3.37485">
        <ele>591.6</ele>
        <time>2025-10-04T14:22:45Z</time>
      </trkpt>
      <trkpt lat="45.40481" lon="3.3749">
        <ele>591.2</ele>
        <time>2025-10-04T14:22:46Z</time>
      </trkpt>
      <trkpt lat="45.40497" lon="3.37505">
        <ele>590.4</ele>
        <time>2025-10-04T14:22:49Z</time>
      </trkpt>
      <trkpt lat="45.40502" lon="3.37512">
        <ele>590.2</ele>
        <time>2025-10-04T14:22:50Z</time>
      </trkpt>
      <trkpt lat="45.40507" lon="3.3752">
        <ele>590</ele>
        <time>2025-10-04T14:22:51Z</time>
      </trkpt>
      <trkpt lat="45.40517" lon="3.37537">
        <ele>589.2</ele>
        <time>2025-10-04T14:22:53Z</time>
      </trkpt>
      <trkpt lat="45.40527" lon="3.37554">
        <ele>588.6</ele>
        <time>2025-10-04T14:22:55Z</time>
      </trkpt>
      <trkpt lat="45.40537" lon="3.37569">
        <ele>587.4</ele>
        <time>2025-10-04T14:22:57Z</time>
      </trkpt>
      <trkpt lat="45.40548" lon="3.3758">
        <ele>586.2</ele>
        <time>2025-10-04T14:22:59Z</time>
      </trkpt>
      <trkpt lat="45.40553" lon="3.37584">
        <ele>585.6</ele>
        <time>2025-10-04T14:23:00Z</time>
      </trkpt>
      <trkpt lat="45.40559" lon="3.37587">
        <ele>585.4</ele>
        <time>2025-10-04T14:23:01Z</time>
      </trkpt>
      <trkpt lat="45.40568" lon="3.37593">
        <ele>585.2</ele>
        <time>2025-10-04T14:23:03Z</time>
      </trkpt>
      <trkpt lat="45.40572" lon="3.37596">
        <ele>585.2</ele>
        <time>2025-10-04T14:23:04Z</time>
      </trkpt>
      <trkpt lat="45.40582" lon="3.37602">
        <ele>585.2</ele>
        <time>2025-10-04T14:23:08Z</time>
      </trkpt>
      <trkpt lat="45.40593" lon="3.37608">
        <ele>586.2</ele>
        <time>2025-10-04T14:23:13Z</time>
      </trkpt>
      <trkpt lat="45.40594" lon="3.3761">
        <ele>586.4</ele>
        <time>2025-10-04T14:23:14Z</time>
      </trkpt>
      <trkpt lat="45.40602" lon="3.37616">
        <ele>587.2</ele>
        <time>2025-10-04T14:23:18Z</time>
      </trkpt>
      <trkpt lat="45.40604" lon="3.37617">
        <ele>587.4</ele>
        <time>2025-10-04T14:23:19Z</time>
      </trkpt>
      <trkpt lat="45.40606" lon="3.37618">
        <ele>587.4</ele>
        <time>2025-10-04T14:23:20Z</time>
      </trkpt>
      <trkpt lat="45.40614" lon="3.37624">
        <ele>588.6</ele>
        <time>2025-10-04T14:23:25Z</time>
      </trkpt>
      <trkpt lat="45.40618" lon="3.37628">
        <ele>589.2</ele>
        <time>2025-10-04T14:23:28Z</time>
      </trkpt>
      <trkpt lat="45.40624" lon="3.37634">
        <ele>589.8</ele>
        <time>2025-10-04T14:23:32Z</time>
      </trkpt>
      <trkpt lat="45.4063" lon="3.37641">
        <ele>590.4</ele>
        <time>2025-10-04T14:23:35Z</time>
      </trkpt>
      <trkpt lat="45.40633" lon="3.37644">
        <ele>591</ele>
        <time>2025-10-04T14:23:37Z</time>
      </trkpt>
      <trkpt lat="45.40635" lon="3.37645">
        <ele>591.2</ele>
        <time>2025-10-04T14:23:38Z</time>
      </trkpt>
      <trkpt lat="45.40639" lon="3.37647">
        <ele>591.4</ele>
        <time>2025-10-04T14:23:40Z</time>
      </trkpt>
      <trkpt lat="45.40645" lon="3.37655">
        <ele>592.2</ele>
        <time>2025-10-04T14:23:44Z</time>
      </trkpt>
      <trkpt lat="45.40649" lon="3.37658">
        <ele>592.6</ele>
        <time>2025-10-04T14:23:46Z</time>
      </trkpt>
      <trkpt lat="45.40656" lon="3.37665">
        <ele>593.4</ele>
        <time>2025-10-04T14:23:50Z</time>
      </trkpt>
      <trkpt lat="45.40662" lon="3.37674">
        <ele>594</ele>
        <time>2025-10-04T14:23:54Z</time>
      </trkpt>
      <trkpt lat="45.40669" lon="3.37692">
        <ele>594.4</ele>
        <time>2025-10-04T14:23:59Z</time>
      </trkpt>
      <trkpt lat="45.40674" lon="3.37719">
        <ele>594.2</ele>
        <time>2025-10-04T14:24:07Z</time>
      </trkpt>
      <trkpt lat="45.40674" lon="3.37727">
        <ele>594.2</ele>
        <time>2025-10-04T14:24:09Z</time>
      </trkpt>
      <trkpt lat="45.40674" lon="3.37736">
        <ele>594.2</ele>
        <time>2025-10-04T14:24:11Z</time>
      </trkpt>
      <trkpt lat="45.40675" lon="3.3776">
        <ele>593.6</ele>
        <time>2025-10-04T14:24:16Z</time>
      </trkpt>
      <trkpt lat="45.40674" lon="3.37765">
        <ele>593.6</ele>
        <time>2025-10-04T14:24:17Z</time>
      </trkpt>
      <trkpt lat="45.40672" lon="3.37785">
        <ele>593.2</ele>
        <time>2025-10-04T14:24:22Z</time>
      </trkpt>
      <trkpt lat="45.40672" lon="3.37791">
        <ele>593.2</ele>
        <time>2025-10-04T14:24:23Z</time>
      </trkpt>
      <trkpt lat="45.40675" lon="3.37807">
        <ele>593.4</ele>
        <time>2025-10-04T14:24:26Z</time>
      </trkpt>
      <trkpt lat="45.40676" lon="3.3782">
        <ele>593.2</ele>
        <time>2025-10-04T14:24:28Z</time>
      </trkpt>
      <trkpt lat="45.40678" lon="3.37861">
        <ele>593.4</ele>
        <time>2025-10-04T14:24:34Z</time>
      </trkpt>
      <trkpt lat="45.40677" lon="3.37889">
        <ele>593.4</ele>
        <time>2025-10-04T14:24:39Z</time>
      </trkpt>
      <trkpt lat="45.40677" lon="3.37897">
        <ele>593.6</ele>
        <time>2025-10-04T14:24:41Z</time>
      </trkpt>
      <trkpt lat="45.40676" lon="3.37912">
        <ele>594.2</ele>
        <time>2025-10-04T14:24:45Z</time>
      </trkpt>
      <trkpt lat="45.40676" lon="3.37924">
        <ele>594.6</ele>
        <time>2025-10-04T14:24:48Z</time>
      </trkpt>
      <trkpt lat="45.40676" lon="3.3794">
        <ele>595.2</ele>
        <time>2025-10-04T14:24:52Z</time>
      </trkpt>
      <trkpt lat="45.40678" lon="3.37958">
        <ele>595.8</ele>
        <time>2025-10-04T14:24:56Z</time>
      </trkpt>
      <trkpt lat="45.40685" lon="3.37994">
        <ele>596</ele>
        <time>2025-10-04T14:25:03Z</time>
      </trkpt>
      <trkpt lat="45.4069" lon="3.38038">
        <ele>595</ele>
        <time>2025-10-04T14:25:10Z</time>
      </trkpt>
      <trkpt lat="45.40691" lon="3.38084">
        <ele>594.6</ele>
        <time>2025-10-04T14:25:18Z</time>
      </trkpt>
      <trkpt lat="45.40691" lon="3.38097">
        <ele>594.6</ele>
        <time>2025-10-04T14:25:20Z</time>
      </trkpt>
      <trkpt lat="45.40692" lon="3.38121">
        <ele>594.4</ele>
        <time>2025-10-04T14:25:24Z</time>
      </trkpt>
      <trkpt lat="45.40691" lon="3.38143">
        <ele>594.4</ele>
        <time>2025-10-04T14:25:28Z</time>
      </trkpt>
      <trkpt lat="45.40692" lon="3.38148">
        <ele>594.4</ele>
        <time>2025-10-04T14:25:29Z</time>
      </trkpt>
      <trkpt lat="45.40699" lon="3.38168">
        <ele>594.6</ele>
        <time>2025-10-04T14:25:33Z</time>
      </trkpt>
      <trkpt lat="45.40714" lon="3.38187">
        <ele>594.2</ele>
        <time>2025-10-04T14:25:38Z</time>
      </trkpt>
      <trkpt lat="45.40742" lon="3.38204">
        <ele>594.2</ele>
        <time>2025-10-04T14:25:46Z</time>
      </trkpt>
      <trkpt lat="45.40774" lon="3.38214">
        <ele>594.2</ele>
        <time>2025-10-04T14:25:55Z</time>
      </trkpt>
      <trkpt lat="45.40788" lon="3.38211">
        <ele>594.4</ele>
        <time>2025-10-04T14:26:00Z</time>
      </trkpt>
      <trkpt lat="45.40803" lon="3.382">
        <ele>595.6</ele>
        <time>2025-10-04T14:26:07Z</time>
      </trkpt>
      <trkpt lat="45.4081" lon="3.38195">
        <ele>596.2</ele>
        <time>2025-10-04T14:26:10Z</time>
      </trkpt>
      <trkpt lat="45.40817" lon="3.38185">
        <ele>596.6</ele>
        <time>2025-10-04T14:26:14Z</time>
      </trkpt>
      <trkpt lat="45.40826" lon="3.38172">
        <ele>597.2</ele>
        <time>2025-10-04T14:26:19Z</time>
      </trkpt>
      <trkpt lat="45.40829" lon="3.38166">
        <ele>597.4</ele>
        <time>2025-10-04T14:26:21Z</time>
      </trkpt>
      <trkpt lat="45.40844" lon="3.38152">
        <ele>598.2</ele>
        <time>2025-10-04T14:26:29Z</time>
      </trkpt>
      <trkpt lat="45.40854" lon="3.38147">
        <ele>599.4</ele>
        <time>2025-10-04T14:26:35Z</time>
      </trkpt>
      <trkpt lat="45.40858" lon="3.38146">
        <ele>599.6</ele>
        <time>2025-10-04T14:26:37Z</time>
      </trkpt>
      <trkpt lat="45.40865" lon="3.3814">
        <ele>600.4</ele>
        <time>2025-10-04T14:26:42Z</time>
      </trkpt>
      <trkpt lat="45.40866" lon="3.3814">
        <ele>600.8</ele>
        <time>2025-10-04T14:26:43Z</time>
      </trkpt>
      <trkpt lat="45.40871" lon="3.38136">
        <ele>601.2</ele>
        <time>2025-10-04T14:26:46Z</time>
      </trkpt>
      <trkpt lat="45.40872" lon="3.38134">
        <ele>601.4</ele>
        <time>2025-10-04T14:26:47Z</time>
      </trkpt>
      <trkpt lat="45.40879" lon="3.38127">
        <ele>602.2</ele>
        <time>2025-10-04T14:26:52Z</time>
      </trkpt>
      <trkpt lat="45.4088" lon="3.38127">
        <ele>602.4</ele>
        <time>2025-10-04T14:26:53Z</time>
      </trkpt>
      <trkpt lat="45.40887" lon="3.38128">
        <ele>603.2</ele>
        <time>2025-10-04T14:26:58Z</time>
      </trkpt>
      <trkpt lat="45.40888" lon="3.3813">
        <ele>603.4</ele>
        <time>2025-10-04T14:26:59Z</time>
      </trkpt>
      <trkpt lat="45.40888" lon="3.38132">
        <ele>603.6</ele>
        <time>2025-10-04T14:27:00Z</time>
      </trkpt>
      <trkpt lat="45.4089" lon="3.38139">
        <ele>604.6</ele>
        <time>2025-10-04T14:27:04Z</time>
      </trkpt>
      <trkpt lat="45.4089" lon="3.38141">
        <ele>604.8</ele>
        <time>2025-10-04T14:27:05Z</time>
      </trkpt>
      <trkpt lat="45.40892" lon="3.38151">
        <ele>605.8</ele>
        <time>2025-10-04T14:27:10Z</time>
      </trkpt>
      <trkpt lat="45.40895" lon="3.38157">
        <ele>606.6</ele>
        <time>2025-10-04T14:27:13Z</time>
      </trkpt>
      <trkpt lat="45.40897" lon="3.38161">
        <ele>607</ele>
        <time>2025-10-04T14:27:15Z</time>
      </trkpt>
      <trkpt lat="45.40905" lon="3.3817">
        <ele>608</ele>
        <time>2025-10-04T14:27:21Z</time>
      </trkpt>
      <trkpt lat="45.40918" lon="3.38177">
        <ele>609.2</ele>
        <time>2025-10-04T14:27:29Z</time>
      </trkpt>
      <trkpt lat="45.40932" lon="3.38186">
        <ele>610.2</ele>
        <time>2025-10-04T14:27:36Z</time>
      </trkpt>
      <trkpt lat="45.40933" lon="3.38188">
        <ele>610.2</ele>
        <time>2025-10-04T14:27:37Z</time>
      </trkpt>
      <trkpt lat="45.40948" lon="3.38208">
        <ele>610.6</ele>
        <time>2025-10-04T14:27:45Z</time>
      </trkpt>
      <trkpt lat="45.40966" lon="3.38236">
        <ele>610.4</ele>
        <time>2025-10-04T14:27:53Z</time>
      </trkpt>
      <trkpt lat="45.40983" lon="3.38257">
        <ele>610</ele>
        <time>2025-10-04T14:28:00Z</time>
      </trkpt>
      <trkpt lat="45.40985" lon="3.3826">
        <ele>609.8</ele>
        <time>2025-10-04T14:28:01Z</time>
      </trkpt>
      <trkpt lat="45.40995" lon="3.38269">
        <ele>609.8</ele>
        <time>2025-10-04T14:28:06Z</time>
      </trkpt>
      <trkpt lat="45.41001" lon="3.38279">
        <ele>610.6</ele>
        <time>2025-10-04T14:28:11Z</time>
      </trkpt>
      <trkpt lat="45.41002" lon="3.38281">
        <ele>610.6</ele>
        <time>2025-10-04T14:28:12Z</time>
      </trkpt>
      <trkpt lat="45.41009" lon="3.38291">
        <ele>611</ele>
        <time>2025-10-04T14:28:15Z</time>
      </trkpt>
      <trkpt lat="45.41025" lon="3.38308">
        <ele>611.8</ele>
        <time>2025-10-04T14:28:21Z</time>
      </trkpt>
      <trkpt lat="45.41033" lon="3.38324">
        <ele>612</ele>
        <time>2025-10-04T14:28:25Z</time>
      </trkpt>
      <trkpt lat="45.41034" lon="3.38328">
        <ele>612.2</ele>
        <time>2025-10-04T14:28:26Z</time>
      </trkpt>
      <trkpt lat="45.41041" lon="3.38348">
        <ele>612.4</ele>
        <time>2025-10-04T14:28:32Z</time>
      </trkpt>
      <trkpt lat="45.41051" lon="3.38365">
        <ele>612.6</ele>
        <time>2025-10-04T14:28:37Z</time>
      </trkpt>
      <trkpt lat="45.41056" lon="3.38376">
        <ele>613.2</ele>
        <time>2025-10-04T14:28:42Z</time>
      </trkpt>
      <trkpt lat="45.41057" lon="3.38377">
        <ele>613.2</ele>
        <time>2025-10-04T14:28:43Z</time>
      </trkpt>
      <trkpt lat="45.41057" lon="3.38379">
        <ele>613.2</ele>
        <time>2025-10-04T14:28:44Z</time>
      </trkpt>
      <trkpt lat="45.41063" lon="3.3839">
        <ele>614</ele>
        <time>2025-10-04T14:28:50Z</time>
      </trkpt>
      <trkpt lat="45.41065" lon="3.38392">
        <ele>614.2</ele>
        <time>2025-10-04T14:28:51Z</time>
      </trkpt>
      <trkpt lat="45.4107" lon="3.38399">
        <ele>615</ele>
        <time>2025-10-04T14:28:55Z</time>
      </trkpt>
      <trkpt lat="45.41071" lon="3.38401">
        <ele>615</ele>
        <time>2025-10-04T14:28:56Z</time>
      </trkpt>
      <trkpt lat="45.41072" lon="3.38402">
        <ele>615.2</ele>
        <time>2025-10-04T14:28:57Z</time>
      </trkpt>
      <trkpt lat="45.41078" lon="3.38412">
        <ele>616</ele>
        <time>2025-10-04T14:29:02Z</time>
      </trkpt>
      <trkpt lat="45.41078" lon="3.38415">
        <ele>616.2</ele>
        <time>2025-10-04T14:29:03Z</time>
      </trkpt>
      <trkpt lat="45.4108" lon="3.3842">
        <ele>616.8</ele>
        <time>2025-10-04T14:29:06Z</time>
      </trkpt>
      <trkpt lat="45.41082" lon="3.38421">
        <ele>617</ele>
        <time>2025-10-04T14:29:08Z</time>
      </trkpt>
      <trkpt lat="45.41083" lon="3.38422">
        <ele>617.4</ele>
        <time>2025-10-04T14:29:09Z</time>
      </trkpt>
      <trkpt lat="45.41084" lon="3.38423">
        <ele>617.4</ele>
        <time>2025-10-04T14:29:10Z</time>
      </trkpt>
      <trkpt lat="45.41086" lon="3.38427">
        <ele>618.4</ele>
        <time>2025-10-04T14:29:14Z</time>
      </trkpt>
      <trkpt lat="45.41087" lon="3.38428">
        <ele>618.4</ele>
        <time>2025-10-04T14:29:15Z</time>
      </trkpt>
      <trkpt lat="45.4109" lon="3.38432">
        <ele>619.4</ele>
        <time>2025-10-04T14:29:19Z</time>
      </trkpt>
      <trkpt lat="45.41094" lon="3.38436">
        <ele>620</ele>
        <time>2025-10-04T14:29:23Z</time>
      </trkpt>
      <trkpt lat="45.41095" lon="3.38438">
        <ele>620.6</ele>
        <time>2025-10-04T14:29:25Z</time>
      </trkpt>
      <trkpt lat="45.41098" lon="3.38446">
        <ele>621.8</ele>
        <time>2025-10-04T14:29:30Z</time>
      </trkpt>
      <trkpt lat="45.41098" lon="3.38448">
        <ele>621.8</ele>
        <time>2025-10-04T14:29:31Z</time>
      </trkpt>
      <trkpt lat="45.41098" lon="3.38454">
        <ele>622.8</ele>
        <time>2025-10-04T14:29:35Z</time>
      </trkpt>
      <trkpt lat="45.41097" lon="3.38455">
        <ele>623</ele>
        <time>2025-10-04T14:29:36Z</time>
      </trkpt>
      <trkpt lat="45.41095" lon="3.38459">
        <ele>623.2</ele>
        <time>2025-10-04T14:29:38Z</time>
      </trkpt>
      <trkpt lat="45.41081" lon="3.38471">
        <ele>623.6</ele>
        <time>2025-10-04T14:29:48Z</time>
      </trkpt>
      <trkpt lat="45.4108" lon="3.38472">
        <ele>623.6</ele>
        <time>2025-10-04T14:29:50Z</time>
      </trkpt>
      <trkpt lat="45.41074" lon="3.38476">
        <ele>623.6</ele>
        <time>2025-10-04T14:29:53Z</time>
      </trkpt>
      <trkpt lat="45.41068" lon="3.38481">
        <ele>623.8</ele>
        <time>2025-10-04T14:29:56Z</time>
      </trkpt>
      <trkpt lat="45.41064" lon="3.38484">
        <ele>623.8</ele>
        <time>2025-10-04T14:29:58Z</time>
      </trkpt>
      <trkpt lat="45.41061" lon="3.38488">
        <ele>624</ele>
        <time>2025-10-04T14:30:00Z</time>
      </trkpt>
      <trkpt lat="45.41054" lon="3.38499">
        <ele>624.4</ele>
        <time>2025-10-04T14:30:04Z</time>
      </trkpt>
      <trkpt lat="45.41051" lon="3.38501">
        <ele>624.6</ele>
        <time>2025-10-04T14:30:05Z</time>
      </trkpt>
      <trkpt lat="45.41049" lon="3.38504">
        <ele>624.6</ele>
        <time>2025-10-04T14:30:06Z</time>
      </trkpt>
      <trkpt lat="45.41045" lon="3.38508">
        <ele>625</ele>
        <time>2025-10-04T14:30:08Z</time>
      </trkpt>
      <trkpt lat="45.41039" lon="3.38518">
        <ele>625.6</ele>
        <time>2025-10-04T14:30:11Z</time>
      </trkpt>
      <trkpt lat="45.41034" lon="3.38529">
        <ele>626</ele>
        <time>2025-10-04T14:30:14Z</time>
      </trkpt>
      <trkpt lat="45.41024" lon="3.38545">
        <ele>626.4</ele>
        <time>2025-10-04T14:30:18Z</time>
      </trkpt>
      <trkpt lat="45.41017" lon="3.38563">
        <ele>626.4</ele>
        <time>2025-10-04T14:30:23Z</time>
      </trkpt>
      <trkpt lat="45.41009" lon="3.38584">
        <ele>626.2</ele>
        <time>2025-10-04T14:30:28Z</time>
      </trkpt>
      <trkpt lat="45.41003" lon="3.38597">
        <ele>626</ele>
        <time>2025-10-04T14:30:32Z</time>
      </trkpt>
      <trkpt lat="45.41002" lon="3.38612">
        <ele>626.2</ele>
        <time>2025-10-04T14:30:37Z</time>
      </trkpt>
      <trkpt lat="45.41003" lon="3.38615">
        <ele>626.4</ele>
        <time>2025-10-04T14:30:38Z</time>
      </trkpt>
      <trkpt lat="45.41004" lon="3.38622">
        <ele>627</ele>
        <time>2025-10-04T14:30:40Z</time>
      </trkpt>
      <trkpt lat="45.41004" lon="3.38627">
        <ele>627.2</ele>
        <time>2025-10-04T14:30:42Z</time>
      </trkpt>
      <trkpt lat="45.41003" lon="3.38633">
        <ele>627.6</ele>
        <time>2025-10-04T14:30:44Z</time>
      </trkpt>
      <trkpt lat="45.41001" lon="3.38638">
        <ele>628</ele>
        <time>2025-10-04T14:30:46Z</time>
      </trkpt>
      <trkpt lat="45.41002" lon="3.38641">
        <ele>628</ele>
        <time>2025-10-04T14:30:47Z</time>
      </trkpt>
      <trkpt lat="45.41003" lon="3.38655">
        <ele>628.8</ele>
        <time>2025-10-04T14:30:51Z</time>
      </trkpt>
      <trkpt lat="45.41003" lon="3.38659">
        <ele>629</ele>
        <time>2025-10-04T14:30:52Z</time>
      </trkpt>
      <trkpt lat="45.41006" lon="3.38673">
        <ele>630.2</ele>
        <time>2025-10-04T14:30:56Z</time>
      </trkpt>
      <trkpt lat="45.41006" lon="3.38677">
        <ele>630.6</ele>
        <time>2025-10-04T14:30:57Z</time>
      </trkpt>
      <trkpt lat="45.41006" lon="3.38695">
        <ele>631.2</ele>
        <time>2025-10-04T14:31:02Z</time>
      </trkpt>
      <trkpt lat="45.41007" lon="3.38699">
        <ele>631.4</ele>
        <time>2025-10-04T14:31:03Z</time>
      </trkpt>
      <trkpt lat="45.41006" lon="3.38711">
        <ele>631.6</ele>
        <time>2025-10-04T14:31:06Z</time>
      </trkpt>
      <trkpt lat="45.4101" lon="3.38722">
        <ele>631.8</ele>
        <time>2025-10-04T14:31:09Z</time>
      </trkpt>
      <trkpt lat="45.41012" lon="3.38746">
        <ele>631.8</ele>
        <time>2025-10-04T14:31:14Z</time>
      </trkpt>
      <trkpt lat="45.41008" lon="3.38765">
        <ele>631.8</ele>
        <time>2025-10-04T14:31:17Z</time>
      </trkpt>
      <trkpt lat="45.41006" lon="3.3877">
        <ele>631.4</ele>
        <time>2025-10-04T14:31:18Z</time>
      </trkpt>
      <trkpt lat="45.40999" lon="3.38795">
        <ele>631</ele>
        <time>2025-10-04T14:31:23Z</time>
      </trkpt>
      <trkpt lat="45.40993" lon="3.38825">
        <ele>630.2</ele>
        <time>2025-10-04T14:31:27Z</time>
      </trkpt>
      <trkpt lat="45.40991" lon="3.38834">
        <ele>630</ele>
        <time>2025-10-04T14:31:28Z</time>
      </trkpt>
      <trkpt lat="45.40989" lon="3.38862">
        <ele>628.8</ele>
        <time>2025-10-04T14:31:31Z</time>
      </trkpt>
      <trkpt lat="45.4099" lon="3.38873">
        <ele>628.6</ele>
        <time>2025-10-04T14:31:32Z</time>
      </trkpt>
      <trkpt lat="45.40991" lon="3.38894">
        <ele>627.8</ele>
        <time>2025-10-04T14:31:34Z</time>
      </trkpt>
      <trkpt lat="45.40992" lon="3.38926">
        <ele>626.6</ele>
        <time>2025-10-04T14:31:37Z</time>
      </trkpt>
      <trkpt lat="45.40992" lon="3.38936">
        <ele>625.8</ele>
        <time>2025-10-04T14:31:38Z</time>
      </trkpt>
      <trkpt lat="45.40992" lon="3.38948">
        <ele>625.4</ele>
        <time>2025-10-04T14:31:39Z</time>
      </trkpt>
      <trkpt lat="45.40992" lon="3.38965">
        <ele>624.2</ele>
        <time>2025-10-04T14:31:41Z</time>
      </trkpt>
      <trkpt lat="45.40991" lon="3.38991">
        <ele>623.8</ele>
        <time>2025-10-04T14:31:44Z</time>
      </trkpt>
      <trkpt lat="45.4099" lon="3.39006">
        <ele>623.6</ele>
        <time>2025-10-04T14:31:46Z</time>
      </trkpt>
      <trkpt lat="45.40992" lon="3.39021">
        <ele>623.2</ele>
        <time>2025-10-04T14:31:48Z</time>
      </trkpt>
      <trkpt lat="45.40993" lon="3.39027">
        <ele>623.2</ele>
        <time>2025-10-04T14:31:49Z</time>
      </trkpt>
      <trkpt lat="45.41" lon="3.39067">
        <ele>622.2</ele>
        <time>2025-10-04T14:31:54Z</time>
      </trkpt>
      <trkpt lat="45.41001" lon="3.39076">
        <ele>621.8</ele>
        <time>2025-10-04T14:31:55Z</time>
      </trkpt>
      <trkpt lat="45.41004" lon="3.39094">
        <ele>621.2</ele>
        <time>2025-10-04T14:31:57Z</time>
      </trkpt>
      <trkpt lat="45.41007" lon="3.39103">
        <ele>621</ele>
        <time>2025-10-04T14:31:58Z</time>
      </trkpt>
      <trkpt lat="45.4101" lon="3.39111">
        <ele>620.6</ele>
        <time>2025-10-04T14:31:59Z</time>
      </trkpt>
      <trkpt lat="45.41013" lon="3.39119">
        <ele>619.2</ele>
        <time>2025-10-04T14:32:00Z</time>
      </trkpt>
      <trkpt lat="45.41019" lon="3.39132">
        <ele>617.6</ele>
        <time>2025-10-04T14:32:02Z</time>
      </trkpt>
      <trkpt lat="45.41021" lon="3.39137">
        <ele>617</ele>
        <time>2025-10-04T14:32:03Z</time>
      </trkpt>
      <trkpt lat="45.41024" lon="3.39142">
        <ele>616</ele>
        <time>2025-10-04T14:32:04Z</time>
      </trkpt>
      <trkpt lat="45.4103" lon="3.39151">
        <ele>614.6</ele>
        <time>2025-10-04T14:32:06Z</time>
      </trkpt>
      <trkpt lat="45.41033" lon="3.39153">
        <ele>614</ele>
        <time>2025-10-04T14:32:07Z</time>
      </trkpt>
      <trkpt lat="45.4104" lon="3.39155">
        <ele>612.8</ele>
        <time>2025-10-04T14:32:09Z</time>
      </trkpt>
      <trkpt lat="45.41043" lon="3.39155">
        <ele>612.6</ele>
        <time>2025-10-04T14:32:10Z</time>
      </trkpt>
      <trkpt lat="45.4105" lon="3.39155">
        <ele>611.8</ele>
        <time>2025-10-04T14:32:12Z</time>
      </trkpt>
      <trkpt lat="45.41057" lon="3.39157">
        <ele>610.6</ele>
        <time>2025-10-04T14:32:15Z</time>
      </trkpt>
      <trkpt lat="45.4106" lon="3.39161">
        <ele>610.2</ele>
        <time>2025-10-04T14:32:16Z</time>
      </trkpt>
      <trkpt lat="45.41061" lon="3.39165">
        <ele>610</ele>
        <time>2025-10-04T14:32:17Z</time>
      </trkpt>
      <trkpt lat="45.41062" lon="3.39171">
        <ele>609.4</ele>
        <time>2025-10-04T14:32:18Z</time>
      </trkpt>
      <trkpt lat="45.41063" lon="3.39178">
        <ele>609</ele>
        <time>2025-10-04T14:32:19Z</time>
      </trkpt>
      <trkpt lat="45.41062" lon="3.39186">
        <ele>607.4</ele>
        <time>2025-10-04T14:32:20Z</time>
      </trkpt>
      <trkpt lat="45.41062" lon="3.39194">
        <ele>606.2</ele>
        <time>2025-10-04T14:32:21Z</time>
      </trkpt>
      <trkpt lat="45.41061" lon="3.39203">
        <ele>605.8</ele>
        <time>2025-10-04T14:32:22Z</time>
      </trkpt>
      <trkpt lat="45.41059" lon="3.39212">
        <ele>605</ele>
        <time>2025-10-04T14:32:23Z</time>
      </trkpt>
      <trkpt lat="45.41054" lon="3.39227">
        <ele>603.2</ele>
        <time>2025-10-04T14:32:25Z</time>
      </trkpt>
      <trkpt lat="45.41052" lon="3.39235">
        <ele>602.2</ele>
        <time>2025-10-04T14:32:26Z</time>
      </trkpt>
      <trkpt lat="45.4105" lon="3.39243">
        <ele>600.6</ele>
        <time>2025-10-04T14:32:27Z</time>
      </trkpt>
      <trkpt lat="45.41047" lon="3.39251">
        <ele>599.6</ele>
        <time>2025-10-04T14:32:28Z</time>
      </trkpt>
      <trkpt lat="45.41044" lon="3.39256">
        <ele>598.6</ele>
        <time>2025-10-04T14:32:29Z</time>
      </trkpt>
      <trkpt lat="45.41042" lon="3.39262">
        <ele>597</ele>
        <time>2025-10-04T14:32:30Z</time>
      </trkpt>
      <trkpt lat="45.41045" lon="3.39275">
        <ele>595.4</ele>
        <time>2025-10-04T14:32:32Z</time>
      </trkpt>
      <trkpt lat="45.4105" lon="3.3929">
        <ele>594.2</ele>
        <time>2025-10-04T14:32:35Z</time>
      </trkpt>
      <trkpt lat="45.41052" lon="3.39294">
        <ele>593.8</ele>
        <time>2025-10-04T14:32:36Z</time>
      </trkpt>
      <trkpt lat="45.41055" lon="3.39298">
        <ele>593</ele>
        <time>2025-10-04T14:32:37Z</time>
      </trkpt>
      <trkpt lat="45.41066" lon="3.39313">
        <ele>591.8</ele>
        <time>2025-10-04T14:32:41Z</time>
      </trkpt>
      <trkpt lat="45.4107" lon="3.39316">
        <ele>591.4</ele>
        <time>2025-10-04T14:32:42Z</time>
      </trkpt>
      <trkpt lat="45.4108" lon="3.39326">
        <ele>591</ele>
        <time>2025-10-04T14:32:46Z</time>
      </trkpt>
      <trkpt lat="45.41083" lon="3.39328">
        <ele>590.8</ele>
        <time>2025-10-04T14:32:47Z</time>
      </trkpt>
      <trkpt lat="45.4109" lon="3.39335">
        <ele>590.8</ele>
        <time>2025-10-04T14:32:50Z</time>
      </trkpt>
      <trkpt lat="45.41093" lon="3.39339">
        <ele>591.2</ele>
        <time>2025-10-04T14:32:52Z</time>
      </trkpt>
      <trkpt lat="45.41099" lon="3.39345">
        <ele>592.2</ele>
        <time>2025-10-04T14:32:55Z</time>
      </trkpt>
      <trkpt lat="45.411" lon="3.39346">
        <ele>592.6</ele>
        <time>2025-10-04T14:32:56Z</time>
      </trkpt>
      <trkpt lat="45.41102" lon="3.39347">
        <ele>592.8</ele>
        <time>2025-10-04T14:32:57Z</time>
      </trkpt>
      <trkpt lat="45.41104" lon="3.39348">
        <ele>593.2</ele>
        <time>2025-10-04T14:32:58Z</time>
      </trkpt>
      <trkpt lat="45.41109" lon="3.39351">
        <ele>593.8</ele>
        <time>2025-10-04T14:33:01Z</time>
      </trkpt>
      <trkpt lat="45.4111" lon="3.39353">
        <ele>593.8</ele>
        <time>2025-10-04T14:33:02Z</time>
      </trkpt>
      <trkpt lat="45.41121" lon="3.39357">
        <ele>594</ele>
        <time>2025-10-04T14:33:07Z</time>
      </trkpt>
      <trkpt lat="45.41125" lon="3.39359">
        <ele>593.2</ele>
        <time>2025-10-04T14:33:12Z</time>
      </trkpt>
      <trkpt lat="45.4113" lon="3.39365">
        <ele>592.8</ele>
        <time>2025-10-04T14:33:18Z</time>
      </trkpt>
      <trkpt lat="45.41132" lon="3.39369">
        <ele>592.6</ele>
        <time>2025-10-04T14:33:19Z</time>
      </trkpt>
      <trkpt lat="45.41145" lon="3.39391">
        <ele>591.8</ele>
        <time>2025-10-04T14:33:22Z</time>
      </trkpt>
      <trkpt lat="45.41151" lon="3.39399">
        <ele>591.4</ele>
        <time>2025-10-04T14:33:23Z</time>
      </trkpt>
      <trkpt lat="45.41164" lon="3.3942">
        <ele>590.2</ele>
        <time>2025-10-04T14:33:26Z</time>
      </trkpt>
      <trkpt lat="45.41168" lon="3.39428">
        <ele>589.8</ele>
        <time>2025-10-04T14:33:27Z</time>
      </trkpt>
      <trkpt lat="45.41172" lon="3.39437">
        <ele>588.6</ele>
        <time>2025-10-04T14:33:28Z</time>
      </trkpt>
      <trkpt lat="45.41182" lon="3.39458">
        <ele>586.6</ele>
        <time>2025-10-04T14:33:30Z</time>
      </trkpt>
      <trkpt lat="45.41186" lon="3.39479">
        <ele>585.4</ele>
        <time>2025-10-04T14:33:32Z</time>
      </trkpt>
      <trkpt lat="45.41187" lon="3.39489">
        <ele>584.2</ele>
        <time>2025-10-04T14:33:33Z</time>
      </trkpt>
      <trkpt lat="45.41186" lon="3.39511">
        <ele>581.4</ele>
        <time>2025-10-04T14:33:35Z</time>
      </trkpt>
      <trkpt lat="45.41188" lon="3.39523">
        <ele>580.6</ele>
        <time>2025-10-04T14:33:36Z</time>
      </trkpt>
      <trkpt lat="45.41191" lon="3.39534">
        <ele>579.2</ele>
        <time>2025-10-04T14:33:37Z</time>
      </trkpt>
      <trkpt lat="45.41192" lon="3.39541">
        <ele>578.2</ele>
        <time>2025-10-04T14:33:38Z</time>
      </trkpt>
      <trkpt lat="45.41191" lon="3.3956">
        <ele>575.4</ele>
        <time>2025-10-04T14:33:40Z</time>
      </trkpt>
      <trkpt lat="45.4119" lon="3.39579">
        <ele>573.8</ele>
        <time>2025-10-04T14:33:42Z</time>
      </trkpt>
      <trkpt lat="45.41192" lon="3.39588">
        <ele>572.6</ele>
        <time>2025-10-04T14:33:44Z</time>
      </trkpt>
      <trkpt lat="45.41196" lon="3.39585">
        <ele>572.2</ele>
        <time>2025-10-04T14:33:45Z</time>
      </trkpt>
      <trkpt lat="45.41199" lon="3.39583">
        <ele>572</ele>
        <time>2025-10-04T14:33:46Z</time>
      </trkpt>
      <trkpt lat="45.41204" lon="3.39574">
        <ele>571.6</ele>
        <time>2025-10-04T14:33:48Z</time>
      </trkpt>
      <trkpt lat="45.41206" lon="3.3957">
        <ele>571.2</ele>
        <time>2025-10-04T14:33:49Z</time>
      </trkpt>
      <trkpt lat="45.4122" lon="3.39541">
        <ele>571</ele>
        <time>2025-10-04T14:33:56Z</time>
      </trkpt>
      <trkpt lat="45.4123" lon="3.39521">
        <ele>571.6</ele>
        <time>2025-10-04T14:34:02Z</time>
      </trkpt>
      <trkpt lat="45.41238" lon="3.39506">
        <ele>572.4</ele>
        <time>2025-10-04T14:34:08Z</time>
      </trkpt>
      <trkpt lat="45.4124" lon="3.39495">
        <ele>573.2</ele>
        <time>2025-10-04T14:34:13Z</time>
      </trkpt>
      <trkpt lat="45.41242" lon="3.39484">
        <ele>574.4</ele>
        <time>2025-10-04T14:34:17Z</time>
      </trkpt>
      <trkpt lat="45.41246" lon="3.39474">
        <ele>574.6</ele>
        <time>2025-10-04T14:34:20Z</time>
      </trkpt>
      <trkpt lat="45.41255" lon="3.39454">
        <ele>575.4</ele>
        <time>2025-10-04T14:34:27Z</time>
      </trkpt>
      <trkpt lat="45.41266" lon="3.39427">
        <ele>575.8</ele>
        <time>2025-10-04T14:34:34Z</time>
      </trkpt>
      <trkpt lat="45.41268" lon="3.39423">
        <ele>575.8</ele>
        <time>2025-10-04T14:34:35Z</time>
      </trkpt>
      <trkpt lat="45.41269" lon="3.3942">
        <ele>576.2</ele>
        <time>2025-10-04T14:34:36Z</time>
      </trkpt>
      <trkpt lat="45.41278" lon="3.39405">
        <ele>577</ele>
        <time>2025-10-04T14:34:43Z</time>
      </trkpt>
      <trkpt lat="45.41281" lon="3.39402">
        <ele>577.2</ele>
        <time>2025-10-04T14:34:45Z</time>
      </trkpt>
      <trkpt lat="45.41287" lon="3.39394">
        <ele>578</ele>
        <time>2025-10-04T14:34:49Z</time>
      </trkpt>
      <trkpt lat="45.4129" lon="3.3939">
        <ele>578.2</ele>
        <time>2025-10-04T14:34:51Z</time>
      </trkpt>
      <trkpt lat="45.41291" lon="3.39387">
        <ele>578.4</ele>
        <time>2025-10-04T14:34:52Z</time>
      </trkpt>
      <trkpt lat="45.41292" lon="3.39379">
        <ele>578.6</ele>
        <time>2025-10-04T14:34:55Z</time>
      </trkpt>
      <trkpt lat="45.41293" lon="3.39374">
        <ele>579.2</ele>
        <time>2025-10-04T14:34:57Z</time>
      </trkpt>
      <trkpt lat="45.41295" lon="3.39366">
        <ele>579.6</ele>
        <time>2025-10-04T14:35:00Z</time>
      </trkpt>
      <trkpt lat="45.41298" lon="3.39352">
        <ele>580.4</ele>
        <time>2025-10-04T14:35:06Z</time>
      </trkpt>
      <trkpt lat="45.41299" lon="3.3935">
        <ele>580.6</ele>
        <time>2025-10-04T14:35:07Z</time>
      </trkpt>
      <trkpt lat="45.413" lon="3.39347">
        <ele>580.8</ele>
        <time>2025-10-04T14:35:08Z</time>
      </trkpt>
      <trkpt lat="45.41301" lon="3.3934">
        <ele>581</ele>
        <time>2025-10-04T14:35:10Z</time>
      </trkpt>
      <trkpt lat="45.41304" lon="3.39337">
        <ele>581.2</ele>
        <time>2025-10-04T14:35:11Z</time>
      </trkpt>
      <trkpt lat="45.41312" lon="3.39323">
        <ele>581.4</ele>
        <time>2025-10-04T14:35:15Z</time>
      </trkpt>
      <trkpt lat="45.41316" lon="3.39316">
        <ele>581.6</ele>
        <time>2025-10-04T14:35:17Z</time>
      </trkpt>
      <trkpt lat="45.41333" lon="3.39292">
        <ele>581.4</ele>
        <time>2025-10-04T14:35:23Z</time>
      </trkpt>
      <trkpt lat="45.41349" lon="3.39271">
        <ele>580.6</ele>
        <time>2025-10-04T14:35:27Z</time>
      </trkpt>
      <trkpt lat="45.41353" lon="3.39263">
        <ele>580.6</ele>
        <time>2025-10-04T14:35:28Z</time>
      </trkpt>
      <trkpt lat="45.41356" lon="3.39254">
        <ele>580.2</ele>
        <time>2025-10-04T14:35:29Z</time>
      </trkpt>
      <trkpt lat="45.41358" lon="3.3924">
        <ele>579.6</ele>
        <time>2025-10-04T14:35:31Z</time>
      </trkpt>
      <trkpt lat="45.41357" lon="3.39235">
        <ele>579.2</ele>
        <time>2025-10-04T14:35:32Z</time>
      </trkpt>
      <trkpt lat="45.41356" lon="3.39231">
        <ele>579</ele>
        <time>2025-10-04T14:35:33Z</time>
      </trkpt>
      <trkpt lat="45.41354" lon="3.39226">
        <ele>579</ele>
        <time>2025-10-04T14:35:35Z</time>
      </trkpt>
      <trkpt lat="45.41349" lon="3.39217">
        <ele>579.6</ele>
        <time>2025-10-04T14:35:40Z</time>
      </trkpt>
      <trkpt lat="45.41348" lon="3.39213">
        <ele>580</ele>
        <time>2025-10-04T14:35:42Z</time>
      </trkpt>
      <trkpt lat="45.41345" lon="3.39209">
        <ele>580.6</ele>
        <time>2025-10-04T14:35:44Z</time>
      </trkpt>
      <trkpt lat="45.41345" lon="3.39207">
        <ele>580.8</ele>
        <time>2025-10-04T14:35:45Z</time>
      </trkpt>
      <trkpt lat="45.41345" lon="3.39205">
        <ele>581.2</ele>
        <time>2025-10-04T14:35:46Z</time>
      </trkpt>
      <trkpt lat="45.41345" lon="3.39204">
        <ele>581.4</ele>
        <time>2025-10-04T14:35:47Z</time>
      </trkpt>
      <trkpt lat="45.41346" lon="3.39199">
        <ele>581.8</ele>
        <time>2025-10-04T14:35:49Z</time>
      </trkpt>
      <trkpt lat="45.41347" lon="3.39197">
        <ele>582</ele>
        <time>2025-10-04T14:35:50Z</time>
      </trkpt>
      <trkpt lat="45.41349" lon="3.39192">
        <ele>582.6</ele>
        <time>2025-10-04T14:35:52Z</time>
      </trkpt>
      <trkpt lat="45.4135" lon="3.39187">
        <ele>582.8</ele>
        <time>2025-10-04T14:35:54Z</time>
      </trkpt>
      <trkpt lat="45.41351" lon="3.39183">
        <ele>583</ele>
        <time>2025-10-04T14:35:56Z</time>
      </trkpt>
      <trkpt lat="45.41354" lon="3.39173">
        <ele>583.8</ele>
        <time>2025-10-04T14:36:00Z</time>
      </trkpt>
      <trkpt lat="45.41356" lon="3.39168">
        <ele>583.8</ele>
        <time>2025-10-04T14:36:02Z</time>
      </trkpt>
      <trkpt lat="45.41357" lon="3.39163">
        <ele>584.2</ele>
        <time>2025-10-04T14:36:04Z</time>
      </trkpt>
      <trkpt lat="45.41359" lon="3.39153">
        <ele>584.8</ele>
        <time>2025-10-04T14:36:07Z</time>
      </trkpt>
      <trkpt lat="45.4136" lon="3.39149">
        <ele>585</ele>
        <time>2025-10-04T14:36:08Z</time>
      </trkpt>
      <trkpt lat="45.41365" lon="3.39135">
        <ele>586</ele>
        <time>2025-10-04T14:36:14Z</time>
      </trkpt>
      <trkpt lat="45.41367" lon="3.39129">
        <ele>586.4</ele>
        <time>2025-10-04T14:36:16Z</time>
      </trkpt>
      <trkpt lat="45.4137" lon="3.39116">
        <ele>587.2</ele>
        <time>2025-10-04T14:36:21Z</time>
      </trkpt>
      <trkpt lat="45.41376" lon="3.39102">
        <ele>588</ele>
        <time>2025-10-04T14:36:26Z</time>
      </trkpt>
      <trkpt lat="45.41377" lon="3.391">
        <ele>588.2</ele>
        <time>2025-10-04T14:36:27Z</time>
      </trkpt>
      <trkpt lat="45.41384" lon="3.39087">
        <ele>589.4</ele>
        <time>2025-10-04T14:36:32Z</time>
      </trkpt>
      <trkpt lat="45.41388" lon="3.39077">
        <ele>589.6</ele>
        <time>2025-10-04T14:36:35Z</time>
      </trkpt>
      <trkpt lat="45.41395" lon="3.39057">
        <ele>589.4</ele>
        <time>2025-10-04T14:36:40Z</time>
      </trkpt>
      <trkpt lat="45.41401" lon="3.39036">
        <ele>588.4</ele>
        <time>2025-10-04T14:36:44Z</time>
      </trkpt>
      <trkpt lat="45.41403" lon="3.39029">
        <ele>588.2</ele>
        <time>2025-10-04T14:36:45Z</time>
      </trkpt>
      <trkpt lat="45.41405" lon="3.39023">
        <ele>587.8</ele>
        <time>2025-10-04T14:36:46Z</time>
      </trkpt>
      <trkpt lat="45.41407" lon="3.39011">
        <ele>587.4</ele>
        <time>2025-10-04T14:36:48Z</time>
      </trkpt>
      <trkpt lat="45.41407" lon="3.39006">
        <ele>587.4</ele>
        <time>2025-10-04T14:36:49Z</time>
      </trkpt>
      <trkpt lat="45.41411" lon="3.38984">
        <ele>587.4</ele>
        <time>2025-10-04T14:36:54Z</time>
      </trkpt>
      <trkpt lat="45.41417" lon="3.38955">
        <ele>587.8</ele>
        <time>2025-10-04T14:36:59Z</time>
      </trkpt>
      <trkpt lat="45.41424" lon="3.38927">
        <ele>587.6</ele>
        <time>2025-10-04T14:37:02Z</time>
      </trkpt>
      <trkpt lat="45.41428" lon="3.3892">
        <ele>587.4</ele>
        <time>2025-10-04T14:37:03Z</time>
      </trkpt>
      <trkpt lat="45.41434" lon="3.38913">
        <ele>587.2</ele>
        <time>2025-10-04T14:37:04Z</time>
      </trkpt>
      <trkpt lat="45.41447" lon="3.389">
        <ele>586.2</ele>
        <time>2025-10-04T14:37:06Z</time>
      </trkpt>
      <trkpt lat="45.41452" lon="3.38893">
        <ele>585.2</ele>
        <time>2025-10-04T14:37:07Z</time>
      </trkpt>
      <trkpt lat="45.41457" lon="3.38884">
        <ele>584.8</ele>
        <time>2025-10-04T14:37:08Z</time>
      </trkpt>
      <trkpt lat="45.41462" lon="3.38874">
        <ele>583.6</ele>
        <time>2025-10-04T14:37:09Z</time>
      </trkpt>
      <trkpt lat="45.41464" lon="3.38863">
        <ele>583</ele>
        <time>2025-10-04T14:37:10Z</time>
      </trkpt>
      <trkpt lat="45.41466" lon="3.38853">
        <ele>582.6</ele>
        <time>2025-10-04T14:37:11Z</time>
      </trkpt>
      <trkpt lat="45.41469" lon="3.38836">
        <ele>581.8</ele>
        <time>2025-10-04T14:37:13Z</time>
      </trkpt>
      <trkpt lat="45.41468" lon="3.38825">
        <ele>581.2</ele>
        <time>2025-10-04T14:37:14Z</time>
      </trkpt>
      <trkpt lat="45.4147" lon="3.38814">
        <ele>580.8</ele>
        <time>2025-10-04T14:37:15Z</time>
      </trkpt>
      <trkpt lat="45.41478" lon="3.38798">
        <ele>580</ele>
        <time>2025-10-04T14:37:17Z</time>
      </trkpt>
      <trkpt lat="45.41482" lon="3.3879">
        <ele>579.8</ele>
        <time>2025-10-04T14:37:18Z</time>
      </trkpt>
      <trkpt lat="45.4149" lon="3.38774">
        <ele>579.2</ele>
        <time>2025-10-04T14:37:20Z</time>
      </trkpt>
      <trkpt lat="45.41492" lon="3.38765">
        <ele>578.8</ele>
        <time>2025-10-04T14:37:21Z</time>
      </trkpt>
      <trkpt lat="45.41498" lon="3.38749">
        <ele>578.2</ele>
        <time>2025-10-04T14:37:23Z</time>
      </trkpt>
      <trkpt lat="45.41503" lon="3.38732">
        <ele>577.8</ele>
        <time>2025-10-04T14:37:25Z</time>
      </trkpt>
      <trkpt lat="45.41505" lon="3.38723">
        <ele>577.4</ele>
        <time>2025-10-04T14:37:26Z</time>
      </trkpt>
      <trkpt lat="45.41507" lon="3.38707">
        <ele>576.6</ele>
        <time>2025-10-04T14:37:28Z</time>
      </trkpt>
      <trkpt lat="45.41508" lon="3.38698">
        <ele>576.4</ele>
        <time>2025-10-04T14:37:29Z</time>
      </trkpt>
      <trkpt lat="45.41509" lon="3.3869">
        <ele>576</ele>
        <time>2025-10-04T14:37:30Z</time>
      </trkpt>
      <trkpt lat="45.41514" lon="3.38675">
        <ele>575.4</ele>
        <time>2025-10-04T14:37:32Z</time>
      </trkpt>
      <trkpt lat="45.41516" lon="3.38667">
        <ele>575</ele>
        <time>2025-10-04T14:37:33Z</time>
      </trkpt>
      <trkpt lat="45.4152" lon="3.38651">
        <ele>574.4</ele>
        <time>2025-10-04T14:37:35Z</time>
      </trkpt>
      <trkpt lat="45.41526" lon="3.38627">
        <ele>573.8</ele>
        <time>2025-10-04T14:37:38Z</time>
      </trkpt>
      <trkpt lat="45.41529" lon="3.38619">
        <ele>573.8</ele>
        <time>2025-10-04T14:37:39Z</time>
      </trkpt>
      <trkpt lat="45.41537" lon="3.38594">
        <ele>572.8</ele>
        <time>2025-10-04T14:37:42Z</time>
      </trkpt>
      <trkpt lat="45.41542" lon="3.38576">
        <ele>571.6</ele>
        <time>2025-10-04T14:37:44Z</time>
      </trkpt>
      <trkpt lat="45.41544" lon="3.38567">
        <ele>570.6</ele>
        <time>2025-10-04T14:37:45Z</time>
      </trkpt>
      <trkpt lat="45.41546" lon="3.38557">
        <ele>570.4</ele>
        <time>2025-10-04T14:37:46Z</time>
      </trkpt>
      <trkpt lat="45.41547" lon="3.38547">
        <ele>570</ele>
        <time>2025-10-04T14:37:47Z</time>
      </trkpt>
      <trkpt lat="45.41548" lon="3.38538">
        <ele>569.6</ele>
        <time>2025-10-04T14:37:48Z</time>
      </trkpt>
      <trkpt lat="45.41548" lon="3.38528">
        <ele>568.4</ele>
        <time>2025-10-04T14:37:49Z</time>
      </trkpt>
      <trkpt lat="45.41543" lon="3.38511">
        <ele>567.6</ele>
        <time>2025-10-04T14:37:51Z</time>
      </trkpt>
      <trkpt lat="45.41539" lon="3.38504">
        <ele>567.2</ele>
        <time>2025-10-04T14:37:52Z</time>
      </trkpt>
      <trkpt lat="45.41531" lon="3.3849">
        <ele>566.2</ele>
        <time>2025-10-04T14:37:54Z</time>
      </trkpt>
      <trkpt lat="45.41528" lon="3.38483">
        <ele>565.8</ele>
        <time>2025-10-04T14:37:55Z</time>
      </trkpt>
      <trkpt lat="45.41526" lon="3.38477">
        <ele>565.4</ele>
        <time>2025-10-04T14:37:56Z</time>
      </trkpt>
      <trkpt lat="45.41527" lon="3.3847">
        <ele>565.2</ele>
        <time>2025-10-04T14:37:57Z</time>
      </trkpt>
      <trkpt lat="45.4153" lon="3.38455">
        <ele>563.6</ele>
        <time>2025-10-04T14:37:59Z</time>
      </trkpt>
      <trkpt lat="45.41532" lon="3.38435">
        <ele>562.4</ele>
        <time>2025-10-04T14:38:01Z</time>
      </trkpt>
      <trkpt lat="45.41533" lon="3.38411">
        <ele>560.8</ele>
        <time>2025-10-04T14:38:03Z</time>
      </trkpt>
      <trkpt lat="45.41533" lon="3.38389">
        <ele>559.6</ele>
        <time>2025-10-04T14:38:05Z</time>
      </trkpt>
      <trkpt lat="45.41525" lon="3.38368">
        <ele>558.2</ele>
        <time>2025-10-04T14:38:07Z</time>
      </trkpt>
      <trkpt lat="45.41521" lon="3.3836">
        <ele>556.6</ele>
        <time>2025-10-04T14:38:08Z</time>
      </trkpt>
      <trkpt lat="45.41514" lon="3.38343">
        <ele>555.4</ele>
        <time>2025-10-04T14:38:10Z</time>
      </trkpt>
      <trkpt lat="45.4151" lon="3.38325">
        <ele>554</ele>
        <time>2025-10-04T14:38:12Z</time>
      </trkpt>
      <trkpt lat="45.41508" lon="3.38315">
        <ele>552.4</ele>
        <time>2025-10-04T14:38:13Z</time>
      </trkpt>
      <trkpt lat="45.41508" lon="3.38304">
        <ele>551.8</ele>
        <time>2025-10-04T14:38:14Z</time>
      </trkpt>
      <trkpt lat="45.41507" lon="3.38294">
        <ele>550.8</ele>
        <time>2025-10-04T14:38:15Z</time>
      </trkpt>
      <trkpt lat="45.41508" lon="3.38276">
        <ele>549.6</ele>
        <time>2025-10-04T14:38:17Z</time>
      </trkpt>
      <trkpt lat="45.415" lon="3.38251">
        <ele>548.4</ele>
        <time>2025-10-04T14:38:20Z</time>
      </trkpt>
      <trkpt lat="45.41495" lon="3.38245">
        <ele>548.2</ele>
        <time>2025-10-04T14:38:21Z</time>
      </trkpt>
      <trkpt lat="45.4149" lon="3.3824">
        <ele>547.4</ele>
        <time>2025-10-04T14:38:22Z</time>
      </trkpt>
      <trkpt lat="45.41486" lon="3.38237">
        <ele>547</ele>
        <time>2025-10-04T14:38:23Z</time>
      </trkpt>
      <trkpt lat="45.41478" lon="3.38229">
        <ele>545.8</ele>
        <time>2025-10-04T14:38:25Z</time>
      </trkpt>
      <trkpt lat="45.41476" lon="3.38225">
        <ele>545</ele>
        <time>2025-10-04T14:38:26Z</time>
      </trkpt>
      <trkpt lat="45.41475" lon="3.38219">
        <ele>543.6</ele>
        <time>2025-10-04T14:38:27Z</time>
      </trkpt>
      <trkpt lat="45.41474" lon="3.38208">
        <ele>542.2</ele>
        <time>2025-10-04T14:38:29Z</time>
      </trkpt>
      <trkpt lat="45.41474" lon="3.38204">
        <ele>542.2</ele>
        <time>2025-10-04T14:38:30Z</time>
      </trkpt>
      <trkpt lat="45.41472" lon="3.38182">
        <ele>541.8</ele>
        <time>2025-10-04T14:38:35Z</time>
      </trkpt>
      <trkpt lat="45.41468" lon="3.38154">
        <ele>541.8</ele>
        <time>2025-10-04T14:38:40Z</time>
      </trkpt>
      <trkpt lat="45.41465" lon="3.38131">
        <ele>541.4</ele>
        <time>2025-10-04T14:38:44Z</time>
      </trkpt>
      <trkpt lat="45.41462" lon="3.38126">
        <ele>541</ele>
        <time>2025-10-04T14:38:45Z</time>
      </trkpt>
      <trkpt lat="45.41461" lon="3.3812">
        <ele>540.8</ele>
        <time>2025-10-04T14:38:46Z</time>
      </trkpt>
      <trkpt lat="45.4146" lon="3.38105">
        <ele>540</ele>
        <time>2025-10-04T14:38:48Z</time>
      </trkpt>
      <trkpt lat="45.41459" lon="3.38092">
        <ele>539</ele>
        <time>2025-10-04T14:38:50Z</time>
      </trkpt>
      <trkpt lat="45.41459" lon="3.38081">
        <ele>537.6</ele>
        <time>2025-10-04T14:38:52Z</time>
      </trkpt>
      <trkpt lat="45.4146" lon="3.38071">
        <ele>536.6</ele>
        <time>2025-10-04T14:38:54Z</time>
      </trkpt>
      <trkpt lat="45.41461" lon="3.38067">
        <ele>536.4</ele>
        <time>2025-10-04T14:38:55Z</time>
      </trkpt>
      <trkpt lat="45.41462" lon="3.38059">
        <ele>535.4</ele>
        <time>2025-10-04T14:38:57Z</time>
      </trkpt>
      <trkpt lat="45.41462" lon="3.38053">
        <ele>534.8</ele>
        <time>2025-10-04T14:38:59Z</time>
      </trkpt>
      <trkpt lat="45.41462" lon="3.3805">
        <ele>534.2</ele>
        <time>2025-10-04T14:39:00Z</time>
      </trkpt>
      <trkpt lat="45.41462" lon="3.38035">
        <ele>533.2</ele>
        <time>2025-10-04T14:39:03Z</time>
      </trkpt>
      <trkpt lat="45.41462" lon="3.38032">
        <ele>532.6</ele>
        <time>2025-10-04T14:39:04Z</time>
      </trkpt>
      <trkpt lat="45.41464" lon="3.38028">
        <ele>532.4</ele>
        <time>2025-10-04T14:39:05Z</time>
      </trkpt>
      <trkpt lat="45.41463" lon="3.38023">
        <ele>531.8</ele>
        <time>2025-10-04T14:39:06Z</time>
      </trkpt>
      <trkpt lat="45.41463" lon="3.38013">
        <ele>530.8</ele>
        <time>2025-10-04T14:39:08Z</time>
      </trkpt>
      <trkpt lat="45.41464" lon="3.38011">
        <ele>530</ele>
        <time>2025-10-04T14:39:09Z</time>
      </trkpt>
      <trkpt lat="45.41465" lon="3.38009">
        <ele>529</ele>
        <time>2025-10-04T14:39:10Z</time>
      </trkpt>
      <trkpt lat="45.41466" lon="3.38002">
        <ele>527.6</ele>
        <time>2025-10-04T14:39:13Z</time>
      </trkpt>
      <trkpt lat="45.41465" lon="3.37995">
        <ele>526</ele>
        <time>2025-10-04T14:39:15Z</time>
      </trkpt>
      <trkpt lat="45.41464" lon="3.37986">
        <ele>524.6</ele>
        <time>2025-10-04T14:39:18Z</time>
      </trkpt>
      <trkpt lat="45.4146" lon="3.37978">
        <ele>523.6</ele>
        <time>2025-10-04T14:39:20Z</time>
      </trkpt>
      <trkpt lat="45.41455" lon="3.3797">
        <ele>522.4</ele>
        <time>2025-10-04T14:39:23Z</time>
      </trkpt>
      <trkpt lat="45.41452" lon="3.37967">
        <ele>521.2</ele>
        <time>2025-10-04T14:39:25Z</time>
      </trkpt>
      <trkpt lat="45.41449" lon="3.37967">
        <ele>519.6</ele>
        <time>2025-10-04T14:39:27Z</time>
      </trkpt>
      <trkpt lat="45.41447" lon="3.37969">
        <ele>518</ele>
        <time>2025-10-04T14:39:29Z</time>
      </trkpt>
      <trkpt lat="45.41446" lon="3.37971">
        <ele>517.4</ele>
        <time>2025-10-04T14:39:30Z</time>
      </trkpt>
      <trkpt lat="45.41445" lon="3.37972">
        <ele>516.6</ele>
        <time>2025-10-04T14:39:31Z</time>
      </trkpt>
      <trkpt lat="45.41444" lon="3.37972">
        <ele>515.2</ele>
        <time>2025-10-04T14:39:33Z</time>
      </trkpt>
      <trkpt lat="45.41444" lon="3.37972">
        <ele>514.4</ele>
        <time>2025-10-04T14:39:35Z</time>
      </trkpt>
      <trkpt lat="45.41443" lon="3.37973">
        <ele>514</ele>
        <time>2025-10-04T14:39:36Z</time>
      </trkpt>
      <trkpt lat="45.4144" lon="3.37969">
        <ele>513.4</ele>
        <time>2025-10-04T14:39:39Z</time>
      </trkpt>
      <trkpt lat="45.41439" lon="3.37964">
        <ele>512.6</ele>
        <time>2025-10-04T14:39:41Z</time>
      </trkpt>
      <trkpt lat="45.41438" lon="3.37961">
        <ele>512.4</ele>
        <time>2025-10-04T14:39:42Z</time>
      </trkpt>
      <trkpt lat="45.41438" lon="3.37952">
        <ele>511.4</ele>
        <time>2025-10-04T14:39:44Z</time>
      </trkpt>
      <trkpt lat="45.41439" lon="3.37942">
        <ele>510.4</ele>
        <time>2025-10-04T14:39:46Z</time>
      </trkpt>
      <trkpt lat="45.41439" lon="3.37934">
        <ele>509.4</ele>
        <time>2025-10-04T14:39:48Z</time>
      </trkpt>
      <trkpt lat="45.41439" lon="3.3793">
        <ele>509.2</ele>
        <time>2025-10-04T14:39:49Z</time>
      </trkpt>
      <trkpt lat="45.41438" lon="3.37922">
        <ele>508</ele>
        <time>2025-10-04T14:39:51Z</time>
      </trkpt>
      <trkpt lat="45.4144" lon="3.37913">
        <ele>507.4</ele>
        <time>2025-10-04T14:39:53Z</time>
      </trkpt>
      <trkpt lat="45.41441" lon="3.37908">
        <ele>507</ele>
        <time>2025-10-04T14:39:54Z</time>
      </trkpt>
      <trkpt lat="45.41443" lon="3.37889">
        <ele>505.2</ele>
        <time>2025-10-04T14:39:57Z</time>
      </trkpt>
      <trkpt lat="45.41446" lon="3.37875">
        <ele>503.4</ele>
        <time>2025-10-04T14:39:59Z</time>
      </trkpt>
      <trkpt lat="45.41447" lon="3.37868">
        <ele>503</ele>
        <time>2025-10-04T14:40:00Z</time>
      </trkpt>
      <trkpt lat="45.41448" lon="3.37861">
        <ele>502.2</ele>
        <time>2025-10-04T14:40:01Z</time>
      </trkpt>
      <trkpt lat="45.41449" lon="3.37855">
        <ele>501.8</ele>
        <time>2025-10-04T14:40:02Z</time>
      </trkpt>
      <trkpt lat="45.41454" lon="3.37839">
        <ele>501.2</ele>
        <time>2025-10-04T14:40:05Z</time>
      </trkpt>
      <trkpt lat="45.41456" lon="3.37831">
        <ele>501.2</ele>
        <time>2025-10-04T14:40:07Z</time>
      </trkpt>
      <trkpt lat="45.4146" lon="3.37808">
        <ele>501.4</ele>
        <time>2025-10-04T14:40:13Z</time>
      </trkpt>
      <trkpt lat="45.41462" lon="3.37795">
        <ele>502.2</ele>
        <time>2025-10-04T14:40:17Z</time>
      </trkpt>
      <trkpt lat="45.41466" lon="3.37783">
        <ele>502.8</ele>
        <time>2025-10-04T14:40:21Z</time>
      </trkpt>
      <trkpt lat="45.41473" lon="3.3776">
        <ele>503</ele>
        <time>2025-10-04T14:40:25Z</time>
      </trkpt>
      <trkpt lat="45.41474" lon="3.37753">
        <ele>503</ele>
        <time>2025-10-04T14:40:26Z</time>
      </trkpt>
      <trkpt lat="45.41485" lon="3.37715">
        <ele>501.8</ele>
        <time>2025-10-04T14:40:31Z</time>
      </trkpt>
      <trkpt lat="45.41488" lon="3.37706">
        <ele>501.6</ele>
        <time>2025-10-04T14:40:32Z</time>
      </trkpt>
      <trkpt lat="45.41491" lon="3.37697">
        <ele>501.6</ele>
        <time>2025-10-04T14:40:33Z</time>
      </trkpt>
      <trkpt lat="45.41503" lon="3.37676">
        <ele>501</ele>
        <time>2025-10-04T14:40:35Z</time>
      </trkpt>
      <trkpt lat="45.41514" lon="3.3765">
        <ele>499.4</ele>
        <time>2025-10-04T14:40:37Z</time>
      </trkpt>
      <trkpt lat="45.41528" lon="3.37618">
        <ele>497.8</ele>
        <time>2025-10-04T14:40:39Z</time>
      </trkpt>
      <trkpt lat="45.41536" lon="3.37602">
        <ele>496</ele>
        <time>2025-10-04T14:40:40Z</time>
      </trkpt>
      <trkpt lat="45.41545" lon="3.37586">
        <ele>493.2</ele>
        <time>2025-10-04T14:40:41Z</time>
      </trkpt>
      <trkpt lat="45.41555" lon="3.37569">
        <ele>491.6</ele>
        <time>2025-10-04T14:40:42Z</time>
      </trkpt>
      <trkpt lat="45.41566" lon="3.37554">
        <ele>488.6</ele>
        <time>2025-10-04T14:40:43Z</time>
      </trkpt>
      <trkpt lat="45.41578" lon="3.3754">
        <ele>485.8</ele>
        <time>2025-10-04T14:40:44Z</time>
      </trkpt>
      <trkpt lat="45.41588" lon="3.37527">
        <ele>484.4</ele>
        <time>2025-10-04T14:40:45Z</time>
      </trkpt>
      <trkpt lat="45.41599" lon="3.37514">
        <ele>481.6</ele>
        <time>2025-10-04T14:40:46Z</time>
      </trkpt>
      <trkpt lat="45.41619" lon="3.37493">
        <ele>478.8</ele>
        <time>2025-10-04T14:40:48Z</time>
      </trkpt>
      <trkpt lat="45.41629" lon="3.37485">
        <ele>477.4</ele>
        <time>2025-10-04T14:40:49Z</time>
      </trkpt>
      <trkpt lat="45.41638" lon="3.37479">
        <ele>475.2</ele>
        <time>2025-10-04T14:40:50Z</time>
      </trkpt>
      <trkpt lat="45.41647" lon="3.37473">
        <ele>473</ele>
        <time>2025-10-04T14:40:51Z</time>
      </trkpt>
      <trkpt lat="45.4166" lon="3.37459">
        <ele>469.6</ele>
        <time>2025-10-04T14:40:53Z</time>
      </trkpt>
      <trkpt lat="45.41666" lon="3.37452">
        <ele>468.4</ele>
        <time>2025-10-04T14:40:54Z</time>
      </trkpt>
      <trkpt lat="45.4167" lon="3.37445">
        <ele>465.8</ele>
        <time>2025-10-04T14:40:55Z</time>
      </trkpt>
      <trkpt lat="45.41675" lon="3.3743">
        <ele>462.4</ele>
        <time>2025-10-04T14:40:57Z</time>
      </trkpt>
      <trkpt lat="45.41676" lon="3.37423">
        <ele>460.8</ele>
        <time>2025-10-04T14:40:58Z</time>
      </trkpt>
      <trkpt lat="45.41675" lon="3.37416">
        <ele>459.8</ele>
        <time>2025-10-04T14:40:59Z</time>
      </trkpt>
      <trkpt lat="45.41674" lon="3.3741">
        <ele>458.2</ele>
        <time>2025-10-04T14:41:00Z</time>
      </trkpt>
      <trkpt lat="45.41671" lon="3.37398">
        <ele>456.6</ele>
        <time>2025-10-04T14:41:02Z</time>
      </trkpt>
      <trkpt lat="45.41668" lon="3.37392">
        <ele>454.8</ele>
        <time>2025-10-04T14:41:04Z</time>
      </trkpt>
      <trkpt lat="45.41668" lon="3.37391">
        <ele>454</ele>
        <time>2025-10-04T14:41:05Z</time>
      </trkpt>
      <trkpt lat="45.41668" lon="3.37391">
        <ele>453.6</ele>
        <time>2025-10-04T14:41:06Z</time>
      </trkpt>
      <trkpt lat="45.41669" lon="3.37393">
        <ele>452.6</ele>
        <time>2025-10-04T14:41:08Z</time>
      </trkpt>
      <trkpt lat="45.41669" lon="3.37393">
        <ele>451.4</ele>
        <time>2025-10-04T14:41:09Z</time>
      </trkpt>
      <trkpt lat="45.41669" lon="3.37393">
        <ele>450.4</ele>
        <time>2025-10-04T14:41:11Z</time>
      </trkpt>
      <trkpt lat="45.41669" lon="3.37393">
        <ele>449</ele>
        <time>2025-10-04T14:41:14Z</time>
      </trkpt>
      <trkpt lat="45.4167" lon="3.37393">
        <ele>448.2</ele>
        <time>2025-10-04T14:41:18Z</time>
      </trkpt>
      <trkpt lat="45.4167" lon="3.37393">
        <ele>448</ele>
        <time>2025-10-04T14:41:20Z</time>
      </trkpt>
      <trkpt lat="45.4167" lon="3.37392">
        <ele>448</ele>
        <time>2025-10-04T14:41:21Z</time>
      </trkpt>
      <trkpt lat="45.4167" lon="3.37391">
        <ele>448</ele>
        <time>2025-10-04T14:41:22Z</time>
      </trkpt>
      <trkpt lat="45.41672" lon="3.37388">
        <ele>447.8</ele>
        <time>2025-10-04T14:41:25Z</time>
      </trkpt>
      <trkpt lat="45.41672" lon="3.37385">
        <ele>447.4</ele>
        <time>2025-10-04T14:41:34Z</time>
      </trkpt>
      <trkpt lat="45.41672" lon="3.37382">
        <ele>446.4</ele>
        <time>2025-10-04T14:41:37Z</time>
      </trkpt>
      <trkpt lat="45.41671" lon="3.37381">
        <ele>446.4</ele>
        <time>2025-10-04T14:41:38Z</time>
      </trkpt>
      <trkpt lat="45.41669" lon="3.37378">
        <ele>446.2</ele>
        <time>2025-10-04T14:41:40Z</time>
      </trkpt>
      <trkpt lat="45.4166" lon="3.3737">
        <ele>446.2</ele>
        <time>2025-10-04T14:41:44Z</time>
      </trkpt>
      <trkpt lat="45.41656" lon="3.37368">
        <ele>446.2</ele>
        <time>2025-10-04T14:41:45Z</time>
      </trkpt>
      <trkpt lat="45.41643" lon="3.37359">
        <ele>445.6</ele>
        <time>2025-10-04T14:41:50Z</time>
      </trkpt>
      <trkpt lat="45.4164" lon="3.37356">
        <ele>445.4</ele>
        <time>2025-10-04T14:41:51Z</time>
      </trkpt>
      <trkpt lat="45.41634" lon="3.37351">
        <ele>445.4</ele>
        <time>2025-10-04T14:41:53Z</time>
      </trkpt>
      <trkpt lat="45.41628" lon="3.37345">
        <ele>445</ele>
        <time>2025-10-04T14:41:55Z</time>
      </trkpt>
      <trkpt lat="45.41606" lon="3.37328">
        <ele>444.8</ele>
        <time>2025-10-04T14:42:00Z</time>
      </trkpt>
      <trkpt lat="45.41585" lon="3.3731">
        <ele>444.4</ele>
        <time>2025-10-04T14:42:04Z</time>
      </trkpt>
      <trkpt lat="45.41578" lon="3.37304">
        <ele>444.2</ele>
        <time>2025-10-04T14:42:05Z</time>
      </trkpt>
      <trkpt lat="45.41564" lon="3.37288">
        <ele>444.2</ele>
        <time>2025-10-04T14:42:08Z</time>
      </trkpt>
      <trkpt lat="45.41546" lon="3.37257">
        <ele>444.2</ele>
        <time>2025-10-04T14:42:12Z</time>
      </trkpt>
      <trkpt lat="45.41545" lon="3.37235">
        <ele>443.6</ele>
        <time>2025-10-04T14:42:15Z</time>
      </trkpt>
      <trkpt lat="45.41546" lon="3.37225">
        <ele>443.4</ele>
        <time>2025-10-04T14:42:16Z</time>
      </trkpt>
      <trkpt lat="45.41548" lon="3.37217">
        <ele>443.4</ele>
        <time>2025-10-04T14:42:17Z</time>
      </trkpt>
      <trkpt lat="45.41554" lon="3.37201">
        <ele>443</ele>
        <time>2025-10-04T14:42:19Z</time>
      </trkpt>
      <trkpt lat="45.41554" lon="3.37193">
        <ele>443</ele>
        <time>2025-10-04T14:42:20Z</time>
      </trkpt>
      <trkpt lat="45.41552" lon="3.37187">
        <ele>442.8</ele>
        <time>2025-10-04T14:42:21Z</time>
      </trkpt>
      <trkpt lat="45.41553" lon="3.37174">
        <ele>442.2</ele>
        <time>2025-10-04T14:42:23Z</time>
      </trkpt>
      <trkpt lat="45.41557" lon="3.37157">
        <ele>442</ele>
        <time>2025-10-04T14:42:25Z</time>
      </trkpt>
      <trkpt lat="45.41555" lon="3.37127">
        <ele>441.8</ele>
        <time>2025-10-04T14:42:29Z</time>
      </trkpt>
      <trkpt lat="45.41555" lon="3.37119">
        <ele>441.8</ele>
        <time>2025-10-04T14:42:30Z</time>
      </trkpt>
      <trkpt lat="45.41553" lon="3.37092">
        <ele>441.6</ele>
        <time>2025-10-04T14:42:34Z</time>
      </trkpt>
      <trkpt lat="45.41571" lon="3.37066">
        <ele>441.6</ele>
        <time>2025-10-04T14:42:38Z</time>
      </trkpt>
      <trkpt lat="45.4157" lon="3.37044">
        <ele>441</ele>
        <time>2025-10-04T14:42:42Z</time>
      </trkpt>
      <trkpt lat="45.41549" lon="3.37018">
        <ele>440.8</ele>
        <time>2025-10-04T14:42:46Z</time>
      </trkpt>
      <trkpt lat="45.41533" lon="3.37008">
        <ele>440.6</ele>
        <time>2025-10-04T14:42:49Z</time>
      </trkpt>
      <trkpt lat="45.4153" lon="3.37007">
        <ele>440.6</ele>
        <time>2025-10-04T14:42:50Z</time>
      </trkpt>
      <trkpt lat="45.41526" lon="3.37006">
        <ele>440.4</ele>
        <time>2025-10-04T14:42:51Z</time>
      </trkpt>
      <trkpt lat="45.41507" lon="3.37003">
        <ele>440.2</ele>
        <time>2025-10-04T14:42:55Z</time>
      </trkpt>
      <trkpt lat="45.41497" lon="3.37002">
        <ele>440.2</ele>
        <time>2025-10-04T14:42:57Z</time>
      </trkpt>
      <trkpt lat="45.41482" lon="3.37">
        <ele>440.6</ele>
        <time>2025-10-04T14:43:01Z</time>
      </trkpt>
      <trkpt lat="45.41466" lon="3.37004">
        <ele>441</ele>
        <time>2025-10-04T14:43:06Z</time>
      </trkpt>
      <trkpt lat="45.41447" lon="3.37017">
        <ele>440.8</ele>
        <time>2025-10-04T14:43:10Z</time>
      </trkpt>
      <trkpt lat="45.41442" lon="3.37022">
        <ele>440.6</ele>
        <time>2025-10-04T14:43:11Z</time>
      </trkpt>
      <trkpt lat="45.41419" lon="3.37032">
        <ele>439.2</ele>
        <time>2025-10-04T14:43:15Z</time>
      </trkpt>
      <trkpt lat="45.41398" lon="3.37036">
        <ele>438.2</ele>
        <time>2025-10-04T14:43:19Z</time>
      </trkpt>
      <trkpt lat="45.41389" lon="3.37037">
        <ele>437.6</ele>
        <time>2025-10-04T14:43:21Z</time>
      </trkpt>
      <trkpt lat="45.41358" lon="3.37041">
        <ele>437.2</ele>
        <time>2025-10-04T14:43:27Z</time>
      </trkpt>
      <trkpt lat="45.41353" lon="3.3704">
        <ele>437</ele>
        <time>2025-10-04T14:43:28Z</time>
      </trkpt>
      <trkpt lat="45.41348" lon="3.37039">
        <ele>437</ele>
        <time>2025-10-04T14:43:29Z</time>
      </trkpt>
      <trkpt lat="45.41338" lon="3.37036">
        <ele>436.8</ele>
        <time>2025-10-04T14:43:31Z</time>
      </trkpt>
      <trkpt lat="45.41329" lon="3.3703">
        <ele>436.8</ele>
        <time>2025-10-04T14:43:33Z</time>
      </trkpt>
      <trkpt lat="45.41315" lon="3.37018">
        <ele>436.6</ele>
        <time>2025-10-04T14:43:36Z</time>
      </trkpt>
      <trkpt lat="45.41309" lon="3.37008">
        <ele>436.4</ele>
        <time>2025-10-04T14:43:38Z</time>
      </trkpt>
      <trkpt lat="45.41306" lon="3.36999">
        <ele>435.8</ele>
        <time>2025-10-04T14:43:40Z</time>
      </trkpt>
      <trkpt lat="45.41303" lon="3.36996">
        <ele>435.8</ele>
        <time>2025-10-04T14:43:41Z</time>
      </trkpt>
      <trkpt lat="45.41302" lon="3.36996">
        <ele>435.6</ele>
        <time>2025-10-04T14:43:43Z</time>
      </trkpt>
      <trkpt lat="45.41299" lon="3.36997">
        <ele>435.2</ele>
        <time>2025-10-04T14:43:45Z</time>
      </trkpt>
      <trkpt lat="45.41299" lon="3.36998">
        <ele>435.2</ele>
        <time>2025-10-04T14:43:47Z</time>
      </trkpt>
      <trkpt lat="45.41298" lon="3.36997">
        <ele>435.2</ele>
        <time>2025-10-04T14:43:48Z</time>
      </trkpt>
      <trkpt lat="45.41295" lon="3.36994">
        <ele>435.2</ele>
        <time>2025-10-04T14:43:50Z</time>
      </trkpt>
      <trkpt lat="45.41288" lon="3.3699">
        <ele>435.2</ele>
        <time>2025-10-04T14:43:52Z</time>
      </trkpt>
      <trkpt lat="45.41282" lon="3.36985">
        <ele>435.2</ele>
        <time>2025-10-04T14:43:54Z</time>
      </trkpt>
      <trkpt lat="45.41279" lon="3.36976">
        <ele>435.2</ele>
        <time>2025-10-04T14:43:56Z</time>
      </trkpt>
      <trkpt lat="45.41265" lon="3.36943">
        <ele>434.8</ele>
        <time>2025-10-04T14:44:02Z</time>
      </trkpt>
      <trkpt lat="45.41261" lon="3.36933">
        <ele>434.6</ele>
        <time>2025-10-04T14:44:04Z</time>
      </trkpt>
      <trkpt lat="45.41255" lon="3.36923">
        <ele>434.4</ele>
        <time>2025-10-04T14:44:06Z</time>
      </trkpt>
      <trkpt lat="45.4125" lon="3.36918">
        <ele>434.4</ele>
        <time>2025-10-04T14:44:07Z</time>
      </trkpt>
      <trkpt lat="45.41246" lon="3.36913">
        <ele>434.4</ele>
        <time>2025-10-04T14:44:08Z</time>
      </trkpt>
      <trkpt lat="45.41232" lon="3.3689">
        <ele>434.2</ele>
        <time>2025-10-04T14:44:12Z</time>
      </trkpt>
      <trkpt lat="45.41227" lon="3.36886">
        <ele>434.2</ele>
        <time>2025-10-04T14:44:13Z</time>
      </trkpt>
      <trkpt lat="45.41215" lon="3.36877">
        <ele>434</ele>
        <time>2025-10-04T14:44:15Z</time>
      </trkpt>
      <trkpt lat="45.41209" lon="3.36875">
        <ele>434</ele>
        <time>2025-10-04T14:44:16Z</time>
      </trkpt>
      <trkpt lat="45.41203" lon="3.36876">
        <ele>433.8</ele>
        <time>2025-10-04T14:44:18Z</time>
      </trkpt>
      <trkpt lat="45.41195" lon="3.36876">
        <ele>433.6</ele>
        <time>2025-10-04T14:44:19Z</time>
      </trkpt>
      <trkpt lat="45.41191" lon="3.36877">
        <ele>433.4</ele>
        <time>2025-10-04T14:44:20Z</time>
      </trkpt>
      <trkpt lat="45.41178" lon="3.36869">
        <ele>433.4</ele>
        <time>2025-10-04T14:44:23Z</time>
      </trkpt>
      <trkpt lat="45.41173" lon="3.36866">
        <ele>433.2</ele>
        <time>2025-10-04T14:44:24Z</time>
      </trkpt>
      <trkpt lat="45.41148" lon="3.36847">
        <ele>432.6</ele>
        <time>2025-10-04T14:44:29Z</time>
      </trkpt>
      <trkpt lat="45.4114" lon="3.3684">
        <ele>432</ele>
        <time>2025-10-04T14:44:31Z</time>
      </trkpt>
      <trkpt lat="45.41125" lon="3.36832">
        <ele>431.8</ele>
        <time>2025-10-04T14:44:34Z</time>
      </trkpt>
      <trkpt lat="45.41118" lon="3.36829">
        <ele>431.6</ele>
        <time>2025-10-04T14:44:36Z</time>
      </trkpt>
      <trkpt lat="45.41115" lon="3.36826">
        <ele>431.2</ele>
        <time>2025-10-04T14:44:38Z</time>
      </trkpt>
      <trkpt lat="45.41115" lon="3.36823">
        <ele>431.2</ele>
        <time>2025-10-04T14:44:39Z</time>
      </trkpt>
      <trkpt lat="45.41112" lon="3.36818">
        <ele>430.2</ele>
        <time>2025-10-04T14:44:42Z</time>
      </trkpt>
      <trkpt lat="45.41111" lon="3.36817">
        <ele>430.2</ele>
        <time>2025-10-04T14:44:43Z</time>
      </trkpt>
      <trkpt lat="45.41108" lon="3.36815">
        <ele>430</ele>
        <time>2025-10-04T14:44:45Z</time>
      </trkpt>
      <trkpt lat="45.411" lon="3.36813">
        <ele>430</ele>
        <time>2025-10-04T14:44:48Z</time>
      </trkpt>
      <trkpt lat="45.41093" lon="3.36814">
        <ele>430</ele>
        <time>2025-10-04T14:44:51Z</time>
      </trkpt>
      <trkpt lat="45.41063" lon="3.36813">
        <ele>430</ele>
        <time>2025-10-04T14:44:56Z</time>
      </trkpt>
      <trkpt lat="45.41035" lon="3.36807">
        <ele>429.4</ele>
        <time>2025-10-04T14:45:02Z</time>
      </trkpt>
      <trkpt lat="45.41014" lon="3.36805">
        <ele>429.4</ele>
        <time>2025-10-04T14:45:07Z</time>
      </trkpt>
      <trkpt lat="45.40999" lon="3.36805">
        <ele>429.4</ele>
        <time>2025-10-04T14:45:11Z</time>
      </trkpt>
      <trkpt lat="45.40961" lon="3.36813">
        <ele>428.8</ele>
        <time>2025-10-04T14:45:17Z</time>
      </trkpt>
      <trkpt lat="45.4096" lon="3.3681">
        <ele>428.8</ele>
        <time>2025-10-04T14:45:18Z</time>
      </trkpt>
      <trkpt lat="45.40958" lon="3.36804">
        <ele>428.8</ele>
        <time>2025-10-04T14:45:20Z</time>
      </trkpt>
      <trkpt lat="45.40938" lon="3.36795">
        <ele>428.4</ele>
        <time>2025-10-04T14:45:25Z</time>
      </trkpt>
      <trkpt lat="45.40916" lon="3.36781">
        <ele>428.8</ele>
        <time>2025-10-04T14:45:30Z</time>
      </trkpt>
      <trkpt lat="45.40895" lon="3.36766">
        <ele>428.2</ele>
        <time>2025-10-04T14:45:35Z</time>
      </trkpt>
      <trkpt lat="45.40873" lon="3.36752">
        <ele>428</ele>
        <time>2025-10-04T14:45:41Z</time>
      </trkpt>
      <trkpt lat="45.40856" lon="3.36734">
        <ele>427.8</ele>
        <time>2025-10-04T14:45:46Z</time>
      </trkpt>
      <trkpt lat="45.40848" lon="3.36726">
        <ele>427.6</ele>
        <time>2025-10-04T14:45:48Z</time>
      </trkpt>
      <trkpt lat="45.40831" lon="3.36718">
        <ele>427.6</ele>
        <time>2025-10-04T14:45:50Z</time>
      </trkpt>
      <trkpt lat="45.40802" lon="3.36694">
        <ele>427.6</ele>
        <time>2025-10-04T14:45:56Z</time>
      </trkpt>
      <trkpt lat="45.40772" lon="3.36673">
        <ele>427</ele>
        <time>2025-10-04T14:46:02Z</time>
      </trkpt>
      <trkpt lat="45.40747" lon="3.3666">
        <ele>426.6</ele>
        <time>2025-10-04T14:46:06Z</time>
      </trkpt>
      <trkpt lat="45.40725" lon="3.36653">
        <ele>426</ele>
        <time>2025-10-04T14:46:10Z</time>
      </trkpt>
      <trkpt lat="45.40715" lon="3.36646">
        <ele>425.8</ele>
        <time>2025-10-04T14:46:12Z</time>
      </trkpt>
      <trkpt lat="45.40704" lon="3.36637">
        <ele>425.4</ele>
        <time>2025-10-04T14:46:15Z</time>
      </trkpt>
      <trkpt lat="45.407" lon="3.36629">
        <ele>425.4</ele>
        <time>2025-10-04T14:46:17Z</time>
      </trkpt>
      <trkpt lat="45.40689" lon="3.36614">
        <ele>425.4</ele>
        <time>2025-10-04T14:46:20Z</time>
      </trkpt>
      <trkpt lat="45.40679" lon="3.36608">
        <ele>425.4</ele>
        <time>2025-10-04T14:46:22Z</time>
      </trkpt>
      <trkpt lat="45.40665" lon="3.36601">
        <ele>425.4</ele>
        <time>2025-10-04T14:46:25Z</time>
      </trkpt>
      <trkpt lat="45.40627" lon="3.36586">
        <ele>424.6</ele>
        <time>2025-10-04T14:46:32Z</time>
      </trkpt>
      <trkpt lat="45.40616" lon="3.36582">
        <ele>424.2</ele>
        <time>2025-10-04T14:46:34Z</time>
      </trkpt>
      <trkpt lat="45.40604" lon="3.36579">
        <ele>424</ele>
        <time>2025-10-04T14:46:36Z</time>
      </trkpt>
      <trkpt lat="45.40593" lon="3.36576">
        <ele>423.8</ele>
        <time>2025-10-04T14:46:38Z</time>
      </trkpt>
      <trkpt lat="45.40568" lon="3.36566">
        <ele>423</ele>
        <time>2025-10-04T14:46:43Z</time>
      </trkpt>
      <trkpt lat="45.40561" lon="3.36562">
        <ele>422.8</ele>
        <time>2025-10-04T14:46:44Z</time>
      </trkpt>
      <trkpt lat="45.40557" lon="3.36558">
        <ele>422.6</ele>
        <time>2025-10-04T14:46:45Z</time>
      </trkpt>
      <trkpt lat="45.40538" lon="3.36542">
        <ele>422.2</ele>
        <time>2025-10-04T14:46:50Z</time>
      </trkpt>
      <trkpt lat="45.40529" lon="3.36535">
        <ele>422</ele>
        <time>2025-10-04T14:46:52Z</time>
      </trkpt>
      <trkpt lat="45.40524" lon="3.3653">
        <ele>422</ele>
        <time>2025-10-04T14:46:53Z</time>
      </trkpt>
      <trkpt lat="45.4052" lon="3.36525">
        <ele>422</ele>
        <time>2025-10-04T14:46:54Z</time>
      </trkpt>
      <trkpt lat="45.40509" lon="3.36506">
        <ele>421.6</ele>
        <time>2025-10-04T14:46:57Z</time>
      </trkpt>
      <trkpt lat="45.40505" lon="3.36492">
        <ele>421.4</ele>
        <time>2025-10-04T14:46:59Z</time>
      </trkpt>
      <trkpt lat="45.405" lon="3.36472">
        <ele>421.2</ele>
        <time>2025-10-04T14:47:02Z</time>
      </trkpt>
      <trkpt lat="45.40496" lon="3.36458">
        <ele>421.2</ele>
        <time>2025-10-04T14:47:04Z</time>
      </trkpt>
      <trkpt lat="45.40488" lon="3.36446">
        <ele>420.8</ele>
        <time>2025-10-04T14:47:06Z</time>
      </trkpt>
      <trkpt lat="45.40479" lon="3.36437">
        <ele>420.8</ele>
        <time>2025-10-04T14:47:08Z</time>
      </trkpt>
      <trkpt lat="45.40463" lon="3.36427">
        <ele>420.6</ele>
        <time>2025-10-04T14:47:11Z</time>
      </trkpt>
      <trkpt lat="45.40454" lon="3.36419">
        <ele>420.2</ele>
        <time>2025-10-04T14:47:13Z</time>
      </trkpt>
      <trkpt lat="45.40446" lon="3.36408">
        <ele>419.6</ele>
        <time>2025-10-04T14:47:15Z</time>
      </trkpt>
      <trkpt lat="45.40443" lon="3.36402">
        <ele>419.4</ele>
        <time>2025-10-04T14:47:16Z</time>
      </trkpt>
      <trkpt lat="45.40426" lon="3.36378">
        <ele>418.6</ele>
        <time>2025-10-04T14:47:21Z</time>
      </trkpt>
      <trkpt lat="45.40405" lon="3.36363">
        <ele>418.4</ele>
        <time>2025-10-04T14:47:25Z</time>
      </trkpt>
      <trkpt lat="45.40393" lon="3.36353">
        <ele>418.6</ele>
        <time>2025-10-04T14:47:29Z</time>
      </trkpt>
      <trkpt lat="45.40386" lon="3.36345">
        <ele>419.6</ele>
        <time>2025-10-04T14:47:32Z</time>
      </trkpt>
      <trkpt lat="45.40377" lon="3.36333">
        <ele>420.8</ele>
        <time>2025-10-04T14:47:35Z</time>
      </trkpt>
      <trkpt lat="45.40362" lon="3.36309">
        <ele>421.4</ele>
        <time>2025-10-04T14:47:41Z</time>
      </trkpt>
      <trkpt lat="45.40346" lon="3.36285">
        <ele>421.6</ele>
        <time>2025-10-04T14:47:46Z</time>
      </trkpt>
      <trkpt lat="45.40329" lon="3.36268">
        <ele>421.2</ele>
        <time>2025-10-04T14:47:51Z</time>
      </trkpt>
      <trkpt lat="45.40315" lon="3.36247">
        <ele>421.2</ele>
        <time>2025-10-04T14:47:57Z</time>
      </trkpt>
      <trkpt lat="45.40313" lon="3.36246">
        <ele>421.4</ele>
        <time>2025-10-04T14:47:58Z</time>
      </trkpt>
      <trkpt lat="45.40304" lon="3.36249">
        <ele>421.2</ele>
        <time>2025-10-04T14:48:01Z</time>
      </trkpt>
      <trkpt lat="45.40301" lon="3.3625">
        <ele>421.2</ele>
        <time>2025-10-04T14:48:02Z</time>
      </trkpt>
      <trkpt lat="45.40296" lon="3.36249">
        <ele>421</ele>
        <time>2025-10-04T14:48:04Z</time>
      </trkpt>
      <trkpt lat="45.40274" lon="3.36231">
        <ele>419.6</ele>
        <time>2025-10-04T14:48:09Z</time>
      </trkpt>
      <trkpt lat="45.40272" lon="3.36229">
        <ele>419</ele>
        <time>2025-10-04T14:48:10Z</time>
      </trkpt>
      <trkpt lat="45.4027" lon="3.36227">
        <ele>418.8</ele>
        <time>2025-10-04T14:48:11Z</time>
      </trkpt>
      <trkpt lat="45.40267" lon="3.36223">
        <ele>418.6</ele>
        <time>2025-10-04T14:48:13Z</time>
      </trkpt>
      <trkpt lat="45.40262" lon="3.36219">
        <ele>418.4</ele>
        <time>2025-10-04T14:48:16Z</time>
      </trkpt>
      <trkpt lat="45.4026" lon="3.36215">
        <ele>418.4</ele>
        <time>2025-10-04T14:48:17Z</time>
      </trkpt>
      <trkpt lat="45.40257" lon="3.36207">
        <ele>418.2</ele>
        <time>2025-10-04T14:48:20Z</time>
      </trkpt>
      <trkpt lat="45.40254" lon="3.36205">
        <ele>418.2</ele>
        <time>2025-10-04T14:48:21Z</time>
      </trkpt>
      <trkpt lat="45.4025" lon="3.36202">
        <ele>418.2</ele>
        <time>2025-10-04T14:48:22Z</time>
      </trkpt>
      <trkpt lat="45.40228" lon="3.3619">
        <ele>418</ele>
        <time>2025-10-04T14:48:27Z</time>
      </trkpt>
      <trkpt lat="45.40226" lon="3.36188">
        <ele>418</ele>
        <time>2025-10-04T14:48:28Z</time>
      </trkpt>
      <trkpt lat="45.40219" lon="3.36184">
        <ele>417.8</ele>
        <time>2025-10-04T14:48:30Z</time>
      </trkpt>
      <trkpt lat="45.40195" lon="3.36171">
        <ele>417.6</ele>
        <time>2025-10-04T14:48:34Z</time>
      </trkpt>
      <trkpt lat="45.40188" lon="3.36167">
        <ele>417.4</ele>
        <time>2025-10-04T14:48:35Z</time>
      </trkpt>
      <trkpt lat="45.40173" lon="3.36151">
        <ele>417</ele>
        <time>2025-10-04T14:48:39Z</time>
      </trkpt>
      <trkpt lat="45.40168" lon="3.36145">
        <ele>417</ele>
        <time>2025-10-04T14:48:40Z</time>
      </trkpt>
      <trkpt lat="45.40159" lon="3.36134">
        <ele>417</ele>
        <time>2025-10-04T14:48:42Z</time>
      </trkpt>
      <trkpt lat="45.40156" lon="3.36121">
        <ele>417</ele>
        <time>2025-10-04T14:48:45Z</time>
      </trkpt>
      <trkpt lat="45.40157" lon="3.36116">
        <ele>417</ele>
        <time>2025-10-04T14:48:46Z</time>
      </trkpt>
      <trkpt lat="45.40154" lon="3.36106">
        <ele>417.2</ele>
        <time>2025-10-04T14:48:48Z</time>
      </trkpt>
      <trkpt lat="45.40148" lon="3.36092">
        <ele>417.4</ele>
        <time>2025-10-04T14:48:51Z</time>
      </trkpt>
      <trkpt lat="45.40144" lon="3.3608">
        <ele>418</ele>
        <time>2025-10-04T14:48:54Z</time>
      </trkpt>
      <trkpt lat="45.40141" lon="3.36068">
        <ele>418</ele>
        <time>2025-10-04T14:48:56Z</time>
      </trkpt>
      <trkpt lat="45.4014" lon="3.3605">
        <ele>418.2</ele>
        <time>2025-10-04T14:49:00Z</time>
      </trkpt>
      <trkpt lat="45.40137" lon="3.36039">
        <ele>418.2</ele>
        <time>2025-10-04T14:49:02Z</time>
      </trkpt>
      <trkpt lat="45.40125" lon="3.36006">
        <ele>417.4</ele>
        <time>2025-10-04T14:49:07Z</time>
      </trkpt>
      <trkpt lat="45.40113" lon="3.35977">
        <ele>416.8</ele>
        <time>2025-10-04T14:49:12Z</time>
      </trkpt>
      <trkpt lat="45.40108" lon="3.35955">
        <ele>416.6</ele>
        <time>2025-10-04T14:49:16Z</time>
      </trkpt>
      <trkpt lat="45.40098" lon="3.35932">
        <ele>416.6</ele>
        <time>2025-10-04T14:49:20Z</time>
      </trkpt>
      <trkpt lat="45.40099" lon="3.35928">
        <ele>416.6</ele>
        <time>2025-10-04T14:49:21Z</time>
      </trkpt>
      <trkpt lat="45.40097" lon="3.35917">
        <ele>416.6</ele>
        <time>2025-10-04T14:49:23Z</time>
      </trkpt>
      <trkpt lat="45.40092" lon="3.35908">
        <ele>416.6</ele>
        <time>2025-10-04T14:49:24Z</time>
      </trkpt>
      <trkpt lat="45.40085" lon="3.35889">
        <ele>416.6</ele>
        <time>2025-10-04T14:49:27Z</time>
      </trkpt>
      <trkpt lat="45.40085" lon="3.35885">
        <ele>416.4</ele>
        <time>2025-10-04T14:49:28Z</time>
      </trkpt>
      <trkpt lat="45.40076" lon="3.35871">
        <ele>416.4</ele>
        <time>2025-10-04T14:49:30Z</time>
      </trkpt>
      <trkpt lat="45.40071" lon="3.35864">
        <ele>416.2</ele>
        <time>2025-10-04T14:49:31Z</time>
      </trkpt>
      <trkpt lat="45.4006" lon="3.35841">
        <ele>416</ele>
        <time>2025-10-04T14:49:35Z</time>
      </trkpt>
      <trkpt lat="45.40057" lon="3.35796">
        <ele>416.4</ele>
        <time>2025-10-04T14:49:42Z</time>
      </trkpt>
      <trkpt lat="45.40058" lon="3.35753">
        <ele>416.2</ele>
        <time>2025-10-04T14:49:48Z</time>
      </trkpt>
      <trkpt lat="45.40054" lon="3.3573">
        <ele>416.2</ele>
        <time>2025-10-04T14:49:52Z</time>
      </trkpt>
      <trkpt lat="45.40054" lon="3.35707">
        <ele>416</ele>
        <time>2025-10-04T14:49:56Z</time>
      </trkpt>
      <trkpt lat="45.40055" lon="3.35701">
        <ele>416</ele>
        <time>2025-10-04T14:49:57Z</time>
      </trkpt>
      <trkpt lat="45.40052" lon="3.3567">
        <ele>416</ele>
        <time>2025-10-04T14:50:02Z</time>
      </trkpt>
      <trkpt lat="45.4005" lon="3.35663">
        <ele>416</ele>
        <time>2025-10-04T14:50:03Z</time>
      </trkpt>
      <trkpt lat="45.40046" lon="3.35649">
        <ele>416</ele>
        <time>2025-10-04T14:50:05Z</time>
      </trkpt>
      <trkpt lat="45.40043" lon="3.35645">
        <ele>416</ele>
        <time>2025-10-04T14:50:06Z</time>
      </trkpt>
      <trkpt lat="45.40029" lon="3.35632">
        <ele>415.6</ele>
        <time>2025-10-04T14:50:10Z</time>
      </trkpt>
      <trkpt lat="45.40017" lon="3.35602">
        <ele>415.8</ele>
        <time>2025-10-04T14:50:15Z</time>
      </trkpt>
      <trkpt lat="45.39998" lon="3.35576">
        <ele>415.6</ele>
        <time>2025-10-04T14:50:19Z</time>
      </trkpt>
      <trkpt lat="45.39993" lon="3.35571">
        <ele>415.6</ele>
        <time>2025-10-04T14:50:20Z</time>
      </trkpt>
      <trkpt lat="45.39983" lon="3.35554">
        <ele>414.6</ele>
        <time>2025-10-04T14:50:23Z</time>
      </trkpt>
      <trkpt lat="45.39977" lon="3.35541">
        <ele>413.4</ele>
        <time>2025-10-04T14:50:25Z</time>
      </trkpt>
      <trkpt lat="45.39974" lon="3.35536">
        <ele>413</ele>
        <time>2025-10-04T14:50:26Z</time>
      </trkpt>
      <trkpt lat="45.39972" lon="3.35532">
        <ele>413</ele>
        <time>2025-10-04T14:50:27Z</time>
      </trkpt>
      <trkpt lat="45.39969" lon="3.35515">
        <ele>412.8</ele>
        <time>2025-10-04T14:50:31Z</time>
      </trkpt>
      <trkpt lat="45.39962" lon="3.35497">
        <ele>413</ele>
        <time>2025-10-04T14:50:36Z</time>
      </trkpt>
      <trkpt lat="45.39957" lon="3.35486">
        <ele>413.6</ele>
        <time>2025-10-04T14:50:40Z</time>
      </trkpt>
      <trkpt lat="45.39955" lon="3.35482">
        <ele>413.6</ele>
        <time>2025-10-04T14:50:41Z</time>
      </trkpt>
      <trkpt lat="45.39946" lon="3.35465">
        <ele>414.2</ele>
        <time>2025-10-04T14:50:47Z</time>
      </trkpt>
      <trkpt lat="45.39948" lon="3.35456">
        <ele>414.4</ele>
        <time>2025-10-04T14:50:50Z</time>
      </trkpt>
      <trkpt lat="45.3995" lon="3.35446">
        <ele>414.6</ele>
        <time>2025-10-04T14:50:53Z</time>
      </trkpt>
      <trkpt lat="45.39949" lon="3.35425">
        <ele>415.4</ele>
        <time>2025-10-04T14:51:00Z</time>
      </trkpt>
      <trkpt lat="45.3995" lon="3.35422">
        <ele>415.6</ele>
        <time>2025-10-04T14:51:01Z</time>
      </trkpt>
      <trkpt lat="45.39956" lon="3.35399">
        <ele>416.6</ele>
        <time>2025-10-04T14:51:09Z</time>
      </trkpt>
      <trkpt lat="45.3996" lon="3.35381">
        <ele>417.6</ele>
        <time>2025-10-04T14:51:16Z</time>
      </trkpt>
      <trkpt lat="45.39961" lon="3.35379">
        <ele>417.8</ele>
        <time>2025-10-04T14:51:17Z</time>
      </trkpt>
      <trkpt lat="45.39965" lon="3.3536">
        <ele>418.8</ele>
        <time>2025-10-04T14:51:24Z</time>
      </trkpt>
      <trkpt lat="45.39966" lon="3.35354">
        <ele>419.2</ele>
        <time>2025-10-04T14:51:26Z</time>
      </trkpt>
      <trkpt lat="45.39969" lon="3.35336">
        <ele>419.8</ele>
        <time>2025-10-04T14:51:33Z</time>
      </trkpt>
      <trkpt lat="45.39971" lon="3.35317">
        <ele>420.8</ele>
        <time>2025-10-04T14:51:40Z</time>
      </trkpt>
      <trkpt lat="45.39971" lon="3.35314">
        <ele>420.8</ele>
        <time>2025-10-04T14:51:41Z</time>
      </trkpt>
      <trkpt lat="45.39971" lon="3.35293">
        <ele>421.6</ele>
        <time>2025-10-04T14:51:47Z</time>
      </trkpt>
      <trkpt lat="45.39975" lon="3.35282">
        <ele>422</ele>
        <time>2025-10-04T14:51:50Z</time>
      </trkpt>
      <trkpt lat="45.39977" lon="3.35268">
        <ele>422.4</ele>
        <time>2025-10-04T14:51:54Z</time>
      </trkpt>
      <trkpt lat="45.39978" lon="3.35251">
        <ele>423</ele>
        <time>2025-10-04T14:51:59Z</time>
      </trkpt>
      <trkpt lat="45.39979" lon="3.35248">
        <ele>423.2</ele>
        <time>2025-10-04T14:52:00Z</time>
      </trkpt>
      <trkpt lat="45.39983" lon="3.35234">
        <ele>424.2</ele>
        <time>2025-10-04T14:52:05Z</time>
      </trkpt>
      <trkpt lat="45.39985" lon="3.35228">
        <ele>424.4</ele>
        <time>2025-10-04T14:52:07Z</time>
      </trkpt>
      <trkpt lat="45.39991" lon="3.35211">
        <ele>425.2</ele>
        <time>2025-10-04T14:52:13Z</time>
      </trkpt>
      <trkpt lat="45.39997" lon="3.35191">
        <ele>426.4</ele>
        <time>2025-10-04T14:52:20Z</time>
      </trkpt>
      <trkpt lat="45.39998" lon="3.35188">
        <ele>426.4</ele>
        <time>2025-10-04T14:52:21Z</time>
      </trkpt>
      <trkpt lat="45.40002" lon="3.35166">
        <ele>427.4</ele>
        <time>2025-10-04T14:52:28Z</time>
      </trkpt>
      <trkpt lat="45.40002" lon="3.35163">
        <ele>427.6</ele>
        <time>2025-10-04T14:52:29Z</time>
      </trkpt>
      <trkpt lat="45.40005" lon="3.35145">
        <ele>428.4</ele>
        <time>2025-10-04T14:52:36Z</time>
      </trkpt>
      <trkpt lat="45.40006" lon="3.35142">
        <ele>428.4</ele>
        <time>2025-10-04T14:52:37Z</time>
      </trkpt>
      <trkpt lat="45.40009" lon="3.35125">
        <ele>429.2</ele>
        <time>2025-10-04T14:52:43Z</time>
      </trkpt>
      <trkpt lat="45.40011" lon="3.35118">
        <ele>429.4</ele>
        <time>2025-10-04T14:52:46Z</time>
      </trkpt>
      <trkpt lat="45.40014" lon="3.35099">
        <ele>430.6</ele>
        <time>2025-10-04T14:52:52Z</time>
      </trkpt>
      <trkpt lat="45.40014" lon="3.35096">
        <ele>430.6</ele>
        <time>2025-10-04T14:52:53Z</time>
      </trkpt>
      <trkpt lat="45.40018" lon="3.35079">
        <ele>431.4</ele>
        <time>2025-10-04T14:52:59Z</time>
      </trkpt>
      <trkpt lat="45.40018" lon="3.35076">
        <ele>431.6</ele>
        <time>2025-10-04T14:53:00Z</time>
      </trkpt>
      <trkpt lat="45.40021" lon="3.35057">
        <ele>432.8</ele>
        <time>2025-10-04T14:53:06Z</time>
      </trkpt>
      <trkpt lat="45.4002" lon="3.35054">
        <ele>433</ele>
        <time>2025-10-04T14:53:07Z</time>
      </trkpt>
      <trkpt lat="45.40019" lon="3.35038">
        <ele>434</ele>
        <time>2025-10-04T14:53:12Z</time>
      </trkpt>
      <trkpt lat="45.40017" lon="3.35023">
        <ele>434.8</ele>
        <time>2025-10-04T14:53:17Z</time>
      </trkpt>
      <trkpt lat="45.40016" lon="3.35018">
        <ele>435</ele>
        <time>2025-10-04T14:53:19Z</time>
      </trkpt>
      <trkpt lat="45.40011" lon="3.35004">
        <ele>435.4</ele>
        <time>2025-10-04T14:53:24Z</time>
      </trkpt>
      <trkpt lat="45.40007" lon="3.34987">
        <ele>436.2</ele>
        <time>2025-10-04T14:53:30Z</time>
      </trkpt>
      <trkpt lat="45.40006" lon="3.34979">
        <ele>436.6</ele>
        <time>2025-10-04T14:53:33Z</time>
      </trkpt>
      <trkpt lat="45.40005" lon="3.34976">
        <ele>436.8</ele>
        <time>2025-10-04T14:53:34Z</time>
      </trkpt>
      <trkpt lat="45.40005" lon="3.3497">
        <ele>437.4</ele>
        <time>2025-10-04T14:53:36Z</time>
      </trkpt>
      <trkpt lat="45.4001" lon="3.34946">
        <ele>438.2</ele>
        <time>2025-10-04T14:53:44Z</time>
      </trkpt>
      <trkpt lat="45.40013" lon="3.34939">
        <ele>438.6</ele>
        <time>2025-10-04T14:53:47Z</time>
      </trkpt>
      <trkpt lat="45.40018" lon="3.34929">
        <ele>439</ele>
        <time>2025-10-04T14:53:51Z</time>
      </trkpt>
      <trkpt lat="45.40026" lon="3.34919">
        <ele>439.8</ele>
        <time>2025-10-04T14:53:56Z</time>
      </trkpt>
      <trkpt lat="45.40028" lon="3.34914">
        <ele>440.4</ele>
        <time>2025-10-04T14:53:58Z</time>
      </trkpt>
      <trkpt lat="45.40035" lon="3.34904">
        <ele>441</ele>
        <time>2025-10-04T14:54:03Z</time>
      </trkpt>
      <trkpt lat="45.40041" lon="3.34896">
        <ele>441.4</ele>
        <time>2025-10-04T14:54:07Z</time>
      </trkpt>
      <trkpt lat="45.4005" lon="3.34884">
        <ele>442</ele>
        <time>2025-10-04T14:54:13Z</time>
      </trkpt>
      <trkpt lat="45.40056" lon="3.34879">
        <ele>442.2</ele>
        <time>2025-10-04T14:54:16Z</time>
      </trkpt>
      <trkpt lat="45.40063" lon="3.34873">
        <ele>443</ele>
        <time>2025-10-04T14:54:20Z</time>
      </trkpt>
      <trkpt lat="45.4007" lon="3.34867">
        <ele>443.4</ele>
        <time>2025-10-04T14:54:24Z</time>
      </trkpt>
      <trkpt lat="45.40079" lon="3.34861">
        <ele>444</ele>
        <time>2025-10-04T14:54:29Z</time>
      </trkpt>
      <trkpt lat="45.40084" lon="3.34859">
        <ele>444.2</ele>
        <time>2025-10-04T14:54:31Z</time>
      </trkpt>
      <trkpt lat="45.40085" lon="3.34857">
        <ele>444.4</ele>
        <time>2025-10-04T14:54:32Z</time>
      </trkpt>
      <trkpt lat="45.40085" lon="3.34856">
        <ele>444.6</ele>
        <time>2025-10-04T14:54:34Z</time>
      </trkpt>
      <trkpt lat="45.40082" lon="3.34856">
        <ele>444.8</ele>
        <time>2025-10-04T14:54:36Z</time>
      </trkpt>
      <trkpt lat="45.4008" lon="3.34859">
        <ele>444.8</ele>
        <time>2025-10-04T14:54:38Z</time>
      </trkpt>
      <trkpt lat="45.40082" lon="3.34859">
        <ele>445</ele>
        <time>2025-10-04T14:59:07Z</time>
      </trkpt>
      <trkpt lat="45.40084" lon="3.34858">
        <ele>445</ele>
        <time>2025-10-04T14:59:08Z</time>
      </trkpt>
      <trkpt lat="45.40087" lon="3.34856">
        <ele>445</ele>
        <time>2025-10-04T14:59:10Z</time>
      </trkpt>
      <trkpt lat="45.40096" lon="3.3485">
        <ele>445.4</ele>
        <time>2025-10-04T14:59:14Z</time>
      </trkpt>
      <trkpt lat="45.40098" lon="3.34849">
        <ele>445.4</ele>
        <time>2025-10-04T14:59:15Z</time>
      </trkpt>
      <trkpt lat="45.40105" lon="3.34845">
        <ele>445.8</ele>
        <time>2025-10-04T14:59:18Z</time>
      </trkpt>
      <trkpt lat="45.40117" lon="3.34838">
        <ele>446.4</ele>
        <time>2025-10-04T14:59:24Z</time>
      </trkpt>
      <trkpt lat="45.40121" lon="3.34835">
        <ele>446.6</ele>
        <time>2025-10-04T14:59:26Z</time>
      </trkpt>
      <trkpt lat="45.40129" lon="3.3483">
        <ele>447.6</ele>
        <time>2025-10-04T14:59:30Z</time>
      </trkpt>
      <trkpt lat="45.40135" lon="3.34827">
        <ele>448</ele>
        <time>2025-10-04T14:59:33Z</time>
      </trkpt>
      <trkpt lat="45.40143" lon="3.34823">
        <ele>448.6</ele>
        <time>2025-10-04T14:59:37Z</time>
      </trkpt>
      <trkpt lat="45.40153" lon="3.34817">
        <ele>449.2</ele>
        <time>2025-10-04T14:59:42Z</time>
      </trkpt>
      <trkpt lat="45.40161" lon="3.34808">
        <ele>459</ele>
      </trkpt>
      <trkpt lat="45.40166" lon="3.34806">
        <ele>459</ele>
      </trkpt>
      <trkpt lat="45.40168" lon="3.34802">
        <ele>459</ele>
      </trkpt>
      <trkpt lat="45.40167" lon="3.34786">
        <ele>458.3</ele>
      </trkpt>
      <trkpt lat="45.40171" lon="3.34775">
        <ele>458.4</ele>
      </trkpt>
      <trkpt lat="45.4022" lon="3.34678">
        <ele>453.9</ele>
      </trkpt>
      <trkpt lat="45.40242" lon="3.34635">
        <ele>452.1</ele>
      </trkpt>
      <trkpt lat="45.40255" lon="3.34626">
        <ele>452.4</ele>
      </trkpt>
      <trkpt lat="45.40293" lon="3.34598">
        <ele>452.9</ele>
      </trkpt>
      <trkpt lat="45.40305" lon="3.34589">
        <ele>452.6</ele>
      </trkpt>
      <trkpt lat="45.40311" lon="3.34584">
        <ele>452.7</ele>
      </trkpt>
      <trkpt lat="45.40315" lon="3.34578">
        <ele>452.6</ele>
      </trkpt>
      <trkpt lat="45.40323" lon="3.34564">
        <ele>452</ele>
      </trkpt>
      <trkpt lat="45.40327" lon="3.34553">
        <ele>451.5</ele>
      </trkpt>
      <trkpt lat="45.40328" lon="3.34538">
        <ele>451.4</ele>
        <time>2025-10-04T14:59:43Z</time>
      </trkpt>
    </trkseg>
  </trk>
</gpx>